<?xml version="1.0" encoding="UTF-8"?>
<gpx version="1.1" creator="https://www.youtrack.es" xsi:schemaLocation="http://www.topografix.com/GPX/1/1 http://www.topografix.com/GPX/1/1/gpx.xsd http://www.garmin.com/xmlschemas/GpxExtensions/v3 http://www.garmin.com/xmlschemas/GpxExtensionsv3.xsd http://www.garmin.com/xmlschemas/TrackPointExtension/v1 http://www.garmin.com/xmlschemas/TrackPointExtensionv1.xsd" xmlns:gpxtpx="http://www.garmin.com/xmlschemas/TrackPointExtension/v1" xmlns:gpxx="http://www.garmin.com/xmlschemas/GpxExtensions/v3" xmlns:xsi="http://www.w3.org/2001/XMLSchema-instance">
  <metadata>
    <author>
      <name>Luis Cortés</name>
      <email id="luismiasin" domain="gmail.com"/>
    </author>
    <link href="https://www.youtrack.es">
      <text>YouTrack.es</text>
    </link>
    <time>2026-05-08T21:15:39Z</time>
  </metadata>
  <trk>
    <src>https://www.youtrack.es</src>
    <link href="https://www.youtrack.es/ruta/16656-142-1-teide-desde-el-norte-espectacular">
      <text>YouTrack.es</text>
    </link>
    <trkseg>
      <trkpt lat="28.4166470" lon="-16.5406430">
        <ele>218.0</ele>
        <time>2020-10-16T09:17:34Z</time>
      </trkpt>
      <trkpt lat="28.4166260" lon="-16.5405870">
        <ele>218.6</ele>
        <time>2020-10-16T09:17:35Z</time>
      </trkpt>
      <trkpt lat="28.4166090" lon="-16.5405320">
        <ele>219.0</ele>
        <time>2020-10-16T09:17:36Z</time>
      </trkpt>
      <trkpt lat="28.4165940" lon="-16.5404770">
        <ele>219.4</ele>
        <time>2020-10-16T09:17:37Z</time>
      </trkpt>
      <trkpt lat="28.4165780" lon="-16.5404240">
        <ele>219.6</ele>
        <time>2020-10-16T09:17:38Z</time>
      </trkpt>
      <trkpt lat="28.4165630" lon="-16.5403700">
        <ele>220.0</ele>
        <time>2020-10-16T09:17:39Z</time>
      </trkpt>
      <trkpt lat="28.4165500" lon="-16.5403170">
        <ele>220.8</ele>
        <time>2020-10-16T09:17:40Z</time>
      </trkpt>
      <trkpt lat="28.4165310" lon="-16.5401660">
        <ele>221.8</ele>
        <time>2020-10-16T09:17:43Z</time>
      </trkpt>
      <trkpt lat="28.4165260" lon="-16.5400260">
        <ele>222.8</ele>
        <time>2020-10-16T09:17:46Z</time>
      </trkpt>
      <trkpt lat="28.4165330" lon="-16.5398870">
        <ele>223.6</ele>
        <time>2020-10-16T09:17:49Z</time>
      </trkpt>
      <trkpt lat="28.4165460" lon="-16.5397500">
        <ele>222.6</ele>
        <time>2020-10-16T09:17:52Z</time>
      </trkpt>
      <trkpt lat="28.4165930" lon="-16.5394860">
        <ele>223.6</ele>
        <time>2020-10-16T09:17:58Z</time>
      </trkpt>
      <trkpt lat="28.4166200" lon="-16.5393390">
        <ele>224.6</ele>
        <time>2020-10-16T09:18:02Z</time>
      </trkpt>
      <trkpt lat="28.4166660" lon="-16.5391700">
        <ele>225.8</ele>
        <time>2020-10-16T09:18:06Z</time>
      </trkpt>
      <trkpt lat="28.4167230" lon="-16.5389760">
        <ele>226.8</ele>
        <time>2020-10-16T09:18:11Z</time>
      </trkpt>
      <trkpt lat="28.4167610" lon="-16.5388580">
        <ele>228.2</ele>
        <time>2020-10-16T09:18:14Z</time>
      </trkpt>
      <trkpt lat="28.4168050" lon="-16.5387470">
        <ele>229.2</ele>
        <time>2020-10-16T09:18:17Z</time>
      </trkpt>
      <trkpt lat="28.4168940" lon="-16.5385010">
        <ele>230.6</ele>
        <time>2020-10-16T09:18:23Z</time>
      </trkpt>
      <trkpt lat="28.4169060" lon="-16.5383460">
        <ele>231.6</ele>
        <time>2020-10-16T09:18:27Z</time>
      </trkpt>
      <trkpt lat="28.4168420" lon="-16.5381770">
        <ele>232.8</ele>
        <time>2020-10-16T09:18:32Z</time>
      </trkpt>
      <trkpt lat="28.4168140" lon="-16.5380790">
        <ele>234.0</ele>
        <time>2020-10-16T09:18:35Z</time>
      </trkpt>
      <trkpt lat="28.4167270" lon="-16.5378640">
        <ele>235.0</ele>
        <time>2020-10-16T09:18:41Z</time>
      </trkpt>
      <trkpt lat="28.4166950" lon="-16.5377190">
        <ele>236.2</ele>
        <time>2020-10-16T09:18:45Z</time>
      </trkpt>
      <trkpt lat="28.4167020" lon="-16.5376020">
        <ele>237.4</ele>
        <time>2020-10-16T09:18:48Z</time>
      </trkpt>
      <trkpt lat="28.4167140" lon="-16.5374060">
        <ele>238.4</ele>
        <time>2020-10-16T09:18:53Z</time>
      </trkpt>
      <trkpt lat="28.4167540" lon="-16.5372860">
        <ele>239.6</ele>
        <time>2020-10-16T09:18:56Z</time>
      </trkpt>
      <trkpt lat="28.4169280" lon="-16.5370030">
        <ele>240.8</ele>
        <time>2020-10-16T09:19:03Z</time>
      </trkpt>
      <trkpt lat="28.4170260" lon="-16.5367740">
        <ele>242.0</ele>
        <time>2020-10-16T09:19:08Z</time>
      </trkpt>
      <trkpt lat="28.4170150" lon="-16.5366220">
        <ele>242.6</ele>
        <time>2020-10-16T09:19:11Z</time>
      </trkpt>
      <trkpt lat="28.4166570" lon="-16.5366660">
        <ele>243.2</ele>
        <time>2020-10-16T09:19:13Z</time>
      </trkpt>
      <trkpt lat="28.4165000" lon="-16.5366290">
        <ele>243.4</ele>
        <time>2020-10-16T09:19:15Z</time>
      </trkpt>
      <trkpt lat="28.4165310" lon="-16.5362870">
        <ele>243.8</ele>
        <time>2020-10-16T09:19:21Z</time>
      </trkpt>
      <trkpt lat="28.4165270" lon="-16.5361830">
        <ele>243.8</ele>
        <time>2020-10-16T09:19:23Z</time>
      </trkpt>
      <trkpt lat="28.4165300" lon="-16.5360340">
        <ele>244.0</ele>
        <time>2020-10-16T09:19:26Z</time>
      </trkpt>
      <trkpt lat="28.4165590" lon="-16.5358270">
        <ele>244.0</ele>
        <time>2020-10-16T09:19:30Z</time>
      </trkpt>
      <trkpt lat="28.4166110" lon="-16.5352950">
        <ele>244.0</ele>
        <time>2020-10-16T09:19:40Z</time>
      </trkpt>
      <trkpt lat="28.4166460" lon="-16.5350080">
        <ele>244.2</ele>
        <time>2020-10-16T09:19:45Z</time>
      </trkpt>
      <trkpt lat="28.4166520" lon="-16.5347100">
        <ele>244.6</ele>
        <time>2020-10-16T09:19:50Z</time>
      </trkpt>
      <trkpt lat="28.4166150" lon="-16.5344760">
        <ele>244.6</ele>
        <time>2020-10-16T09:19:54Z</time>
      </trkpt>
      <trkpt lat="28.4165400" lon="-16.5341390">
        <ele>244.8</ele>
        <time>2020-10-16T09:20:00Z</time>
      </trkpt>
      <trkpt lat="28.4164580" lon="-16.5337540">
        <ele>245.0</ele>
        <time>2020-10-16T09:20:07Z</time>
      </trkpt>
      <trkpt lat="28.4164330" lon="-16.5336490">
        <ele>245.2</ele>
        <time>2020-10-16T09:20:09Z</time>
      </trkpt>
      <trkpt lat="28.4163730" lon="-16.5333670">
        <ele>246.2</ele>
        <time>2020-10-16T09:20:15Z</time>
      </trkpt>
      <trkpt lat="28.4163480" lon="-16.5331950">
        <ele>247.2</ele>
        <time>2020-10-16T09:20:19Z</time>
      </trkpt>
      <trkpt lat="28.4163350" lon="-16.5330290">
        <ele>248.6</ele>
        <time>2020-10-16T09:20:23Z</time>
      </trkpt>
      <trkpt lat="28.4163350" lon="-16.5328650">
        <ele>249.8</ele>
        <time>2020-10-16T09:20:27Z</time>
      </trkpt>
      <trkpt lat="28.4163440" lon="-16.5327020">
        <ele>250.8</ele>
        <time>2020-10-16T09:20:31Z</time>
      </trkpt>
      <trkpt lat="28.4163860" lon="-16.5324570">
        <ele>252.2</ele>
        <time>2020-10-16T09:20:37Z</time>
      </trkpt>
      <trkpt lat="28.4164240" lon="-16.5322980">
        <ele>253.2</ele>
        <time>2020-10-16T09:20:41Z</time>
      </trkpt>
      <trkpt lat="28.4164830" lon="-16.5321040">
        <ele>254.4</ele>
        <time>2020-10-16T09:20:46Z</time>
      </trkpt>
      <trkpt lat="28.4165480" lon="-16.5319110">
        <ele>255.6</ele>
        <time>2020-10-16T09:20:51Z</time>
      </trkpt>
      <trkpt lat="28.4165980" lon="-16.5317640">
        <ele>256.6</ele>
        <time>2020-10-16T09:20:55Z</time>
      </trkpt>
      <trkpt lat="28.4166580" lon="-16.5315760">
        <ele>257.6</ele>
        <time>2020-10-16T09:21:00Z</time>
      </trkpt>
      <trkpt lat="28.4167080" lon="-16.5314270">
        <ele>258.8</ele>
        <time>2020-10-16T09:21:04Z</time>
      </trkpt>
      <trkpt lat="28.4167690" lon="-16.5312430">
        <ele>260.0</ele>
        <time>2020-10-16T09:21:09Z</time>
      </trkpt>
      <trkpt lat="28.4168280" lon="-16.5310580">
        <ele>261.2</ele>
        <time>2020-10-16T09:21:14Z</time>
      </trkpt>
      <trkpt lat="28.4168710" lon="-16.5308720">
        <ele>262.4</ele>
        <time>2020-10-16T09:21:19Z</time>
      </trkpt>
      <trkpt lat="28.4168980" lon="-16.5306820">
        <ele>263.6</ele>
        <time>2020-10-16T09:21:24Z</time>
      </trkpt>
      <trkpt lat="28.4169180" lon="-16.5304880">
        <ele>264.8</ele>
        <time>2020-10-16T09:21:29Z</time>
      </trkpt>
      <trkpt lat="28.4169200" lon="-16.5303320">
        <ele>265.8</ele>
        <time>2020-10-16T09:21:33Z</time>
      </trkpt>
      <trkpt lat="28.4169150" lon="-16.5301870">
        <ele>267.0</ele>
        <time>2020-10-16T09:21:37Z</time>
      </trkpt>
      <trkpt lat="28.4169140" lon="-16.5301490">
        <ele>267.2</ele>
        <time>2020-10-16T09:21:38Z</time>
      </trkpt>
      <trkpt lat="28.4168990" lon="-16.5300040">
        <ele>268.0</ele>
        <time>2020-10-16T09:21:42Z</time>
      </trkpt>
      <trkpt lat="28.4168800" lon="-16.5298530">
        <ele>269.0</ele>
        <time>2020-10-16T09:21:46Z</time>
      </trkpt>
      <trkpt lat="28.4168730" lon="-16.5298180">
        <ele>269.2</ele>
        <time>2020-10-16T09:21:47Z</time>
      </trkpt>
      <trkpt lat="28.4168380" lon="-16.5296760">
        <ele>270.0</ele>
        <time>2020-10-16T09:21:51Z</time>
      </trkpt>
      <trkpt lat="28.4168240" lon="-16.5296420">
        <ele>270.2</ele>
        <time>2020-10-16T09:21:52Z</time>
      </trkpt>
      <trkpt lat="28.4167590" lon="-16.5294740">
        <ele>271.4</ele>
        <time>2020-10-16T09:21:57Z</time>
      </trkpt>
      <trkpt lat="28.4166820" lon="-16.5293110">
        <ele>272.6</ele>
        <time>2020-10-16T09:22:02Z</time>
      </trkpt>
      <trkpt lat="28.4166100" lon="-16.5291860">
        <ele>273.8</ele>
        <time>2020-10-16T09:22:06Z</time>
      </trkpt>
      <trkpt lat="28.4165300" lon="-16.5290700">
        <ele>274.8</ele>
        <time>2020-10-16T09:22:10Z</time>
      </trkpt>
      <trkpt lat="28.4164200" lon="-16.5289370">
        <ele>276.0</ele>
        <time>2020-10-16T09:22:15Z</time>
      </trkpt>
      <trkpt lat="28.4163060" lon="-16.5288080">
        <ele>277.0</ele>
        <time>2020-10-16T09:22:20Z</time>
      </trkpt>
      <trkpt lat="28.4161790" lon="-16.5286960">
        <ele>278.2</ele>
        <time>2020-10-16T09:22:25Z</time>
      </trkpt>
      <trkpt lat="28.4160430" lon="-16.5285930">
        <ele>279.2</ele>
        <time>2020-10-16T09:22:30Z</time>
      </trkpt>
      <trkpt lat="28.4159280" lon="-16.5285180">
        <ele>280.2</ele>
        <time>2020-10-16T09:22:34Z</time>
      </trkpt>
      <trkpt lat="28.4158080" lon="-16.5284500">
        <ele>281.4</ele>
        <time>2020-10-16T09:22:38Z</time>
      </trkpt>
      <trkpt lat="28.4156810" lon="-16.5283930">
        <ele>282.4</ele>
        <time>2020-10-16T09:22:42Z</time>
      </trkpt>
      <trkpt lat="28.4155510" lon="-16.5283470">
        <ele>283.4</ele>
        <time>2020-10-16T09:22:46Z</time>
      </trkpt>
      <trkpt lat="28.4154170" lon="-16.5283110">
        <ele>284.6</ele>
        <time>2020-10-16T09:22:50Z</time>
      </trkpt>
      <trkpt lat="28.4152440" lon="-16.5282830">
        <ele>285.6</ele>
        <time>2020-10-16T09:22:55Z</time>
      </trkpt>
      <trkpt lat="28.4150680" lon="-16.5282680">
        <ele>286.6</ele>
        <time>2020-10-16T09:23:00Z</time>
      </trkpt>
      <trkpt lat="28.4148930" lon="-16.5282790">
        <ele>287.8</ele>
        <time>2020-10-16T09:23:05Z</time>
      </trkpt>
      <trkpt lat="28.4147210" lon="-16.5283020">
        <ele>288.8</ele>
        <time>2020-10-16T09:23:10Z</time>
      </trkpt>
      <trkpt lat="28.4145840" lon="-16.5283330">
        <ele>290.0</ele>
        <time>2020-10-16T09:23:14Z</time>
      </trkpt>
      <trkpt lat="28.4144520" lon="-16.5283780">
        <ele>291.0</ele>
        <time>2020-10-16T09:23:18Z</time>
      </trkpt>
      <trkpt lat="28.4143250" lon="-16.5284340">
        <ele>292.0</ele>
        <time>2020-10-16T09:23:22Z</time>
      </trkpt>
      <trkpt lat="28.4141980" lon="-16.5284920">
        <ele>293.0</ele>
        <time>2020-10-16T09:23:26Z</time>
      </trkpt>
      <trkpt lat="28.4140740" lon="-16.5285560">
        <ele>294.2</ele>
        <time>2020-10-16T09:23:30Z</time>
      </trkpt>
      <trkpt lat="28.4139170" lon="-16.5286350">
        <ele>295.4</ele>
        <time>2020-10-16T09:23:35Z</time>
      </trkpt>
      <trkpt lat="28.4137490" lon="-16.5287080">
        <ele>296.4</ele>
        <time>2020-10-16T09:23:40Z</time>
      </trkpt>
      <trkpt lat="28.4135560" lon="-16.5288100">
        <ele>297.6</ele>
        <time>2020-10-16T09:23:46Z</time>
      </trkpt>
      <trkpt lat="28.4134280" lon="-16.5288790">
        <ele>298.6</ele>
        <time>2020-10-16T09:23:50Z</time>
      </trkpt>
      <trkpt lat="28.4132330" lon="-16.5289680">
        <ele>300.0</ele>
        <time>2020-10-16T09:23:56Z</time>
      </trkpt>
      <trkpt lat="28.4130740" lon="-16.5290420">
        <ele>301.0</ele>
        <time>2020-10-16T09:24:01Z</time>
      </trkpt>
      <trkpt lat="28.4129140" lon="-16.5291160">
        <ele>302.0</ele>
        <time>2020-10-16T09:24:06Z</time>
      </trkpt>
      <trkpt lat="28.4127160" lon="-16.5292000">
        <ele>303.2</ele>
        <time>2020-10-16T09:24:12Z</time>
      </trkpt>
      <trkpt lat="28.4125500" lon="-16.5292730">
        <ele>304.4</ele>
        <time>2020-10-16T09:24:17Z</time>
      </trkpt>
      <trkpt lat="28.4123740" lon="-16.5293650">
        <ele>305.4</ele>
        <time>2020-10-16T09:24:22Z</time>
      </trkpt>
      <trkpt lat="28.4122270" lon="-16.5294510">
        <ele>306.6</ele>
        <time>2020-10-16T09:24:26Z</time>
      </trkpt>
      <trkpt lat="28.4120610" lon="-16.5295490">
        <ele>307.8</ele>
        <time>2020-10-16T09:24:31Z</time>
      </trkpt>
      <trkpt lat="28.4119390" lon="-16.5296310">
        <ele>308.8</ele>
        <time>2020-10-16T09:24:35Z</time>
      </trkpt>
      <trkpt lat="28.4117900" lon="-16.5297390">
        <ele>310.0</ele>
        <time>2020-10-16T09:24:40Z</time>
      </trkpt>
      <trkpt lat="28.4116550" lon="-16.5298730">
        <ele>311.0</ele>
        <time>2020-10-16T09:24:45Z</time>
      </trkpt>
      <trkpt lat="28.4115050" lon="-16.5300310">
        <ele>312.2</ele>
        <time>2020-10-16T09:24:51Z</time>
      </trkpt>
      <trkpt lat="28.4113750" lon="-16.5301690">
        <ele>313.4</ele>
        <time>2020-10-16T09:24:56Z</time>
      </trkpt>
      <trkpt lat="28.4112980" lon="-16.5302530">
        <ele>314.2</ele>
        <time>2020-10-16T09:24:59Z</time>
      </trkpt>
      <trkpt lat="28.4112720" lon="-16.5302830">
        <ele>314.4</ele>
        <time>2020-10-16T09:25:00Z</time>
      </trkpt>
      <trkpt lat="28.4111740" lon="-16.5304020">
        <ele>315.4</ele>
        <time>2020-10-16T09:25:04Z</time>
      </trkpt>
      <trkpt lat="28.4110800" lon="-16.5305270">
        <ele>316.4</ele>
        <time>2020-10-16T09:25:08Z</time>
      </trkpt>
      <trkpt lat="28.4109850" lon="-16.5306640">
        <ele>317.4</ele>
        <time>2020-10-16T09:25:12Z</time>
      </trkpt>
      <trkpt lat="28.4108660" lon="-16.5308360">
        <ele>318.6</ele>
        <time>2020-10-16T09:25:17Z</time>
      </trkpt>
      <trkpt lat="28.4107320" lon="-16.5310500">
        <ele>319.8</ele>
        <time>2020-10-16T09:25:23Z</time>
      </trkpt>
      <trkpt lat="28.4106130" lon="-16.5312330">
        <ele>320.8</ele>
        <time>2020-10-16T09:25:28Z</time>
      </trkpt>
      <trkpt lat="28.4104920" lon="-16.5314220">
        <ele>322.2</ele>
        <time>2020-10-16T09:25:33Z</time>
      </trkpt>
      <trkpt lat="28.4103700" lon="-16.5316100">
        <ele>323.2</ele>
        <time>2020-10-16T09:25:38Z</time>
      </trkpt>
      <trkpt lat="28.4101990" lon="-16.5318740">
        <ele>324.4</ele>
        <time>2020-10-16T09:25:45Z</time>
      </trkpt>
      <trkpt lat="28.4100520" lon="-16.5320900">
        <ele>325.4</ele>
        <time>2020-10-16T09:25:51Z</time>
      </trkpt>
      <trkpt lat="28.4099150" lon="-16.5322530">
        <ele>326.6</ele>
        <time>2020-10-16T09:25:56Z</time>
      </trkpt>
      <trkpt lat="28.4097650" lon="-16.5324010">
        <ele>327.6</ele>
        <time>2020-10-16T09:26:01Z</time>
      </trkpt>
      <trkpt lat="28.4096330" lon="-16.5325120">
        <ele>328.6</ele>
        <time>2020-10-16T09:26:05Z</time>
      </trkpt>
      <trkpt lat="28.4094580" lon="-16.5326230">
        <ele>329.8</ele>
        <time>2020-10-16T09:26:10Z</time>
      </trkpt>
      <trkpt lat="28.4092210" lon="-16.5327340">
        <ele>330.8</ele>
        <time>2020-10-16T09:26:16Z</time>
      </trkpt>
      <trkpt lat="28.4089640" lon="-16.5328050">
        <ele>332.0</ele>
        <time>2020-10-16T09:26:22Z</time>
      </trkpt>
      <trkpt lat="28.4087080" lon="-16.5328310">
        <ele>333.2</ele>
        <time>2020-10-16T09:26:28Z</time>
      </trkpt>
      <trkpt lat="28.4086650" lon="-16.5328350">
        <ele>333.4</ele>
        <time>2020-10-16T09:26:29Z</time>
      </trkpt>
      <trkpt lat="28.4084910" lon="-16.5328250">
        <ele>334.2</ele>
        <time>2020-10-16T09:26:33Z</time>
      </trkpt>
      <trkpt lat="28.4082370" lon="-16.5327660">
        <ele>335.4</ele>
        <time>2020-10-16T09:26:39Z</time>
      </trkpt>
      <trkpt lat="28.4079990" lon="-16.5326830">
        <ele>336.6</ele>
        <time>2020-10-16T09:26:45Z</time>
      </trkpt>
      <trkpt lat="28.4078190" lon="-16.5325670">
        <ele>337.6</ele>
        <time>2020-10-16T09:26:50Z</time>
      </trkpt>
      <trkpt lat="28.4076780" lon="-16.5324470">
        <ele>338.8</ele>
        <time>2020-10-16T09:26:54Z</time>
      </trkpt>
      <trkpt lat="28.4075810" lon="-16.5323500">
        <ele>339.4</ele>
        <time>2020-10-16T09:26:57Z</time>
      </trkpt>
      <trkpt lat="28.4074920" lon="-16.5322370">
        <ele>339.8</ele>
        <time>2020-10-16T09:27:00Z</time>
      </trkpt>
      <trkpt lat="28.4074010" lon="-16.5321250">
        <ele>340.8</ele>
        <time>2020-10-16T09:27:03Z</time>
      </trkpt>
      <trkpt lat="28.4073660" lon="-16.5320990">
        <ele>341.0</ele>
        <time>2020-10-16T09:27:04Z</time>
      </trkpt>
      <trkpt lat="28.4072460" lon="-16.5319430">
        <ele>341.6</ele>
        <time>2020-10-16T09:27:08Z</time>
      </trkpt>
      <trkpt lat="28.4071830" lon="-16.5318040">
        <ele>342.0</ele>
        <time>2020-10-16T09:27:11Z</time>
      </trkpt>
      <trkpt lat="28.4071100" lon="-16.5315690">
        <ele>343.2</ele>
        <time>2020-10-16T09:27:16Z</time>
      </trkpt>
      <trkpt lat="28.4070800" lon="-16.5314260">
        <ele>344.2</ele>
        <time>2020-10-16T09:27:19Z</time>
      </trkpt>
      <trkpt lat="28.4070570" lon="-16.5312260">
        <ele>345.4</ele>
        <time>2020-10-16T09:27:23Z</time>
      </trkpt>
      <trkpt lat="28.4070450" lon="-16.5309640">
        <ele>346.4</ele>
        <time>2020-10-16T09:27:28Z</time>
      </trkpt>
      <trkpt lat="28.4070300" lon="-16.5306560">
        <ele>347.6</ele>
        <time>2020-10-16T09:27:34Z</time>
      </trkpt>
      <trkpt lat="28.4070140" lon="-16.5304080">
        <ele>348.4</ele>
        <time>2020-10-16T09:27:39Z</time>
      </trkpt>
      <trkpt lat="28.4069940" lon="-16.5301230">
        <ele>349.6</ele>
        <time>2020-10-16T09:27:45Z</time>
      </trkpt>
      <trkpt lat="28.4069800" lon="-16.5298880">
        <ele>350.6</ele>
        <time>2020-10-16T09:27:50Z</time>
      </trkpt>
      <trkpt lat="28.4069330" lon="-16.5296620">
        <ele>351.8</ele>
        <time>2020-10-16T09:27:55Z</time>
      </trkpt>
      <trkpt lat="28.4068670" lon="-16.5294400">
        <ele>353.0</ele>
        <time>2020-10-16T09:28:00Z</time>
      </trkpt>
      <trkpt lat="28.4068380" lon="-16.5293550">
        <ele>353.4</ele>
        <time>2020-10-16T09:28:02Z</time>
      </trkpt>
      <trkpt lat="28.4068010" lon="-16.5292710">
        <ele>354.0</ele>
        <time>2020-10-16T09:28:04Z</time>
      </trkpt>
      <trkpt lat="28.4067380" lon="-16.5291480">
        <ele>355.0</ele>
        <time>2020-10-16T09:28:07Z</time>
      </trkpt>
      <trkpt lat="28.4067150" lon="-16.5291070">
        <ele>355.2</ele>
        <time>2020-10-16T09:28:08Z</time>
      </trkpt>
      <trkpt lat="28.4065680" lon="-16.5288790">
        <ele>356.4</ele>
        <time>2020-10-16T09:28:14Z</time>
      </trkpt>
      <trkpt lat="28.4064490" lon="-16.5286970">
        <ele>357.4</ele>
        <time>2020-10-16T09:28:19Z</time>
      </trkpt>
      <trkpt lat="28.4063250" lon="-16.5285130">
        <ele>358.4</ele>
        <time>2020-10-16T09:28:24Z</time>
      </trkpt>
      <trkpt lat="28.4062010" lon="-16.5283200">
        <ele>359.8</ele>
        <time>2020-10-16T09:28:29Z</time>
      </trkpt>
      <trkpt lat="28.4060260" lon="-16.5281160">
        <ele>361.0</ele>
        <time>2020-10-16T09:28:35Z</time>
      </trkpt>
      <trkpt lat="28.4059070" lon="-16.5279340">
        <ele>362.0</ele>
        <time>2020-10-16T09:28:40Z</time>
      </trkpt>
      <trkpt lat="28.4057800" lon="-16.5277140">
        <ele>363.2</ele>
        <time>2020-10-16T09:28:46Z</time>
      </trkpt>
      <trkpt lat="28.4056810" lon="-16.5275190">
        <ele>364.4</ele>
        <time>2020-10-16T09:28:51Z</time>
      </trkpt>
      <trkpt lat="28.4055720" lon="-16.5273300">
        <ele>365.6</ele>
        <time>2020-10-16T09:28:56Z</time>
      </trkpt>
      <trkpt lat="28.4054700" lon="-16.5271450">
        <ele>366.6</ele>
        <time>2020-10-16T09:29:01Z</time>
      </trkpt>
      <trkpt lat="28.4054000" lon="-16.5269950">
        <ele>367.8</ele>
        <time>2020-10-16T09:29:05Z</time>
      </trkpt>
      <trkpt lat="28.4053160" lon="-16.5268070">
        <ele>369.0</ele>
        <time>2020-10-16T09:29:10Z</time>
      </trkpt>
      <trkpt lat="28.4052640" lon="-16.5265640">
        <ele>370.2</ele>
        <time>2020-10-16T09:29:16Z</time>
      </trkpt>
      <trkpt lat="28.4052340" lon="-16.5264080">
        <ele>371.4</ele>
        <time>2020-10-16T09:29:20Z</time>
      </trkpt>
      <trkpt lat="28.4052220" lon="-16.5262080">
        <ele>372.4</ele>
        <time>2020-10-16T09:29:25Z</time>
      </trkpt>
      <trkpt lat="28.4052340" lon="-16.5259650">
        <ele>373.6</ele>
        <time>2020-10-16T09:29:31Z</time>
      </trkpt>
      <trkpt lat="28.4052690" lon="-16.5257130">
        <ele>374.8</ele>
        <time>2020-10-16T09:29:37Z</time>
      </trkpt>
      <trkpt lat="28.4053030" lon="-16.5255030">
        <ele>375.8</ele>
        <time>2020-10-16T09:29:42Z</time>
      </trkpt>
      <trkpt lat="28.4053490" lon="-16.5252520">
        <ele>377.0</ele>
        <time>2020-10-16T09:29:48Z</time>
      </trkpt>
      <trkpt lat="28.4053980" lon="-16.5249970">
        <ele>378.2</ele>
        <time>2020-10-16T09:29:54Z</time>
      </trkpt>
      <trkpt lat="28.4054510" lon="-16.5246950">
        <ele>379.4</ele>
        <time>2020-10-16T09:30:01Z</time>
      </trkpt>
      <trkpt lat="28.4054750" lon="-16.5244790">
        <ele>380.4</ele>
        <time>2020-10-16T09:30:06Z</time>
      </trkpt>
      <trkpt lat="28.4054840" lon="-16.5242630">
        <ele>381.6</ele>
        <time>2020-10-16T09:30:11Z</time>
      </trkpt>
      <trkpt lat="28.4054810" lon="-16.5240870">
        <ele>382.6</ele>
        <time>2020-10-16T09:30:15Z</time>
      </trkpt>
      <trkpt lat="28.4054550" lon="-16.5238710">
        <ele>383.8</ele>
        <time>2020-10-16T09:30:20Z</time>
      </trkpt>
      <trkpt lat="28.4054150" lon="-16.5236640">
        <ele>384.8</ele>
        <time>2020-10-16T09:30:25Z</time>
      </trkpt>
      <trkpt lat="28.4053480" lon="-16.5234240">
        <ele>386.0</ele>
        <time>2020-10-16T09:30:31Z</time>
      </trkpt>
      <trkpt lat="28.4052750" lon="-16.5232230">
        <ele>387.2</ele>
        <time>2020-10-16T09:30:36Z</time>
      </trkpt>
      <trkpt lat="28.4051920" lon="-16.5230260">
        <ele>388.0</ele>
        <time>2020-10-16T09:30:41Z</time>
      </trkpt>
      <trkpt lat="28.4051040" lon="-16.5228330">
        <ele>389.2</ele>
        <time>2020-10-16T09:30:46Z</time>
      </trkpt>
      <trkpt lat="28.4050150" lon="-16.5226400">
        <ele>390.4</ele>
        <time>2020-10-16T09:30:51Z</time>
      </trkpt>
      <trkpt lat="28.4049250" lon="-16.5224480">
        <ele>391.4</ele>
        <time>2020-10-16T09:30:56Z</time>
      </trkpt>
      <trkpt lat="28.4048380" lon="-16.5222530">
        <ele>392.6</ele>
        <time>2020-10-16T09:31:01Z</time>
      </trkpt>
      <trkpt lat="28.4047660" lon="-16.5220550">
        <ele>393.6</ele>
        <time>2020-10-16T09:31:06Z</time>
      </trkpt>
      <trkpt lat="28.4046850" lon="-16.5218160">
        <ele>394.6</ele>
        <time>2020-10-16T09:31:12Z</time>
      </trkpt>
      <trkpt lat="28.4046470" lon="-16.5216520">
        <ele>395.8</ele>
        <time>2020-10-16T09:31:16Z</time>
      </trkpt>
      <trkpt lat="28.4046120" lon="-16.5214030">
        <ele>396.8</ele>
        <time>2020-10-16T09:31:22Z</time>
      </trkpt>
      <trkpt lat="28.4046020" lon="-16.5212780">
        <ele>397.8</ele>
        <time>2020-10-16T09:31:25Z</time>
      </trkpt>
      <trkpt lat="28.4045910" lon="-16.5210300">
        <ele>398.8</ele>
        <time>2020-10-16T09:31:31Z</time>
      </trkpt>
      <trkpt lat="28.4045980" lon="-16.5208190">
        <ele>399.8</ele>
        <time>2020-10-16T09:31:36Z</time>
      </trkpt>
      <trkpt lat="28.4046130" lon="-16.5206030">
        <ele>400.8</ele>
        <time>2020-10-16T09:31:41Z</time>
      </trkpt>
      <trkpt lat="28.4046370" lon="-16.5203450">
        <ele>402.0</ele>
        <time>2020-10-16T09:31:47Z</time>
      </trkpt>
      <trkpt lat="28.4046450" lon="-16.5201250">
        <ele>403.0</ele>
        <time>2020-10-16T09:31:52Z</time>
      </trkpt>
      <trkpt lat="28.4046350" lon="-16.5198570">
        <ele>404.0</ele>
        <time>2020-10-16T09:31:58Z</time>
      </trkpt>
      <trkpt lat="28.4046160" lon="-16.5196810">
        <ele>405.2</ele>
        <time>2020-10-16T09:32:02Z</time>
      </trkpt>
      <trkpt lat="28.4045810" lon="-16.5194300">
        <ele>406.2</ele>
        <time>2020-10-16T09:32:07Z</time>
      </trkpt>
      <trkpt lat="28.4045160" lon="-16.5191040">
        <ele>407.2</ele>
        <time>2020-10-16T09:32:13Z</time>
      </trkpt>
      <trkpt lat="28.4044970" lon="-16.5190530">
        <ele>407.6</ele>
        <time>2020-10-16T09:32:14Z</time>
      </trkpt>
      <trkpt lat="28.4044300" lon="-16.5189090">
        <ele>408.2</ele>
        <time>2020-10-16T09:32:17Z</time>
      </trkpt>
      <trkpt lat="28.4044130" lon="-16.5188610">
        <ele>408.6</ele>
        <time>2020-10-16T09:32:18Z</time>
      </trkpt>
      <trkpt lat="28.4043640" lon="-16.5187260">
        <ele>409.6</ele>
        <time>2020-10-16T09:32:21Z</time>
      </trkpt>
      <trkpt lat="28.4043150" lon="-16.5185960">
        <ele>410.8</ele>
        <time>2020-10-16T09:32:24Z</time>
      </trkpt>
      <trkpt lat="28.4042410" lon="-16.5184270">
        <ele>412.0</ele>
        <time>2020-10-16T09:32:28Z</time>
      </trkpt>
      <trkpt lat="28.4041670" lon="-16.5182630">
        <ele>413.0</ele>
        <time>2020-10-16T09:32:32Z</time>
      </trkpt>
      <trkpt lat="28.4040930" lon="-16.5180980">
        <ele>413.8</ele>
        <time>2020-10-16T09:32:36Z</time>
      </trkpt>
      <trkpt lat="28.4039660" lon="-16.5178170">
        <ele>415.0</ele>
        <time>2020-10-16T09:32:42Z</time>
      </trkpt>
      <trkpt lat="28.4038290" lon="-16.5175400">
        <ele>416.2</ele>
        <time>2020-10-16T09:32:48Z</time>
      </trkpt>
      <trkpt lat="28.4037060" lon="-16.5173030">
        <ele>417.4</ele>
        <time>2020-10-16T09:32:53Z</time>
      </trkpt>
      <trkpt lat="28.4035830" lon="-16.5170750">
        <ele>418.6</ele>
        <time>2020-10-16T09:32:58Z</time>
      </trkpt>
      <trkpt lat="28.4034870" lon="-16.5169010">
        <ele>419.6</ele>
        <time>2020-10-16T09:33:02Z</time>
      </trkpt>
      <trkpt lat="28.4034240" lon="-16.5167780">
        <ele>420.6</ele>
        <time>2020-10-16T09:33:05Z</time>
      </trkpt>
      <trkpt lat="28.4033420" lon="-16.5166160">
        <ele>421.6</ele>
        <time>2020-10-16T09:33:09Z</time>
      </trkpt>
      <trkpt lat="28.4032400" lon="-16.5164090">
        <ele>422.8</ele>
        <time>2020-10-16T09:33:14Z</time>
      </trkpt>
      <trkpt lat="28.4031230" lon="-16.5161500">
        <ele>423.6</ele>
        <time>2020-10-16T09:33:20Z</time>
      </trkpt>
      <trkpt lat="28.4029940" lon="-16.5159090">
        <ele>424.6</ele>
        <time>2020-10-16T09:33:26Z</time>
      </trkpt>
      <trkpt lat="28.4028270" lon="-16.5155700">
        <ele>425.8</ele>
        <time>2020-10-16T09:33:33Z</time>
      </trkpt>
      <trkpt lat="28.4028110" lon="-16.5155140">
        <ele>425.8</ele>
        <time>2020-10-16T09:33:34Z</time>
      </trkpt>
      <trkpt lat="28.4029420" lon="-16.5150590">
        <ele>427.0</ele>
        <time>2020-10-16T09:33:43Z</time>
      </trkpt>
      <trkpt lat="28.4029840" lon="-16.5150250">
        <ele>427.2</ele>
        <time>2020-10-16T09:33:44Z</time>
      </trkpt>
      <trkpt lat="28.4031130" lon="-16.5149070">
        <ele>427.2</ele>
        <time>2020-10-16T09:33:47Z</time>
      </trkpt>
      <trkpt lat="28.4033180" lon="-16.5145780">
        <ele>427.4</ele>
        <time>2020-10-16T09:33:53Z</time>
      </trkpt>
      <trkpt lat="28.4034650" lon="-16.5142920">
        <ele>427.4</ele>
        <time>2020-10-16T09:33:58Z</time>
      </trkpt>
      <trkpt lat="28.4034500" lon="-16.5140720">
        <ele>427.2</ele>
        <time>2020-10-16T09:34:02Z</time>
      </trkpt>
      <trkpt lat="28.4034370" lon="-16.5140190">
        <ele>427.2</ele>
        <time>2020-10-16T09:34:03Z</time>
      </trkpt>
      <trkpt lat="28.4037610" lon="-16.5139680">
        <ele>427.8</ele>
        <time>2020-10-16T09:34:13Z</time>
      </trkpt>
      <trkpt lat="28.4038050" lon="-16.5140010">
        <ele>427.8</ele>
        <time>2020-10-16T09:34:14Z</time>
      </trkpt>
      <trkpt lat="28.4040640" lon="-16.5141830">
        <ele>427.8</ele>
        <time>2020-10-16T09:34:19Z</time>
      </trkpt>
      <trkpt lat="28.4041370" lon="-16.5141940">
        <ele>427.8</ele>
        <time>2020-10-16T09:34:20Z</time>
      </trkpt>
      <trkpt lat="28.4043960" lon="-16.5141290">
        <ele>427.8</ele>
        <time>2020-10-16T09:34:25Z</time>
      </trkpt>
      <trkpt lat="28.4044370" lon="-16.5141070">
        <ele>427.8</ele>
        <time>2020-10-16T09:34:26Z</time>
      </trkpt>
      <trkpt lat="28.4047540" lon="-16.5139060">
        <ele>429.0</ele>
        <time>2020-10-16T09:34:34Z</time>
      </trkpt>
      <trkpt lat="28.4052480" lon="-16.5135000">
        <ele>429.8</ele>
        <time>2020-10-16T09:34:44Z</time>
      </trkpt>
      <trkpt lat="28.4057330" lon="-16.5131070">
        <ele>429.0</ele>
        <time>2020-10-16T09:34:51Z</time>
      </trkpt>
      <trkpt lat="28.4058940" lon="-16.5130050">
        <ele>427.8</ele>
        <time>2020-10-16T09:34:53Z</time>
      </trkpt>
      <trkpt lat="28.4060710" lon="-16.5129250">
        <ele>427.2</ele>
        <time>2020-10-16T09:34:55Z</time>
      </trkpt>
      <trkpt lat="28.4061680" lon="-16.5128990">
        <ele>426.8</ele>
        <time>2020-10-16T09:34:56Z</time>
      </trkpt>
      <trkpt lat="28.4064730" lon="-16.5128780">
        <ele>425.2</ele>
        <time>2020-10-16T09:34:59Z</time>
      </trkpt>
      <trkpt lat="28.4067740" lon="-16.5129780">
        <ele>424.0</ele>
        <time>2020-10-16T09:35:02Z</time>
      </trkpt>
      <trkpt lat="28.4070510" lon="-16.5131620">
        <ele>422.4</ele>
        <time>2020-10-16T09:35:05Z</time>
      </trkpt>
      <trkpt lat="28.4072020" lon="-16.5133160">
        <ele>421.2</ele>
        <time>2020-10-16T09:35:07Z</time>
      </trkpt>
      <trkpt lat="28.4072660" lon="-16.5133910">
        <ele>420.8</ele>
        <time>2020-10-16T09:35:08Z</time>
      </trkpt>
      <trkpt lat="28.4073270" lon="-16.5134680">
        <ele>420.2</ele>
        <time>2020-10-16T09:35:09Z</time>
      </trkpt>
      <trkpt lat="28.4074400" lon="-16.5136350">
        <ele>418.8</ele>
        <time>2020-10-16T09:35:11Z</time>
      </trkpt>
      <trkpt lat="28.4075420" lon="-16.5138220">
        <ele>417.6</ele>
        <time>2020-10-16T09:35:13Z</time>
      </trkpt>
      <trkpt lat="28.4076370" lon="-16.5140200">
        <ele>416.4</ele>
        <time>2020-10-16T09:35:15Z</time>
      </trkpt>
      <trkpt lat="28.4077360" lon="-16.5142140">
        <ele>415.0</ele>
        <time>2020-10-16T09:35:17Z</time>
      </trkpt>
      <trkpt lat="28.4078470" lon="-16.5143900">
        <ele>413.2</ele>
        <time>2020-10-16T09:35:19Z</time>
      </trkpt>
      <trkpt lat="28.4079110" lon="-16.5144700">
        <ele>412.4</ele>
        <time>2020-10-16T09:35:20Z</time>
      </trkpt>
      <trkpt lat="28.4079790" lon="-16.5145450">
        <ele>411.2</ele>
        <time>2020-10-16T09:35:21Z</time>
      </trkpt>
      <trkpt lat="28.4081180" lon="-16.5146980">
        <ele>409.6</ele>
        <time>2020-10-16T09:35:23Z</time>
      </trkpt>
      <trkpt lat="28.4082710" lon="-16.5148610">
        <ele>407.8</ele>
        <time>2020-10-16T09:35:25Z</time>
      </trkpt>
      <trkpt lat="28.4083520" lon="-16.5149440">
        <ele>406.8</ele>
        <time>2020-10-16T09:35:26Z</time>
      </trkpt>
      <trkpt lat="28.4085250" lon="-16.5151150">
        <ele>404.0</ele>
        <time>2020-10-16T09:35:28Z</time>
      </trkpt>
      <trkpt lat="28.4086190" lon="-16.5152020">
        <ele>402.8</ele>
        <time>2020-10-16T09:35:29Z</time>
      </trkpt>
      <trkpt lat="28.4087150" lon="-16.5152940">
        <ele>401.6</ele>
        <time>2020-10-16T09:35:30Z</time>
      </trkpt>
      <trkpt lat="28.4088130" lon="-16.5153900">
        <ele>400.6</ele>
        <time>2020-10-16T09:35:31Z</time>
      </trkpt>
      <trkpt lat="28.4089150" lon="-16.5154900">
        <ele>399.6</ele>
        <time>2020-10-16T09:35:32Z</time>
      </trkpt>
      <trkpt lat="28.4091280" lon="-16.5156900">
        <ele>397.8</ele>
        <time>2020-10-16T09:35:34Z</time>
      </trkpt>
      <trkpt lat="28.4092370" lon="-16.5157930">
        <ele>396.6</ele>
        <time>2020-10-16T09:35:35Z</time>
      </trkpt>
      <trkpt lat="28.4093480" lon="-16.5158980">
        <ele>395.4</ele>
        <time>2020-10-16T09:35:36Z</time>
      </trkpt>
      <trkpt lat="28.4094610" lon="-16.5160010">
        <ele>394.0</ele>
        <time>2020-10-16T09:35:37Z</time>
      </trkpt>
      <trkpt lat="28.4095740" lon="-16.5161020">
        <ele>392.8</ele>
        <time>2020-10-16T09:35:38Z</time>
      </trkpt>
      <trkpt lat="28.4096910" lon="-16.5161940">
        <ele>391.6</ele>
        <time>2020-10-16T09:35:39Z</time>
      </trkpt>
      <trkpt lat="28.4099290" lon="-16.5163640">
        <ele>389.8</ele>
        <time>2020-10-16T09:35:41Z</time>
      </trkpt>
      <trkpt lat="28.4100520" lon="-16.5164330">
        <ele>388.4</ele>
        <time>2020-10-16T09:35:42Z</time>
      </trkpt>
      <trkpt lat="28.4101820" lon="-16.5164790">
        <ele>387.0</ele>
        <time>2020-10-16T09:35:43Z</time>
      </trkpt>
      <trkpt lat="28.4103180" lon="-16.5164980">
        <ele>385.8</ele>
        <time>2020-10-16T09:35:44Z</time>
      </trkpt>
      <trkpt lat="28.4104570" lon="-16.5165050">
        <ele>384.4</ele>
        <time>2020-10-16T09:35:45Z</time>
      </trkpt>
      <trkpt lat="28.4105950" lon="-16.5165040">
        <ele>383.0</ele>
        <time>2020-10-16T09:35:46Z</time>
      </trkpt>
      <trkpt lat="28.4108640" lon="-16.5164810">
        <ele>381.0</ele>
        <time>2020-10-16T09:35:48Z</time>
      </trkpt>
      <trkpt lat="28.4111220" lon="-16.5164410">
        <ele>379.0</ele>
        <time>2020-10-16T09:35:50Z</time>
      </trkpt>
      <trkpt lat="28.4113560" lon="-16.5164020">
        <ele>377.0</ele>
        <time>2020-10-16T09:35:52Z</time>
      </trkpt>
      <trkpt lat="28.4114600" lon="-16.5163780">
        <ele>375.8</ele>
        <time>2020-10-16T09:35:53Z</time>
      </trkpt>
      <trkpt lat="28.4116630" lon="-16.5163370">
        <ele>374.0</ele>
        <time>2020-10-16T09:35:55Z</time>
      </trkpt>
      <trkpt lat="28.4118600" lon="-16.5163090">
        <ele>372.4</ele>
        <time>2020-10-16T09:35:57Z</time>
      </trkpt>
      <trkpt lat="28.4120410" lon="-16.5162900">
        <ele>370.6</ele>
        <time>2020-10-16T09:35:59Z</time>
      </trkpt>
      <trkpt lat="28.4122000" lon="-16.5162630">
        <ele>368.4</ele>
        <time>2020-10-16T09:36:01Z</time>
      </trkpt>
      <trkpt lat="28.4123290" lon="-16.5162400">
        <ele>366.4</ele>
        <time>2020-10-16T09:36:03Z</time>
      </trkpt>
      <trkpt lat="28.4123850" lon="-16.5162330">
        <ele>365.6</ele>
        <time>2020-10-16T09:36:04Z</time>
      </trkpt>
      <trkpt lat="28.4124370" lon="-16.5162310">
        <ele>365.0</ele>
        <time>2020-10-16T09:36:05Z</time>
      </trkpt>
      <trkpt lat="28.4125200" lon="-16.5162210">
        <ele>363.8</ele>
        <time>2020-10-16T09:36:07Z</time>
      </trkpt>
      <trkpt lat="28.4125690" lon="-16.5162080">
        <ele>362.4</ele>
        <time>2020-10-16T09:36:09Z</time>
      </trkpt>
      <trkpt lat="28.4125820" lon="-16.5162020">
        <ele>361.0</ele>
        <time>2020-10-16T09:36:11Z</time>
      </trkpt>
      <trkpt lat="28.4125790" lon="-16.5162000">
        <ele>360.4</ele>
        <time>2020-10-16T09:36:12Z</time>
      </trkpt>
      <trkpt lat="28.4125870" lon="-16.5162230">
        <ele>358.2</ele>
        <time>2020-10-16T09:36:20Z</time>
      </trkpt>
      <trkpt lat="28.4125510" lon="-16.5162620">
        <ele>358.2</ele>
        <time>2020-10-16T09:36:24Z</time>
      </trkpt>
      <trkpt lat="28.4125440" lon="-16.5162710">
        <ele>358.2</ele>
        <time>2020-10-16T09:36:25Z</time>
      </trkpt>
      <trkpt lat="28.4125360" lon="-16.5162750">
        <ele>358.2</ele>
        <time>2020-10-16T09:36:27Z</time>
      </trkpt>
      <trkpt lat="28.4124400" lon="-16.5162470">
        <ele>358.6</ele>
        <time>2020-10-16T09:36:46Z</time>
      </trkpt>
      <trkpt lat="28.4124180" lon="-16.5162510">
        <ele>358.6</ele>
        <time>2020-10-16T09:36:47Z</time>
      </trkpt>
      <trkpt lat="28.4122710" lon="-16.5162720">
        <ele>359.0</ele>
        <time>2020-10-16T09:36:52Z</time>
      </trkpt>
      <trkpt lat="28.4121940" lon="-16.5162900">
        <ele>359.2</ele>
        <time>2020-10-16T09:36:54Z</time>
      </trkpt>
      <trkpt lat="28.4120620" lon="-16.5163030">
        <ele>359.6</ele>
        <time>2020-10-16T09:36:57Z</time>
      </trkpt>
      <trkpt lat="28.4119410" lon="-16.5163220">
        <ele>360.2</ele>
        <time>2020-10-16T09:37:00Z</time>
      </trkpt>
      <trkpt lat="28.4118200" lon="-16.5163400">
        <ele>361.0</ele>
        <time>2020-10-16T09:37:03Z</time>
      </trkpt>
      <trkpt lat="28.4117800" lon="-16.5163470">
        <ele>361.6</ele>
        <time>2020-10-16T09:37:04Z</time>
      </trkpt>
      <trkpt lat="28.4116610" lon="-16.5163650">
        <ele>362.8</ele>
        <time>2020-10-16T09:37:07Z</time>
      </trkpt>
      <trkpt lat="28.4115070" lon="-16.5163920">
        <ele>364.0</ele>
        <time>2020-10-16T09:37:11Z</time>
      </trkpt>
      <trkpt lat="28.4113550" lon="-16.5164190">
        <ele>365.2</ele>
        <time>2020-10-16T09:37:15Z</time>
      </trkpt>
      <trkpt lat="28.4112010" lon="-16.5164410">
        <ele>366.2</ele>
        <time>2020-10-16T09:37:19Z</time>
      </trkpt>
      <trkpt lat="28.4110450" lon="-16.5164590">
        <ele>367.4</ele>
        <time>2020-10-16T09:37:23Z</time>
      </trkpt>
      <trkpt lat="28.4108940" lon="-16.5164820">
        <ele>368.6</ele>
        <time>2020-10-16T09:37:27Z</time>
      </trkpt>
      <trkpt lat="28.4107800" lon="-16.5164920">
        <ele>369.6</ele>
        <time>2020-10-16T09:37:30Z</time>
      </trkpt>
      <trkpt lat="28.4106660" lon="-16.5165050">
        <ele>370.6</ele>
        <time>2020-10-16T09:37:33Z</time>
      </trkpt>
      <trkpt lat="28.4105120" lon="-16.5165210">
        <ele>371.8</ele>
        <time>2020-10-16T09:37:37Z</time>
      </trkpt>
      <trkpt lat="28.4103230" lon="-16.5165170">
        <ele>372.8</ele>
        <time>2020-10-16T09:37:42Z</time>
      </trkpt>
      <trkpt lat="28.4101770" lon="-16.5165010">
        <ele>373.8</ele>
        <time>2020-10-16T09:37:46Z</time>
      </trkpt>
      <trkpt lat="28.4100080" lon="-16.5164510">
        <ele>375.0</ele>
        <time>2020-10-16T09:37:51Z</time>
      </trkpt>
      <trkpt lat="28.4098470" lon="-16.5163660">
        <ele>376.2</ele>
        <time>2020-10-16T09:37:56Z</time>
      </trkpt>
      <trkpt lat="28.4097300" lon="-16.5162750">
        <ele>377.2</ele>
        <time>2020-10-16T09:38:00Z</time>
      </trkpt>
      <trkpt lat="28.4095840" lon="-16.5161610">
        <ele>378.2</ele>
        <time>2020-10-16T09:38:05Z</time>
      </trkpt>
      <trkpt lat="28.4094720" lon="-16.5160570">
        <ele>379.2</ele>
        <time>2020-10-16T09:38:09Z</time>
      </trkpt>
      <trkpt lat="28.4093320" lon="-16.5159360">
        <ele>380.4</ele>
        <time>2020-10-16T09:38:14Z</time>
      </trkpt>
      <trkpt lat="28.4092310" lon="-16.5158430">
        <ele>381.4</ele>
        <time>2020-10-16T09:38:18Z</time>
      </trkpt>
      <trkpt lat="28.4091360" lon="-16.5157480">
        <ele>382.6</ele>
        <time>2020-10-16T09:38:22Z</time>
      </trkpt>
      <trkpt lat="28.4090470" lon="-16.5156570">
        <ele>383.8</ele>
        <time>2020-10-16T09:38:26Z</time>
      </trkpt>
      <trkpt lat="28.4089650" lon="-16.5155710">
        <ele>385.0</ele>
        <time>2020-10-16T09:38:30Z</time>
      </trkpt>
      <trkpt lat="28.4088910" lon="-16.5155140">
        <ele>386.0</ele>
        <time>2020-10-16T09:38:33Z</time>
      </trkpt>
      <trkpt lat="28.4087840" lon="-16.5153990">
        <ele>387.2</ele>
        <time>2020-10-16T09:38:38Z</time>
      </trkpt>
      <trkpt lat="28.4086920" lon="-16.5153090">
        <ele>388.4</ele>
        <time>2020-10-16T09:38:42Z</time>
      </trkpt>
      <trkpt lat="28.4085790" lon="-16.5152000">
        <ele>389.6</ele>
        <time>2020-10-16T09:38:47Z</time>
      </trkpt>
      <trkpt lat="28.4084880" lon="-16.5151060">
        <ele>390.6</ele>
        <time>2020-10-16T09:38:51Z</time>
      </trkpt>
      <trkpt lat="28.4083930" lon="-16.5150140">
        <ele>391.8</ele>
        <time>2020-10-16T09:38:55Z</time>
      </trkpt>
      <trkpt lat="28.4083450" lon="-16.5149690">
        <ele>393.0</ele>
        <time>2020-10-16T09:38:57Z</time>
      </trkpt>
      <trkpt lat="28.4082540" lon="-16.5148750">
        <ele>394.2</ele>
        <time>2020-10-16T09:39:01Z</time>
      </trkpt>
      <trkpt lat="28.4081620" lon="-16.5147830">
        <ele>395.4</ele>
        <time>2020-10-16T09:39:05Z</time>
      </trkpt>
      <trkpt lat="28.4080940" lon="-16.5147170">
        <ele>396.4</ele>
        <time>2020-10-16T09:39:08Z</time>
      </trkpt>
      <trkpt lat="28.4079990" lon="-16.5146240">
        <ele>397.4</ele>
        <time>2020-10-16T09:39:12Z</time>
      </trkpt>
      <trkpt lat="28.4079290" lon="-16.5145510">
        <ele>398.4</ele>
        <time>2020-10-16T09:39:15Z</time>
      </trkpt>
      <trkpt lat="28.4078360" lon="-16.5144500">
        <ele>399.6</ele>
        <time>2020-10-16T09:39:19Z</time>
      </trkpt>
      <trkpt lat="28.4077560" lon="-16.5143400">
        <ele>401.0</ele>
        <time>2020-10-16T09:39:23Z</time>
      </trkpt>
      <trkpt lat="28.4076820" lon="-16.5142220">
        <ele>402.2</ele>
        <time>2020-10-16T09:39:27Z</time>
      </trkpt>
      <trkpt lat="28.4076480" lon="-16.5141630">
        <ele>403.4</ele>
        <time>2020-10-16T09:39:29Z</time>
      </trkpt>
      <trkpt lat="28.4075850" lon="-16.5140420">
        <ele>404.6</ele>
        <time>2020-10-16T09:39:33Z</time>
      </trkpt>
      <trkpt lat="28.4075250" lon="-16.5139170">
        <ele>405.8</ele>
        <time>2020-10-16T09:39:37Z</time>
      </trkpt>
      <trkpt lat="28.4074640" lon="-16.5137890">
        <ele>407.0</ele>
        <time>2020-10-16T09:39:41Z</time>
      </trkpt>
      <trkpt lat="28.4073960" lon="-16.5136650">
        <ele>408.2</ele>
        <time>2020-10-16T09:39:45Z</time>
      </trkpt>
      <trkpt lat="28.4073250" lon="-16.5135450">
        <ele>409.6</ele>
        <time>2020-10-16T09:39:49Z</time>
      </trkpt>
      <trkpt lat="28.4072600" lon="-16.5134600">
        <ele>410.6</ele>
        <time>2020-10-16T09:39:52Z</time>
      </trkpt>
      <trkpt lat="28.4071940" lon="-16.5133790">
        <ele>411.8</ele>
        <time>2020-10-16T09:39:55Z</time>
      </trkpt>
      <trkpt lat="28.4070990" lon="-16.5132720">
        <ele>413.0</ele>
        <time>2020-10-16T09:39:59Z</time>
      </trkpt>
      <trkpt lat="28.4070220" lon="-16.5132010">
        <ele>414.4</ele>
        <time>2020-10-16T09:40:02Z</time>
      </trkpt>
      <trkpt lat="28.4069120" lon="-16.5131170">
        <ele>415.4</ele>
        <time>2020-10-16T09:40:06Z</time>
      </trkpt>
      <trkpt lat="28.4067930" lon="-16.5130440">
        <ele>416.4</ele>
        <time>2020-10-16T09:40:10Z</time>
      </trkpt>
      <trkpt lat="28.4066650" lon="-16.5129840">
        <ele>417.4</ele>
        <time>2020-10-16T09:40:14Z</time>
      </trkpt>
      <trkpt lat="28.4064530" lon="-16.5129190">
        <ele>418.4</ele>
        <time>2020-10-16T09:40:20Z</time>
      </trkpt>
      <trkpt lat="28.4062680" lon="-16.5129150">
        <ele>419.4</ele>
        <time>2020-10-16T09:40:25Z</time>
      </trkpt>
      <trkpt lat="28.4060560" lon="-16.5129680">
        <ele>420.6</ele>
        <time>2020-10-16T09:40:31Z</time>
      </trkpt>
      <trkpt lat="28.4058860" lon="-16.5130480">
        <ele>421.8</ele>
        <time>2020-10-16T09:40:36Z</time>
      </trkpt>
      <trkpt lat="28.4057230" lon="-16.5131430">
        <ele>422.8</ele>
        <time>2020-10-16T09:40:41Z</time>
      </trkpt>
      <trkpt lat="28.4055390" lon="-16.5132780">
        <ele>423.8</ele>
        <time>2020-10-16T09:40:47Z</time>
      </trkpt>
      <trkpt lat="28.4053440" lon="-16.5134380">
        <ele>425.0</ele>
        <time>2020-10-16T09:40:53Z</time>
      </trkpt>
      <trkpt lat="28.4051490" lon="-16.5135850">
        <ele>426.2</ele>
        <time>2020-10-16T09:40:59Z</time>
      </trkpt>
      <trkpt lat="28.4050170" lon="-16.5136860">
        <ele>427.2</ele>
        <time>2020-10-16T09:41:03Z</time>
      </trkpt>
      <trkpt lat="28.4048790" lon="-16.5138020">
        <ele>428.4</ele>
        <time>2020-10-16T09:41:07Z</time>
      </trkpt>
      <trkpt lat="28.4046670" lon="-16.5139670">
        <ele>429.6</ele>
        <time>2020-10-16T09:41:13Z</time>
      </trkpt>
      <trkpt lat="28.4045040" lon="-16.5140630">
        <ele>430.0</ele>
        <time>2020-10-16T09:41:17Z</time>
      </trkpt>
      <trkpt lat="28.4043000" lon="-16.5141740">
        <ele>430.0</ele>
        <time>2020-10-16T09:41:21Z</time>
      </trkpt>
      <trkpt lat="28.4041930" lon="-16.5142290">
        <ele>430.0</ele>
        <time>2020-10-16T09:41:23Z</time>
      </trkpt>
      <trkpt lat="28.4038010" lon="-16.5141380">
        <ele>428.0</ele>
        <time>2020-10-16T09:41:30Z</time>
      </trkpt>
      <trkpt lat="28.4037500" lon="-16.5141040">
        <ele>427.8</ele>
        <time>2020-10-16T09:41:31Z</time>
      </trkpt>
      <trkpt lat="28.4034710" lon="-16.5141070">
        <ele>427.2</ele>
        <time>2020-10-16T09:41:37Z</time>
      </trkpt>
      <trkpt lat="28.4033420" lon="-16.5138750">
        <ele>427.2</ele>
        <time>2020-10-16T09:41:43Z</time>
      </trkpt>
      <trkpt lat="28.4033370" lon="-16.5138250">
        <ele>427.2</ele>
        <time>2020-10-16T09:41:44Z</time>
      </trkpt>
      <trkpt lat="28.4032030" lon="-16.5136330">
        <ele>427.2</ele>
        <time>2020-10-16T09:41:49Z</time>
      </trkpt>
      <trkpt lat="28.4030020" lon="-16.5134810">
        <ele>428.6</ele>
        <time>2020-10-16T09:41:55Z</time>
      </trkpt>
      <trkpt lat="28.4029690" lon="-16.5134550">
        <ele>429.0</ele>
        <time>2020-10-16T09:41:56Z</time>
      </trkpt>
      <trkpt lat="28.4028750" lon="-16.5133790">
        <ele>430.0</ele>
        <time>2020-10-16T09:41:59Z</time>
      </trkpt>
      <trkpt lat="28.4027630" lon="-16.5132600">
        <ele>431.2</ele>
        <time>2020-10-16T09:42:03Z</time>
      </trkpt>
      <trkpt lat="28.4027050" lon="-16.5130550">
        <ele>432.4</ele>
        <time>2020-10-16T09:42:08Z</time>
      </trkpt>
      <trkpt lat="28.4028310" lon="-16.5128850">
        <ele>433.4</ele>
        <time>2020-10-16T09:42:13Z</time>
      </trkpt>
      <trkpt lat="28.4029940" lon="-16.5128670">
        <ele>434.6</ele>
        <time>2020-10-16T09:42:17Z</time>
      </trkpt>
      <trkpt lat="28.4031400" lon="-16.5129410">
        <ele>435.6</ele>
        <time>2020-10-16T09:42:21Z</time>
      </trkpt>
      <trkpt lat="28.4033090" lon="-16.5130790">
        <ele>436.8</ele>
        <time>2020-10-16T09:42:26Z</time>
      </trkpt>
      <trkpt lat="28.4035130" lon="-16.5132610">
        <ele>437.8</ele>
        <time>2020-10-16T09:42:32Z</time>
      </trkpt>
      <trkpt lat="28.4036530" lon="-16.5131350">
        <ele>439.2</ele>
        <time>2020-10-16T09:42:37Z</time>
      </trkpt>
      <trkpt lat="28.4036780" lon="-16.5130070">
        <ele>439.8</ele>
        <time>2020-10-16T09:42:40Z</time>
      </trkpt>
      <trkpt lat="28.4036940" lon="-16.5129160">
        <ele>440.2</ele>
        <time>2020-10-16T09:42:42Z</time>
      </trkpt>
      <trkpt lat="28.4037320" lon="-16.5127430">
        <ele>441.2</ele>
        <time>2020-10-16T09:42:46Z</time>
      </trkpt>
      <trkpt lat="28.4037680" lon="-16.5125730">
        <ele>442.6</ele>
        <time>2020-10-16T09:42:50Z</time>
      </trkpt>
      <trkpt lat="28.4037970" lon="-16.5124460">
        <ele>443.8</ele>
        <time>2020-10-16T09:42:53Z</time>
      </trkpt>
      <trkpt lat="28.4038260" lon="-16.5123160">
        <ele>444.8</ele>
        <time>2020-10-16T09:42:56Z</time>
      </trkpt>
      <trkpt lat="28.4038720" lon="-16.5121440">
        <ele>445.6</ele>
        <time>2020-10-16T09:43:00Z</time>
      </trkpt>
      <trkpt lat="28.4039230" lon="-16.5119700">
        <ele>446.8</ele>
        <time>2020-10-16T09:43:04Z</time>
      </trkpt>
      <trkpt lat="28.4040240" lon="-16.5117840">
        <ele>448.2</ele>
        <time>2020-10-16T09:43:09Z</time>
      </trkpt>
      <trkpt lat="28.4041860" lon="-16.5116050">
        <ele>449.2</ele>
        <time>2020-10-16T09:43:14Z</time>
      </trkpt>
      <trkpt lat="28.4043600" lon="-16.5114400">
        <ele>449.4</ele>
        <time>2020-10-16T09:43:18Z</time>
      </trkpt>
      <trkpt lat="28.4046510" lon="-16.5111400">
        <ele>449.4</ele>
        <time>2020-10-16T09:43:24Z</time>
      </trkpt>
      <trkpt lat="28.4048050" lon="-16.5109840">
        <ele>449.0</ele>
        <time>2020-10-16T09:43:27Z</time>
      </trkpt>
      <trkpt lat="28.4050090" lon="-16.5107870">
        <ele>448.2</ele>
        <time>2020-10-16T09:43:31Z</time>
      </trkpt>
      <trkpt lat="28.4050550" lon="-16.5107400">
        <ele>448.0</ele>
        <time>2020-10-16T09:43:32Z</time>
      </trkpt>
      <trkpt lat="28.4054280" lon="-16.5102810">
        <ele>447.0</ele>
        <time>2020-10-16T09:43:41Z</time>
      </trkpt>
      <trkpt lat="28.4055310" lon="-16.5101190">
        <ele>447.0</ele>
        <time>2020-10-16T09:43:44Z</time>
      </trkpt>
      <trkpt lat="28.4058470" lon="-16.5096300">
        <ele>448.0</ele>
        <time>2020-10-16T09:43:54Z</time>
      </trkpt>
      <trkpt lat="28.4060530" lon="-16.5093980">
        <ele>449.2</ele>
        <time>2020-10-16T09:44:00Z</time>
      </trkpt>
      <trkpt lat="28.4062280" lon="-16.5092580">
        <ele>450.2</ele>
        <time>2020-10-16T09:44:05Z</time>
      </trkpt>
      <trkpt lat="28.4063990" lon="-16.5091270">
        <ele>451.2</ele>
        <time>2020-10-16T09:44:10Z</time>
      </trkpt>
      <trkpt lat="28.4065300" lon="-16.5090220">
        <ele>452.4</ele>
        <time>2020-10-16T09:44:14Z</time>
      </trkpt>
      <trkpt lat="28.4066590" lon="-16.5089190">
        <ele>453.4</ele>
        <time>2020-10-16T09:44:18Z</time>
      </trkpt>
      <trkpt lat="28.4067860" lon="-16.5088190">
        <ele>454.4</ele>
        <time>2020-10-16T09:44:22Z</time>
      </trkpt>
      <trkpt lat="28.4069190" lon="-16.5087300">
        <ele>455.4</ele>
        <time>2020-10-16T09:44:26Z</time>
      </trkpt>
      <trkpt lat="28.4070620" lon="-16.5086570">
        <ele>456.4</ele>
        <time>2020-10-16T09:44:30Z</time>
      </trkpt>
      <trkpt lat="28.4072190" lon="-16.5085920">
        <ele>457.4</ele>
        <time>2020-10-16T09:44:34Z</time>
      </trkpt>
      <trkpt lat="28.4074620" lon="-16.5085400">
        <ele>458.6</ele>
        <time>2020-10-16T09:44:40Z</time>
      </trkpt>
      <trkpt lat="28.4076730" lon="-16.5085200">
        <ele>459.6</ele>
        <time>2020-10-16T09:44:45Z</time>
      </trkpt>
      <trkpt lat="28.4077150" lon="-16.5085160">
        <ele>459.8</ele>
        <time>2020-10-16T09:44:46Z</time>
      </trkpt>
      <trkpt lat="28.4080170" lon="-16.5084940">
        <ele>460.8</ele>
        <time>2020-10-16T09:44:53Z</time>
      </trkpt>
      <trkpt lat="28.4083640" lon="-16.5084990">
        <ele>462.0</ele>
        <time>2020-10-16T09:45:01Z</time>
      </trkpt>
      <trkpt lat="28.4086510" lon="-16.5085250">
        <ele>463.0</ele>
        <time>2020-10-16T09:45:08Z</time>
      </trkpt>
      <trkpt lat="28.4088880" lon="-16.5085490">
        <ele>464.2</ele>
        <time>2020-10-16T09:45:14Z</time>
      </trkpt>
      <trkpt lat="28.4090420" lon="-16.5085670">
        <ele>465.2</ele>
        <time>2020-10-16T09:45:18Z</time>
      </trkpt>
      <trkpt lat="28.4092240" lon="-16.5085970">
        <ele>466.4</ele>
        <time>2020-10-16T09:45:23Z</time>
      </trkpt>
      <trkpt lat="28.4093770" lon="-16.5086130">
        <ele>467.4</ele>
        <time>2020-10-16T09:45:27Z</time>
      </trkpt>
      <trkpt lat="28.4095560" lon="-16.5086570">
        <ele>468.6</ele>
        <time>2020-10-16T09:45:32Z</time>
      </trkpt>
      <trkpt lat="28.4096630" lon="-16.5086890">
        <ele>469.6</ele>
        <time>2020-10-16T09:45:35Z</time>
      </trkpt>
      <trkpt lat="28.4098010" lon="-16.5087400">
        <ele>470.6</ele>
        <time>2020-10-16T09:45:39Z</time>
      </trkpt>
      <trkpt lat="28.4099760" lon="-16.5087770">
        <ele>471.8</ele>
        <time>2020-10-16T09:45:44Z</time>
      </trkpt>
      <trkpt lat="28.4101580" lon="-16.5087950">
        <ele>472.8</ele>
        <time>2020-10-16T09:45:49Z</time>
      </trkpt>
      <trkpt lat="28.4103370" lon="-16.5088200">
        <ele>474.0</ele>
        <time>2020-10-16T09:45:54Z</time>
      </trkpt>
      <trkpt lat="28.4105190" lon="-16.5088600">
        <ele>475.2</ele>
        <time>2020-10-16T09:45:59Z</time>
      </trkpt>
      <trkpt lat="28.4106970" lon="-16.5089070">
        <ele>476.2</ele>
        <time>2020-10-16T09:46:04Z</time>
      </trkpt>
      <trkpt lat="28.4109140" lon="-16.5089620">
        <ele>477.4</ele>
        <time>2020-10-16T09:46:10Z</time>
      </trkpt>
      <trkpt lat="28.4110970" lon="-16.5090010">
        <ele>478.4</ele>
        <time>2020-10-16T09:46:15Z</time>
      </trkpt>
      <trkpt lat="28.4113180" lon="-16.5090380">
        <ele>479.6</ele>
        <time>2020-10-16T09:46:21Z</time>
      </trkpt>
      <trkpt lat="28.4114600" lon="-16.5090630">
        <ele>480.6</ele>
        <time>2020-10-16T09:46:25Z</time>
      </trkpt>
      <trkpt lat="28.4116090" lon="-16.5090560">
        <ele>481.8</ele>
        <time>2020-10-16T09:46:29Z</time>
      </trkpt>
      <trkpt lat="28.4117980" lon="-16.5090020">
        <ele>482.8</ele>
        <time>2020-10-16T09:46:34Z</time>
      </trkpt>
      <trkpt lat="28.4119800" lon="-16.5089240">
        <ele>484.0</ele>
        <time>2020-10-16T09:46:39Z</time>
      </trkpt>
      <trkpt lat="28.4121500" lon="-16.5088380">
        <ele>485.0</ele>
        <time>2020-10-16T09:46:44Z</time>
      </trkpt>
      <trkpt lat="28.4122850" lon="-16.5087630">
        <ele>486.0</ele>
        <time>2020-10-16T09:46:48Z</time>
      </trkpt>
      <trkpt lat="28.4123200" lon="-16.5087420">
        <ele>486.2</ele>
        <time>2020-10-16T09:46:49Z</time>
      </trkpt>
      <trkpt lat="28.4124870" lon="-16.5086410">
        <ele>487.4</ele>
        <time>2020-10-16T09:46:54Z</time>
      </trkpt>
      <trkpt lat="28.4126600" lon="-16.5085420">
        <ele>488.6</ele>
        <time>2020-10-16T09:46:59Z</time>
      </trkpt>
      <trkpt lat="28.4128240" lon="-16.5084320">
        <ele>489.6</ele>
        <time>2020-10-16T09:47:04Z</time>
      </trkpt>
      <trkpt lat="28.4129550" lon="-16.5082880">
        <ele>490.8</ele>
        <time>2020-10-16T09:47:09Z</time>
      </trkpt>
      <trkpt lat="28.4130290" lon="-16.5081480">
        <ele>492.0</ele>
        <time>2020-10-16T09:47:13Z</time>
      </trkpt>
      <trkpt lat="28.4131030" lon="-16.5080090">
        <ele>493.2</ele>
        <time>2020-10-16T09:47:17Z</time>
      </trkpt>
      <trkpt lat="28.4131860" lon="-16.5078830">
        <ele>494.2</ele>
        <time>2020-10-16T09:47:21Z</time>
      </trkpt>
      <trkpt lat="28.4132810" lon="-16.5077640">
        <ele>495.2</ele>
        <time>2020-10-16T09:47:25Z</time>
      </trkpt>
      <trkpt lat="28.4134760" lon="-16.5075770">
        <ele>496.4</ele>
        <time>2020-10-16T09:47:32Z</time>
      </trkpt>
      <trkpt lat="28.4135990" lon="-16.5074700">
        <ele>302.4</ele>
        <time>2020-10-16T09:47:36Z</time>
      </trkpt>
      <trkpt lat="28.4137900" lon="-16.5072950">
        <ele>498.6</ele>
        <time>2020-10-16T09:47:42Z</time>
      </trkpt>
      <trkpt lat="28.4139450" lon="-16.5071540">
        <ele>499.6</ele>
        <time>2020-10-16T09:47:47Z</time>
      </trkpt>
      <trkpt lat="28.4140930" lon="-16.5070170">
        <ele>501.0</ele>
        <time>2020-10-16T09:47:52Z</time>
      </trkpt>
      <trkpt lat="28.4142370" lon="-16.5068880">
        <ele>502.0</ele>
        <time>2020-10-16T09:47:57Z</time>
      </trkpt>
      <trkpt lat="28.4143720" lon="-16.5067460">
        <ele>503.2</ele>
        <time>2020-10-16T09:48:03Z</time>
      </trkpt>
      <trkpt lat="28.4144860" lon="-16.5066470">
        <ele>504.2</ele>
        <time>2020-10-16T09:48:08Z</time>
      </trkpt>
      <trkpt lat="28.4146050" lon="-16.5065550">
        <ele>505.2</ele>
        <time>2020-10-16T09:48:13Z</time>
      </trkpt>
      <trkpt lat="28.4147240" lon="-16.5064410">
        <ele>506.4</ele>
        <time>2020-10-16T09:48:19Z</time>
      </trkpt>
      <trkpt lat="28.4148680" lon="-16.5063320">
        <ele>507.4</ele>
        <time>2020-10-16T09:48:26Z</time>
      </trkpt>
      <trkpt lat="28.4150280" lon="-16.5062360">
        <ele>508.4</ele>
        <time>2020-10-16T09:48:33Z</time>
      </trkpt>
      <trkpt lat="28.4151110" lon="-16.5061800">
        <ele>509.0</ele>
        <time>2020-10-16T09:48:37Z</time>
      </trkpt>
      <trkpt lat="28.4150820" lon="-16.5061470">
        <ele>509.6</ele>
        <time>2020-10-16T09:48:40Z</time>
      </trkpt>
      <trkpt lat="28.4150020" lon="-16.5061740">
        <ele>510.2</ele>
        <time>2020-10-16T09:48:43Z</time>
      </trkpt>
      <trkpt lat="28.4149410" lon="-16.5061980">
        <ele>510.6</ele>
        <time>2020-10-16T09:48:45Z</time>
      </trkpt>
      <trkpt lat="28.4146210" lon="-16.5063170">
        <ele>511.4</ele>
        <time>2020-10-16T09:48:54Z</time>
      </trkpt>
      <trkpt lat="28.4141060" lon="-16.5067010">
        <ele>512.2</ele>
        <time>2020-10-16T09:49:05Z</time>
      </trkpt>
      <trkpt lat="28.4140100" lon="-16.5067920">
        <ele>512.4</ele>
        <time>2020-10-16T09:49:08Z</time>
      </trkpt>
      <trkpt lat="28.4139600" lon="-16.5068350">
        <ele>512.4</ele>
        <time>2020-10-16T09:49:09Z</time>
      </trkpt>
      <trkpt lat="28.4135990" lon="-16.5071580">
        <ele>512.6</ele>
        <time>2020-10-16T09:49:16Z</time>
      </trkpt>
      <trkpt lat="28.4134400" lon="-16.5073060">
        <ele>512.2</ele>
        <time>2020-10-16T09:49:19Z</time>
      </trkpt>
      <trkpt lat="28.4133320" lon="-16.5074110">
        <ele>512.2</ele>
        <time>2020-10-16T09:49:21Z</time>
      </trkpt>
      <trkpt lat="28.4129620" lon="-16.5078410">
        <ele>511.4</ele>
        <time>2020-10-16T09:49:28Z</time>
      </trkpt>
      <trkpt lat="28.4127360" lon="-16.5080600">
        <ele>510.2</ele>
        <time>2020-10-16T09:49:32Z</time>
      </trkpt>
      <trkpt lat="28.4124680" lon="-16.5082960">
        <ele>509.6</ele>
        <time>2020-10-16T09:49:37Z</time>
      </trkpt>
      <trkpt lat="28.4121940" lon="-16.5084570">
        <ele>509.6</ele>
        <time>2020-10-16T09:49:42Z</time>
      </trkpt>
      <trkpt lat="28.4116340" lon="-16.5085250">
        <ele>511.0</ele>
        <time>2020-10-16T09:49:52Z</time>
      </trkpt>
      <trkpt lat="28.4115800" lon="-16.5085280">
        <ele>511.0</ele>
        <time>2020-10-16T09:49:53Z</time>
      </trkpt>
      <trkpt lat="28.4113720" lon="-16.5085160">
        <ele>511.8</ele>
        <time>2020-10-16T09:49:57Z</time>
      </trkpt>
      <trkpt lat="28.4113230" lon="-16.5085020">
        <ele>512.2</ele>
        <time>2020-10-16T09:49:58Z</time>
      </trkpt>
      <trkpt lat="28.4111860" lon="-16.5084390">
        <ele>512.6</ele>
        <time>2020-10-16T09:50:01Z</time>
      </trkpt>
      <trkpt lat="28.4109640" lon="-16.5083180">
        <ele>513.2</ele>
        <time>2020-10-16T09:50:06Z</time>
      </trkpt>
      <trkpt lat="28.4107800" lon="-16.5082260">
        <ele>513.8</ele>
        <time>2020-10-16T09:50:10Z</time>
      </trkpt>
      <trkpt lat="28.4105830" lon="-16.5081730">
        <ele>514.4</ele>
        <time>2020-10-16T09:50:14Z</time>
      </trkpt>
      <trkpt lat="28.4101360" lon="-16.5081010">
        <ele>515.4</ele>
        <time>2020-10-16T09:50:22Z</time>
      </trkpt>
      <trkpt lat="28.4095970" lon="-16.5079300">
        <ele>516.0</ele>
        <time>2020-10-16T09:50:31Z</time>
      </trkpt>
      <trkpt lat="28.4092080" lon="-16.5077530">
        <ele>516.2</ele>
        <time>2020-10-16T09:50:38Z</time>
      </trkpt>
      <trkpt lat="28.4091540" lon="-16.5077280">
        <ele>516.2</ele>
        <time>2020-10-16T09:50:39Z</time>
      </trkpt>
      <trkpt lat="28.4086800" lon="-16.5074980">
        <ele>517.4</ele>
        <time>2020-10-16T09:50:48Z</time>
      </trkpt>
      <trkpt lat="28.4081390" lon="-16.5072430">
        <ele>518.4</ele>
        <time>2020-10-16T09:50:58Z</time>
      </trkpt>
      <trkpt lat="28.4080290" lon="-16.5071830">
        <ele>518.6</ele>
        <time>2020-10-16T09:51:00Z</time>
      </trkpt>
      <trkpt lat="28.4079260" lon="-16.5071060">
        <ele>518.8</ele>
        <time>2020-10-16T09:51:02Z</time>
      </trkpt>
      <trkpt lat="28.4076760" lon="-16.5068110">
        <ele>519.2</ele>
        <time>2020-10-16T09:51:08Z</time>
      </trkpt>
      <trkpt lat="28.4076300" lon="-16.5067710">
        <ele>519.4</ele>
        <time>2020-10-16T09:51:09Z</time>
      </trkpt>
      <trkpt lat="28.4072730" lon="-16.5065400">
        <ele>519.8</ele>
        <time>2020-10-16T09:51:15Z</time>
      </trkpt>
      <trkpt lat="28.4071260" lon="-16.5064630">
        <ele>519.8</ele>
        <time>2020-10-16T09:51:17Z</time>
      </trkpt>
      <trkpt lat="28.4070480" lon="-16.5064360">
        <ele>519.8</ele>
        <time>2020-10-16T09:51:18Z</time>
      </trkpt>
      <trkpt lat="28.4068900" lon="-16.5064220">
        <ele>519.8</ele>
        <time>2020-10-16T09:51:20Z</time>
      </trkpt>
      <trkpt lat="28.4065030" lon="-16.5067610">
        <ele>519.8</ele>
        <time>2020-10-16T09:51:26Z</time>
      </trkpt>
      <trkpt lat="28.4064530" lon="-16.5068360">
        <ele>519.8</ele>
        <time>2020-10-16T09:51:27Z</time>
      </trkpt>
      <trkpt lat="28.4058880" lon="-16.5070130">
        <ele>519.8</ele>
        <time>2020-10-16T09:51:34Z</time>
      </trkpt>
      <trkpt lat="28.4053580" lon="-16.5070260">
        <ele>517.6</ele>
        <time>2020-10-16T09:51:39Z</time>
      </trkpt>
      <trkpt lat="28.4050160" lon="-16.5070840">
        <ele>516.6</ele>
        <time>2020-10-16T09:51:42Z</time>
      </trkpt>
      <trkpt lat="28.4046580" lon="-16.5071350">
        <ele>515.4</ele>
        <time>2020-10-16T09:51:45Z</time>
      </trkpt>
      <trkpt lat="28.4044130" lon="-16.5071370">
        <ele>514.4</ele>
        <time>2020-10-16T09:51:47Z</time>
      </trkpt>
      <trkpt lat="28.4041600" lon="-16.5071380">
        <ele>513.2</ele>
        <time>2020-10-16T09:51:49Z</time>
      </trkpt>
      <trkpt lat="28.4037830" lon="-16.5071500">
        <ele>512.0</ele>
        <time>2020-10-16T09:51:52Z</time>
      </trkpt>
      <trkpt lat="28.4035420" lon="-16.5071950">
        <ele>510.2</ele>
        <time>2020-10-16T09:51:54Z</time>
      </trkpt>
      <trkpt lat="28.4033120" lon="-16.5072770">
        <ele>508.6</ele>
        <time>2020-10-16T09:51:56Z</time>
      </trkpt>
      <trkpt lat="28.4030970" lon="-16.5073800">
        <ele>507.2</ele>
        <time>2020-10-16T09:51:58Z</time>
      </trkpt>
      <trkpt lat="28.4028820" lon="-16.5074680">
        <ele>506.0</ele>
        <time>2020-10-16T09:52:00Z</time>
      </trkpt>
      <trkpt lat="28.4023420" lon="-16.5075900">
        <ele>505.0</ele>
        <time>2020-10-16T09:52:05Z</time>
      </trkpt>
      <trkpt lat="28.4021420" lon="-16.5076470">
        <ele>504.6</ele>
        <time>2020-10-16T09:52:07Z</time>
      </trkpt>
      <trkpt lat="28.4020520" lon="-16.5076890">
        <ele>504.4</ele>
        <time>2020-10-16T09:52:08Z</time>
      </trkpt>
      <trkpt lat="28.4017650" lon="-16.5079370">
        <ele>503.8</ele>
        <time>2020-10-16T09:52:12Z</time>
      </trkpt>
      <trkpt lat="28.4013900" lon="-16.5083800">
        <ele>503.8</ele>
        <time>2020-10-16T09:52:19Z</time>
      </trkpt>
      <trkpt lat="28.4010880" lon="-16.5085300">
        <ele>504.6</ele>
        <time>2020-10-16T09:52:24Z</time>
      </trkpt>
      <trkpt lat="28.4009690" lon="-16.5085760">
        <ele>505.0</ele>
        <time>2020-10-16T09:52:26Z</time>
      </trkpt>
      <trkpt lat="28.4004360" lon="-16.5087840">
        <ele>505.6</ele>
        <time>2020-10-16T09:52:35Z</time>
      </trkpt>
      <trkpt lat="28.4000090" lon="-16.5089580">
        <ele>505.6</ele>
        <time>2020-10-16T09:52:41Z</time>
      </trkpt>
      <trkpt lat="28.3998600" lon="-16.5090410">
        <ele>505.6</ele>
        <time>2020-10-16T09:52:43Z</time>
      </trkpt>
      <trkpt lat="28.3996010" lon="-16.5094120">
        <ele>504.8</ele>
        <time>2020-10-16T09:52:48Z</time>
      </trkpt>
      <trkpt lat="28.3994540" lon="-16.5097560">
        <ele>504.4</ele>
        <time>2020-10-16T09:52:52Z</time>
      </trkpt>
      <trkpt lat="28.3992480" lon="-16.5099850">
        <ele>504.4</ele>
        <time>2020-10-16T09:52:56Z</time>
      </trkpt>
      <trkpt lat="28.3990860" lon="-16.5100940">
        <ele>504.4</ele>
        <time>2020-10-16T09:52:59Z</time>
      </trkpt>
      <trkpt lat="28.3989130" lon="-16.5101500">
        <ele>504.4</ele>
        <time>2020-10-16T09:53:02Z</time>
      </trkpt>
      <trkpt lat="28.3988600" lon="-16.5101780">
        <ele>504.4</ele>
        <time>2020-10-16T09:53:03Z</time>
      </trkpt>
      <trkpt lat="28.3986930" lon="-16.5103090">
        <ele>505.8</ele>
        <time>2020-10-16T09:53:07Z</time>
      </trkpt>
      <trkpt lat="28.3986570" lon="-16.5103390">
        <ele>506.2</ele>
        <time>2020-10-16T09:53:08Z</time>
      </trkpt>
      <trkpt lat="28.3985160" lon="-16.5104660">
        <ele>507.4</ele>
        <time>2020-10-16T09:53:12Z</time>
      </trkpt>
      <trkpt lat="28.3983980" lon="-16.5105570">
        <ele>508.6</ele>
        <time>2020-10-16T09:53:15Z</time>
      </trkpt>
      <trkpt lat="28.3982090" lon="-16.5106130">
        <ele>509.8</ele>
        <time>2020-10-16T09:53:19Z</time>
      </trkpt>
      <trkpt lat="28.3980650" lon="-16.5106240">
        <ele>511.0</ele>
        <time>2020-10-16T09:53:22Z</time>
      </trkpt>
      <trkpt lat="28.3978820" lon="-16.5106350">
        <ele>512.2</ele>
        <time>2020-10-16T09:53:26Z</time>
      </trkpt>
      <trkpt lat="28.3977390" lon="-16.5107010">
        <ele>513.2</ele>
        <time>2020-10-16T09:53:29Z</time>
      </trkpt>
      <trkpt lat="28.3975300" lon="-16.5108070">
        <ele>514.4</ele>
        <time>2020-10-16T09:53:33Z</time>
      </trkpt>
      <trkpt lat="28.3974340" lon="-16.5108720">
        <ele>515.0</ele>
        <time>2020-10-16T09:53:35Z</time>
      </trkpt>
      <trkpt lat="28.3973580" lon="-16.5109650">
        <ele>515.4</ele>
        <time>2020-10-16T09:53:37Z</time>
      </trkpt>
      <trkpt lat="28.3971990" lon="-16.5112180">
        <ele>516.2</ele>
        <time>2020-10-16T09:53:42Z</time>
      </trkpt>
      <trkpt lat="28.3970100" lon="-16.5113530">
        <ele>516.6</ele>
        <time>2020-10-16T09:53:46Z</time>
      </trkpt>
      <trkpt lat="28.3968120" lon="-16.5114550">
        <ele>516.8</ele>
        <time>2020-10-16T09:53:50Z</time>
      </trkpt>
      <trkpt lat="28.3966540" lon="-16.5117680">
        <ele>517.4</ele>
        <time>2020-10-16T09:53:57Z</time>
      </trkpt>
      <trkpt lat="28.3966490" lon="-16.5118160">
        <ele>517.4</ele>
        <time>2020-10-16T09:53:58Z</time>
      </trkpt>
      <trkpt lat="28.3966480" lon="-16.5118640">
        <ele>517.6</ele>
        <time>2020-10-16T09:53:59Z</time>
      </trkpt>
      <trkpt lat="28.3966640" lon="-16.5120680">
        <ele>518.8</ele>
        <time>2020-10-16T09:54:03Z</time>
      </trkpt>
      <trkpt lat="28.3967110" lon="-16.5124440">
        <ele>520.0</ele>
        <time>2020-10-16T09:54:09Z</time>
      </trkpt>
      <trkpt lat="28.3967520" lon="-16.5128080">
        <ele>520.8</ele>
        <time>2020-10-16T09:54:14Z</time>
      </trkpt>
      <trkpt lat="28.3967990" lon="-16.5134680">
        <ele>520.8</ele>
        <time>2020-10-16T09:54:21Z</time>
      </trkpt>
      <trkpt lat="28.3968360" lon="-16.5139230">
        <ele>519.8</ele>
        <time>2020-10-16T09:54:25Z</time>
      </trkpt>
      <trkpt lat="28.3968430" lon="-16.5140400">
        <ele>519.4</ele>
        <time>2020-10-16T09:54:26Z</time>
      </trkpt>
      <trkpt lat="28.3968650" lon="-16.5142810">
        <ele>518.4</ele>
        <time>2020-10-16T09:54:28Z</time>
      </trkpt>
      <trkpt lat="28.3968820" lon="-16.5145250">
        <ele>517.4</ele>
        <time>2020-10-16T09:54:30Z</time>
      </trkpt>
      <trkpt lat="28.3968940" lon="-16.5147670">
        <ele>516.0</ele>
        <time>2020-10-16T09:54:32Z</time>
      </trkpt>
      <trkpt lat="28.3968830" lon="-16.5150190">
        <ele>515.0</ele>
        <time>2020-10-16T09:54:34Z</time>
      </trkpt>
      <trkpt lat="28.3968580" lon="-16.5151380">
        <ele>514.8</ele>
        <time>2020-10-16T09:54:35Z</time>
      </trkpt>
      <trkpt lat="28.3967820" lon="-16.5153650">
        <ele>513.6</ele>
        <time>2020-10-16T09:54:37Z</time>
      </trkpt>
      <trkpt lat="28.3967030" lon="-16.5155690">
        <ele>512.4</ele>
        <time>2020-10-16T09:54:39Z</time>
      </trkpt>
      <trkpt lat="28.3964500" lon="-16.5162000">
        <ele>511.2</ele>
        <time>2020-10-16T09:54:46Z</time>
      </trkpt>
      <trkpt lat="28.3963280" lon="-16.5165480">
        <ele>511.4</ele>
        <time>2020-10-16T09:54:50Z</time>
      </trkpt>
      <trkpt lat="28.3961720" lon="-16.5169850">
        <ele>512.2</ele>
        <time>2020-10-16T09:54:55Z</time>
      </trkpt>
      <trkpt lat="28.3959520" lon="-16.5175780">
        <ele>513.2</ele>
        <time>2020-10-16T09:55:02Z</time>
      </trkpt>
      <trkpt lat="28.3958080" lon="-16.5179860">
        <ele>514.2</ele>
        <time>2020-10-16T09:55:07Z</time>
      </trkpt>
      <trkpt lat="28.3956350" lon="-16.5184440">
        <ele>515.2</ele>
        <time>2020-10-16T09:55:13Z</time>
      </trkpt>
      <trkpt lat="28.3954720" lon="-16.5189020">
        <ele>516.2</ele>
        <time>2020-10-16T09:55:19Z</time>
      </trkpt>
      <trkpt lat="28.3952850" lon="-16.5194180">
        <ele>517.2</ele>
        <time>2020-10-16T09:55:26Z</time>
      </trkpt>
      <trkpt lat="28.3951260" lon="-16.5198270">
        <ele>518.0</ele>
        <time>2020-10-16T09:55:32Z</time>
      </trkpt>
      <trkpt lat="28.3950400" lon="-16.5199230">
        <ele>518.4</ele>
        <time>2020-10-16T09:55:34Z</time>
      </trkpt>
      <trkpt lat="28.3949340" lon="-16.5199750">
        <ele>518.8</ele>
        <time>2020-10-16T09:55:36Z</time>
      </trkpt>
      <trkpt lat="28.3948290" lon="-16.5200240">
        <ele>519.6</ele>
        <time>2020-10-16T09:55:38Z</time>
      </trkpt>
      <trkpt lat="28.3945790" lon="-16.5201260">
        <ele>520.6</ele>
        <time>2020-10-16T09:55:43Z</time>
      </trkpt>
      <trkpt lat="28.3944290" lon="-16.5201280">
        <ele>521.8</ele>
        <time>2020-10-16T09:55:46Z</time>
      </trkpt>
      <trkpt lat="28.3943750" lon="-16.5201300">
        <ele>522.0</ele>
        <time>2020-10-16T09:55:47Z</time>
      </trkpt>
      <trkpt lat="28.3942470" lon="-16.5201420">
        <ele>522.8</ele>
        <time>2020-10-16T09:55:49Z</time>
      </trkpt>
      <trkpt lat="28.3940570" lon="-16.5201500">
        <ele>523.6</ele>
        <time>2020-10-16T09:55:52Z</time>
      </trkpt>
      <trkpt lat="28.3940000" lon="-16.5201600">
        <ele>524.0</ele>
        <time>2020-10-16T09:55:53Z</time>
      </trkpt>
      <trkpt lat="28.3938710" lon="-16.5201970">
        <ele>525.2</ele>
        <time>2020-10-16T09:55:56Z</time>
      </trkpt>
      <trkpt lat="28.3938080" lon="-16.5202010">
        <ele>526.8</ele>
        <time>2020-10-16T09:55:59Z</time>
      </trkpt>
      <trkpt lat="28.3938010" lon="-16.5201840">
        <ele>527.2</ele>
        <time>2020-10-16T09:56:00Z</time>
      </trkpt>
      <trkpt lat="28.3937680" lon="-16.5201740">
        <ele>530.4</ele>
        <time>2020-10-16T09:56:28Z</time>
      </trkpt>
      <trkpt lat="28.3937380" lon="-16.5201880">
        <ele>530.4</ele>
        <time>2020-10-16T09:56:29Z</time>
      </trkpt>
      <trkpt lat="28.3936020" lon="-16.5202670">
        <ele>530.4</ele>
        <time>2020-10-16T09:56:33Z</time>
      </trkpt>
      <trkpt lat="28.3933630" lon="-16.5204560">
        <ele>531.0</ele>
        <time>2020-10-16T09:56:40Z</time>
      </trkpt>
      <trkpt lat="28.3932960" lon="-16.5205340">
        <ele>531.6</ele>
        <time>2020-10-16T09:56:42Z</time>
      </trkpt>
      <trkpt lat="28.3932340" lon="-16.5206050">
        <ele>532.8</ele>
        <time>2020-10-16T09:56:44Z</time>
      </trkpt>
      <trkpt lat="28.3931740" lon="-16.5206730">
        <ele>533.4</ele>
        <time>2020-10-16T09:56:46Z</time>
      </trkpt>
      <trkpt lat="28.3931160" lon="-16.5207460">
        <ele>533.8</ele>
        <time>2020-10-16T09:56:48Z</time>
      </trkpt>
      <trkpt lat="28.3930190" lon="-16.5208410">
        <ele>535.0</ele>
        <time>2020-10-16T09:56:51Z</time>
      </trkpt>
      <trkpt lat="28.3929350" lon="-16.5209380">
        <ele>535.8</ele>
        <time>2020-10-16T09:56:54Z</time>
      </trkpt>
      <trkpt lat="28.3928450" lon="-16.5211010">
        <ele>537.0</ele>
        <time>2020-10-16T09:56:58Z</time>
      </trkpt>
      <trkpt lat="28.3927450" lon="-16.5212540">
        <ele>538.2</ele>
        <time>2020-10-16T09:57:02Z</time>
      </trkpt>
      <trkpt lat="28.3926450" lon="-16.5214100">
        <ele>539.6</ele>
        <time>2020-10-16T09:57:06Z</time>
      </trkpt>
      <trkpt lat="28.3925520" lon="-16.5215640">
        <ele>540.6</ele>
        <time>2020-10-16T09:57:10Z</time>
      </trkpt>
      <trkpt lat="28.3924780" lon="-16.5216630">
        <ele>541.4</ele>
        <time>2020-10-16T09:57:13Z</time>
      </trkpt>
      <trkpt lat="28.3924450" lon="-16.5216930">
        <ele>541.8</ele>
        <time>2020-10-16T09:57:14Z</time>
      </trkpt>
      <trkpt lat="28.3922860" lon="-16.5217670">
        <ele>542.8</ele>
        <time>2020-10-16T09:57:18Z</time>
      </trkpt>
      <trkpt lat="28.3921060" lon="-16.5217510">
        <ele>544.0</ele>
        <time>2020-10-16T09:57:22Z</time>
      </trkpt>
      <trkpt lat="28.3919720" lon="-16.5216430">
        <ele>545.2</ele>
        <time>2020-10-16T09:57:26Z</time>
      </trkpt>
      <trkpt lat="28.3919150" lon="-16.5214750">
        <ele>546.4</ele>
        <time>2020-10-16T09:57:30Z</time>
      </trkpt>
      <trkpt lat="28.3919070" lon="-16.5213340">
        <ele>547.6</ele>
        <time>2020-10-16T09:57:33Z</time>
      </trkpt>
      <trkpt lat="28.3919050" lon="-16.5211030">
        <ele>548.8</ele>
        <time>2020-10-16T09:57:38Z</time>
      </trkpt>
      <trkpt lat="28.3918890" lon="-16.5209310">
        <ele>550.0</ele>
        <time>2020-10-16T09:57:42Z</time>
      </trkpt>
      <trkpt lat="28.3918600" lon="-16.5207690">
        <ele>551.2</ele>
        <time>2020-10-16T09:57:46Z</time>
      </trkpt>
      <trkpt lat="28.3918790" lon="-16.5205820">
        <ele>552.2</ele>
        <time>2020-10-16T09:57:50Z</time>
      </trkpt>
      <trkpt lat="28.3918350" lon="-16.5204290">
        <ele>553.4</ele>
        <time>2020-10-16T09:57:54Z</time>
      </trkpt>
      <trkpt lat="28.3918180" lon="-16.5203490">
        <ele>554.4</ele>
        <time>2020-10-16T09:57:56Z</time>
      </trkpt>
      <trkpt lat="28.3917950" lon="-16.5202090">
        <ele>555.4</ele>
        <time>2020-10-16T09:58:00Z</time>
      </trkpt>
      <trkpt lat="28.3917600" lon="-16.5201040">
        <ele>556.6</ele>
        <time>2020-10-16T09:58:04Z</time>
      </trkpt>
      <trkpt lat="28.3917450" lon="-16.5200280">
        <ele>557.8</ele>
        <time>2020-10-16T09:58:10Z</time>
      </trkpt>
      <trkpt lat="28.3917460" lon="-16.5199940">
        <ele>559.0</ele>
        <time>2020-10-16T09:58:36Z</time>
      </trkpt>
      <trkpt lat="28.3917500" lon="-16.5199700">
        <ele>559.0</ele>
        <time>2020-10-16T09:58:37Z</time>
      </trkpt>
      <trkpt lat="28.3917090" lon="-16.5195030">
        <ele>559.8</ele>
        <time>2020-10-16T09:58:50Z</time>
      </trkpt>
      <trkpt lat="28.3916860" lon="-16.5193010">
        <ele>561.0</ele>
        <time>2020-10-16T09:58:55Z</time>
      </trkpt>
      <trkpt lat="28.3916680" lon="-16.5190910">
        <ele>562.2</ele>
        <time>2020-10-16T09:59:00Z</time>
      </trkpt>
      <trkpt lat="28.3916440" lon="-16.5189270">
        <ele>563.4</ele>
        <time>2020-10-16T09:59:04Z</time>
      </trkpt>
      <trkpt lat="28.3916300" lon="-16.5187120">
        <ele>564.4</ele>
        <time>2020-10-16T09:59:09Z</time>
      </trkpt>
      <trkpt lat="28.3916260" lon="-16.5185310">
        <ele>565.4</ele>
        <time>2020-10-16T09:59:13Z</time>
      </trkpt>
      <trkpt lat="28.3916120" lon="-16.5182950">
        <ele>566.4</ele>
        <time>2020-10-16T09:59:18Z</time>
      </trkpt>
      <trkpt lat="28.3915940" lon="-16.5180620">
        <ele>567.6</ele>
        <time>2020-10-16T09:59:23Z</time>
      </trkpt>
      <trkpt lat="28.3916460" lon="-16.5178230">
        <ele>568.6</ele>
        <time>2020-10-16T09:59:28Z</time>
      </trkpt>
      <trkpt lat="28.3916020" lon="-16.5176610">
        <ele>569.8</ele>
        <time>2020-10-16T09:59:32Z</time>
      </trkpt>
      <trkpt lat="28.3915100" lon="-16.5175970">
        <ele>571.0</ele>
        <time>2020-10-16T09:59:35Z</time>
      </trkpt>
      <trkpt lat="28.3913990" lon="-16.5176140">
        <ele>572.2</ele>
        <time>2020-10-16T09:59:38Z</time>
      </trkpt>
      <trkpt lat="28.3912900" lon="-16.5177180">
        <ele>573.4</ele>
        <time>2020-10-16T09:59:42Z</time>
      </trkpt>
      <trkpt lat="28.3912270" lon="-16.5178690">
        <ele>574.6</ele>
        <time>2020-10-16T09:59:46Z</time>
      </trkpt>
      <trkpt lat="28.3911690" lon="-16.5180290">
        <ele>575.8</ele>
        <time>2020-10-16T09:59:50Z</time>
      </trkpt>
      <trkpt lat="28.3911090" lon="-16.5181890">
        <ele>576.8</ele>
        <time>2020-10-16T09:59:54Z</time>
      </trkpt>
      <trkpt lat="28.3910470" lon="-16.5183420">
        <ele>578.0</ele>
        <time>2020-10-16T09:59:58Z</time>
      </trkpt>
      <trkpt lat="28.3909940" lon="-16.5184890">
        <ele>579.2</ele>
        <time>2020-10-16T10:00:02Z</time>
      </trkpt>
      <trkpt lat="28.3909080" lon="-16.5186210">
        <ele>580.4</ele>
        <time>2020-10-16T10:00:06Z</time>
      </trkpt>
      <trkpt lat="28.3907730" lon="-16.5187230">
        <ele>581.6</ele>
        <time>2020-10-16T10:00:10Z</time>
      </trkpt>
      <trkpt lat="28.3906400" lon="-16.5188210">
        <ele>582.8</ele>
        <time>2020-10-16T10:00:14Z</time>
      </trkpt>
      <trkpt lat="28.3905130" lon="-16.5189250">
        <ele>583.8</ele>
        <time>2020-10-16T10:00:18Z</time>
      </trkpt>
      <trkpt lat="28.3903830" lon="-16.5190210">
        <ele>584.8</ele>
        <time>2020-10-16T10:00:22Z</time>
      </trkpt>
      <trkpt lat="28.3902520" lon="-16.5191160">
        <ele>585.8</ele>
        <time>2020-10-16T10:00:26Z</time>
      </trkpt>
      <trkpt lat="28.3900860" lon="-16.5192310">
        <ele>587.0</ele>
        <time>2020-10-16T10:00:31Z</time>
      </trkpt>
      <trkpt lat="28.3899500" lon="-16.5193250">
        <ele>588.2</ele>
        <time>2020-10-16T10:00:35Z</time>
      </trkpt>
      <trkpt lat="28.3898170" lon="-16.5194180">
        <ele>589.4</ele>
        <time>2020-10-16T10:00:39Z</time>
      </trkpt>
      <trkpt lat="28.3897020" lon="-16.5195400">
        <ele>590.6</ele>
        <time>2020-10-16T10:00:43Z</time>
      </trkpt>
      <trkpt lat="28.3896360" lon="-16.5196470">
        <ele>591.6</ele>
        <time>2020-10-16T10:00:46Z</time>
      </trkpt>
      <trkpt lat="28.3895860" lon="-16.5197600">
        <ele>592.8</ele>
        <time>2020-10-16T10:00:49Z</time>
      </trkpt>
      <trkpt lat="28.3895210" lon="-16.5199120">
        <ele>593.8</ele>
        <time>2020-10-16T10:00:53Z</time>
      </trkpt>
      <trkpt lat="28.3894510" lon="-16.5200650">
        <ele>594.8</ele>
        <time>2020-10-16T10:00:57Z</time>
      </trkpt>
      <trkpt lat="28.3893630" lon="-16.5201990">
        <ele>596.0</ele>
        <time>2020-10-16T10:01:01Z</time>
      </trkpt>
      <trkpt lat="28.3892820" lon="-16.5202840">
        <ele>597.0</ele>
        <time>2020-10-16T10:01:04Z</time>
      </trkpt>
      <trkpt lat="28.3892000" lon="-16.5203380">
        <ele>598.0</ele>
        <time>2020-10-16T10:01:07Z</time>
      </trkpt>
      <trkpt lat="28.3890520" lon="-16.5204610">
        <ele>599.4</ele>
        <time>2020-10-16T10:01:12Z</time>
      </trkpt>
      <trkpt lat="28.3889790" lon="-16.5205210">
        <ele>600.0</ele>
        <time>2020-10-16T10:01:14Z</time>
      </trkpt>
      <trkpt lat="28.3888940" lon="-16.5205540">
        <ele>600.4</ele>
        <time>2020-10-16T10:01:16Z</time>
      </trkpt>
      <trkpt lat="28.3887130" lon="-16.5204200">
        <ele>601.6</ele>
        <time>2020-10-16T10:01:21Z</time>
      </trkpt>
      <trkpt lat="28.3886980" lon="-16.5203670">
        <ele>601.6</ele>
        <time>2020-10-16T10:01:22Z</time>
      </trkpt>
      <trkpt lat="28.3886760" lon="-16.5202500">
        <ele>601.8</ele>
        <time>2020-10-16T10:01:24Z</time>
      </trkpt>
      <trkpt lat="28.3886570" lon="-16.5200430">
        <ele>602.2</ele>
        <time>2020-10-16T10:01:28Z</time>
      </trkpt>
      <trkpt lat="28.3886390" lon="-16.5199610">
        <ele>602.6</ele>
        <time>2020-10-16T10:01:30Z</time>
      </trkpt>
      <trkpt lat="28.3886190" lon="-16.5198470">
        <ele>603.4</ele>
        <time>2020-10-16T10:01:33Z</time>
      </trkpt>
      <trkpt lat="28.3885990" lon="-16.5197340">
        <ele>604.4</ele>
        <time>2020-10-16T10:01:36Z</time>
      </trkpt>
      <trkpt lat="28.3885660" lon="-16.5195820">
        <ele>605.6</ele>
        <time>2020-10-16T10:01:40Z</time>
      </trkpt>
      <trkpt lat="28.3885480" lon="-16.5194680">
        <ele>606.8</ele>
        <time>2020-10-16T10:01:43Z</time>
      </trkpt>
      <trkpt lat="28.3885320" lon="-16.5193550">
        <ele>608.0</ele>
        <time>2020-10-16T10:01:46Z</time>
      </trkpt>
      <trkpt lat="28.3885030" lon="-16.5192100">
        <ele>609.0</ele>
        <time>2020-10-16T10:01:50Z</time>
      </trkpt>
      <trkpt lat="28.3884840" lon="-16.5191040">
        <ele>610.4</ele>
        <time>2020-10-16T10:01:53Z</time>
      </trkpt>
      <trkpt lat="28.3884560" lon="-16.5189640">
        <ele>611.4</ele>
        <time>2020-10-16T10:01:57Z</time>
      </trkpt>
      <trkpt lat="28.3884320" lon="-16.5188180">
        <ele>612.6</ele>
        <time>2020-10-16T10:02:01Z</time>
      </trkpt>
      <trkpt lat="28.3884040" lon="-16.5186750">
        <ele>614.0</ele>
        <time>2020-10-16T10:02:05Z</time>
      </trkpt>
      <trkpt lat="28.3883790" lon="-16.5185280">
        <ele>615.2</ele>
        <time>2020-10-16T10:02:09Z</time>
      </trkpt>
      <trkpt lat="28.3883450" lon="-16.5183490">
        <ele>616.6</ele>
        <time>2020-10-16T10:02:14Z</time>
      </trkpt>
      <trkpt lat="28.3883180" lon="-16.5182060">
        <ele>617.8</ele>
        <time>2020-10-16T10:02:18Z</time>
      </trkpt>
      <trkpt lat="28.3882940" lon="-16.5180670">
        <ele>619.0</ele>
        <time>2020-10-16T10:02:22Z</time>
      </trkpt>
      <trkpt lat="28.3882710" lon="-16.5179270">
        <ele>620.2</ele>
        <time>2020-10-16T10:02:26Z</time>
      </trkpt>
      <trkpt lat="28.3882450" lon="-16.5177760">
        <ele>621.2</ele>
        <time>2020-10-16T10:02:30Z</time>
      </trkpt>
      <trkpt lat="28.3882180" lon="-16.5176230">
        <ele>622.6</ele>
        <time>2020-10-16T10:02:34Z</time>
      </trkpt>
      <trkpt lat="28.3881890" lon="-16.5174670">
        <ele>623.6</ele>
        <time>2020-10-16T10:02:38Z</time>
      </trkpt>
      <trkpt lat="28.3881600" lon="-16.5173010">
        <ele>624.6</ele>
        <time>2020-10-16T10:02:42Z</time>
      </trkpt>
      <trkpt lat="28.3881340" lon="-16.5171350">
        <ele>625.6</ele>
        <time>2020-10-16T10:02:46Z</time>
      </trkpt>
      <trkpt lat="28.3881020" lon="-16.5169730">
        <ele>626.6</ele>
        <time>2020-10-16T10:02:50Z</time>
      </trkpt>
      <trkpt lat="28.3880710" lon="-16.5167650">
        <ele>627.8</ele>
        <time>2020-10-16T10:02:55Z</time>
      </trkpt>
      <trkpt lat="28.3880620" lon="-16.5165520">
        <ele>629.0</ele>
        <time>2020-10-16T10:03:00Z</time>
      </trkpt>
      <trkpt lat="28.3880740" lon="-16.5163710">
        <ele>630.4</ele>
        <time>2020-10-16T10:03:04Z</time>
      </trkpt>
      <trkpt lat="28.3881100" lon="-16.5161910">
        <ele>631.6</ele>
        <time>2020-10-16T10:03:08Z</time>
      </trkpt>
      <trkpt lat="28.3881700" lon="-16.5159710">
        <ele>632.6</ele>
        <time>2020-10-16T10:03:13Z</time>
      </trkpt>
      <trkpt lat="28.3882830" lon="-16.5156570">
        <ele>633.8</ele>
        <time>2020-10-16T10:03:20Z</time>
      </trkpt>
      <trkpt lat="28.3883620" lon="-16.5154460">
        <ele>635.0</ele>
        <time>2020-10-16T10:03:25Z</time>
      </trkpt>
      <trkpt lat="28.3883990" lon="-16.5152340">
        <ele>636.2</ele>
        <time>2020-10-16T10:03:30Z</time>
      </trkpt>
      <trkpt lat="28.3884110" lon="-16.5150650">
        <ele>637.4</ele>
        <time>2020-10-16T10:03:34Z</time>
      </trkpt>
      <trkpt lat="28.3884150" lon="-16.5149410">
        <ele>638.4</ele>
        <time>2020-10-16T10:03:37Z</time>
      </trkpt>
      <trkpt lat="28.3884130" lon="-16.5147730">
        <ele>639.8</ele>
        <time>2020-10-16T10:03:41Z</time>
      </trkpt>
      <trkpt lat="28.3884080" lon="-16.5146020">
        <ele>640.8</ele>
        <time>2020-10-16T10:03:45Z</time>
      </trkpt>
      <trkpt lat="28.3884060" lon="-16.5143900">
        <ele>642.2</ele>
        <time>2020-10-16T10:03:50Z</time>
      </trkpt>
      <trkpt lat="28.3884020" lon="-16.5142210">
        <ele>643.2</ele>
        <time>2020-10-16T10:03:54Z</time>
      </trkpt>
      <trkpt lat="28.3883810" lon="-16.5140520">
        <ele>644.4</ele>
        <time>2020-10-16T10:03:58Z</time>
      </trkpt>
      <trkpt lat="28.3883270" lon="-16.5138990">
        <ele>645.6</ele>
        <time>2020-10-16T10:04:02Z</time>
      </trkpt>
      <trkpt lat="28.3882420" lon="-16.5137690">
        <ele>646.8</ele>
        <time>2020-10-16T10:04:06Z</time>
      </trkpt>
      <trkpt lat="28.3881420" lon="-16.5136670">
        <ele>647.8</ele>
        <time>2020-10-16T10:04:10Z</time>
      </trkpt>
      <trkpt lat="28.3880640" lon="-16.5135630">
        <ele>648.8</ele>
        <time>2020-10-16T10:04:14Z</time>
      </trkpt>
      <trkpt lat="28.3879860" lon="-16.5134460">
        <ele>650.2</ele>
        <time>2020-10-16T10:04:18Z</time>
      </trkpt>
      <trkpt lat="28.3879040" lon="-16.5132920">
        <ele>651.4</ele>
        <time>2020-10-16T10:04:23Z</time>
      </trkpt>
      <trkpt lat="28.3878450" lon="-16.5131640">
        <ele>652.4</ele>
        <time>2020-10-16T10:04:27Z</time>
      </trkpt>
      <trkpt lat="28.3877730" lon="-16.5129980">
        <ele>653.4</ele>
        <time>2020-10-16T10:04:32Z</time>
      </trkpt>
      <trkpt lat="28.3877020" lon="-16.5128380">
        <ele>654.4</ele>
        <time>2020-10-16T10:04:37Z</time>
      </trkpt>
      <trkpt lat="28.3876350" lon="-16.5126500">
        <ele>655.6</ele>
        <time>2020-10-16T10:04:42Z</time>
      </trkpt>
      <trkpt lat="28.3875990" lon="-16.5124490">
        <ele>656.8</ele>
        <time>2020-10-16T10:04:47Z</time>
      </trkpt>
      <trkpt lat="28.3876240" lon="-16.5122790">
        <ele>658.0</ele>
        <time>2020-10-16T10:04:51Z</time>
      </trkpt>
      <trkpt lat="28.3877070" lon="-16.5120720">
        <ele>659.2</ele>
        <time>2020-10-16T10:04:56Z</time>
      </trkpt>
      <trkpt lat="28.3879320" lon="-16.5118560">
        <ele>660.2</ele>
        <time>2020-10-16T10:05:03Z</time>
      </trkpt>
      <trkpt lat="28.3883600" lon="-16.5115860">
        <ele>661.2</ele>
        <time>2020-10-16T10:05:13Z</time>
      </trkpt>
      <trkpt lat="28.3884170" lon="-16.5114940">
        <ele>661.2</ele>
        <time>2020-10-16T10:05:15Z</time>
      </trkpt>
      <trkpt lat="28.3884490" lon="-16.5111870">
        <ele>661.8</ele>
        <time>2020-10-16T10:05:21Z</time>
      </trkpt>
      <trkpt lat="28.3884410" lon="-16.5110920">
        <ele>662.2</ele>
        <time>2020-10-16T10:05:23Z</time>
      </trkpt>
      <trkpt lat="28.3884150" lon="-16.5108860">
        <ele>663.4</ele>
        <time>2020-10-16T10:05:28Z</time>
      </trkpt>
      <trkpt lat="28.3884040" lon="-16.5107360">
        <ele>664.6</ele>
        <time>2020-10-16T10:05:32Z</time>
      </trkpt>
      <trkpt lat="28.3884010" lon="-16.5106190">
        <ele>665.6</ele>
        <time>2020-10-16T10:05:35Z</time>
      </trkpt>
      <trkpt lat="28.3884060" lon="-16.5104670">
        <ele>666.8</ele>
        <time>2020-10-16T10:05:39Z</time>
      </trkpt>
      <trkpt lat="28.3884140" lon="-16.5103100">
        <ele>668.0</ele>
        <time>2020-10-16T10:05:43Z</time>
      </trkpt>
      <trkpt lat="28.3884160" lon="-16.5101560">
        <ele>669.2</ele>
        <time>2020-10-16T10:05:47Z</time>
      </trkpt>
      <trkpt lat="28.3884140" lon="-16.5100430">
        <ele>670.4</ele>
        <time>2020-10-16T10:05:50Z</time>
      </trkpt>
      <trkpt lat="28.3884120" lon="-16.5099680">
        <ele>671.4</ele>
        <time>2020-10-16T10:05:52Z</time>
      </trkpt>
      <trkpt lat="28.3884040" lon="-16.5097880">
        <ele>672.6</ele>
        <time>2020-10-16T10:05:57Z</time>
      </trkpt>
      <trkpt lat="28.3883940" lon="-16.5096140">
        <ele>674.0</ele>
        <time>2020-10-16T10:06:02Z</time>
      </trkpt>
      <trkpt lat="28.3883830" lon="-16.5094780">
        <ele>675.2</ele>
        <time>2020-10-16T10:06:06Z</time>
      </trkpt>
      <trkpt lat="28.3883740" lon="-16.5093390">
        <ele>676.2</ele>
        <time>2020-10-16T10:06:10Z</time>
      </trkpt>
      <trkpt lat="28.3882970" lon="-16.5092380">
        <ele>677.4</ele>
        <time>2020-10-16T10:06:14Z</time>
      </trkpt>
      <trkpt lat="28.3881690" lon="-16.5092350">
        <ele>678.4</ele>
        <time>2020-10-16T10:06:18Z</time>
      </trkpt>
      <trkpt lat="28.3881000" lon="-16.5093000">
        <ele>679.4</ele>
        <time>2020-10-16T10:06:21Z</time>
      </trkpt>
      <trkpt lat="28.3880490" lon="-16.5093820">
        <ele>680.4</ele>
        <time>2020-10-16T10:06:24Z</time>
      </trkpt>
      <trkpt lat="28.3880120" lon="-16.5094330">
        <ele>681.6</ele>
        <time>2020-10-16T10:06:26Z</time>
      </trkpt>
      <trkpt lat="28.3879350" lon="-16.5095370">
        <ele>682.8</ele>
        <time>2020-10-16T10:06:30Z</time>
      </trkpt>
      <trkpt lat="28.3878380" lon="-16.5096300">
        <ele>684.0</ele>
        <time>2020-10-16T10:06:34Z</time>
      </trkpt>
      <trkpt lat="28.3877230" lon="-16.5096980">
        <ele>685.0</ele>
        <time>2020-10-16T10:06:38Z</time>
      </trkpt>
      <trkpt lat="28.3875740" lon="-16.5097550">
        <ele>686.2</ele>
        <time>2020-10-16T10:06:43Z</time>
      </trkpt>
      <trkpt lat="28.3874110" lon="-16.5097780">
        <ele>687.2</ele>
        <time>2020-10-16T10:06:48Z</time>
      </trkpt>
      <trkpt lat="28.3872470" lon="-16.5097850">
        <ele>688.4</ele>
        <time>2020-10-16T10:06:53Z</time>
      </trkpt>
      <trkpt lat="28.3871190" lon="-16.5098040">
        <ele>689.4</ele>
        <time>2020-10-16T10:06:57Z</time>
      </trkpt>
      <trkpt lat="28.3870230" lon="-16.5098120">
        <ele>690.6</ele>
        <time>2020-10-16T10:07:00Z</time>
      </trkpt>
      <trkpt lat="28.3868320" lon="-16.5099010">
        <ele>691.8</ele>
        <time>2020-10-16T10:07:06Z</time>
      </trkpt>
      <trkpt lat="28.3867130" lon="-16.5100880">
        <ele>692.8</ele>
        <time>2020-10-16T10:07:12Z</time>
      </trkpt>
      <trkpt lat="28.3866380" lon="-16.5102670">
        <ele>693.8</ele>
        <time>2020-10-16T10:07:17Z</time>
      </trkpt>
      <trkpt lat="28.3865380" lon="-16.5104750">
        <ele>695.0</ele>
        <time>2020-10-16T10:07:23Z</time>
      </trkpt>
      <trkpt lat="28.3864660" lon="-16.5106390">
        <ele>696.2</ele>
        <time>2020-10-16T10:07:28Z</time>
      </trkpt>
      <trkpt lat="28.3864140" lon="-16.5107280">
        <ele>697.2</ele>
        <time>2020-10-16T10:07:31Z</time>
      </trkpt>
      <trkpt lat="28.3863490" lon="-16.5108130">
        <ele>698.6</ele>
        <time>2020-10-16T10:07:34Z</time>
      </trkpt>
      <trkpt lat="28.3862550" lon="-16.5109180">
        <ele>699.6</ele>
        <time>2020-10-16T10:07:38Z</time>
      </trkpt>
      <trkpt lat="28.3861550" lon="-16.5110240">
        <ele>700.8</ele>
        <time>2020-10-16T10:07:42Z</time>
      </trkpt>
      <trkpt lat="28.3860560" lon="-16.5111300">
        <ele>701.8</ele>
        <time>2020-10-16T10:07:46Z</time>
      </trkpt>
      <trkpt lat="28.3859470" lon="-16.5112750">
        <ele>703.0</ele>
        <time>2020-10-16T10:07:51Z</time>
      </trkpt>
      <trkpt lat="28.3858690" lon="-16.5113960">
        <ele>704.0</ele>
        <time>2020-10-16T10:07:55Z</time>
      </trkpt>
      <trkpt lat="28.3857940" lon="-16.5115140">
        <ele>705.2</ele>
        <time>2020-10-16T10:07:59Z</time>
      </trkpt>
      <trkpt lat="28.3857200" lon="-16.5116360">
        <ele>706.4</ele>
        <time>2020-10-16T10:08:03Z</time>
      </trkpt>
      <trkpt lat="28.3856490" lon="-16.5117590">
        <ele>707.4</ele>
        <time>2020-10-16T10:08:07Z</time>
      </trkpt>
      <trkpt lat="28.3855920" lon="-16.5118500">
        <ele>708.2</ele>
        <time>2020-10-16T10:08:10Z</time>
      </trkpt>
      <trkpt lat="28.3855190" lon="-16.5119720">
        <ele>709.4</ele>
        <time>2020-10-16T10:08:14Z</time>
      </trkpt>
      <trkpt lat="28.3854480" lon="-16.5120940">
        <ele>710.4</ele>
        <time>2020-10-16T10:08:18Z</time>
      </trkpt>
      <trkpt lat="28.3853940" lon="-16.5121810">
        <ele>711.2</ele>
        <time>2020-10-16T10:08:21Z</time>
      </trkpt>
      <trkpt lat="28.3853570" lon="-16.5122370">
        <ele>711.6</ele>
        <time>2020-10-16T10:08:23Z</time>
      </trkpt>
      <trkpt lat="28.3852680" lon="-16.5123550">
        <ele>713.0</ele>
        <time>2020-10-16T10:08:27Z</time>
      </trkpt>
      <trkpt lat="28.3851540" lon="-16.5124640">
        <ele>714.0</ele>
        <time>2020-10-16T10:08:31Z</time>
      </trkpt>
      <trkpt lat="28.3850620" lon="-16.5125420">
        <ele>715.0</ele>
        <time>2020-10-16T10:08:34Z</time>
      </trkpt>
      <trkpt lat="28.3849410" lon="-16.5126600">
        <ele>716.0</ele>
        <time>2020-10-16T10:08:38Z</time>
      </trkpt>
      <trkpt lat="28.3847990" lon="-16.5128060">
        <ele>717.0</ele>
        <time>2020-10-16T10:08:43Z</time>
      </trkpt>
      <trkpt lat="28.3846680" lon="-16.5129470">
        <ele>718.2</ele>
        <time>2020-10-16T10:08:48Z</time>
      </trkpt>
      <trkpt lat="28.3845640" lon="-16.5130660">
        <ele>719.4</ele>
        <time>2020-10-16T10:08:52Z</time>
      </trkpt>
      <trkpt lat="28.3844650" lon="-16.5131980">
        <ele>720.4</ele>
        <time>2020-10-16T10:08:56Z</time>
      </trkpt>
      <trkpt lat="28.3843530" lon="-16.5133660">
        <ele>721.8</ele>
        <time>2020-10-16T10:09:01Z</time>
      </trkpt>
      <trkpt lat="28.3842550" lon="-16.5134990">
        <ele>723.0</ele>
        <time>2020-10-16T10:09:05Z</time>
      </trkpt>
      <trkpt lat="28.3841310" lon="-16.5136590">
        <ele>724.2</ele>
        <time>2020-10-16T10:09:10Z</time>
      </trkpt>
      <trkpt lat="28.3840300" lon="-16.5137870">
        <ele>725.4</ele>
        <time>2020-10-16T10:09:14Z</time>
      </trkpt>
      <trkpt lat="28.3839270" lon="-16.5139120">
        <ele>726.6</ele>
        <time>2020-10-16T10:09:18Z</time>
      </trkpt>
      <trkpt lat="28.3837910" lon="-16.5140580">
        <ele>727.8</ele>
        <time>2020-10-16T10:09:23Z</time>
      </trkpt>
      <trkpt lat="28.3836630" lon="-16.5142080">
        <ele>729.0</ele>
        <time>2020-10-16T10:09:28Z</time>
      </trkpt>
      <trkpt lat="28.3835540" lon="-16.5143200">
        <ele>730.0</ele>
        <time>2020-10-16T10:09:32Z</time>
      </trkpt>
      <trkpt lat="28.3834350" lon="-16.5144070">
        <ele>731.2</ele>
        <time>2020-10-16T10:09:36Z</time>
      </trkpt>
      <trkpt lat="28.3833010" lon="-16.5144600">
        <ele>732.2</ele>
        <time>2020-10-16T10:09:40Z</time>
      </trkpt>
      <trkpt lat="28.3831600" lon="-16.5145030">
        <ele>733.2</ele>
        <time>2020-10-16T10:09:44Z</time>
      </trkpt>
      <trkpt lat="28.3830190" lon="-16.5145470">
        <ele>734.2</ele>
        <time>2020-10-16T10:09:48Z</time>
      </trkpt>
      <trkpt lat="28.3828860" lon="-16.5146100">
        <ele>735.4</ele>
        <time>2020-10-16T10:09:52Z</time>
      </trkpt>
      <trkpt lat="28.3826820" lon="-16.5147190">
        <ele>736.6</ele>
        <time>2020-10-16T10:09:58Z</time>
      </trkpt>
      <trkpt lat="28.3825520" lon="-16.5148080">
        <ele>737.6</ele>
        <time>2020-10-16T10:10:02Z</time>
      </trkpt>
      <trkpt lat="28.3823920" lon="-16.5149150">
        <ele>738.6</ele>
        <time>2020-10-16T10:10:07Z</time>
      </trkpt>
      <trkpt lat="28.3822690" lon="-16.5150060">
        <ele>740.0</ele>
        <time>2020-10-16T10:10:11Z</time>
      </trkpt>
      <trkpt lat="28.3821820" lon="-16.5150790">
        <ele>741.0</ele>
        <time>2020-10-16T10:10:14Z</time>
      </trkpt>
      <trkpt lat="28.3820650" lon="-16.5151800">
        <ele>742.2</ele>
        <time>2020-10-16T10:10:18Z</time>
      </trkpt>
      <trkpt lat="28.3819220" lon="-16.5153200">
        <ele>743.4</ele>
        <time>2020-10-16T10:10:23Z</time>
      </trkpt>
      <trkpt lat="28.3818000" lon="-16.5154200">
        <ele>744.6</ele>
        <time>2020-10-16T10:10:27Z</time>
      </trkpt>
      <trkpt lat="28.3816790" lon="-16.5155160">
        <ele>746.0</ele>
        <time>2020-10-16T10:10:31Z</time>
      </trkpt>
      <trkpt lat="28.3815530" lon="-16.5155990">
        <ele>747.0</ele>
        <time>2020-10-16T10:10:35Z</time>
      </trkpt>
      <trkpt lat="28.3814360" lon="-16.5156910">
        <ele>748.2</ele>
        <time>2020-10-16T10:10:39Z</time>
      </trkpt>
      <trkpt lat="28.3812860" lon="-16.5158070">
        <ele>749.2</ele>
        <time>2020-10-16T10:10:44Z</time>
      </trkpt>
      <trkpt lat="28.3811640" lon="-16.5159040">
        <ele>750.2</ele>
        <time>2020-10-16T10:10:48Z</time>
      </trkpt>
      <trkpt lat="28.3810160" lon="-16.5160210">
        <ele>751.6</ele>
        <time>2020-10-16T10:10:53Z</time>
      </trkpt>
      <trkpt lat="28.3808960" lon="-16.5161100">
        <ele>752.8</ele>
        <time>2020-10-16T10:10:57Z</time>
      </trkpt>
      <trkpt lat="28.3807800" lon="-16.5161960">
        <ele>753.8</ele>
        <time>2020-10-16T10:11:01Z</time>
      </trkpt>
      <trkpt lat="28.3807200" lon="-16.5162360">
        <ele>754.8</ele>
        <time>2020-10-16T10:11:03Z</time>
      </trkpt>
      <trkpt lat="28.3806250" lon="-16.5162840">
        <ele>755.8</ele>
        <time>2020-10-16T10:11:06Z</time>
      </trkpt>
      <trkpt lat="28.3805290" lon="-16.5163270">
        <ele>757.0</ele>
        <time>2020-10-16T10:11:09Z</time>
      </trkpt>
      <trkpt lat="28.3804010" lon="-16.5163940">
        <ele>758.0</ele>
        <time>2020-10-16T10:11:13Z</time>
      </trkpt>
      <trkpt lat="28.3802770" lon="-16.5164500">
        <ele>759.0</ele>
        <time>2020-10-16T10:11:17Z</time>
      </trkpt>
      <trkpt lat="28.3801550" lon="-16.5165190">
        <ele>759.8</ele>
        <time>2020-10-16T10:11:21Z</time>
      </trkpt>
      <trkpt lat="28.3801250" lon="-16.5165380">
        <ele>760.2</ele>
        <time>2020-10-16T10:11:22Z</time>
      </trkpt>
      <trkpt lat="28.3799840" lon="-16.5166430">
        <ele>761.2</ele>
        <time>2020-10-16T10:11:27Z</time>
      </trkpt>
      <trkpt lat="28.3798660" lon="-16.5167800">
        <ele>762.2</ele>
        <time>2020-10-16T10:11:32Z</time>
      </trkpt>
      <trkpt lat="28.3798020" lon="-16.5168720">
        <ele>763.2</ele>
        <time>2020-10-16T10:11:35Z</time>
      </trkpt>
      <trkpt lat="28.3797160" lon="-16.5169890">
        <ele>764.4</ele>
        <time>2020-10-16T10:11:39Z</time>
      </trkpt>
      <trkpt lat="28.3796180" lon="-16.5171030">
        <ele>765.6</ele>
        <time>2020-10-16T10:11:43Z</time>
      </trkpt>
      <trkpt lat="28.3795360" lon="-16.5171750">
        <ele>766.6</ele>
        <time>2020-10-16T10:11:46Z</time>
      </trkpt>
      <trkpt lat="28.3793490" lon="-16.5172630">
        <ele>767.8</ele>
        <time>2020-10-16T10:11:52Z</time>
      </trkpt>
      <trkpt lat="28.3791830" lon="-16.5172840">
        <ele>769.0</ele>
        <time>2020-10-16T10:11:57Z</time>
      </trkpt>
      <trkpt lat="28.3790250" lon="-16.5172550">
        <ele>770.0</ele>
        <time>2020-10-16T10:12:02Z</time>
      </trkpt>
      <trkpt lat="28.3789090" lon="-16.5172100">
        <ele>771.0</ele>
        <time>2020-10-16T10:12:06Z</time>
      </trkpt>
      <trkpt lat="28.3788250" lon="-16.5171810">
        <ele>772.0</ele>
        <time>2020-10-16T10:12:09Z</time>
      </trkpt>
      <trkpt lat="28.3787390" lon="-16.5171610">
        <ele>773.2</ele>
        <time>2020-10-16T10:12:12Z</time>
      </trkpt>
      <trkpt lat="28.3786490" lon="-16.5171600">
        <ele>774.2</ele>
        <time>2020-10-16T10:12:15Z</time>
      </trkpt>
      <trkpt lat="28.3784750" lon="-16.5172200">
        <ele>775.6</ele>
        <time>2020-10-16T10:12:21Z</time>
      </trkpt>
      <trkpt lat="28.3783240" lon="-16.5173070">
        <ele>776.6</ele>
        <time>2020-10-16T10:12:26Z</time>
      </trkpt>
      <trkpt lat="28.3782160" lon="-16.5174630">
        <ele>777.4</ele>
        <time>2020-10-16T10:12:31Z</time>
      </trkpt>
      <trkpt lat="28.3781650" lon="-16.5176820">
        <ele>778.4</ele>
        <time>2020-10-16T10:12:37Z</time>
      </trkpt>
      <trkpt lat="28.3780070" lon="-16.5178230">
        <ele>779.6</ele>
        <time>2020-10-16T10:12:43Z</time>
      </trkpt>
      <trkpt lat="28.3779100" lon="-16.5178660">
        <ele>780.8</ele>
        <time>2020-10-16T10:12:46Z</time>
      </trkpt>
      <trkpt lat="28.3777450" lon="-16.5179230">
        <ele>782.0</ele>
        <time>2020-10-16T10:12:51Z</time>
      </trkpt>
      <trkpt lat="28.3775860" lon="-16.5179940">
        <ele>783.2</ele>
        <time>2020-10-16T10:12:56Z</time>
      </trkpt>
      <trkpt lat="28.3774400" lon="-16.5181060">
        <ele>784.4</ele>
        <time>2020-10-16T10:13:01Z</time>
      </trkpt>
      <trkpt lat="28.3773230" lon="-16.5182520">
        <ele>785.4</ele>
        <time>2020-10-16T10:13:06Z</time>
      </trkpt>
      <trkpt lat="28.3772140" lon="-16.5183960">
        <ele>786.4</ele>
        <time>2020-10-16T10:13:11Z</time>
      </trkpt>
      <trkpt lat="28.3770960" lon="-16.5185420">
        <ele>787.6</ele>
        <time>2020-10-16T10:13:16Z</time>
      </trkpt>
      <trkpt lat="28.3770180" lon="-16.5186550">
        <ele>788.6</ele>
        <time>2020-10-16T10:13:20Z</time>
      </trkpt>
      <trkpt lat="28.3769210" lon="-16.5187920">
        <ele>789.8</ele>
        <time>2020-10-16T10:13:25Z</time>
      </trkpt>
      <trkpt lat="28.3768360" lon="-16.5188970">
        <ele>791.0</ele>
        <time>2020-10-16T10:13:29Z</time>
      </trkpt>
      <trkpt lat="28.3766960" lon="-16.5189760">
        <ele>791.8</ele>
        <time>2020-10-16T10:13:34Z</time>
      </trkpt>
      <trkpt lat="28.3765490" lon="-16.5189370">
        <ele>793.0</ele>
        <time>2020-10-16T10:13:39Z</time>
      </trkpt>
      <trkpt lat="28.3764640" lon="-16.5188380">
        <ele>794.0</ele>
        <time>2020-10-16T10:13:43Z</time>
      </trkpt>
      <trkpt lat="28.3764390" lon="-16.5187130">
        <ele>795.2</ele>
        <time>2020-10-16T10:13:47Z</time>
      </trkpt>
      <trkpt lat="28.3764600" lon="-16.5186190">
        <ele>796.4</ele>
        <time>2020-10-16T10:13:50Z</time>
      </trkpt>
      <trkpt lat="28.3765320" lon="-16.5184910">
        <ele>797.6</ele>
        <time>2020-10-16T10:13:54Z</time>
      </trkpt>
      <trkpt lat="28.3766300" lon="-16.5183040">
        <ele>798.6</ele>
        <time>2020-10-16T10:14:00Z</time>
      </trkpt>
      <trkpt lat="28.3766610" lon="-16.5180810">
        <ele>799.6</ele>
        <time>2020-10-16T10:14:06Z</time>
      </trkpt>
      <trkpt lat="28.3766540" lon="-16.5178600">
        <ele>800.6</ele>
        <time>2020-10-16T10:14:12Z</time>
      </trkpt>
      <trkpt lat="28.3766680" lon="-16.5177400">
        <ele>801.8</ele>
        <time>2020-10-16T10:14:15Z</time>
      </trkpt>
      <trkpt lat="28.3766740" lon="-16.5175770">
        <ele>802.8</ele>
        <time>2020-10-16T10:14:19Z</time>
      </trkpt>
      <trkpt lat="28.3766960" lon="-16.5173750">
        <ele>804.0</ele>
        <time>2020-10-16T10:14:24Z</time>
      </trkpt>
      <trkpt lat="28.3767740" lon="-16.5172450">
        <ele>805.2</ele>
        <time>2020-10-16T10:14:28Z</time>
      </trkpt>
      <trkpt lat="28.3769190" lon="-16.5171230">
        <ele>806.2</ele>
        <time>2020-10-16T10:14:33Z</time>
      </trkpt>
      <trkpt lat="28.3770020" lon="-16.5169560">
        <ele>807.4</ele>
        <time>2020-10-16T10:14:38Z</time>
      </trkpt>
      <trkpt lat="28.3769840" lon="-16.5167200">
        <ele>808.6</ele>
        <time>2020-10-16T10:14:44Z</time>
      </trkpt>
      <trkpt lat="28.3768800" lon="-16.5165570">
        <ele>809.8</ele>
        <time>2020-10-16T10:14:49Z</time>
      </trkpt>
      <trkpt lat="28.3767680" lon="-16.5164110">
        <ele>810.8</ele>
        <time>2020-10-16T10:14:54Z</time>
      </trkpt>
      <trkpt lat="28.3767510" lon="-16.5162540">
        <ele>812.4</ele>
        <time>2020-10-16T10:14:58Z</time>
      </trkpt>
      <trkpt lat="28.3768080" lon="-16.5161090">
        <ele>813.6</ele>
        <time>2020-10-16T10:15:02Z</time>
      </trkpt>
      <trkpt lat="28.3768700" lon="-16.5159530">
        <ele>814.6</ele>
        <time>2020-10-16T10:15:06Z</time>
      </trkpt>
      <trkpt lat="28.3769050" lon="-16.5157790">
        <ele>816.0</ele>
        <time>2020-10-16T10:15:10Z</time>
      </trkpt>
      <trkpt lat="28.3769000" lon="-16.5154350">
        <ele>817.0</ele>
        <time>2020-10-16T10:15:18Z</time>
      </trkpt>
      <trkpt lat="28.3768490" lon="-16.5151950">
        <ele>818.0</ele>
        <time>2020-10-16T10:15:24Z</time>
      </trkpt>
      <trkpt lat="28.3767830" lon="-16.5150600">
        <ele>819.0</ele>
        <time>2020-10-16T10:15:28Z</time>
      </trkpt>
      <trkpt lat="28.3767240" lon="-16.5149660">
        <ele>820.2</ele>
        <time>2020-10-16T10:15:31Z</time>
      </trkpt>
      <trkpt lat="28.3766310" lon="-16.5148030">
        <ele>821.4</ele>
        <time>2020-10-16T10:15:36Z</time>
      </trkpt>
      <trkpt lat="28.3765710" lon="-16.5146620">
        <ele>822.4</ele>
        <time>2020-10-16T10:15:40Z</time>
      </trkpt>
      <trkpt lat="28.3765590" lon="-16.5145010">
        <ele>823.6</ele>
        <time>2020-10-16T10:15:44Z</time>
      </trkpt>
      <trkpt lat="28.3766180" lon="-16.5143500">
        <ele>824.8</ele>
        <time>2020-10-16T10:15:48Z</time>
      </trkpt>
      <trkpt lat="28.3767940" lon="-16.5142390">
        <ele>825.8</ele>
        <time>2020-10-16T10:15:54Z</time>
      </trkpt>
      <trkpt lat="28.3769910" lon="-16.5142630">
        <ele>826.8</ele>
        <time>2020-10-16T10:15:59Z</time>
      </trkpt>
      <trkpt lat="28.3771730" lon="-16.5142850">
        <ele>827.6</ele>
        <time>2020-10-16T10:16:03Z</time>
      </trkpt>
      <trkpt lat="28.3772750" lon="-16.5142580">
        <ele>827.8</ele>
        <time>2020-10-16T10:16:05Z</time>
      </trkpt>
      <trkpt lat="28.3774420" lon="-16.5141340">
        <ele>828.2</ele>
        <time>2020-10-16T10:16:09Z</time>
      </trkpt>
      <trkpt lat="28.3774790" lon="-16.5140950">
        <ele>828.2</ele>
        <time>2020-10-16T10:16:10Z</time>
      </trkpt>
      <trkpt lat="28.3775730" lon="-16.5139660">
        <ele>828.8</ele>
        <time>2020-10-16T10:16:13Z</time>
      </trkpt>
      <trkpt lat="28.3777070" lon="-16.5137210">
        <ele>830.0</ele>
        <time>2020-10-16T10:16:18Z</time>
      </trkpt>
      <trkpt lat="28.3778020" lon="-16.5135310">
        <ele>830.6</ele>
        <time>2020-10-16T10:16:22Z</time>
      </trkpt>
      <trkpt lat="28.3778540" lon="-16.5133880">
        <ele>831.0</ele>
        <time>2020-10-16T10:16:25Z</time>
      </trkpt>
      <trkpt lat="28.3779300" lon="-16.5131260">
        <ele>832.0</ele>
        <time>2020-10-16T10:16:31Z</time>
      </trkpt>
      <trkpt lat="28.3779720" lon="-16.5129620">
        <ele>833.2</ele>
        <time>2020-10-16T10:16:35Z</time>
      </trkpt>
      <trkpt lat="28.3779920" lon="-16.5128370">
        <ele>834.4</ele>
        <time>2020-10-16T10:16:38Z</time>
      </trkpt>
      <trkpt lat="28.3780080" lon="-16.5126640">
        <ele>835.6</ele>
        <time>2020-10-16T10:16:42Z</time>
      </trkpt>
      <trkpt lat="28.3780170" lon="-16.5125390">
        <ele>836.6</ele>
        <time>2020-10-16T10:16:45Z</time>
      </trkpt>
      <trkpt lat="28.3780380" lon="-16.5123760">
        <ele>837.6</ele>
        <time>2020-10-16T10:16:49Z</time>
      </trkpt>
      <trkpt lat="28.3780530" lon="-16.5122150">
        <ele>838.8</ele>
        <time>2020-10-16T10:16:53Z</time>
      </trkpt>
      <trkpt lat="28.3781140" lon="-16.5120680">
        <ele>839.8</ele>
        <time>2020-10-16T10:16:57Z</time>
      </trkpt>
      <trkpt lat="28.3782300" lon="-16.5119700">
        <ele>841.0</ele>
        <time>2020-10-16T10:17:01Z</time>
      </trkpt>
      <trkpt lat="28.3783620" lon="-16.5118900">
        <ele>842.0</ele>
        <time>2020-10-16T10:17:05Z</time>
      </trkpt>
      <trkpt lat="28.3784680" lon="-16.5117720">
        <ele>843.0</ele>
        <time>2020-10-16T10:17:09Z</time>
      </trkpt>
      <trkpt lat="28.3785290" lon="-16.5116690">
        <ele>844.0</ele>
        <time>2020-10-16T10:17:12Z</time>
      </trkpt>
      <trkpt lat="28.3785970" lon="-16.5114760">
        <ele>845.4</ele>
        <time>2020-10-16T10:17:17Z</time>
      </trkpt>
      <trkpt lat="28.3786290" lon="-16.5113120">
        <ele>846.4</ele>
        <time>2020-10-16T10:17:21Z</time>
      </trkpt>
      <trkpt lat="28.3785990" lon="-16.5111520">
        <ele>847.8</ele>
        <time>2020-10-16T10:17:25Z</time>
      </trkpt>
      <trkpt lat="28.3785380" lon="-16.5109580">
        <ele>848.8</ele>
        <time>2020-10-16T10:17:30Z</time>
      </trkpt>
      <trkpt lat="28.3784920" lon="-16.5107990">
        <ele>849.8</ele>
        <time>2020-10-16T10:17:34Z</time>
      </trkpt>
      <trkpt lat="28.3784640" lon="-16.5106380">
        <ele>851.0</ele>
        <time>2020-10-16T10:17:38Z</time>
      </trkpt>
      <trkpt lat="28.3784500" lon="-16.5104360">
        <ele>852.2</ele>
        <time>2020-10-16T10:17:43Z</time>
      </trkpt>
      <trkpt lat="28.3784480" lon="-16.5103170">
        <ele>853.4</ele>
        <time>2020-10-16T10:17:46Z</time>
      </trkpt>
      <trkpt lat="28.3784650" lon="-16.5101620">
        <ele>854.6</ele>
        <time>2020-10-16T10:17:50Z</time>
      </trkpt>
      <trkpt lat="28.3785110" lon="-16.5100040">
        <ele>855.6</ele>
        <time>2020-10-16T10:17:54Z</time>
      </trkpt>
      <trkpt lat="28.3785750" lon="-16.5098130">
        <ele>856.8</ele>
        <time>2020-10-16T10:17:59Z</time>
      </trkpt>
      <trkpt lat="28.3786330" lon="-16.5096230">
        <ele>857.8</ele>
        <time>2020-10-16T10:18:04Z</time>
      </trkpt>
      <trkpt lat="28.3786840" lon="-16.5094780">
        <ele>858.8</ele>
        <time>2020-10-16T10:18:08Z</time>
      </trkpt>
      <trkpt lat="28.3787350" lon="-16.5093430">
        <ele>860.0</ele>
        <time>2020-10-16T10:18:12Z</time>
      </trkpt>
      <trkpt lat="28.3788130" lon="-16.5092220">
        <ele>861.4</ele>
        <time>2020-10-16T10:18:16Z</time>
      </trkpt>
      <trkpt lat="28.3789080" lon="-16.5091200">
        <ele>862.6</ele>
        <time>2020-10-16T10:18:20Z</time>
      </trkpt>
      <trkpt lat="28.3789960" lon="-16.5090120">
        <ele>863.8</ele>
        <time>2020-10-16T10:18:24Z</time>
      </trkpt>
      <trkpt lat="28.3790900" lon="-16.5088660">
        <ele>865.0</ele>
        <time>2020-10-16T10:18:29Z</time>
      </trkpt>
      <trkpt lat="28.3791470" lon="-16.5087350">
        <ele>866.0</ele>
        <time>2020-10-16T10:18:33Z</time>
      </trkpt>
      <trkpt lat="28.3792030" lon="-16.5086050">
        <ele>867.2</ele>
        <time>2020-10-16T10:18:37Z</time>
      </trkpt>
      <trkpt lat="28.3792730" lon="-16.5084390">
        <ele>868.2</ele>
        <time>2020-10-16T10:18:42Z</time>
      </trkpt>
      <trkpt lat="28.3793340" lon="-16.5082610">
        <ele>869.2</ele>
        <time>2020-10-16T10:18:47Z</time>
      </trkpt>
      <trkpt lat="28.3793620" lon="-16.5081070">
        <ele>870.4</ele>
        <time>2020-10-16T10:18:51Z</time>
      </trkpt>
      <trkpt lat="28.3793430" lon="-16.5079440">
        <ele>871.2</ele>
        <time>2020-10-16T10:18:55Z</time>
      </trkpt>
      <trkpt lat="28.3793210" lon="-16.5078230">
        <ele>871.6</ele>
        <time>2020-10-16T10:18:58Z</time>
      </trkpt>
      <trkpt lat="28.3792720" lon="-16.5075230">
        <ele>872.8</ele>
        <time>2020-10-16T10:19:05Z</time>
      </trkpt>
      <trkpt lat="28.3791050" lon="-16.5072620">
        <ele>873.8</ele>
        <time>2020-10-16T10:19:13Z</time>
      </trkpt>
      <trkpt lat="28.3789320" lon="-16.5072640">
        <ele>874.8</ele>
        <time>2020-10-16T10:19:18Z</time>
      </trkpt>
      <trkpt lat="28.3788090" lon="-16.5073280">
        <ele>875.8</ele>
        <time>2020-10-16T10:19:22Z</time>
      </trkpt>
      <trkpt lat="28.3787180" lon="-16.5075040">
        <ele>877.0</ele>
        <time>2020-10-16T10:19:27Z</time>
      </trkpt>
      <trkpt lat="28.3786820" lon="-16.5077390">
        <ele>878.2</ele>
        <time>2020-10-16T10:19:32Z</time>
      </trkpt>
      <trkpt lat="28.3786470" lon="-16.5080340">
        <ele>879.2</ele>
        <time>2020-10-16T10:19:38Z</time>
      </trkpt>
      <trkpt lat="28.3786150" lon="-16.5082740">
        <ele>879.8</ele>
        <time>2020-10-16T10:19:43Z</time>
      </trkpt>
      <trkpt lat="28.3786050" lon="-16.5083190">
        <ele>880.0</ele>
        <time>2020-10-16T10:19:44Z</time>
      </trkpt>
      <trkpt lat="28.3785700" lon="-16.5084070">
        <ele>880.2</ele>
        <time>2020-10-16T10:19:46Z</time>
      </trkpt>
      <trkpt lat="28.3784180" lon="-16.5085740">
        <ele>881.4</ele>
        <time>2020-10-16T10:19:51Z</time>
      </trkpt>
      <trkpt lat="28.3782350" lon="-16.5085840">
        <ele>882.2</ele>
        <time>2020-10-16T10:19:55Z</time>
      </trkpt>
      <trkpt lat="28.3781370" lon="-16.5085740">
        <ele>882.4</ele>
        <time>2020-10-16T10:19:57Z</time>
      </trkpt>
      <trkpt lat="28.3779170" lon="-16.5087550">
        <ele>882.6</ele>
        <time>2020-10-16T10:20:02Z</time>
      </trkpt>
      <trkpt lat="28.3776130" lon="-16.5093210">
        <ele>882.6</ele>
        <time>2020-10-16T10:20:11Z</time>
      </trkpt>
      <trkpt lat="28.3772960" lon="-16.5097450">
        <ele>884.2</ele>
        <time>2020-10-16T10:20:20Z</time>
      </trkpt>
      <trkpt lat="28.3772410" lon="-16.5098240">
        <ele>885.2</ele>
        <time>2020-10-16T10:20:22Z</time>
      </trkpt>
      <trkpt lat="28.3771560" lon="-16.5099350">
        <ele>886.2</ele>
        <time>2020-10-16T10:20:25Z</time>
      </trkpt>
      <trkpt lat="28.3770360" lon="-16.5100860">
        <ele>887.6</ele>
        <time>2020-10-16T10:20:29Z</time>
      </trkpt>
      <trkpt lat="28.3769180" lon="-16.5102310">
        <ele>888.6</ele>
        <time>2020-10-16T10:20:33Z</time>
      </trkpt>
      <trkpt lat="28.3767840" lon="-16.5104040">
        <ele>889.8</ele>
        <time>2020-10-16T10:20:38Z</time>
      </trkpt>
      <trkpt lat="28.3766640" lon="-16.5105690">
        <ele>891.0</ele>
        <time>2020-10-16T10:20:43Z</time>
      </trkpt>
      <trkpt lat="28.3765690" lon="-16.5107030">
        <ele>892.2</ele>
        <time>2020-10-16T10:20:47Z</time>
      </trkpt>
      <trkpt lat="28.3764670" lon="-16.5108300">
        <ele>893.4</ele>
        <time>2020-10-16T10:20:51Z</time>
      </trkpt>
      <trkpt lat="28.3763310" lon="-16.5109670">
        <ele>894.6</ele>
        <time>2020-10-16T10:20:56Z</time>
      </trkpt>
      <trkpt lat="28.3762170" lon="-16.5110780">
        <ele>896.0</ele>
        <time>2020-10-16T10:21:00Z</time>
      </trkpt>
      <trkpt lat="28.3761060" lon="-16.5111890">
        <ele>896.8</ele>
        <time>2020-10-16T10:21:04Z</time>
      </trkpt>
      <trkpt lat="28.3759560" lon="-16.5113620">
        <ele>898.0</ele>
        <time>2020-10-16T10:21:10Z</time>
      </trkpt>
      <trkpt lat="28.3758720" lon="-16.5114750">
        <ele>899.0</ele>
        <time>2020-10-16T10:21:14Z</time>
      </trkpt>
      <trkpt lat="28.3757570" lon="-16.5115480">
        <ele>900.2</ele>
        <time>2020-10-16T10:21:18Z</time>
      </trkpt>
      <trkpt lat="28.3756280" lon="-16.5115580">
        <ele>901.4</ele>
        <time>2020-10-16T10:21:22Z</time>
      </trkpt>
      <trkpt lat="28.3754970" lon="-16.5115410">
        <ele>902.6</ele>
        <time>2020-10-16T10:21:26Z</time>
      </trkpt>
      <trkpt lat="28.3753270" lon="-16.5114970">
        <ele>903.6</ele>
        <time>2020-10-16T10:21:31Z</time>
      </trkpt>
      <trkpt lat="28.3751910" lon="-16.5114500">
        <ele>904.8</ele>
        <time>2020-10-16T10:21:35Z</time>
      </trkpt>
      <trkpt lat="28.3750870" lon="-16.5114180">
        <ele>905.8</ele>
        <time>2020-10-16T10:21:38Z</time>
      </trkpt>
      <trkpt lat="28.3748800" lon="-16.5114390">
        <ele>907.0</ele>
        <time>2020-10-16T10:21:44Z</time>
      </trkpt>
      <trkpt lat="28.3747490" lon="-16.5114790">
        <ele>908.0</ele>
        <time>2020-10-16T10:21:48Z</time>
      </trkpt>
      <trkpt lat="28.3746300" lon="-16.5115660">
        <ele>909.0</ele>
        <time>2020-10-16T10:21:52Z</time>
      </trkpt>
      <trkpt lat="28.3744920" lon="-16.5117180">
        <ele>910.2</ele>
        <time>2020-10-16T10:21:57Z</time>
      </trkpt>
      <trkpt lat="28.3743600" lon="-16.5118020">
        <ele>911.2</ele>
        <time>2020-10-16T10:22:01Z</time>
      </trkpt>
      <trkpt lat="28.3742540" lon="-16.5118530">
        <ele>912.4</ele>
        <time>2020-10-16T10:22:04Z</time>
      </trkpt>
      <trkpt lat="28.3741540" lon="-16.5118970">
        <ele>913.4</ele>
        <time>2020-10-16T10:22:07Z</time>
      </trkpt>
      <trkpt lat="28.3740550" lon="-16.5119450">
        <ele>914.4</ele>
        <time>2020-10-16T10:22:10Z</time>
      </trkpt>
      <trkpt lat="28.3738960" lon="-16.5120230">
        <ele>915.4</ele>
        <time>2020-10-16T10:22:15Z</time>
      </trkpt>
      <trkpt lat="28.3737390" lon="-16.5121720">
        <ele>916.6</ele>
        <time>2020-10-16T10:22:21Z</time>
      </trkpt>
      <trkpt lat="28.3736450" lon="-16.5123290">
        <ele>917.8</ele>
        <time>2020-10-16T10:22:26Z</time>
      </trkpt>
      <trkpt lat="28.3735740" lon="-16.5124560">
        <ele>919.2</ele>
        <time>2020-10-16T10:22:30Z</time>
      </trkpt>
      <trkpt lat="28.3735050" lon="-16.5125920">
        <ele>920.4</ele>
        <time>2020-10-16T10:22:34Z</time>
      </trkpt>
      <trkpt lat="28.3734500" lon="-16.5127690">
        <ele>921.6</ele>
        <time>2020-10-16T10:22:39Z</time>
      </trkpt>
      <trkpt lat="28.3734120" lon="-16.5129180">
        <ele>922.4</ele>
        <time>2020-10-16T10:22:43Z</time>
      </trkpt>
      <trkpt lat="28.3733430" lon="-16.5130520">
        <ele>923.6</ele>
        <time>2020-10-16T10:22:47Z</time>
      </trkpt>
      <trkpt lat="28.3732430" lon="-16.5131580">
        <ele>924.8</ele>
        <time>2020-10-16T10:22:51Z</time>
      </trkpt>
      <trkpt lat="28.3731200" lon="-16.5132810">
        <ele>926.0</ele>
        <time>2020-10-16T10:22:56Z</time>
      </trkpt>
      <trkpt lat="28.3730050" lon="-16.5134110">
        <ele>927.0</ele>
        <time>2020-10-16T10:23:01Z</time>
      </trkpt>
      <trkpt lat="28.3729360" lon="-16.5135370">
        <ele>928.0</ele>
        <time>2020-10-16T10:23:05Z</time>
      </trkpt>
      <trkpt lat="28.3728860" lon="-16.5136780">
        <ele>929.2</ele>
        <time>2020-10-16T10:23:09Z</time>
      </trkpt>
      <trkpt lat="28.3728080" lon="-16.5138480">
        <ele>930.2</ele>
        <time>2020-10-16T10:23:14Z</time>
      </trkpt>
      <trkpt lat="28.3727580" lon="-16.5139440">
        <ele>931.4</ele>
        <time>2020-10-16T10:23:17Z</time>
      </trkpt>
      <trkpt lat="28.3726850" lon="-16.5140670">
        <ele>932.4</ele>
        <time>2020-10-16T10:23:21Z</time>
      </trkpt>
      <trkpt lat="28.3725970" lon="-16.5141800">
        <ele>933.6</ele>
        <time>2020-10-16T10:23:25Z</time>
      </trkpt>
      <trkpt lat="28.3724950" lon="-16.5143350">
        <ele>934.8</ele>
        <time>2020-10-16T10:23:30Z</time>
      </trkpt>
      <trkpt lat="28.3724100" lon="-16.5144760">
        <ele>935.8</ele>
        <time>2020-10-16T10:23:35Z</time>
      </trkpt>
      <trkpt lat="28.3723330" lon="-16.5146100">
        <ele>936.8</ele>
        <time>2020-10-16T10:23:39Z</time>
      </trkpt>
      <trkpt lat="28.3722270" lon="-16.5147720">
        <ele>937.8</ele>
        <time>2020-10-16T10:23:44Z</time>
      </trkpt>
      <trkpt lat="28.3721460" lon="-16.5148920">
        <ele>938.8</ele>
        <time>2020-10-16T10:23:48Z</time>
      </trkpt>
      <trkpt lat="28.3720560" lon="-16.5150060">
        <ele>940.2</ele>
        <time>2020-10-16T10:23:52Z</time>
      </trkpt>
      <trkpt lat="28.3719710" lon="-16.5151270">
        <ele>941.4</ele>
        <time>2020-10-16T10:23:56Z</time>
      </trkpt>
      <trkpt lat="28.3718920" lon="-16.5152480">
        <ele>942.4</ele>
        <time>2020-10-16T10:24:00Z</time>
      </trkpt>
      <trkpt lat="28.3718370" lon="-16.5153410">
        <ele>943.4</ele>
        <time>2020-10-16T10:24:03Z</time>
      </trkpt>
      <trkpt lat="28.3717670" lon="-16.5154620">
        <ele>944.4</ele>
        <time>2020-10-16T10:24:07Z</time>
      </trkpt>
      <trkpt lat="28.3716720" lon="-16.5156200">
        <ele>945.4</ele>
        <time>2020-10-16T10:24:12Z</time>
      </trkpt>
      <trkpt lat="28.3715920" lon="-16.5157470">
        <ele>946.4</ele>
        <time>2020-10-16T10:24:16Z</time>
      </trkpt>
      <trkpt lat="28.3714980" lon="-16.5159090">
        <ele>947.6</ele>
        <time>2020-10-16T10:24:21Z</time>
      </trkpt>
      <trkpt lat="28.3714130" lon="-16.5160730">
        <ele>948.8</ele>
        <time>2020-10-16T10:24:26Z</time>
      </trkpt>
      <trkpt lat="28.3713700" lon="-16.5161680">
        <ele>949.8</ele>
        <time>2020-10-16T10:24:29Z</time>
      </trkpt>
      <trkpt lat="28.3712700" lon="-16.5163140">
        <ele>951.0</ele>
        <time>2020-10-16T10:24:34Z</time>
      </trkpt>
      <trkpt lat="28.3711940" lon="-16.5164330">
        <ele>952.0</ele>
        <time>2020-10-16T10:24:38Z</time>
      </trkpt>
      <trkpt lat="28.3710600" lon="-16.5166300">
        <ele>953.2</ele>
        <time>2020-10-16T10:24:44Z</time>
      </trkpt>
      <trkpt lat="28.3709530" lon="-16.5167770">
        <ele>954.2</ele>
        <time>2020-10-16T10:24:49Z</time>
      </trkpt>
      <trkpt lat="28.3708240" lon="-16.5168880">
        <ele>955.4</ele>
        <time>2020-10-16T10:24:54Z</time>
      </trkpt>
      <trkpt lat="28.3706930" lon="-16.5169930">
        <ele>956.8</ele>
        <time>2020-10-16T10:24:59Z</time>
      </trkpt>
      <trkpt lat="28.3706240" lon="-16.5171660">
        <ele>957.6</ele>
        <time>2020-10-16T10:25:04Z</time>
      </trkpt>
      <trkpt lat="28.3705920" lon="-16.5172900">
        <ele>958.8</ele>
        <time>2020-10-16T10:25:07Z</time>
      </trkpt>
      <trkpt lat="28.3705360" lon="-16.5174100">
        <ele>959.8</ele>
        <time>2020-10-16T10:25:10Z</time>
      </trkpt>
      <trkpt lat="28.3704020" lon="-16.5175620">
        <ele>960.2</ele>
        <time>2020-10-16T10:25:14Z</time>
      </trkpt>
      <trkpt lat="28.3703300" lon="-16.5178060">
        <ele>960.2</ele>
        <time>2020-10-16T10:25:18Z</time>
      </trkpt>
      <trkpt lat="28.3701970" lon="-16.5184140">
        <ele>960.0</ele>
        <time>2020-10-16T10:25:26Z</time>
      </trkpt>
      <trkpt lat="28.3699860" lon="-16.5189950">
        <ele>960.2</ele>
        <time>2020-10-16T10:25:34Z</time>
      </trkpt>
      <trkpt lat="28.3697360" lon="-16.5194280">
        <ele>960.6</ele>
        <time>2020-10-16T10:25:41Z</time>
      </trkpt>
      <trkpt lat="28.3696840" lon="-16.5194760">
        <ele>960.8</ele>
        <time>2020-10-16T10:25:42Z</time>
      </trkpt>
      <trkpt lat="28.3693480" lon="-16.5197760">
        <ele>960.8</ele>
        <time>2020-10-16T10:25:48Z</time>
      </trkpt>
      <trkpt lat="28.3691220" lon="-16.5202820">
        <ele>960.8</ele>
        <time>2020-10-16T10:25:55Z</time>
      </trkpt>
      <trkpt lat="28.3691390" lon="-16.5206070">
        <ele>960.4</ele>
        <time>2020-10-16T10:25:59Z</time>
      </trkpt>
      <trkpt lat="28.3691710" lon="-16.5207610">
        <ele>960.4</ele>
        <time>2020-10-16T10:26:01Z</time>
      </trkpt>
      <trkpt lat="28.3691050" lon="-16.5210790">
        <ele>960.6</ele>
        <time>2020-10-16T10:26:05Z</time>
      </trkpt>
      <trkpt lat="28.3690800" lon="-16.5211570">
        <ele>960.8</ele>
        <time>2020-10-16T10:26:06Z</time>
      </trkpt>
      <trkpt lat="28.3691210" lon="-16.5217210">
        <ele>961.0</ele>
        <time>2020-10-16T10:26:13Z</time>
      </trkpt>
      <trkpt lat="28.3691090" lon="-16.5220170">
        <ele>961.2</ele>
        <time>2020-10-16T10:26:17Z</time>
      </trkpt>
      <trkpt lat="28.3690950" lon="-16.5222390">
        <ele>961.6</ele>
        <time>2020-10-16T10:26:20Z</time>
      </trkpt>
      <trkpt lat="28.3690890" lon="-16.5223130">
        <ele>961.6</ele>
        <time>2020-10-16T10:26:21Z</time>
      </trkpt>
      <trkpt lat="28.3690920" lon="-16.5224540">
        <ele>961.8</ele>
        <time>2020-10-16T10:26:23Z</time>
      </trkpt>
      <trkpt lat="28.3691520" lon="-16.5226350">
        <ele>962.8</ele>
        <time>2020-10-16T10:26:26Z</time>
      </trkpt>
      <trkpt lat="28.3692250" lon="-16.5227390">
        <ele>963.8</ele>
        <time>2020-10-16T10:26:28Z</time>
      </trkpt>
      <trkpt lat="28.3692590" lon="-16.5227930">
        <ele>964.2</ele>
        <time>2020-10-16T10:26:29Z</time>
      </trkpt>
      <trkpt lat="28.3692840" lon="-16.5228540">
        <ele>964.8</ele>
        <time>2020-10-16T10:26:30Z</time>
      </trkpt>
      <trkpt lat="28.3692930" lon="-16.5229210">
        <ele>965.4</ele>
        <time>2020-10-16T10:26:31Z</time>
      </trkpt>
      <trkpt lat="28.3691820" lon="-16.5231040">
        <ele>966.6</ele>
        <time>2020-10-16T10:26:34Z</time>
      </trkpt>
      <trkpt lat="28.3690680" lon="-16.5231800">
        <ele>967.2</ele>
        <time>2020-10-16T10:26:36Z</time>
      </trkpt>
      <trkpt lat="28.3689600" lon="-16.5232410">
        <ele>967.6</ele>
        <time>2020-10-16T10:26:38Z</time>
      </trkpt>
      <trkpt lat="28.3688120" lon="-16.5233230">
        <ele>968.6</ele>
        <time>2020-10-16T10:26:41Z</time>
      </trkpt>
      <trkpt lat="28.3686460" lon="-16.5234370">
        <ele>969.6</ele>
        <time>2020-10-16T10:26:45Z</time>
      </trkpt>
      <trkpt lat="28.3686130" lon="-16.5234660">
        <ele>970.0</ele>
        <time>2020-10-16T10:26:46Z</time>
      </trkpt>
      <trkpt lat="28.3685330" lon="-16.5235670">
        <ele>970.8</ele>
        <time>2020-10-16T10:26:49Z</time>
      </trkpt>
      <trkpt lat="28.3685160" lon="-16.5236090">
        <ele>971.2</ele>
        <time>2020-10-16T10:26:50Z</time>
      </trkpt>
      <trkpt lat="28.3684700" lon="-16.5237360">
        <ele>972.4</ele>
        <time>2020-10-16T10:26:53Z</time>
      </trkpt>
      <trkpt lat="28.3684180" lon="-16.5239070">
        <ele>973.4</ele>
        <time>2020-10-16T10:26:57Z</time>
      </trkpt>
      <trkpt lat="28.3683500" lon="-16.5240570">
        <ele>974.6</ele>
        <time>2020-10-16T10:27:01Z</time>
      </trkpt>
      <trkpt lat="28.3682780" lon="-16.5241550">
        <ele>975.6</ele>
        <time>2020-10-16T10:27:04Z</time>
      </trkpt>
      <trkpt lat="28.3681670" lon="-16.5242670">
        <ele>976.8</ele>
        <time>2020-10-16T10:27:08Z</time>
      </trkpt>
      <trkpt lat="28.3680630" lon="-16.5243880">
        <ele>978.2</ele>
        <time>2020-10-16T10:27:12Z</time>
      </trkpt>
      <trkpt lat="28.3679790" lon="-16.5246010">
        <ele>979.2</ele>
        <time>2020-10-16T10:27:18Z</time>
      </trkpt>
      <trkpt lat="28.3679450" lon="-16.5248010">
        <ele>980.2</ele>
        <time>2020-10-16T10:27:23Z</time>
      </trkpt>
      <trkpt lat="28.3678730" lon="-16.5250030">
        <ele>981.6</ele>
        <time>2020-10-16T10:27:28Z</time>
      </trkpt>
      <trkpt lat="28.3678270" lon="-16.5251170">
        <ele>982.6</ele>
        <time>2020-10-16T10:27:31Z</time>
      </trkpt>
      <trkpt lat="28.3677560" lon="-16.5252670">
        <ele>983.8</ele>
        <time>2020-10-16T10:27:35Z</time>
      </trkpt>
      <trkpt lat="28.3676720" lon="-16.5254470">
        <ele>985.0</ele>
        <time>2020-10-16T10:27:40Z</time>
      </trkpt>
      <trkpt lat="28.3676040" lon="-16.5255960">
        <ele>985.8</ele>
        <time>2020-10-16T10:27:44Z</time>
      </trkpt>
      <trkpt lat="28.3675190" lon="-16.5257830">
        <ele>986.8</ele>
        <time>2020-10-16T10:27:49Z</time>
      </trkpt>
      <trkpt lat="28.3674470" lon="-16.5259730">
        <ele>988.0</ele>
        <time>2020-10-16T10:27:54Z</time>
      </trkpt>
      <trkpt lat="28.3673910" lon="-16.5262430">
        <ele>989.2</ele>
        <time>2020-10-16T10:28:01Z</time>
      </trkpt>
      <trkpt lat="28.3673610" lon="-16.5264530">
        <ele>990.4</ele>
        <time>2020-10-16T10:28:06Z</time>
      </trkpt>
      <trkpt lat="28.3673210" lon="-16.5267080">
        <ele>991.4</ele>
        <time>2020-10-16T10:28:12Z</time>
      </trkpt>
      <trkpt lat="28.3672700" lon="-16.5269560">
        <ele>993.0</ele>
        <time>2020-10-16T10:28:18Z</time>
      </trkpt>
      <trkpt lat="28.3672310" lon="-16.5271160">
        <ele>994.0</ele>
        <time>2020-10-16T10:28:22Z</time>
      </trkpt>
      <trkpt lat="28.3671830" lon="-16.5273180">
        <ele>995.2</ele>
        <time>2020-10-16T10:28:27Z</time>
      </trkpt>
      <trkpt lat="28.3671360" lon="-16.5274730">
        <ele>996.0</ele>
        <time>2020-10-16T10:28:31Z</time>
      </trkpt>
      <trkpt lat="28.3670740" lon="-16.5276210">
        <ele>997.2</ele>
        <time>2020-10-16T10:28:35Z</time>
      </trkpt>
      <trkpt lat="28.3669830" lon="-16.5278030">
        <ele>998.4</ele>
        <time>2020-10-16T10:28:40Z</time>
      </trkpt>
      <trkpt lat="28.3668870" lon="-16.5279830">
        <ele>999.6</ele>
        <time>2020-10-16T10:28:45Z</time>
      </trkpt>
      <trkpt lat="28.3668040" lon="-16.5281660">
        <ele>1000.6</ele>
        <time>2020-10-16T10:28:50Z</time>
      </trkpt>
      <trkpt lat="28.3667520" lon="-16.5283180">
        <ele>1001.8</ele>
        <time>2020-10-16T10:28:54Z</time>
      </trkpt>
      <trkpt lat="28.3667270" lon="-16.5284820">
        <ele>1002.8</ele>
        <time>2020-10-16T10:28:58Z</time>
      </trkpt>
      <trkpt lat="28.3667010" lon="-16.5286830">
        <ele>1003.8</ele>
        <time>2020-10-16T10:29:03Z</time>
      </trkpt>
      <trkpt lat="28.3666640" lon="-16.5288450">
        <ele>1004.8</ele>
        <time>2020-10-16T10:29:07Z</time>
      </trkpt>
      <trkpt lat="28.3666240" lon="-16.5289590">
        <ele>1006.0</ele>
        <time>2020-10-16T10:29:10Z</time>
      </trkpt>
      <trkpt lat="28.3665510" lon="-16.5291030">
        <ele>1007.0</ele>
        <time>2020-10-16T10:29:14Z</time>
      </trkpt>
      <trkpt lat="28.3663280" lon="-16.5291670">
        <ele>1008.2</ele>
        <time>2020-10-16T10:29:21Z</time>
      </trkpt>
      <trkpt lat="28.3662680" lon="-16.5289560">
        <ele>1009.4</ele>
        <time>2020-10-16T10:29:27Z</time>
      </trkpt>
      <trkpt lat="28.3663530" lon="-16.5288190">
        <ele>1010.6</ele>
        <time>2020-10-16T10:29:31Z</time>
      </trkpt>
      <trkpt lat="28.3664360" lon="-16.5287270">
        <ele>1011.6</ele>
        <time>2020-10-16T10:29:34Z</time>
      </trkpt>
      <trkpt lat="28.3664960" lon="-16.5285770">
        <ele>1012.6</ele>
        <time>2020-10-16T10:29:38Z</time>
      </trkpt>
      <trkpt lat="28.3664880" lon="-16.5284900">
        <ele>1013.0</ele>
        <time>2020-10-16T10:29:40Z</time>
      </trkpt>
      <trkpt lat="28.3664210" lon="-16.5283180">
        <ele>1013.6</ele>
        <time>2020-10-16T10:29:44Z</time>
      </trkpt>
      <trkpt lat="28.3663090" lon="-16.5281070">
        <ele>1014.8</ele>
        <time>2020-10-16T10:29:49Z</time>
      </trkpt>
      <trkpt lat="28.3662900" lon="-16.5280630">
        <ele>1015.0</ele>
        <time>2020-10-16T10:29:50Z</time>
      </trkpt>
      <trkpt lat="28.3662920" lon="-16.5278180">
        <ele>1015.8</ele>
        <time>2020-10-16T10:29:55Z</time>
      </trkpt>
      <trkpt lat="28.3663560" lon="-16.5274990">
        <ele>1016.8</ele>
        <time>2020-10-16T10:30:02Z</time>
      </trkpt>
      <trkpt lat="28.3663670" lon="-16.5272720">
        <ele>1017.8</ele>
        <time>2020-10-16T10:30:07Z</time>
      </trkpt>
      <trkpt lat="28.3663810" lon="-16.5270940">
        <ele>1019.0</ele>
        <time>2020-10-16T10:30:11Z</time>
      </trkpt>
      <trkpt lat="28.3663910" lon="-16.5269240">
        <ele>1020.0</ele>
        <time>2020-10-16T10:30:15Z</time>
      </trkpt>
      <trkpt lat="28.3663950" lon="-16.5267140">
        <ele>1021.2</ele>
        <time>2020-10-16T10:30:20Z</time>
      </trkpt>
      <trkpt lat="28.3663830" lon="-16.5265120">
        <ele>1022.4</ele>
        <time>2020-10-16T10:30:25Z</time>
      </trkpt>
      <trkpt lat="28.3662930" lon="-16.5263400">
        <ele>1023.8</ele>
        <time>2020-10-16T10:30:30Z</time>
      </trkpt>
      <trkpt lat="28.3661790" lon="-16.5262440">
        <ele>1025.2</ele>
        <time>2020-10-16T10:30:34Z</time>
      </trkpt>
      <trkpt lat="28.3660790" lon="-16.5261190">
        <ele>1026.2</ele>
        <time>2020-10-16T10:30:38Z</time>
      </trkpt>
      <trkpt lat="28.3660310" lon="-16.5259700">
        <ele>1027.2</ele>
        <time>2020-10-16T10:30:42Z</time>
      </trkpt>
      <trkpt lat="28.3660470" lon="-16.5257330">
        <ele>1028.4</ele>
        <time>2020-10-16T10:30:48Z</time>
      </trkpt>
      <trkpt lat="28.3660560" lon="-16.5256890">
        <ele>1028.4</ele>
        <time>2020-10-16T10:30:49Z</time>
      </trkpt>
      <trkpt lat="28.3661440" lon="-16.5254100">
        <ele>1029.4</ele>
        <time>2020-10-16T10:30:56Z</time>
      </trkpt>
      <trkpt lat="28.3661840" lon="-16.5252920">
        <ele>1030.6</ele>
        <time>2020-10-16T10:30:59Z</time>
      </trkpt>
      <trkpt lat="28.3662300" lon="-16.5251360">
        <ele>1031.8</ele>
        <time>2020-10-16T10:31:03Z</time>
      </trkpt>
      <trkpt lat="28.3662190" lon="-16.5249710">
        <ele>1033.0</ele>
        <time>2020-10-16T10:31:07Z</time>
      </trkpt>
      <trkpt lat="28.3662150" lon="-16.5247600">
        <ele>1034.0</ele>
        <time>2020-10-16T10:31:12Z</time>
      </trkpt>
      <trkpt lat="28.3662960" lon="-16.5245630">
        <ele>1035.2</ele>
        <time>2020-10-16T10:31:17Z</time>
      </trkpt>
      <trkpt lat="28.3663930" lon="-16.5243880">
        <ele>1036.2</ele>
        <time>2020-10-16T10:31:22Z</time>
      </trkpt>
      <trkpt lat="28.3663790" lon="-16.5241960">
        <ele>1037.4</ele>
        <time>2020-10-16T10:31:27Z</time>
      </trkpt>
      <trkpt lat="28.3663440" lon="-16.5240060">
        <ele>1038.8</ele>
        <time>2020-10-16T10:31:32Z</time>
      </trkpt>
      <trkpt lat="28.3663650" lon="-16.5238440">
        <ele>1039.8</ele>
        <time>2020-10-16T10:31:36Z</time>
      </trkpt>
      <trkpt lat="28.3664130" lon="-16.5235980">
        <ele>1041.0</ele>
        <time>2020-10-16T10:31:42Z</time>
      </trkpt>
      <trkpt lat="28.3664240" lon="-16.5233830">
        <ele>1042.2</ele>
        <time>2020-10-16T10:31:47Z</time>
      </trkpt>
      <trkpt lat="28.3664170" lon="-16.5232100">
        <ele>1043.2</ele>
        <time>2020-10-16T10:31:51Z</time>
      </trkpt>
      <trkpt lat="28.3664230" lon="-16.5229570">
        <ele>1044.4</ele>
        <time>2020-10-16T10:31:57Z</time>
      </trkpt>
      <trkpt lat="28.3664940" lon="-16.5227140">
        <ele>1045.6</ele>
        <time>2020-10-16T10:32:03Z</time>
      </trkpt>
      <trkpt lat="28.3665830" lon="-16.5225080">
        <ele>1046.8</ele>
        <time>2020-10-16T10:32:08Z</time>
      </trkpt>
      <trkpt lat="28.3666500" lon="-16.5223520">
        <ele>1047.8</ele>
        <time>2020-10-16T10:32:12Z</time>
      </trkpt>
      <trkpt lat="28.3666920" lon="-16.5221420">
        <ele>1049.0</ele>
        <time>2020-10-16T10:32:17Z</time>
      </trkpt>
      <trkpt lat="28.3666520" lon="-16.5219880">
        <ele>1050.2</ele>
        <time>2020-10-16T10:32:21Z</time>
      </trkpt>
      <trkpt lat="28.3665600" lon="-16.5217960">
        <ele>1051.4</ele>
        <time>2020-10-16T10:32:26Z</time>
      </trkpt>
      <trkpt lat="28.3664740" lon="-16.5216190">
        <ele>1052.6</ele>
        <time>2020-10-16T10:32:31Z</time>
      </trkpt>
      <trkpt lat="28.3663820" lon="-16.5214220">
        <ele>1053.6</ele>
        <time>2020-10-16T10:32:36Z</time>
      </trkpt>
      <trkpt lat="28.3663010" lon="-16.5212260">
        <ele>1055.0</ele>
        <time>2020-10-16T10:32:41Z</time>
      </trkpt>
      <trkpt lat="28.3662690" lon="-16.5210510">
        <ele>1056.4</ele>
        <time>2020-10-16T10:32:45Z</time>
      </trkpt>
      <trkpt lat="28.3662370" lon="-16.5208370">
        <ele>1057.2</ele>
        <time>2020-10-16T10:32:50Z</time>
      </trkpt>
      <trkpt lat="28.3662270" lon="-16.5206680">
        <ele>1058.4</ele>
        <time>2020-10-16T10:32:54Z</time>
      </trkpt>
      <trkpt lat="28.3662530" lon="-16.5204580">
        <ele>1059.4</ele>
        <time>2020-10-16T10:32:59Z</time>
      </trkpt>
      <trkpt lat="28.3662600" lon="-16.5202480">
        <ele>1060.6</ele>
        <time>2020-10-16T10:33:04Z</time>
      </trkpt>
      <trkpt lat="28.3662200" lon="-16.5200930">
        <ele>1061.6</ele>
        <time>2020-10-16T10:33:08Z</time>
      </trkpt>
      <trkpt lat="28.3661700" lon="-16.5199480">
        <ele>1062.6</ele>
        <time>2020-10-16T10:33:12Z</time>
      </trkpt>
      <trkpt lat="28.3661210" lon="-16.5198020">
        <ele>1063.4</ele>
        <time>2020-10-16T10:33:16Z</time>
      </trkpt>
      <trkpt lat="28.3660740" lon="-16.5196600">
        <ele>1064.8</ele>
        <time>2020-10-16T10:33:20Z</time>
      </trkpt>
      <trkpt lat="28.3660340" lon="-16.5195500">
        <ele>1066.0</ele>
        <time>2020-10-16T10:33:23Z</time>
      </trkpt>
      <trkpt lat="28.3660000" lon="-16.5194800">
        <ele>1067.0</ele>
        <time>2020-10-16T10:33:25Z</time>
      </trkpt>
      <trkpt lat="28.3659160" lon="-16.5193150">
        <ele>1068.2</ele>
        <time>2020-10-16T10:33:30Z</time>
      </trkpt>
      <trkpt lat="28.3658750" lon="-16.5191730">
        <ele>1069.2</ele>
        <time>2020-10-16T10:33:34Z</time>
      </trkpt>
      <trkpt lat="28.3658850" lon="-16.5189800">
        <ele>1070.4</ele>
        <time>2020-10-16T10:33:39Z</time>
      </trkpt>
      <trkpt lat="28.3659180" lon="-16.5187670">
        <ele>1071.6</ele>
        <time>2020-10-16T10:33:45Z</time>
      </trkpt>
      <trkpt lat="28.3659020" lon="-16.5185880">
        <ele>1072.6</ele>
        <time>2020-10-16T10:33:50Z</time>
      </trkpt>
      <trkpt lat="28.3659070" lon="-16.5184400">
        <ele>1073.8</ele>
        <time>2020-10-16T10:33:54Z</time>
      </trkpt>
      <trkpt lat="28.3659420" lon="-16.5182810">
        <ele>1074.8</ele>
        <time>2020-10-16T10:33:58Z</time>
      </trkpt>
      <trkpt lat="28.3659540" lon="-16.5181660">
        <ele>1075.8</ele>
        <time>2020-10-16T10:34:01Z</time>
      </trkpt>
      <trkpt lat="28.3659250" lon="-16.5180140">
        <ele>1077.0</ele>
        <time>2020-10-16T10:34:05Z</time>
      </trkpt>
      <trkpt lat="28.3658820" lon="-16.5178720">
        <ele>1078.2</ele>
        <time>2020-10-16T10:34:09Z</time>
      </trkpt>
      <trkpt lat="28.3658540" lon="-16.5177320">
        <ele>1079.2</ele>
        <time>2020-10-16T10:34:13Z</time>
      </trkpt>
      <trkpt lat="28.3658770" lon="-16.5175860">
        <ele>1080.2</ele>
        <time>2020-10-16T10:34:17Z</time>
      </trkpt>
      <trkpt lat="28.3659380" lon="-16.5174640">
        <ele>1081.4</ele>
        <time>2020-10-16T10:34:21Z</time>
      </trkpt>
      <trkpt lat="28.3660170" lon="-16.5173650">
        <ele>1082.4</ele>
        <time>2020-10-16T10:34:25Z</time>
      </trkpt>
      <trkpt lat="28.3660830" lon="-16.5172640">
        <ele>1083.4</ele>
        <time>2020-10-16T10:34:29Z</time>
      </trkpt>
      <trkpt lat="28.3661160" lon="-16.5171420">
        <ele>1084.4</ele>
        <time>2020-10-16T10:34:33Z</time>
      </trkpt>
      <trkpt lat="28.3661110" lon="-16.5170500">
        <ele>1085.6</ele>
        <time>2020-10-16T10:34:36Z</time>
      </trkpt>
      <trkpt lat="28.3660700" lon="-16.5169320">
        <ele>1086.8</ele>
        <time>2020-10-16T10:34:40Z</time>
      </trkpt>
      <trkpt lat="28.3660120" lon="-16.5168120">
        <ele>1087.8</ele>
        <time>2020-10-16T10:34:44Z</time>
      </trkpt>
      <trkpt lat="28.3659560" lon="-16.5166800">
        <ele>1089.0</ele>
        <time>2020-10-16T10:34:48Z</time>
      </trkpt>
      <trkpt lat="28.3658680" lon="-16.5164810">
        <ele>1090.0</ele>
        <time>2020-10-16T10:34:54Z</time>
      </trkpt>
      <trkpt lat="28.3657770" lon="-16.5163280">
        <ele>1091.2</ele>
        <time>2020-10-16T10:34:59Z</time>
      </trkpt>
      <trkpt lat="28.3656910" lon="-16.5162140">
        <ele>1092.4</ele>
        <time>2020-10-16T10:35:03Z</time>
      </trkpt>
      <trkpt lat="28.3655990" lon="-16.5161090">
        <ele>1093.4</ele>
        <time>2020-10-16T10:35:07Z</time>
      </trkpt>
      <trkpt lat="28.3655350" lon="-16.5160290">
        <ele>1094.6</ele>
        <time>2020-10-16T10:35:10Z</time>
      </trkpt>
      <trkpt lat="28.3654560" lon="-16.5159200">
        <ele>1095.6</ele>
        <time>2020-10-16T10:35:14Z</time>
      </trkpt>
      <trkpt lat="28.3653830" lon="-16.5158050">
        <ele>1096.8</ele>
        <time>2020-10-16T10:35:18Z</time>
      </trkpt>
      <trkpt lat="28.3653200" lon="-16.5156780">
        <ele>1097.6</ele>
        <time>2020-10-16T10:35:22Z</time>
      </trkpt>
      <trkpt lat="28.3652650" lon="-16.5155020">
        <ele>1098.8</ele>
        <time>2020-10-16T10:35:27Z</time>
      </trkpt>
      <trkpt lat="28.3652410" lon="-16.5153520">
        <ele>1100.0</ele>
        <time>2020-10-16T10:35:31Z</time>
      </trkpt>
      <trkpt lat="28.3652230" lon="-16.5152020">
        <ele>1101.0</ele>
        <time>2020-10-16T10:35:35Z</time>
      </trkpt>
      <trkpt lat="28.3651990" lon="-16.5150170">
        <ele>1102.2</ele>
        <time>2020-10-16T10:35:40Z</time>
      </trkpt>
      <trkpt lat="28.3651700" lon="-16.5148660">
        <ele>1103.2</ele>
        <time>2020-10-16T10:35:44Z</time>
      </trkpt>
      <trkpt lat="28.3651250" lon="-16.5146770">
        <ele>1104.2</ele>
        <time>2020-10-16T10:35:49Z</time>
      </trkpt>
      <trkpt lat="28.3650550" lon="-16.5144580">
        <ele>1105.2</ele>
        <time>2020-10-16T10:35:55Z</time>
      </trkpt>
      <trkpt lat="28.3650000" lon="-16.5142810">
        <ele>1106.4</ele>
        <time>2020-10-16T10:36:00Z</time>
      </trkpt>
      <trkpt lat="28.3649720" lon="-16.5140950">
        <ele>1107.6</ele>
        <time>2020-10-16T10:36:05Z</time>
      </trkpt>
      <trkpt lat="28.3649720" lon="-16.5139050">
        <ele>1108.6</ele>
        <time>2020-10-16T10:36:10Z</time>
      </trkpt>
      <trkpt lat="28.3649940" lon="-16.5137250">
        <ele>1109.6</ele>
        <time>2020-10-16T10:36:15Z</time>
      </trkpt>
      <trkpt lat="28.3650460" lon="-16.5135520">
        <ele>1110.6</ele>
        <time>2020-10-16T10:36:20Z</time>
      </trkpt>
      <trkpt lat="28.3651020" lon="-16.5134220">
        <ele>1111.8</ele>
        <time>2020-10-16T10:36:24Z</time>
      </trkpt>
      <trkpt lat="28.3651730" lon="-16.5133030">
        <ele>1112.8</ele>
        <time>2020-10-16T10:36:28Z</time>
      </trkpt>
      <trkpt lat="28.3652570" lon="-16.5131980">
        <ele>1113.8</ele>
        <time>2020-10-16T10:36:32Z</time>
      </trkpt>
      <trkpt lat="28.3653910" lon="-16.5130500">
        <ele>1115.0</ele>
        <time>2020-10-16T10:36:38Z</time>
      </trkpt>
      <trkpt lat="28.3654990" lon="-16.5129240">
        <ele>1116.0</ele>
        <time>2020-10-16T10:36:43Z</time>
      </trkpt>
      <trkpt lat="28.3656300" lon="-16.5127330">
        <ele>1117.2</ele>
        <time>2020-10-16T10:36:49Z</time>
      </trkpt>
      <trkpt lat="28.3656760" lon="-16.5126290">
        <ele>1118.2</ele>
        <time>2020-10-16T10:36:52Z</time>
      </trkpt>
      <trkpt lat="28.3657150" lon="-16.5124840">
        <ele>1119.4</ele>
        <time>2020-10-16T10:36:56Z</time>
      </trkpt>
      <trkpt lat="28.3657230" lon="-16.5123730">
        <ele>1120.4</ele>
        <time>2020-10-16T10:36:59Z</time>
      </trkpt>
      <trkpt lat="28.3657060" lon="-16.5121940">
        <ele>1121.8</ele>
        <time>2020-10-16T10:37:04Z</time>
      </trkpt>
      <trkpt lat="28.3656600" lon="-16.5120140">
        <ele>1123.0</ele>
        <time>2020-10-16T10:37:09Z</time>
      </trkpt>
      <trkpt lat="28.3656000" lon="-16.5118780">
        <ele>1124.0</ele>
        <time>2020-10-16T10:37:13Z</time>
      </trkpt>
      <trkpt lat="28.3655440" lon="-16.5117360">
        <ele>1125.4</ele>
        <time>2020-10-16T10:37:17Z</time>
      </trkpt>
      <trkpt lat="28.3654920" lon="-16.5115970">
        <ele>1126.4</ele>
        <time>2020-10-16T10:37:21Z</time>
      </trkpt>
      <trkpt lat="28.3654510" lon="-16.5114480">
        <ele>1127.6</ele>
        <time>2020-10-16T10:37:25Z</time>
      </trkpt>
      <trkpt lat="28.3654310" lon="-16.5112870">
        <ele>1129.0</ele>
        <time>2020-10-16T10:37:29Z</time>
      </trkpt>
      <trkpt lat="28.3654140" lon="-16.5110870">
        <ele>1130.0</ele>
        <time>2020-10-16T10:37:34Z</time>
      </trkpt>
      <trkpt lat="28.3654160" lon="-16.5108910">
        <ele>1130.6</ele>
        <time>2020-10-16T10:37:37Z</time>
      </trkpt>
      <trkpt lat="28.3654270" lon="-16.5107940">
        <ele>1131.0</ele>
        <time>2020-10-16T10:37:40Z</time>
      </trkpt>
      <trkpt lat="28.3654670" lon="-16.5104460">
        <ele>1132.0</ele>
        <time>2020-10-16T10:37:48Z</time>
      </trkpt>
      <trkpt lat="28.3654820" lon="-16.5102560">
        <ele>1133.0</ele>
        <time>2020-10-16T10:37:53Z</time>
      </trkpt>
      <trkpt lat="28.3654940" lon="-16.5101030">
        <ele>1134.2</ele>
        <time>2020-10-16T10:37:57Z</time>
      </trkpt>
      <trkpt lat="28.3654920" lon="-16.5099860">
        <ele>1135.2</ele>
        <time>2020-10-16T10:38:00Z</time>
      </trkpt>
      <trkpt lat="28.3654310" lon="-16.5097620">
        <ele>1136.2</ele>
        <time>2020-10-16T10:38:06Z</time>
      </trkpt>
      <trkpt lat="28.3653470" lon="-16.5095840">
        <ele>1137.4</ele>
        <time>2020-10-16T10:38:11Z</time>
      </trkpt>
      <trkpt lat="28.3652510" lon="-16.5094570">
        <ele>1138.6</ele>
        <time>2020-10-16T10:38:15Z</time>
      </trkpt>
      <trkpt lat="28.3651700" lon="-16.5093250">
        <ele>1139.8</ele>
        <time>2020-10-16T10:38:19Z</time>
      </trkpt>
      <trkpt lat="28.3650950" lon="-16.5091930">
        <ele>1141.0</ele>
        <time>2020-10-16T10:38:23Z</time>
      </trkpt>
      <trkpt lat="28.3650220" lon="-16.5090110">
        <ele>1142.0</ele>
        <time>2020-10-16T10:38:28Z</time>
      </trkpt>
      <trkpt lat="28.3649870" lon="-16.5088640">
        <ele>1143.0</ele>
        <time>2020-10-16T10:38:32Z</time>
      </trkpt>
      <trkpt lat="28.3649830" lon="-16.5087420">
        <ele>1144.0</ele>
        <time>2020-10-16T10:38:35Z</time>
      </trkpt>
      <trkpt lat="28.3650030" lon="-16.5085830">
        <ele>1145.2</ele>
        <time>2020-10-16T10:38:39Z</time>
      </trkpt>
      <trkpt lat="28.3650480" lon="-16.5084370">
        <ele>1146.4</ele>
        <time>2020-10-16T10:38:43Z</time>
      </trkpt>
      <trkpt lat="28.3650990" lon="-16.5082950">
        <ele>1147.4</ele>
        <time>2020-10-16T10:38:47Z</time>
      </trkpt>
      <trkpt lat="28.3651590" lon="-16.5080780">
        <ele>1148.6</ele>
        <time>2020-10-16T10:38:53Z</time>
      </trkpt>
      <trkpt lat="28.3651820" lon="-16.5078960">
        <ele>1149.8</ele>
        <time>2020-10-16T10:38:58Z</time>
      </trkpt>
      <trkpt lat="28.3652090" lon="-16.5077140">
        <ele>1151.0</ele>
        <time>2020-10-16T10:39:03Z</time>
      </trkpt>
      <trkpt lat="28.3652520" lon="-16.5076150">
        <ele>1152.0</ele>
        <time>2020-10-16T10:39:06Z</time>
      </trkpt>
      <trkpt lat="28.3653080" lon="-16.5075250">
        <ele>1153.2</ele>
        <time>2020-10-16T10:39:09Z</time>
      </trkpt>
      <trkpt lat="28.3654260" lon="-16.5073930">
        <ele>1154.4</ele>
        <time>2020-10-16T10:39:14Z</time>
      </trkpt>
      <trkpt lat="28.3655590" lon="-16.5072570">
        <ele>1155.6</ele>
        <time>2020-10-16T10:39:19Z</time>
      </trkpt>
      <trkpt lat="28.3656790" lon="-16.5070450">
        <ele>1156.4</ele>
        <time>2020-10-16T10:39:25Z</time>
      </trkpt>
      <trkpt lat="28.3657370" lon="-16.5068520">
        <ele>1157.6</ele>
        <time>2020-10-16T10:39:30Z</time>
      </trkpt>
      <trkpt lat="28.3657600" lon="-16.5066940">
        <ele>1158.8</ele>
        <time>2020-10-16T10:39:34Z</time>
      </trkpt>
      <trkpt lat="28.3657860" lon="-16.5065340">
        <ele>1160.0</ele>
        <time>2020-10-16T10:39:38Z</time>
      </trkpt>
      <trkpt lat="28.3658090" lon="-16.5064180">
        <ele>1161.2</ele>
        <time>2020-10-16T10:39:41Z</time>
      </trkpt>
      <trkpt lat="28.3658390" lon="-16.5062630">
        <ele>1162.4</ele>
        <time>2020-10-16T10:39:45Z</time>
      </trkpt>
      <trkpt lat="28.3658710" lon="-16.5060680">
        <ele>1163.4</ele>
        <time>2020-10-16T10:39:50Z</time>
      </trkpt>
      <trkpt lat="28.3659040" lon="-16.5058750">
        <ele>1164.2</ele>
        <time>2020-10-16T10:39:55Z</time>
      </trkpt>
      <trkpt lat="28.3659090" lon="-16.5057190">
        <ele>1165.4</ele>
        <time>2020-10-16T10:39:59Z</time>
      </trkpt>
      <trkpt lat="28.3658920" lon="-16.5055340">
        <ele>1166.6</ele>
        <time>2020-10-16T10:40:04Z</time>
      </trkpt>
      <trkpt lat="28.3658700" lon="-16.5053870">
        <ele>1167.6</ele>
        <time>2020-10-16T10:40:08Z</time>
      </trkpt>
      <trkpt lat="28.3658400" lon="-16.5051950">
        <ele>1168.8</ele>
        <time>2020-10-16T10:40:13Z</time>
      </trkpt>
      <trkpt lat="28.3658240" lon="-16.5050850">
        <ele>1170.0</ele>
        <time>2020-10-16T10:40:16Z</time>
      </trkpt>
      <trkpt lat="28.3658280" lon="-16.5049040">
        <ele>1171.2</ele>
        <time>2020-10-16T10:40:21Z</time>
      </trkpt>
      <trkpt lat="28.3658580" lon="-16.5047960">
        <ele>1172.2</ele>
        <time>2020-10-16T10:40:24Z</time>
      </trkpt>
      <trkpt lat="28.3659210" lon="-16.5046630">
        <ele>1173.2</ele>
        <time>2020-10-16T10:40:28Z</time>
      </trkpt>
      <trkpt lat="28.3659880" lon="-16.5044810">
        <ele>1174.4</ele>
        <time>2020-10-16T10:40:33Z</time>
      </trkpt>
      <trkpt lat="28.3659900" lon="-16.5042220">
        <ele>1175.4</ele>
        <time>2020-10-16T10:40:40Z</time>
      </trkpt>
      <trkpt lat="28.3658700" lon="-16.5040460">
        <ele>1176.6</ele>
        <time>2020-10-16T10:40:46Z</time>
      </trkpt>
      <trkpt lat="28.3657530" lon="-16.5039700">
        <ele>1177.8</ele>
        <time>2020-10-16T10:40:50Z</time>
      </trkpt>
      <trkpt lat="28.3656320" lon="-16.5039030">
        <ele>1179.0</ele>
        <time>2020-10-16T10:40:54Z</time>
      </trkpt>
      <trkpt lat="28.3655160" lon="-16.5038350">
        <ele>1180.0</ele>
        <time>2020-10-16T10:40:58Z</time>
      </trkpt>
      <trkpt lat="28.3654110" lon="-16.5037500">
        <ele>1180.8</ele>
        <time>2020-10-16T10:41:02Z</time>
      </trkpt>
      <trkpt lat="28.3653240" lon="-16.5036380">
        <ele>1181.8</ele>
        <time>2020-10-16T10:41:06Z</time>
      </trkpt>
      <trkpt lat="28.3652170" lon="-16.5034490">
        <ele>1183.0</ele>
        <time>2020-10-16T10:41:12Z</time>
      </trkpt>
      <trkpt lat="28.3651180" lon="-16.5032120">
        <ele>1184.2</ele>
        <time>2020-10-16T10:41:19Z</time>
      </trkpt>
      <trkpt lat="28.3650470" lon="-16.5030420">
        <ele>1185.2</ele>
        <time>2020-10-16T10:41:24Z</time>
      </trkpt>
      <trkpt lat="28.3649790" lon="-16.5028660">
        <ele>1186.4</ele>
        <time>2020-10-16T10:41:29Z</time>
      </trkpt>
      <trkpt lat="28.3649260" lon="-16.5027270">
        <ele>1187.6</ele>
        <time>2020-10-16T10:41:33Z</time>
      </trkpt>
      <trkpt lat="28.3648430" lon="-16.5025270">
        <ele>1188.4</ele>
        <time>2020-10-16T10:41:39Z</time>
      </trkpt>
      <trkpt lat="28.3647180" lon="-16.5023430">
        <ele>1189.4</ele>
        <time>2020-10-16T10:41:45Z</time>
      </trkpt>
      <trkpt lat="28.3646190" lon="-16.5022390">
        <ele>1190.4</ele>
        <time>2020-10-16T10:41:49Z</time>
      </trkpt>
      <trkpt lat="28.3644960" lon="-16.5021230">
        <ele>1191.8</ele>
        <time>2020-10-16T10:41:54Z</time>
      </trkpt>
      <trkpt lat="28.3643900" lon="-16.5020420">
        <ele>1193.0</ele>
        <time>2020-10-16T10:41:58Z</time>
      </trkpt>
      <trkpt lat="28.3642400" lon="-16.5019020">
        <ele>1194.2</ele>
        <time>2020-10-16T10:42:04Z</time>
      </trkpt>
      <trkpt lat="28.3641570" lon="-16.5017930">
        <ele>1195.2</ele>
        <time>2020-10-16T10:42:08Z</time>
      </trkpt>
      <trkpt lat="28.3640900" lon="-16.5016700">
        <ele>1196.2</ele>
        <time>2020-10-16T10:42:12Z</time>
      </trkpt>
      <trkpt lat="28.3640160" lon="-16.5015060">
        <ele>1197.4</ele>
        <time>2020-10-16T10:42:17Z</time>
      </trkpt>
      <trkpt lat="28.3639270" lon="-16.5013070">
        <ele>1198.6</ele>
        <time>2020-10-16T10:42:23Z</time>
      </trkpt>
      <trkpt lat="28.3638580" lon="-16.5011390">
        <ele>1199.8</ele>
        <time>2020-10-16T10:42:28Z</time>
      </trkpt>
      <trkpt lat="28.3638130" lon="-16.5010420">
        <ele>1200.4</ele>
        <time>2020-10-16T10:42:31Z</time>
      </trkpt>
      <trkpt lat="28.3637870" lon="-16.5009750">
        <ele>1200.8</ele>
        <time>2020-10-16T10:42:33Z</time>
      </trkpt>
      <trkpt lat="28.3637180" lon="-16.5008110">
        <ele>1202.0</ele>
        <time>2020-10-16T10:42:38Z</time>
      </trkpt>
      <trkpt lat="28.3636600" lon="-16.5006740">
        <ele>1203.2</ele>
        <time>2020-10-16T10:42:42Z</time>
      </trkpt>
      <trkpt lat="28.3635900" lon="-16.5005110">
        <ele>1204.6</ele>
        <time>2020-10-16T10:42:47Z</time>
      </trkpt>
      <trkpt lat="28.3635390" lon="-16.5003780">
        <ele>1205.6</ele>
        <time>2020-10-16T10:42:51Z</time>
      </trkpt>
      <trkpt lat="28.3635020" lon="-16.5002040">
        <ele>1206.8</ele>
        <time>2020-10-16T10:42:56Z</time>
      </trkpt>
      <trkpt lat="28.3634940" lon="-16.4999800">
        <ele>1208.0</ele>
        <time>2020-10-16T10:43:02Z</time>
      </trkpt>
      <trkpt lat="28.3634910" lon="-16.4998050">
        <ele>1209.0</ele>
        <time>2020-10-16T10:43:06Z</time>
      </trkpt>
      <trkpt lat="28.3634760" lon="-16.4996370">
        <ele>1209.6</ele>
        <time>2020-10-16T10:43:09Z</time>
      </trkpt>
      <trkpt lat="28.3634640" lon="-16.4995120">
        <ele>1210.0</ele>
        <time>2020-10-16T10:43:11Z</time>
      </trkpt>
      <trkpt lat="28.3634340" lon="-16.4993330">
        <ele>1210.6</ele>
        <time>2020-10-16T10:43:14Z</time>
      </trkpt>
      <trkpt lat="28.3634170" lon="-16.4992780">
        <ele>1211.2</ele>
        <time>2020-10-16T10:43:15Z</time>
      </trkpt>
      <trkpt lat="28.3633820" lon="-16.4991800">
        <ele>1212.2</ele>
        <time>2020-10-16T10:43:17Z</time>
      </trkpt>
      <trkpt lat="28.3633600" lon="-16.4991430">
        <ele>1212.4</ele>
        <time>2020-10-16T10:43:18Z</time>
      </trkpt>
      <trkpt lat="28.3633030" lon="-16.4990590">
        <ele>1213.6</ele>
        <time>2020-10-16T10:43:21Z</time>
      </trkpt>
      <trkpt lat="28.3632870" lon="-16.4988400">
        <ele>1218.8</ele>
        <time>2020-10-16T10:58:17Z</time>
      </trkpt>
      <trkpt lat="28.3632160" lon="-16.4988100">
        <ele>1219.0</ele>
        <time>2020-10-16T10:58:21Z</time>
      </trkpt>
      <trkpt lat="28.3630750" lon="-16.4987410">
        <ele>1219.0</ele>
        <time>2020-10-16T10:58:25Z</time>
      </trkpt>
      <trkpt lat="28.3630420" lon="-16.4987120">
        <ele>1219.0</ele>
        <time>2020-10-16T10:58:26Z</time>
      </trkpt>
      <trkpt lat="28.3629420" lon="-16.4986390">
        <ele>1219.4</ele>
        <time>2020-10-16T10:58:29Z</time>
      </trkpt>
      <trkpt lat="28.3628460" lon="-16.4985720">
        <ele>1220.2</ele>
        <time>2020-10-16T10:58:32Z</time>
      </trkpt>
      <trkpt lat="28.3627190" lon="-16.4984950">
        <ele>1221.2</ele>
        <time>2020-10-16T10:58:36Z</time>
      </trkpt>
      <trkpt lat="28.3625930" lon="-16.4984220">
        <ele>1222.2</ele>
        <time>2020-10-16T10:58:40Z</time>
      </trkpt>
      <trkpt lat="28.3624670" lon="-16.4983420">
        <ele>1223.4</ele>
        <time>2020-10-16T10:58:44Z</time>
      </trkpt>
      <trkpt lat="28.3623720" lon="-16.4982860">
        <ele>1224.4</ele>
        <time>2020-10-16T10:58:47Z</time>
      </trkpt>
      <trkpt lat="28.3622850" lon="-16.4982290">
        <ele>1225.4</ele>
        <time>2020-10-16T10:58:50Z</time>
      </trkpt>
      <trkpt lat="28.3621660" lon="-16.4981560">
        <ele>1226.6</ele>
        <time>2020-10-16T10:58:54Z</time>
      </trkpt>
      <trkpt lat="28.3620680" lon="-16.4980730">
        <ele>1227.8</ele>
        <time>2020-10-16T10:58:58Z</time>
      </trkpt>
      <trkpt lat="28.3619670" lon="-16.4979100">
        <ele>1229.0</ele>
        <time>2020-10-16T10:59:03Z</time>
      </trkpt>
      <trkpt lat="28.3618900" lon="-16.4977910">
        <ele>1230.2</ele>
        <time>2020-10-16T10:59:07Z</time>
      </trkpt>
      <trkpt lat="28.3618380" lon="-16.4976910">
        <ele>1231.2</ele>
        <time>2020-10-16T10:59:10Z</time>
      </trkpt>
      <trkpt lat="28.3617480" lon="-16.4975280">
        <ele>1232.2</ele>
        <time>2020-10-16T10:59:15Z</time>
      </trkpt>
      <trkpt lat="28.3616920" lon="-16.4973940">
        <ele>1233.2</ele>
        <time>2020-10-16T10:59:19Z</time>
      </trkpt>
      <trkpt lat="28.3616750" lon="-16.4972010">
        <ele>1234.4</ele>
        <time>2020-10-16T10:59:24Z</time>
      </trkpt>
      <trkpt lat="28.3616780" lon="-16.4970450">
        <ele>1235.6</ele>
        <time>2020-10-16T10:59:28Z</time>
      </trkpt>
      <trkpt lat="28.3616480" lon="-16.4968950">
        <ele>1236.6</ele>
        <time>2020-10-16T10:59:32Z</time>
      </trkpt>
      <trkpt lat="28.3615640" lon="-16.4967290">
        <ele>1237.8</ele>
        <time>2020-10-16T10:59:37Z</time>
      </trkpt>
      <trkpt lat="28.3614680" lon="-16.4965610">
        <ele>1239.0</ele>
        <time>2020-10-16T10:59:42Z</time>
      </trkpt>
      <trkpt lat="28.3613870" lon="-16.4964340">
        <ele>1240.0</ele>
        <time>2020-10-16T10:59:46Z</time>
      </trkpt>
      <trkpt lat="28.3612800" lon="-16.4962880">
        <ele>1241.2</ele>
        <time>2020-10-16T10:59:51Z</time>
      </trkpt>
      <trkpt lat="28.3611870" lon="-16.4961810">
        <ele>1242.2</ele>
        <time>2020-10-16T10:59:55Z</time>
      </trkpt>
      <trkpt lat="28.3610630" lon="-16.4960400">
        <ele>1243.4</ele>
        <time>2020-10-16T11:00:00Z</time>
      </trkpt>
      <trkpt lat="28.3609290" lon="-16.4959300">
        <ele>1244.2</ele>
        <time>2020-10-16T11:00:05Z</time>
      </trkpt>
      <trkpt lat="28.3608080" lon="-16.4959150">
        <ele>1245.4</ele>
        <time>2020-10-16T11:00:09Z</time>
      </trkpt>
      <trkpt lat="28.3607290" lon="-16.4960500">
        <ele>1246.4</ele>
        <time>2020-10-16T11:00:14Z</time>
      </trkpt>
      <trkpt lat="28.3607400" lon="-16.4961610">
        <ele>1247.6</ele>
        <time>2020-10-16T11:00:17Z</time>
      </trkpt>
      <trkpt lat="28.3607520" lon="-16.4963190">
        <ele>1248.8</ele>
        <time>2020-10-16T11:00:21Z</time>
      </trkpt>
      <trkpt lat="28.3607350" lon="-16.4965150">
        <ele>1250.0</ele>
        <time>2020-10-16T11:00:26Z</time>
      </trkpt>
      <trkpt lat="28.3607100" lon="-16.4966790">
        <ele>1251.0</ele>
        <time>2020-10-16T11:00:30Z</time>
      </trkpt>
      <trkpt lat="28.3607000" lon="-16.4970060">
        <ele>1252.2</ele>
        <time>2020-10-16T11:00:38Z</time>
      </trkpt>
      <trkpt lat="28.3607430" lon="-16.4972500">
        <ele>1253.2</ele>
        <time>2020-10-16T11:00:44Z</time>
      </trkpt>
      <trkpt lat="28.3607770" lon="-16.4974560">
        <ele>1254.6</ele>
        <time>2020-10-16T11:00:49Z</time>
      </trkpt>
      <trkpt lat="28.3607880" lon="-16.4976560">
        <ele>1255.4</ele>
        <time>2020-10-16T11:00:54Z</time>
      </trkpt>
      <trkpt lat="28.3607890" lon="-16.4979080">
        <ele>1256.6</ele>
        <time>2020-10-16T11:01:00Z</time>
      </trkpt>
      <trkpt lat="28.3608010" lon="-16.4980400">
        <ele>1257.8</ele>
        <time>2020-10-16T11:01:03Z</time>
      </trkpt>
      <trkpt lat="28.3608780" lon="-16.4982690">
        <ele>1258.8</ele>
        <time>2020-10-16T11:01:09Z</time>
      </trkpt>
      <trkpt lat="28.3609730" lon="-16.4984990">
        <ele>1259.8</ele>
        <time>2020-10-16T11:01:15Z</time>
      </trkpt>
      <trkpt lat="28.3610570" lon="-16.4986990">
        <ele>1261.0</ele>
        <time>2020-10-16T11:01:20Z</time>
      </trkpt>
      <trkpt lat="28.3611190" lon="-16.4988610">
        <ele>1262.2</ele>
        <time>2020-10-16T11:01:24Z</time>
      </trkpt>
      <trkpt lat="28.3611940" lon="-16.4991070">
        <ele>1263.2</ele>
        <time>2020-10-16T11:01:30Z</time>
      </trkpt>
      <trkpt lat="28.3612550" lon="-16.4993320">
        <ele>1264.2</ele>
        <time>2020-10-16T11:01:36Z</time>
      </trkpt>
      <trkpt lat="28.3613390" lon="-16.4995320">
        <ele>1265.2</ele>
        <time>2020-10-16T11:01:41Z</time>
      </trkpt>
      <trkpt lat="28.3614740" lon="-16.4997680">
        <ele>1266.2</ele>
        <time>2020-10-16T11:01:47Z</time>
      </trkpt>
      <trkpt lat="28.3615760" lon="-16.4999520">
        <ele>1267.4</ele>
        <time>2020-10-16T11:01:52Z</time>
      </trkpt>
      <trkpt lat="28.3616240" lon="-16.5001080">
        <ele>1268.4</ele>
        <time>2020-10-16T11:01:56Z</time>
      </trkpt>
      <trkpt lat="28.3616260" lon="-16.5002330">
        <ele>1269.4</ele>
        <time>2020-10-16T11:01:59Z</time>
      </trkpt>
      <trkpt lat="28.3615950" lon="-16.5004370">
        <ele>1270.4</ele>
        <time>2020-10-16T11:02:04Z</time>
      </trkpt>
      <trkpt lat="28.3616170" lon="-16.5006470">
        <ele>1271.4</ele>
        <time>2020-10-16T11:02:09Z</time>
      </trkpt>
      <trkpt lat="28.3617190" lon="-16.5008550">
        <ele>1272.4</ele>
        <time>2020-10-16T11:02:14Z</time>
      </trkpt>
      <trkpt lat="28.3617130" lon="-16.5010280">
        <ele>1273.4</ele>
        <time>2020-10-16T11:02:18Z</time>
      </trkpt>
      <trkpt lat="28.3616020" lon="-16.5012360">
        <ele>1274.4</ele>
        <time>2020-10-16T11:02:23Z</time>
      </trkpt>
      <trkpt lat="28.3615790" lon="-16.5012760">
        <ele>1274.8</ele>
        <time>2020-10-16T11:02:24Z</time>
      </trkpt>
      <trkpt lat="28.3614950" lon="-16.5013850">
        <ele>1275.8</ele>
        <time>2020-10-16T11:02:27Z</time>
      </trkpt>
      <trkpt lat="28.3614470" lon="-16.5014560">
        <ele>1276.2</ele>
        <time>2020-10-16T11:02:29Z</time>
      </trkpt>
      <trkpt lat="28.3613890" lon="-16.5015200">
        <ele>1276.6</ele>
        <time>2020-10-16T11:02:31Z</time>
      </trkpt>
      <trkpt lat="28.3612460" lon="-16.5016580">
        <ele>1277.8</ele>
        <time>2020-10-16T11:02:36Z</time>
      </trkpt>
      <trkpt lat="28.3611290" lon="-16.5017550">
        <ele>1278.6</ele>
        <time>2020-10-16T11:02:40Z</time>
      </trkpt>
      <trkpt lat="28.3609800" lon="-16.5018670">
        <ele>1280.0</ele>
        <time>2020-10-16T11:02:45Z</time>
      </trkpt>
      <trkpt lat="28.3608610" lon="-16.5019720">
        <ele>1281.2</ele>
        <time>2020-10-16T11:02:49Z</time>
      </trkpt>
      <trkpt lat="28.3607150" lon="-16.5020880">
        <ele>1282.2</ele>
        <time>2020-10-16T11:02:54Z</time>
      </trkpt>
      <trkpt lat="28.3605700" lon="-16.5021840">
        <ele>1283.4</ele>
        <time>2020-10-16T11:02:59Z</time>
      </trkpt>
      <trkpt lat="28.3604380" lon="-16.5022980">
        <ele>1284.2</ele>
        <time>2020-10-16T11:03:04Z</time>
      </trkpt>
      <trkpt lat="28.3603570" lon="-16.5023690">
        <ele>1285.4</ele>
        <time>2020-10-16T11:03:07Z</time>
      </trkpt>
      <trkpt lat="28.3602580" lon="-16.5024730">
        <ele>1286.4</ele>
        <time>2020-10-16T11:03:11Z</time>
      </trkpt>
      <trkpt lat="28.3601870" lon="-16.5025860">
        <ele>1287.6</ele>
        <time>2020-10-16T11:03:15Z</time>
      </trkpt>
      <trkpt lat="28.3601640" lon="-16.5027980">
        <ele>1288.6</ele>
        <time>2020-10-16T11:03:20Z</time>
      </trkpt>
      <trkpt lat="28.3601660" lon="-16.5030080">
        <ele>1289.4</ele>
        <time>2020-10-16T11:03:25Z</time>
      </trkpt>
      <trkpt lat="28.3601460" lon="-16.5031840">
        <ele>1290.6</ele>
        <time>2020-10-16T11:03:29Z</time>
      </trkpt>
      <trkpt lat="28.3600760" lon="-16.5033720">
        <ele>1291.6</ele>
        <time>2020-10-16T11:03:33Z</time>
      </trkpt>
      <trkpt lat="28.3599590" lon="-16.5035830">
        <ele>1292.4</ele>
        <time>2020-10-16T11:03:38Z</time>
      </trkpt>
      <trkpt lat="28.3599330" lon="-16.5036220">
        <ele>1292.8</ele>
        <time>2020-10-16T11:03:39Z</time>
      </trkpt>
      <trkpt lat="28.3598780" lon="-16.5036900">
        <ele>1293.6</ele>
        <time>2020-10-16T11:03:41Z</time>
      </trkpt>
      <trkpt lat="28.3597790" lon="-16.5038340">
        <ele>1294.6</ele>
        <time>2020-10-16T11:03:45Z</time>
      </trkpt>
      <trkpt lat="28.3596770" lon="-16.5040760">
        <ele>1295.6</ele>
        <time>2020-10-16T11:03:51Z</time>
      </trkpt>
      <trkpt lat="28.3596180" lon="-16.5042330">
        <ele>1296.4</ele>
        <time>2020-10-16T11:03:55Z</time>
      </trkpt>
      <trkpt lat="28.3595260" lon="-16.5043770">
        <ele>1297.4</ele>
        <time>2020-10-16T11:03:59Z</time>
      </trkpt>
      <trkpt lat="28.3594200" lon="-16.5045140">
        <ele>1298.4</ele>
        <time>2020-10-16T11:04:03Z</time>
      </trkpt>
      <trkpt lat="28.3592950" lon="-16.5046790">
        <ele>1299.4</ele>
        <time>2020-10-16T11:04:08Z</time>
      </trkpt>
      <trkpt lat="28.3591590" lon="-16.5048380">
        <ele>1300.4</ele>
        <time>2020-10-16T11:04:13Z</time>
      </trkpt>
      <trkpt lat="28.3590060" lon="-16.5049650">
        <ele>1301.4</ele>
        <time>2020-10-16T11:04:18Z</time>
      </trkpt>
      <trkpt lat="28.3588440" lon="-16.5050830">
        <ele>1302.6</ele>
        <time>2020-10-16T11:04:23Z</time>
      </trkpt>
      <trkpt lat="28.3587040" lon="-16.5051970">
        <ele>1303.8</ele>
        <time>2020-10-16T11:04:28Z</time>
      </trkpt>
      <trkpt lat="28.3585910" lon="-16.5053560">
        <ele>1304.8</ele>
        <time>2020-10-16T11:04:33Z</time>
      </trkpt>
      <trkpt lat="28.3584680" lon="-16.5055570">
        <ele>1306.0</ele>
        <time>2020-10-16T11:04:39Z</time>
      </trkpt>
      <trkpt lat="28.3583130" lon="-16.5056970">
        <ele>1307.2</ele>
        <time>2020-10-16T11:04:44Z</time>
      </trkpt>
      <trkpt lat="28.3581920" lon="-16.5057590">
        <ele>1308.2</ele>
        <time>2020-10-16T11:04:47Z</time>
      </trkpt>
      <trkpt lat="28.3580130" lon="-16.5058650">
        <ele>1309.6</ele>
        <time>2020-10-16T11:04:52Z</time>
      </trkpt>
      <trkpt lat="28.3578260" lon="-16.5060100">
        <ele>1310.6</ele>
        <time>2020-10-16T11:04:58Z</time>
      </trkpt>
      <trkpt lat="28.3576950" lon="-16.5061520">
        <ele>1311.8</ele>
        <time>2020-10-16T11:05:03Z</time>
      </trkpt>
      <trkpt lat="28.3575840" lon="-16.5062560">
        <ele>1312.8</ele>
        <time>2020-10-16T11:05:07Z</time>
      </trkpt>
      <trkpt lat="28.3574220" lon="-16.5064210">
        <ele>1314.2</ele>
        <time>2020-10-16T11:05:13Z</time>
      </trkpt>
      <trkpt lat="28.3573180" lon="-16.5065330">
        <ele>1315.2</ele>
        <time>2020-10-16T11:05:17Z</time>
      </trkpt>
      <trkpt lat="28.3572470" lon="-16.5066820">
        <ele>1316.2</ele>
        <time>2020-10-16T11:05:21Z</time>
      </trkpt>
      <trkpt lat="28.3572570" lon="-16.5068830">
        <ele>1317.4</ele>
        <time>2020-10-16T11:05:26Z</time>
      </trkpt>
      <trkpt lat="28.3572980" lon="-16.5070840">
        <ele>1318.6</ele>
        <time>2020-10-16T11:05:31Z</time>
      </trkpt>
      <trkpt lat="28.3572970" lon="-16.5072420">
        <ele>1319.8</ele>
        <time>2020-10-16T11:05:35Z</time>
      </trkpt>
      <trkpt lat="28.3572310" lon="-16.5073930">
        <ele>1320.8</ele>
        <time>2020-10-16T11:05:39Z</time>
      </trkpt>
      <trkpt lat="28.3571340" lon="-16.5075260">
        <ele>1322.0</ele>
        <time>2020-10-16T11:05:43Z</time>
      </trkpt>
      <trkpt lat="28.3569740" lon="-16.5077630">
        <ele>1323.2</ele>
        <time>2020-10-16T11:05:50Z</time>
      </trkpt>
      <trkpt lat="28.3569160" lon="-16.5079170">
        <ele>1324.4</ele>
        <time>2020-10-16T11:05:54Z</time>
      </trkpt>
      <trkpt lat="28.3568580" lon="-16.5081460">
        <ele>1325.4</ele>
        <time>2020-10-16T11:06:00Z</time>
      </trkpt>
      <trkpt lat="28.3568390" lon="-16.5083500">
        <ele>1326.6</ele>
        <time>2020-10-16T11:06:05Z</time>
      </trkpt>
      <trkpt lat="28.3568310" lon="-16.5085430">
        <ele>1327.8</ele>
        <time>2020-10-16T11:06:10Z</time>
      </trkpt>
      <trkpt lat="28.3568110" lon="-16.5087020">
        <ele>1328.8</ele>
        <time>2020-10-16T11:06:14Z</time>
      </trkpt>
      <trkpt lat="28.3567660" lon="-16.5089370">
        <ele>1330.2</ele>
        <time>2020-10-16T11:06:20Z</time>
      </trkpt>
      <trkpt lat="28.3567450" lon="-16.5091280">
        <ele>1331.4</ele>
        <time>2020-10-16T11:06:25Z</time>
      </trkpt>
      <trkpt lat="28.3567600" lon="-16.5093160">
        <ele>1332.4</ele>
        <time>2020-10-16T11:06:30Z</time>
      </trkpt>
      <trkpt lat="28.3567990" lon="-16.5095050">
        <ele>1333.6</ele>
        <time>2020-10-16T11:06:35Z</time>
      </trkpt>
      <trkpt lat="28.3568320" lon="-16.5096890">
        <ele>1334.8</ele>
        <time>2020-10-16T11:06:40Z</time>
      </trkpt>
      <trkpt lat="28.3568730" lon="-16.5098720">
        <ele>1336.0</ele>
        <time>2020-10-16T11:06:45Z</time>
      </trkpt>
      <trkpt lat="28.3568780" lon="-16.5101060">
        <ele>1337.2</ele>
        <time>2020-10-16T11:06:51Z</time>
      </trkpt>
      <trkpt lat="28.3568220" lon="-16.5103070">
        <ele>1338.4</ele>
        <time>2020-10-16T11:06:56Z</time>
      </trkpt>
      <trkpt lat="28.3567590" lon="-16.5104980">
        <ele>1339.6</ele>
        <time>2020-10-16T11:07:01Z</time>
      </trkpt>
      <trkpt lat="28.3567040" lon="-16.5106870">
        <ele>1340.8</ele>
        <time>2020-10-16T11:07:06Z</time>
      </trkpt>
      <trkpt lat="28.3566570" lon="-16.5108320">
        <ele>1341.6</ele>
        <time>2020-10-16T11:07:10Z</time>
      </trkpt>
      <trkpt lat="28.3565910" lon="-16.5110050">
        <ele>1342.8</ele>
        <time>2020-10-16T11:07:15Z</time>
      </trkpt>
      <trkpt lat="28.3565030" lon="-16.5111710">
        <ele>1344.0</ele>
        <time>2020-10-16T11:07:20Z</time>
      </trkpt>
      <trkpt lat="28.3563800" lon="-16.5113600">
        <ele>1345.0</ele>
        <time>2020-10-16T11:07:26Z</time>
      </trkpt>
      <trkpt lat="28.3562830" lon="-16.5115160">
        <ele>1346.2</ele>
        <time>2020-10-16T11:07:31Z</time>
      </trkpt>
      <trkpt lat="28.3561780" lon="-16.5116700">
        <ele>1347.4</ele>
        <time>2020-10-16T11:07:36Z</time>
      </trkpt>
      <trkpt lat="28.3560790" lon="-16.5118300">
        <ele>1348.4</ele>
        <time>2020-10-16T11:07:41Z</time>
      </trkpt>
      <trkpt lat="28.3559850" lon="-16.5119850">
        <ele>1349.4</ele>
        <time>2020-10-16T11:07:46Z</time>
      </trkpt>
      <trkpt lat="28.3559050" lon="-16.5121100">
        <ele>1350.4</ele>
        <time>2020-10-16T11:07:50Z</time>
      </trkpt>
      <trkpt lat="28.3558420" lon="-16.5122060">
        <ele>1351.6</ele>
        <time>2020-10-16T11:07:53Z</time>
      </trkpt>
      <trkpt lat="28.3557620" lon="-16.5123310">
        <ele>1352.8</ele>
        <time>2020-10-16T11:07:57Z</time>
      </trkpt>
      <trkpt lat="28.3556840" lon="-16.5124950">
        <ele>1353.8</ele>
        <time>2020-10-16T11:08:02Z</time>
      </trkpt>
      <trkpt lat="28.3556480" lon="-16.5126830">
        <ele>1355.0</ele>
        <time>2020-10-16T11:08:07Z</time>
      </trkpt>
      <trkpt lat="28.3556350" lon="-16.5128380">
        <ele>1356.4</ele>
        <time>2020-10-16T11:08:11Z</time>
      </trkpt>
      <trkpt lat="28.3556110" lon="-16.5130440">
        <ele>1357.4</ele>
        <time>2020-10-16T11:08:16Z</time>
      </trkpt>
      <trkpt lat="28.3555620" lon="-16.5133600">
        <ele>1358.6</ele>
        <time>2020-10-16T11:08:23Z</time>
      </trkpt>
      <trkpt lat="28.3555210" lon="-16.5136740">
        <ele>1359.4</ele>
        <time>2020-10-16T11:08:30Z</time>
      </trkpt>
      <trkpt lat="28.3554090" lon="-16.5139080">
        <ele>1360.6</ele>
        <time>2020-10-16T11:08:36Z</time>
      </trkpt>
      <trkpt lat="28.3553300" lon="-16.5140070">
        <ele>1361.2</ele>
        <time>2020-10-16T11:08:39Z</time>
      </trkpt>
      <trkpt lat="28.3552930" lon="-16.5140910">
        <ele>1361.6</ele>
        <time>2020-10-16T11:08:41Z</time>
      </trkpt>
      <trkpt lat="28.3553030" lon="-16.5142740">
        <ele>1362.4</ele>
        <time>2020-10-16T11:08:45Z</time>
      </trkpt>
      <trkpt lat="28.3553560" lon="-16.5144470">
        <ele>1362.6</ele>
        <time>2020-10-16T11:08:49Z</time>
      </trkpt>
      <trkpt lat="28.3553790" lon="-16.5146930">
        <ele>1363.8</ele>
        <time>2020-10-16T11:08:54Z</time>
      </trkpt>
      <trkpt lat="28.3553460" lon="-16.5148910">
        <ele>1364.4</ele>
        <time>2020-10-16T11:08:58Z</time>
      </trkpt>
      <trkpt lat="28.3553140" lon="-16.5149830">
        <ele>1364.8</ele>
        <time>2020-10-16T11:09:00Z</time>
      </trkpt>
      <trkpt lat="28.3551580" lon="-16.5152700">
        <ele>1365.8</ele>
        <time>2020-10-16T11:09:07Z</time>
      </trkpt>
      <trkpt lat="28.3549550" lon="-16.5155400">
        <ele>1366.8</ele>
        <time>2020-10-16T11:09:14Z</time>
      </trkpt>
      <trkpt lat="28.3548300" lon="-16.5156690">
        <ele>1367.8</ele>
        <time>2020-10-16T11:09:18Z</time>
      </trkpt>
      <trkpt lat="28.3546970" lon="-16.5158550">
        <ele>1369.0</ele>
        <time>2020-10-16T11:09:23Z</time>
      </trkpt>
      <trkpt lat="28.3546250" lon="-16.5160500">
        <ele>1370.0</ele>
        <time>2020-10-16T11:09:28Z</time>
      </trkpt>
      <trkpt lat="28.3545780" lon="-16.5162070">
        <ele>1371.0</ele>
        <time>2020-10-16T11:09:32Z</time>
      </trkpt>
      <trkpt lat="28.3545680" lon="-16.5163640">
        <ele>1372.2</ele>
        <time>2020-10-16T11:09:36Z</time>
      </trkpt>
      <trkpt lat="28.3545570" lon="-16.5165270">
        <ele>1373.4</ele>
        <time>2020-10-16T11:09:40Z</time>
      </trkpt>
      <trkpt lat="28.3545110" lon="-16.5166750">
        <ele>1374.4</ele>
        <time>2020-10-16T11:09:44Z</time>
      </trkpt>
      <trkpt lat="28.3544400" lon="-16.5168020">
        <ele>1375.2</ele>
        <time>2020-10-16T11:09:48Z</time>
      </trkpt>
      <trkpt lat="28.3543780" lon="-16.5169410">
        <ele>1376.4</ele>
        <time>2020-10-16T11:09:52Z</time>
      </trkpt>
      <trkpt lat="28.3543480" lon="-16.5170820">
        <ele>1377.6</ele>
        <time>2020-10-16T11:09:56Z</time>
      </trkpt>
      <trkpt lat="28.3543470" lon="-16.5172540">
        <ele>1378.6</ele>
        <time>2020-10-16T11:10:01Z</time>
      </trkpt>
      <trkpt lat="28.3543090" lon="-16.5174390">
        <ele>1379.6</ele>
        <time>2020-10-16T11:10:06Z</time>
      </trkpt>
      <trkpt lat="28.3542620" lon="-16.5175540">
        <ele>1380.8</ele>
        <time>2020-10-16T11:10:09Z</time>
      </trkpt>
      <trkpt lat="28.3542460" lon="-16.5177070">
        <ele>1381.8</ele>
        <time>2020-10-16T11:10:13Z</time>
      </trkpt>
      <trkpt lat="28.3542780" lon="-16.5179010">
        <ele>1382.6</ele>
        <time>2020-10-16T11:10:18Z</time>
      </trkpt>
      <trkpt lat="28.3542260" lon="-16.5180920">
        <ele>1383.8</ele>
        <time>2020-10-16T11:10:23Z</time>
      </trkpt>
      <trkpt lat="28.3541570" lon="-16.5181650">
        <ele>1385.0</ele>
        <time>2020-10-16T11:10:26Z</time>
      </trkpt>
      <trkpt lat="28.3540140" lon="-16.5182400">
        <ele>1386.2</ele>
        <time>2020-10-16T11:10:31Z</time>
      </trkpt>
      <trkpt lat="28.3537920" lon="-16.5182920">
        <ele>1387.4</ele>
        <time>2020-10-16T11:10:37Z</time>
      </trkpt>
      <trkpt lat="28.3536170" lon="-16.5183230">
        <ele>1388.6</ele>
        <time>2020-10-16T11:10:42Z</time>
      </trkpt>
      <trkpt lat="28.3534510" lon="-16.5183720">
        <ele>1389.6</ele>
        <time>2020-10-16T11:10:47Z</time>
      </trkpt>
      <trkpt lat="28.3533100" lon="-16.5184570">
        <ele>1390.6</ele>
        <time>2020-10-16T11:10:52Z</time>
      </trkpt>
      <trkpt lat="28.3532480" lon="-16.5186270">
        <ele>1391.8</ele>
        <time>2020-10-16T11:10:57Z</time>
      </trkpt>
      <trkpt lat="28.3532160" lon="-16.5187840">
        <ele>1392.8</ele>
        <time>2020-10-16T11:11:01Z</time>
      </trkpt>
      <trkpt lat="28.3531480" lon="-16.5189320">
        <ele>1393.6</ele>
        <time>2020-10-16T11:11:05Z</time>
      </trkpt>
      <trkpt lat="28.3530290" lon="-16.5191040">
        <ele>1394.8</ele>
        <time>2020-10-16T11:11:10Z</time>
      </trkpt>
      <trkpt lat="28.3529180" lon="-16.5192680">
        <ele>1395.6</ele>
        <time>2020-10-16T11:11:15Z</time>
      </trkpt>
      <trkpt lat="28.3528970" lon="-16.5193020">
        <ele>1395.8</ele>
        <time>2020-10-16T11:11:16Z</time>
      </trkpt>
      <trkpt lat="28.3527780" lon="-16.5194620">
        <ele>1396.8</ele>
        <time>2020-10-16T11:11:21Z</time>
      </trkpt>
      <trkpt lat="28.3527560" lon="-16.5194940">
        <ele>1396.8</ele>
        <time>2020-10-16T11:11:22Z</time>
      </trkpt>
      <trkpt lat="28.3526800" lon="-16.5197330">
        <ele>1398.0</ele>
        <time>2020-10-16T11:11:28Z</time>
      </trkpt>
      <trkpt lat="28.3526790" lon="-16.5199540">
        <ele>1399.0</ele>
        <time>2020-10-16T11:11:33Z</time>
      </trkpt>
      <trkpt lat="28.3526470" lon="-16.5201230">
        <ele>1400.0</ele>
        <time>2020-10-16T11:11:37Z</time>
      </trkpt>
      <trkpt lat="28.3525830" lon="-16.5202820">
        <ele>1401.0</ele>
        <time>2020-10-16T11:11:41Z</time>
      </trkpt>
      <trkpt lat="28.3525210" lon="-16.5204570">
        <ele>1401.8</ele>
        <time>2020-10-16T11:11:45Z</time>
      </trkpt>
      <trkpt lat="28.3525040" lon="-16.5205010">
        <ele>1402.0</ele>
        <time>2020-10-16T11:11:46Z</time>
      </trkpt>
      <trkpt lat="28.3524160" lon="-16.5207030">
        <ele>1403.2</ele>
        <time>2020-10-16T11:11:51Z</time>
      </trkpt>
      <trkpt lat="28.3523190" lon="-16.5208930">
        <ele>1404.4</ele>
        <time>2020-10-16T11:11:56Z</time>
      </trkpt>
      <trkpt lat="28.3522420" lon="-16.5210370">
        <ele>1405.4</ele>
        <time>2020-10-16T11:12:00Z</time>
      </trkpt>
      <trkpt lat="28.3521860" lon="-16.5212770">
        <ele>1406.6</ele>
        <time>2020-10-16T11:12:06Z</time>
      </trkpt>
      <trkpt lat="28.3521490" lon="-16.5214310">
        <ele>1407.6</ele>
        <time>2020-10-16T11:12:10Z</time>
      </trkpt>
      <trkpt lat="28.3520840" lon="-16.5215640">
        <ele>1408.8</ele>
        <time>2020-10-16T11:12:14Z</time>
      </trkpt>
      <trkpt lat="28.3519900" lon="-16.5216810">
        <ele>1409.8</ele>
        <time>2020-10-16T11:12:18Z</time>
      </trkpt>
      <trkpt lat="28.3518540" lon="-16.5217980">
        <ele>1410.8</ele>
        <time>2020-10-16T11:12:23Z</time>
      </trkpt>
      <trkpt lat="28.3517180" lon="-16.5219090">
        <ele>1412.0</ele>
        <time>2020-10-16T11:12:28Z</time>
      </trkpt>
      <trkpt lat="28.3516000" lon="-16.5220420">
        <ele>1413.2</ele>
        <time>2020-10-16T11:12:33Z</time>
      </trkpt>
      <trkpt lat="28.3515090" lon="-16.5221800">
        <ele>1414.2</ele>
        <time>2020-10-16T11:12:38Z</time>
      </trkpt>
      <trkpt lat="28.3514430" lon="-16.5222620">
        <ele>1415.2</ele>
        <time>2020-10-16T11:12:41Z</time>
      </trkpt>
      <trkpt lat="28.3513220" lon="-16.5223440">
        <ele>1416.6</ele>
        <time>2020-10-16T11:12:45Z</time>
      </trkpt>
      <trkpt lat="28.3511890" lon="-16.5223970">
        <ele>1417.6</ele>
        <time>2020-10-16T11:12:49Z</time>
      </trkpt>
      <trkpt lat="28.3510180" lon="-16.5224140">
        <ele>1418.6</ele>
        <time>2020-10-16T11:12:54Z</time>
      </trkpt>
      <trkpt lat="28.3508590" lon="-16.5224220">
        <ele>1419.8</ele>
        <time>2020-10-16T11:12:59Z</time>
      </trkpt>
      <trkpt lat="28.3506790" lon="-16.5224590">
        <ele>1421.0</ele>
        <time>2020-10-16T11:13:05Z</time>
      </trkpt>
      <trkpt lat="28.3505580" lon="-16.5224940">
        <ele>1422.2</ele>
        <time>2020-10-16T11:13:09Z</time>
      </trkpt>
      <trkpt lat="28.3504300" lon="-16.5226120">
        <ele>1423.6</ele>
        <time>2020-10-16T11:13:15Z</time>
      </trkpt>
      <trkpt lat="28.3503800" lon="-16.5227530">
        <ele>1424.8</ele>
        <time>2020-10-16T11:13:20Z</time>
      </trkpt>
      <trkpt lat="28.3503610" lon="-16.5229070">
        <ele>1425.8</ele>
        <time>2020-10-16T11:13:25Z</time>
      </trkpt>
      <trkpt lat="28.3503600" lon="-16.5231010">
        <ele>1426.8</ele>
        <time>2020-10-16T11:13:31Z</time>
      </trkpt>
      <trkpt lat="28.3503700" lon="-16.5232290">
        <ele>1428.0</ele>
        <time>2020-10-16T11:13:35Z</time>
      </trkpt>
      <trkpt lat="28.3503910" lon="-16.5233870">
        <ele>1429.0</ele>
        <time>2020-10-16T11:13:40Z</time>
      </trkpt>
      <trkpt lat="28.3503930" lon="-16.5235970">
        <ele>1430.2</ele>
        <time>2020-10-16T11:13:47Z</time>
      </trkpt>
      <trkpt lat="28.3503770" lon="-16.5237290">
        <ele>1431.2</ele>
        <time>2020-10-16T11:13:51Z</time>
      </trkpt>
      <trkpt lat="28.3503050" lon="-16.5239050">
        <ele>1432.4</ele>
        <time>2020-10-16T11:13:57Z</time>
      </trkpt>
      <trkpt lat="28.3502020" lon="-16.5240670">
        <ele>1433.6</ele>
        <time>2020-10-16T11:14:03Z</time>
      </trkpt>
      <trkpt lat="28.3501760" lon="-16.5242980">
        <ele>1434.8</ele>
        <time>2020-10-16T11:14:10Z</time>
      </trkpt>
      <trkpt lat="28.3501620" lon="-16.5244730">
        <ele>1435.8</ele>
        <time>2020-10-16T11:14:15Z</time>
      </trkpt>
      <trkpt lat="28.3501150" lon="-16.5246350">
        <ele>1436.8</ele>
        <time>2020-10-16T11:14:20Z</time>
      </trkpt>
      <trkpt lat="28.3500360" lon="-16.5247830">
        <ele>1438.0</ele>
        <time>2020-10-16T11:14:25Z</time>
      </trkpt>
      <trkpt lat="28.3499540" lon="-16.5248890">
        <ele>1439.0</ele>
        <time>2020-10-16T11:14:29Z</time>
      </trkpt>
      <trkpt lat="28.3498200" lon="-16.5250480">
        <ele>1440.2</ele>
        <time>2020-10-16T11:14:35Z</time>
      </trkpt>
      <trkpt lat="28.3497340" lon="-16.5251940">
        <ele>1441.2</ele>
        <time>2020-10-16T11:14:40Z</time>
      </trkpt>
      <trkpt lat="28.3496660" lon="-16.5253640">
        <ele>1442.2</ele>
        <time>2020-10-16T11:14:45Z</time>
      </trkpt>
      <trkpt lat="28.3495500" lon="-16.5254760">
        <ele>1443.2</ele>
        <time>2020-10-16T11:14:50Z</time>
      </trkpt>
      <trkpt lat="28.3493930" lon="-16.5255240">
        <ele>1444.2</ele>
        <time>2020-10-16T11:14:55Z</time>
      </trkpt>
      <trkpt lat="28.3492720" lon="-16.5255790">
        <ele>1445.4</ele>
        <time>2020-10-16T11:14:59Z</time>
      </trkpt>
      <trkpt lat="28.3491020" lon="-16.5257390">
        <ele>1446.6</ele>
        <time>2020-10-16T11:15:06Z</time>
      </trkpt>
      <trkpt lat="28.3489960" lon="-16.5259270">
        <ele>1447.8</ele>
        <time>2020-10-16T11:15:12Z</time>
      </trkpt>
      <trkpt lat="28.3489270" lon="-16.5260500">
        <ele>1448.8</ele>
        <time>2020-10-16T11:15:16Z</time>
      </trkpt>
      <trkpt lat="28.3488210" lon="-16.5261940">
        <ele>1449.8</ele>
        <time>2020-10-16T11:15:21Z</time>
      </trkpt>
      <trkpt lat="28.3487060" lon="-16.5263250">
        <ele>1450.8</ele>
        <time>2020-10-16T11:15:26Z</time>
      </trkpt>
      <trkpt lat="28.3485890" lon="-16.5264590">
        <ele>1451.8</ele>
        <time>2020-10-16T11:15:31Z</time>
      </trkpt>
      <trkpt lat="28.3484820" lon="-16.5265340">
        <ele>1452.8</ele>
        <time>2020-10-16T11:15:35Z</time>
      </trkpt>
      <trkpt lat="28.3483400" lon="-16.5264790">
        <ele>1454.0</ele>
        <time>2020-10-16T11:15:40Z</time>
      </trkpt>
      <trkpt lat="28.3483220" lon="-16.5263000">
        <ele>1455.0</ele>
        <time>2020-10-16T11:15:45Z</time>
      </trkpt>
      <trkpt lat="28.3484020" lon="-16.5261340">
        <ele>1456.2</ele>
        <time>2020-10-16T11:15:50Z</time>
      </trkpt>
      <trkpt lat="28.3485220" lon="-16.5259980">
        <ele>1457.2</ele>
        <time>2020-10-16T11:15:55Z</time>
      </trkpt>
      <trkpt lat="28.3485810" lon="-16.5258650">
        <ele>1458.0</ele>
        <time>2020-10-16T11:15:59Z</time>
      </trkpt>
      <trkpt lat="28.3486100" lon="-16.5256420">
        <ele>1459.0</ele>
        <time>2020-10-16T11:16:05Z</time>
      </trkpt>
      <trkpt lat="28.3486180" lon="-16.5254920">
        <ele>1460.2</ele>
        <time>2020-10-16T11:16:09Z</time>
      </trkpt>
      <trkpt lat="28.3486540" lon="-16.5253460">
        <ele>1461.4</ele>
        <time>2020-10-16T11:16:13Z</time>
      </trkpt>
      <trkpt lat="28.3487830" lon="-16.5251670">
        <ele>1462.4</ele>
        <time>2020-10-16T11:16:19Z</time>
      </trkpt>
      <trkpt lat="28.3488650" lon="-16.5249740">
        <ele>1463.6</ele>
        <time>2020-10-16T11:16:25Z</time>
      </trkpt>
      <trkpt lat="28.3488290" lon="-16.5247550">
        <ele>1464.8</ele>
        <time>2020-10-16T11:16:31Z</time>
      </trkpt>
      <trkpt lat="28.3487860" lon="-16.5245760">
        <ele>1466.0</ele>
        <time>2020-10-16T11:16:36Z</time>
      </trkpt>
      <trkpt lat="28.3487610" lon="-16.5244330">
        <ele>1467.2</ele>
        <time>2020-10-16T11:16:40Z</time>
      </trkpt>
      <trkpt lat="28.3487200" lon="-16.5242200">
        <ele>1468.2</ele>
        <time>2020-10-16T11:16:46Z</time>
      </trkpt>
      <trkpt lat="28.3486960" lon="-16.5240440">
        <ele>1469.2</ele>
        <time>2020-10-16T11:16:51Z</time>
      </trkpt>
      <trkpt lat="28.3486830" lon="-16.5238290">
        <ele>1470.4</ele>
        <time>2020-10-16T11:16:57Z</time>
      </trkpt>
      <trkpt lat="28.3486780" lon="-16.5236420">
        <ele>1471.4</ele>
        <time>2020-10-16T11:17:02Z</time>
      </trkpt>
      <trkpt lat="28.3486900" lon="-16.5234550">
        <ele>1472.6</ele>
        <time>2020-10-16T11:17:07Z</time>
      </trkpt>
      <trkpt lat="28.3487190" lon="-16.5232660">
        <ele>1473.8</ele>
        <time>2020-10-16T11:17:12Z</time>
      </trkpt>
      <trkpt lat="28.3487570" lon="-16.5230820">
        <ele>1475.0</ele>
        <time>2020-10-16T11:17:17Z</time>
      </trkpt>
      <trkpt lat="28.3487780" lon="-16.5229290">
        <ele>1476.0</ele>
        <time>2020-10-16T11:17:21Z</time>
      </trkpt>
      <trkpt lat="28.3488000" lon="-16.5227010">
        <ele>1477.2</ele>
        <time>2020-10-16T11:17:27Z</time>
      </trkpt>
      <trkpt lat="28.3488140" lon="-16.5225180">
        <ele>1478.4</ele>
        <time>2020-10-16T11:17:32Z</time>
      </trkpt>
      <trkpt lat="28.3487640" lon="-16.5223510">
        <ele>1479.4</ele>
        <time>2020-10-16T11:17:37Z</time>
      </trkpt>
      <trkpt lat="28.3486710" lon="-16.5222030">
        <ele>1480.4</ele>
        <time>2020-10-16T11:17:42Z</time>
      </trkpt>
      <trkpt lat="28.3485820" lon="-16.5220510">
        <ele>1481.6</ele>
        <time>2020-10-16T11:17:47Z</time>
      </trkpt>
      <trkpt lat="28.3485460" lon="-16.5219540">
        <ele>1483.0</ele>
        <time>2020-10-16T11:17:50Z</time>
      </trkpt>
      <trkpt lat="28.3484840" lon="-16.5217130">
        <ele>1484.2</ele>
        <time>2020-10-16T11:17:57Z</time>
      </trkpt>
      <trkpt lat="28.3485130" lon="-16.5215720">
        <ele>1485.0</ele>
        <time>2020-10-16T11:18:01Z</time>
      </trkpt>
      <trkpt lat="28.3486610" lon="-16.5214650">
        <ele>1486.2</ele>
        <time>2020-10-16T11:18:06Z</time>
      </trkpt>
      <trkpt lat="28.3488220" lon="-16.5213720">
        <ele>1487.2</ele>
        <time>2020-10-16T11:18:11Z</time>
      </trkpt>
      <trkpt lat="28.3489300" lon="-16.5211390">
        <ele>1488.4</ele>
        <time>2020-10-16T11:18:17Z</time>
      </trkpt>
      <trkpt lat="28.3489950" lon="-16.5208790">
        <ele>1489.4</ele>
        <time>2020-10-16T11:18:23Z</time>
      </trkpt>
      <trkpt lat="28.3490610" lon="-16.5206110">
        <ele>1490.4</ele>
        <time>2020-10-16T11:18:29Z</time>
      </trkpt>
      <trkpt lat="28.3491230" lon="-16.5203380">
        <ele>1491.2</ele>
        <time>2020-10-16T11:18:35Z</time>
      </trkpt>
      <trkpt lat="28.3491290" lon="-16.5200810">
        <ele>1492.4</ele>
        <time>2020-10-16T11:18:41Z</time>
      </trkpt>
      <trkpt lat="28.3490710" lon="-16.5198810">
        <ele>1493.4</ele>
        <time>2020-10-16T11:18:46Z</time>
      </trkpt>
      <trkpt lat="28.3490210" lon="-16.5196930">
        <ele>1494.6</ele>
        <time>2020-10-16T11:18:51Z</time>
      </trkpt>
      <trkpt lat="28.3490110" lon="-16.5195730">
        <ele>1495.8</ele>
        <time>2020-10-16T11:18:54Z</time>
      </trkpt>
      <trkpt lat="28.3490170" lon="-16.5194110">
        <ele>1497.0</ele>
        <time>2020-10-16T11:18:58Z</time>
      </trkpt>
      <trkpt lat="28.3490250" lon="-16.5192490">
        <ele>1498.0</ele>
        <time>2020-10-16T11:19:02Z</time>
      </trkpt>
      <trkpt lat="28.3490260" lon="-16.5192090">
        <ele>1498.2</ele>
        <time>2020-10-16T11:19:03Z</time>
      </trkpt>
      <trkpt lat="28.3490400" lon="-16.5190550">
        <ele>1499.2</ele>
        <time>2020-10-16T11:19:07Z</time>
      </trkpt>
      <trkpt lat="28.3490640" lon="-16.5188990">
        <ele>1500.4</ele>
        <time>2020-10-16T11:19:11Z</time>
      </trkpt>
      <trkpt lat="28.3491120" lon="-16.5187060">
        <ele>1501.8</ele>
        <time>2020-10-16T11:19:16Z</time>
      </trkpt>
      <trkpt lat="28.3491510" lon="-16.5185530">
        <ele>1502.8</ele>
        <time>2020-10-16T11:19:20Z</time>
      </trkpt>
      <trkpt lat="28.3491980" lon="-16.5183600">
        <ele>1504.0</ele>
        <time>2020-10-16T11:19:25Z</time>
      </trkpt>
      <trkpt lat="28.3492300" lon="-16.5181660">
        <ele>1504.8</ele>
        <time>2020-10-16T11:19:30Z</time>
      </trkpt>
      <trkpt lat="28.3492200" lon="-16.5180110">
        <ele>1506.0</ele>
        <time>2020-10-16T11:19:34Z</time>
      </trkpt>
      <trkpt lat="28.3491640" lon="-16.5178200">
        <ele>1507.0</ele>
        <time>2020-10-16T11:19:39Z</time>
      </trkpt>
      <trkpt lat="28.3491140" lon="-16.5176650">
        <ele>1508.0</ele>
        <time>2020-10-16T11:19:43Z</time>
      </trkpt>
      <trkpt lat="28.3490490" lon="-16.5174710">
        <ele>1509.4</ele>
        <time>2020-10-16T11:19:48Z</time>
      </trkpt>
      <trkpt lat="28.3490000" lon="-16.5171410">
        <ele>1510.4</ele>
        <time>2020-10-16T11:19:56Z</time>
      </trkpt>
      <trkpt lat="28.3490210" lon="-16.5169280">
        <ele>1511.6</ele>
        <time>2020-10-16T11:20:01Z</time>
      </trkpt>
      <trkpt lat="28.3490940" lon="-16.5166900">
        <ele>1512.8</ele>
        <time>2020-10-16T11:20:07Z</time>
      </trkpt>
      <trkpt lat="28.3491870" lon="-16.5164990">
        <ele>1513.8</ele>
        <time>2020-10-16T11:20:12Z</time>
      </trkpt>
      <trkpt lat="28.3492500" lon="-16.5162500">
        <ele>1515.0</ele>
        <time>2020-10-16T11:20:18Z</time>
      </trkpt>
      <trkpt lat="28.3493430" lon="-16.5160160">
        <ele>1516.2</ele>
        <time>2020-10-16T11:20:24Z</time>
      </trkpt>
      <trkpt lat="28.3495270" lon="-16.5158370">
        <ele>1517.4</ele>
        <time>2020-10-16T11:20:30Z</time>
      </trkpt>
      <trkpt lat="28.3498720" lon="-16.5156220">
        <ele>1518.4</ele>
        <time>2020-10-16T11:20:38Z</time>
      </trkpt>
      <trkpt lat="28.3499690" lon="-16.5155470">
        <ele>1518.4</ele>
        <time>2020-10-16T11:20:40Z</time>
      </trkpt>
      <trkpt lat="28.3500420" lon="-16.5152020">
        <ele>1518.8</ele>
        <time>2020-10-16T11:20:46Z</time>
      </trkpt>
      <trkpt lat="28.3499910" lon="-16.5150230">
        <ele>1519.4</ele>
        <time>2020-10-16T11:20:49Z</time>
      </trkpt>
      <trkpt lat="28.3498930" lon="-16.5147270">
        <ele>1520.2</ele>
        <time>2020-10-16T11:20:54Z</time>
      </trkpt>
      <trkpt lat="28.3498590" lon="-16.5146070">
        <ele>1520.4</ele>
        <time>2020-10-16T11:20:56Z</time>
      </trkpt>
      <trkpt lat="28.3497310" lon="-16.5143970">
        <ele>1521.0</ele>
        <time>2020-10-16T11:21:00Z</time>
      </trkpt>
      <trkpt lat="28.3496880" lon="-16.5143510">
        <ele>1521.2</ele>
        <time>2020-10-16T11:21:01Z</time>
      </trkpt>
      <trkpt lat="28.3495820" lon="-16.5142100">
        <ele>1521.6</ele>
        <time>2020-10-16T11:21:04Z</time>
      </trkpt>
      <trkpt lat="28.3495220" lon="-16.5139400">
        <ele>1522.2</ele>
        <time>2020-10-16T11:21:09Z</time>
      </trkpt>
      <trkpt lat="28.3495220" lon="-16.5138870">
        <ele>1522.2</ele>
        <time>2020-10-16T11:21:10Z</time>
      </trkpt>
      <trkpt lat="28.3495550" lon="-16.5137510">
        <ele>1522.6</ele>
        <time>2020-10-16T11:21:13Z</time>
      </trkpt>
      <trkpt lat="28.3495970" lon="-16.5136740">
        <ele>1523.0</ele>
        <time>2020-10-16T11:21:15Z</time>
      </trkpt>
      <trkpt lat="28.3496750" lon="-16.5135730">
        <ele>1523.8</ele>
        <time>2020-10-16T11:21:18Z</time>
      </trkpt>
      <trkpt lat="28.3497380" lon="-16.5134620">
        <ele>1524.8</ele>
        <time>2020-10-16T11:21:21Z</time>
      </trkpt>
      <trkpt lat="28.3497090" lon="-16.5133080">
        <ele>1525.8</ele>
        <time>2020-10-16T11:21:25Z</time>
      </trkpt>
      <trkpt lat="28.3496070" lon="-16.5131940">
        <ele>1526.8</ele>
        <time>2020-10-16T11:21:29Z</time>
      </trkpt>
      <trkpt lat="28.3494870" lon="-16.5131010">
        <ele>1528.2</ele>
        <time>2020-10-16T11:21:33Z</time>
      </trkpt>
      <trkpt lat="28.3493400" lon="-16.5130220">
        <ele>1529.6</ele>
        <time>2020-10-16T11:21:38Z</time>
      </trkpt>
      <trkpt lat="28.3492090" lon="-16.5129120">
        <ele>1531.0</ele>
        <time>2020-10-16T11:21:43Z</time>
      </trkpt>
      <trkpt lat="28.3491720" lon="-16.5128520">
        <ele>1531.2</ele>
        <time>2020-10-16T11:21:45Z</time>
      </trkpt>
      <trkpt lat="28.3491410" lon="-16.5127780">
        <ele>1531.8</ele>
        <time>2020-10-16T11:21:47Z</time>
      </trkpt>
      <trkpt lat="28.3491090" lon="-16.5126210">
        <ele>1532.8</ele>
        <time>2020-10-16T11:21:51Z</time>
      </trkpt>
      <trkpt lat="28.3492020" lon="-16.5123470">
        <ele>1533.8</ele>
        <time>2020-10-16T11:21:58Z</time>
      </trkpt>
      <trkpt lat="28.3492270" lon="-16.5120690">
        <ele>1535.0</ele>
        <time>2020-10-16T11:22:05Z</time>
      </trkpt>
      <trkpt lat="28.3492150" lon="-16.5118700">
        <ele>1536.0</ele>
        <time>2020-10-16T11:22:10Z</time>
      </trkpt>
      <trkpt lat="28.3492060" lon="-16.5117470">
        <ele>1537.2</ele>
        <time>2020-10-16T11:22:13Z</time>
      </trkpt>
      <trkpt lat="28.3491900" lon="-16.5115480">
        <ele>1538.2</ele>
        <time>2020-10-16T11:22:18Z</time>
      </trkpt>
      <trkpt lat="28.3490840" lon="-16.5114050">
        <ele>1539.4</ele>
        <time>2020-10-16T11:22:23Z</time>
      </trkpt>
      <trkpt lat="28.3489990" lon="-16.5114240">
        <ele>1540.2</ele>
        <time>2020-10-16T11:22:26Z</time>
      </trkpt>
      <trkpt lat="28.3489640" lon="-16.5114930">
        <ele>1540.6</ele>
        <time>2020-10-16T11:22:28Z</time>
      </trkpt>
      <trkpt lat="28.3489440" lon="-16.5115710">
        <ele>1541.0</ele>
        <time>2020-10-16T11:22:30Z</time>
      </trkpt>
      <trkpt lat="28.3489090" lon="-16.5116820">
        <ele>1541.8</ele>
        <time>2020-10-16T11:22:33Z</time>
      </trkpt>
      <trkpt lat="28.3488660" lon="-16.5118240">
        <ele>1543.2</ele>
        <time>2020-10-16T11:22:37Z</time>
      </trkpt>
      <trkpt lat="28.3488120" lon="-16.5120010">
        <ele>1544.4</ele>
        <time>2020-10-16T11:22:42Z</time>
      </trkpt>
      <trkpt lat="28.3487740" lon="-16.5121420">
        <ele>1545.8</ele>
        <time>2020-10-16T11:22:46Z</time>
      </trkpt>
      <trkpt lat="28.3487270" lon="-16.5122810">
        <ele>1546.8</ele>
        <time>2020-10-16T11:22:50Z</time>
      </trkpt>
      <trkpt lat="28.3486150" lon="-16.5124200">
        <ele>1548.0</ele>
        <time>2020-10-16T11:22:55Z</time>
      </trkpt>
      <trkpt lat="28.3484840" lon="-16.5125430">
        <ele>1549.2</ele>
        <time>2020-10-16T11:23:00Z</time>
      </trkpt>
      <trkpt lat="28.3483650" lon="-16.5127240">
        <ele>1550.2</ele>
        <time>2020-10-16T11:23:06Z</time>
      </trkpt>
      <trkpt lat="28.3484520" lon="-16.5130150">
        <ele>1551.2</ele>
        <time>2020-10-16T11:23:13Z</time>
      </trkpt>
      <trkpt lat="28.3485330" lon="-16.5132110">
        <ele>1551.8</ele>
        <time>2020-10-16T11:23:17Z</time>
      </trkpt>
      <trkpt lat="28.3485670" lon="-16.5133980">
        <ele>1552.0</ele>
        <time>2020-10-16T11:23:20Z</time>
      </trkpt>
      <trkpt lat="28.3485690" lon="-16.5134660">
        <ele>1552.2</ele>
        <time>2020-10-16T11:23:21Z</time>
      </trkpt>
      <trkpt lat="28.3485430" lon="-16.5136680">
        <ele>1552.4</ele>
        <time>2020-10-16T11:23:24Z</time>
      </trkpt>
      <trkpt lat="28.3484090" lon="-16.5142560">
        <ele>1553.2</ele>
        <time>2020-10-16T11:23:34Z</time>
      </trkpt>
      <trkpt lat="28.3483460" lon="-16.5144840">
        <ele>1554.2</ele>
        <time>2020-10-16T11:23:39Z</time>
      </trkpt>
      <trkpt lat="28.3482710" lon="-16.5146370">
        <ele>1555.6</ele>
        <time>2020-10-16T11:23:43Z</time>
      </trkpt>
      <trkpt lat="28.3481790" lon="-16.5147740">
        <ele>1556.6</ele>
        <time>2020-10-16T11:23:47Z</time>
      </trkpt>
      <trkpt lat="28.3480830" lon="-16.5148990">
        <ele>1557.8</ele>
        <time>2020-10-16T11:23:51Z</time>
      </trkpt>
      <trkpt lat="28.3479590" lon="-16.5150390">
        <ele>1559.0</ele>
        <time>2020-10-16T11:23:56Z</time>
      </trkpt>
      <trkpt lat="28.3478690" lon="-16.5151500">
        <ele>1560.0</ele>
        <time>2020-10-16T11:24:00Z</time>
      </trkpt>
      <trkpt lat="28.3477720" lon="-16.5152600">
        <ele>1561.2</ele>
        <time>2020-10-16T11:24:04Z</time>
      </trkpt>
      <trkpt lat="28.3476800" lon="-16.5153660">
        <ele>1562.2</ele>
        <time>2020-10-16T11:24:08Z</time>
      </trkpt>
      <trkpt lat="28.3475890" lon="-16.5154710">
        <ele>1563.4</ele>
        <time>2020-10-16T11:24:12Z</time>
      </trkpt>
      <trkpt lat="28.3475040" lon="-16.5155720">
        <ele>1564.6</ele>
        <time>2020-10-16T11:24:16Z</time>
      </trkpt>
      <trkpt lat="28.3474090" lon="-16.5156770">
        <ele>1565.6</ele>
        <time>2020-10-16T11:24:20Z</time>
      </trkpt>
      <trkpt lat="28.3472980" lon="-16.5158070">
        <ele>1567.0</ele>
        <time>2020-10-16T11:24:25Z</time>
      </trkpt>
      <trkpt lat="28.3472170" lon="-16.5159160">
        <ele>1568.4</ele>
        <time>2020-10-16T11:24:29Z</time>
      </trkpt>
      <trkpt lat="28.3471160" lon="-16.5160500">
        <ele>1569.4</ele>
        <time>2020-10-16T11:24:34Z</time>
      </trkpt>
      <trkpt lat="28.3470340" lon="-16.5161570">
        <ele>1570.4</ele>
        <time>2020-10-16T11:24:38Z</time>
      </trkpt>
      <trkpt lat="28.3469300" lon="-16.5162940">
        <ele>1571.4</ele>
        <time>2020-10-16T11:24:43Z</time>
      </trkpt>
      <trkpt lat="28.3468420" lon="-16.5164020">
        <ele>1572.6</ele>
        <time>2020-10-16T11:24:47Z</time>
      </trkpt>
      <trkpt lat="28.3467520" lon="-16.5165480">
        <ele>1573.6</ele>
        <time>2020-10-16T11:24:52Z</time>
      </trkpt>
      <trkpt lat="28.3467080" lon="-16.5166840">
        <ele>1574.6</ele>
        <time>2020-10-16T11:24:56Z</time>
      </trkpt>
      <trkpt lat="28.3466830" lon="-16.5168240">
        <ele>1576.0</ele>
        <time>2020-10-16T11:25:00Z</time>
      </trkpt>
      <trkpt lat="28.3466580" lon="-16.5169660">
        <ele>1577.2</ele>
        <time>2020-10-16T11:25:04Z</time>
      </trkpt>
      <trkpt lat="28.3466380" lon="-16.5171080">
        <ele>1578.0</ele>
        <time>2020-10-16T11:25:08Z</time>
      </trkpt>
      <trkpt lat="28.3466060" lon="-16.5172910">
        <ele>1579.2</ele>
        <time>2020-10-16T11:25:13Z</time>
      </trkpt>
      <trkpt lat="28.3465750" lon="-16.5174780">
        <ele>1580.2</ele>
        <time>2020-10-16T11:25:18Z</time>
      </trkpt>
      <trkpt lat="28.3465440" lon="-16.5176200">
        <ele>1581.2</ele>
        <time>2020-10-16T11:25:22Z</time>
      </trkpt>
      <trkpt lat="28.3465140" lon="-16.5177970">
        <ele>1582.4</ele>
        <time>2020-10-16T11:25:27Z</time>
      </trkpt>
      <trkpt lat="28.3464600" lon="-16.5179650">
        <ele>1583.6</ele>
        <time>2020-10-16T11:25:32Z</time>
      </trkpt>
      <trkpt lat="28.3464170" lon="-16.5180610">
        <ele>1584.8</ele>
        <time>2020-10-16T11:25:35Z</time>
      </trkpt>
      <trkpt lat="28.3463170" lon="-16.5182070">
        <ele>1586.0</ele>
        <time>2020-10-16T11:25:40Z</time>
      </trkpt>
      <trkpt lat="28.3462010" lon="-16.5183410">
        <ele>1587.0</ele>
        <time>2020-10-16T11:25:45Z</time>
      </trkpt>
      <trkpt lat="28.3461110" lon="-16.5184490">
        <ele>1588.0</ele>
        <time>2020-10-16T11:25:49Z</time>
      </trkpt>
      <trkpt lat="28.3460220" lon="-16.5185510">
        <ele>1589.4</ele>
        <time>2020-10-16T11:25:53Z</time>
      </trkpt>
      <trkpt lat="28.3459130" lon="-16.5186830">
        <ele>1590.6</ele>
        <time>2020-10-16T11:25:58Z</time>
      </trkpt>
      <trkpt lat="28.3457910" lon="-16.5188440">
        <ele>1591.6</ele>
        <time>2020-10-16T11:26:04Z</time>
      </trkpt>
      <trkpt lat="28.3457070" lon="-16.5189460">
        <ele>1592.8</ele>
        <time>2020-10-16T11:26:08Z</time>
      </trkpt>
      <trkpt lat="28.3456290" lon="-16.5190430">
        <ele>1593.8</ele>
        <time>2020-10-16T11:26:12Z</time>
      </trkpt>
      <trkpt lat="28.3455720" lon="-16.5191660">
        <ele>1594.8</ele>
        <time>2020-10-16T11:26:16Z</time>
      </trkpt>
      <trkpt lat="28.3455030" lon="-16.5193310">
        <ele>1596.0</ele>
        <time>2020-10-16T11:26:21Z</time>
      </trkpt>
      <trkpt lat="28.3454360" lon="-16.5194960">
        <ele>1597.2</ele>
        <time>2020-10-16T11:26:26Z</time>
      </trkpt>
      <trkpt lat="28.3453990" lon="-16.5195960">
        <ele>1598.4</ele>
        <time>2020-10-16T11:26:29Z</time>
      </trkpt>
      <trkpt lat="28.3453330" lon="-16.5197190">
        <ele>1599.4</ele>
        <time>2020-10-16T11:26:33Z</time>
      </trkpt>
      <trkpt lat="28.3452620" lon="-16.5198410">
        <ele>1600.2</ele>
        <time>2020-10-16T11:26:37Z</time>
      </trkpt>
      <trkpt lat="28.3452300" lon="-16.5199070">
        <ele>1600.4</ele>
        <time>2020-10-16T11:26:39Z</time>
      </trkpt>
      <trkpt lat="28.3451390" lon="-16.5200650">
        <ele>1601.6</ele>
        <time>2020-10-16T11:26:44Z</time>
      </trkpt>
      <trkpt lat="28.3450480" lon="-16.5202310">
        <ele>1602.8</ele>
        <time>2020-10-16T11:26:49Z</time>
      </trkpt>
      <trkpt lat="28.3449310" lon="-16.5204160">
        <ele>1603.8</ele>
        <time>2020-10-16T11:26:55Z</time>
      </trkpt>
      <trkpt lat="28.3447990" lon="-16.5205390">
        <ele>1604.8</ele>
        <time>2020-10-16T11:27:00Z</time>
      </trkpt>
      <trkpt lat="28.3446650" lon="-16.5206510">
        <ele>1605.8</ele>
        <time>2020-10-16T11:27:05Z</time>
      </trkpt>
      <trkpt lat="28.3445480" lon="-16.5207440">
        <ele>1606.8</ele>
        <time>2020-10-16T11:27:09Z</time>
      </trkpt>
      <trkpt lat="28.3443700" lon="-16.5208750">
        <ele>1608.2</ele>
        <time>2020-10-16T11:27:15Z</time>
      </trkpt>
      <trkpt lat="28.3442260" lon="-16.5209820">
        <ele>1609.2</ele>
        <time>2020-10-16T11:27:20Z</time>
      </trkpt>
      <trkpt lat="28.3441440" lon="-16.5211800">
        <ele>1610.4</ele>
        <time>2020-10-16T11:27:26Z</time>
      </trkpt>
      <trkpt lat="28.3441420" lon="-16.5213590">
        <ele>1611.4</ele>
        <time>2020-10-16T11:27:31Z</time>
      </trkpt>
      <trkpt lat="28.3441010" lon="-16.5215320">
        <ele>1612.6</ele>
        <time>2020-10-16T11:27:36Z</time>
      </trkpt>
      <trkpt lat="28.3440310" lon="-16.5216550">
        <ele>1613.6</ele>
        <time>2020-10-16T11:27:40Z</time>
      </trkpt>
      <trkpt lat="28.3439540" lon="-16.5217680">
        <ele>1614.8</ele>
        <time>2020-10-16T11:27:44Z</time>
      </trkpt>
      <trkpt lat="28.3438410" lon="-16.5219350">
        <ele>1616.0</ele>
        <time>2020-10-16T11:27:50Z</time>
      </trkpt>
      <trkpt lat="28.3437480" lon="-16.5220130">
        <ele>1617.0</ele>
        <time>2020-10-16T11:27:54Z</time>
      </trkpt>
      <trkpt lat="28.3436090" lon="-16.5220750">
        <ele>1618.2</ele>
        <time>2020-10-16T11:27:59Z</time>
      </trkpt>
      <trkpt lat="28.3434220" lon="-16.5221300">
        <ele>1619.2</ele>
        <time>2020-10-16T11:28:05Z</time>
      </trkpt>
      <trkpt lat="28.3432680" lon="-16.5221720">
        <ele>1620.4</ele>
        <time>2020-10-16T11:28:10Z</time>
      </trkpt>
      <trkpt lat="28.3430860" lon="-16.5222190">
        <ele>1621.6</ele>
        <time>2020-10-16T11:28:16Z</time>
      </trkpt>
      <trkpt lat="28.3429340" lon="-16.5222650">
        <ele>1622.6</ele>
        <time>2020-10-16T11:28:21Z</time>
      </trkpt>
      <trkpt lat="28.3427600" lon="-16.5223190">
        <ele>1624.0</ele>
        <time>2020-10-16T11:28:27Z</time>
      </trkpt>
      <trkpt lat="28.3425750" lon="-16.5223650">
        <ele>1625.0</ele>
        <time>2020-10-16T11:28:33Z</time>
      </trkpt>
      <trkpt lat="28.3424110" lon="-16.5224160">
        <ele>1626.0</ele>
        <time>2020-10-16T11:28:38Z</time>
      </trkpt>
      <trkpt lat="28.3422480" lon="-16.5224680">
        <ele>1627.2</ele>
        <time>2020-10-16T11:28:43Z</time>
      </trkpt>
      <trkpt lat="28.3420900" lon="-16.5225050">
        <ele>1628.2</ele>
        <time>2020-10-16T11:28:48Z</time>
      </trkpt>
      <trkpt lat="28.3419580" lon="-16.5225890">
        <ele>1629.6</ele>
        <time>2020-10-16T11:28:53Z</time>
      </trkpt>
      <trkpt lat="28.3418470" lon="-16.5227640">
        <ele>1630.8</ele>
        <time>2020-10-16T11:28:59Z</time>
      </trkpt>
      <trkpt lat="28.3418410" lon="-16.5229020">
        <ele>1631.8</ele>
        <time>2020-10-16T11:29:03Z</time>
      </trkpt>
      <trkpt lat="28.3418620" lon="-16.5230550">
        <ele>1632.8</ele>
        <time>2020-10-16T11:29:08Z</time>
      </trkpt>
      <trkpt lat="28.3419000" lon="-16.5232320">
        <ele>1633.8</ele>
        <time>2020-10-16T11:29:13Z</time>
      </trkpt>
      <trkpt lat="28.3419020" lon="-16.5234230">
        <ele>1635.0</ele>
        <time>2020-10-16T11:29:18Z</time>
      </trkpt>
      <trkpt lat="28.3418620" lon="-16.5235380">
        <ele>1636.2</ele>
        <time>2020-10-16T11:29:22Z</time>
      </trkpt>
      <trkpt lat="28.3418050" lon="-16.5236210">
        <ele>1637.2</ele>
        <time>2020-10-16T11:29:26Z</time>
      </trkpt>
      <trkpt lat="28.3416920" lon="-16.5237830">
        <ele>1638.2</ele>
        <time>2020-10-16T11:29:32Z</time>
      </trkpt>
      <trkpt lat="28.3415900" lon="-16.5239200">
        <ele>1639.4</ele>
        <time>2020-10-16T11:29:37Z</time>
      </trkpt>
      <trkpt lat="28.3414910" lon="-16.5240430">
        <ele>1640.4</ele>
        <time>2020-10-16T11:29:42Z</time>
      </trkpt>
      <trkpt lat="28.3413690" lon="-16.5241470">
        <ele>1641.6</ele>
        <time>2020-10-16T11:29:47Z</time>
      </trkpt>
      <trkpt lat="28.3412100" lon="-16.5242080">
        <ele>1642.8</ele>
        <time>2020-10-16T11:29:52Z</time>
      </trkpt>
      <trkpt lat="28.3410950" lon="-16.5242640">
        <ele>1643.8</ele>
        <time>2020-10-16T11:29:56Z</time>
      </trkpt>
      <trkpt lat="28.3409600" lon="-16.5243250">
        <ele>1645.2</ele>
        <time>2020-10-16T11:30:01Z</time>
      </trkpt>
      <trkpt lat="28.3408250" lon="-16.5244000">
        <ele>1646.4</ele>
        <time>2020-10-16T11:30:06Z</time>
      </trkpt>
      <trkpt lat="28.3407660" lon="-16.5244830">
        <ele>1647.4</ele>
        <time>2020-10-16T11:30:09Z</time>
      </trkpt>
      <trkpt lat="28.3407370" lon="-16.5246850">
        <ele>1648.4</ele>
        <time>2020-10-16T11:30:14Z</time>
      </trkpt>
      <trkpt lat="28.3407760" lon="-16.5249560">
        <ele>1649.0</ele>
        <time>2020-10-16T11:30:20Z</time>
      </trkpt>
      <trkpt lat="28.3407870" lon="-16.5251440">
        <ele>1649.2</ele>
        <time>2020-10-16T11:30:24Z</time>
      </trkpt>
      <trkpt lat="28.3407460" lon="-16.5253170">
        <ele>1649.6</ele>
        <time>2020-10-16T11:30:28Z</time>
      </trkpt>
      <trkpt lat="28.3405480" lon="-16.5255340">
        <ele>1650.6</ele>
        <time>2020-10-16T11:30:35Z</time>
      </trkpt>
      <trkpt lat="28.3403620" lon="-16.5256850">
        <ele>1651.8</ele>
        <time>2020-10-16T11:30:41Z</time>
      </trkpt>
      <trkpt lat="28.3402760" lon="-16.5257660">
        <ele>1653.0</ele>
        <time>2020-10-16T11:30:44Z</time>
      </trkpt>
      <trkpt lat="28.3401460" lon="-16.5258840">
        <ele>1654.0</ele>
        <time>2020-10-16T11:30:49Z</time>
      </trkpt>
      <trkpt lat="28.3400470" lon="-16.5259790">
        <ele>1655.0</ele>
        <time>2020-10-16T11:30:53Z</time>
      </trkpt>
      <trkpt lat="28.3399480" lon="-16.5260760">
        <ele>1656.2</ele>
        <time>2020-10-16T11:30:57Z</time>
      </trkpt>
      <trkpt lat="28.3398470" lon="-16.5261770">
        <ele>1657.2</ele>
        <time>2020-10-16T11:31:01Z</time>
      </trkpt>
      <trkpt lat="28.3397410" lon="-16.5262720">
        <ele>1658.2</ele>
        <time>2020-10-16T11:31:05Z</time>
      </trkpt>
      <trkpt lat="28.3396400" lon="-16.5263460">
        <ele>1659.6</ele>
        <time>2020-10-16T11:31:09Z</time>
      </trkpt>
      <trkpt lat="28.3395130" lon="-16.5264040">
        <ele>1660.6</ele>
        <time>2020-10-16T11:31:13Z</time>
      </trkpt>
      <trkpt lat="28.3393940" lon="-16.5264550">
        <ele>1662.0</ele>
        <time>2020-10-16T11:31:17Z</time>
      </trkpt>
      <trkpt lat="28.3392440" lon="-16.5265070">
        <ele>1663.4</ele>
        <time>2020-10-16T11:31:22Z</time>
      </trkpt>
      <trkpt lat="28.3391040" lon="-16.5265580">
        <ele>1664.6</ele>
        <time>2020-10-16T11:31:27Z</time>
      </trkpt>
      <trkpt lat="28.3389550" lon="-16.5266190">
        <ele>1665.8</ele>
        <time>2020-10-16T11:31:32Z</time>
      </trkpt>
      <trkpt lat="28.3387830" lon="-16.5266900">
        <ele>1666.8</ele>
        <time>2020-10-16T11:31:38Z</time>
      </trkpt>
      <trkpt lat="28.3386190" lon="-16.5267580">
        <ele>1668.0</ele>
        <time>2020-10-16T11:31:43Z</time>
      </trkpt>
      <trkpt lat="28.3384790" lon="-16.5268330">
        <ele>1669.0</ele>
        <time>2020-10-16T11:31:48Z</time>
      </trkpt>
      <trkpt lat="28.3383510" lon="-16.5268940">
        <ele>1670.0</ele>
        <time>2020-10-16T11:31:52Z</time>
      </trkpt>
      <trkpt lat="28.3382270" lon="-16.5270610">
        <ele>1671.2</ele>
        <time>2020-10-16T11:31:58Z</time>
      </trkpt>
      <trkpt lat="28.3381680" lon="-16.5272190">
        <ele>1672.2</ele>
        <time>2020-10-16T11:32:03Z</time>
      </trkpt>
      <trkpt lat="28.3381350" lon="-16.5273370">
        <ele>1673.2</ele>
        <time>2020-10-16T11:32:07Z</time>
      </trkpt>
      <trkpt lat="28.3381020" lon="-16.5275420">
        <ele>1674.4</ele>
        <time>2020-10-16T11:32:13Z</time>
      </trkpt>
      <trkpt lat="28.3380620" lon="-16.5277250">
        <ele>1675.4</ele>
        <time>2020-10-16T11:32:19Z</time>
      </trkpt>
      <trkpt lat="28.3380150" lon="-16.5278810">
        <ele>1676.6</ele>
        <time>2020-10-16T11:32:24Z</time>
      </trkpt>
      <trkpt lat="28.3379980" lon="-16.5279510">
        <ele>1677.2</ele>
        <time>2020-10-16T11:32:26Z</time>
      </trkpt>
      <trkpt lat="28.3379840" lon="-16.5280160">
        <ele>1677.8</ele>
        <time>2020-10-16T11:32:28Z</time>
      </trkpt>
      <trkpt lat="28.3379180" lon="-16.5282150">
        <ele>1678.8</ele>
        <time>2020-10-16T11:32:34Z</time>
      </trkpt>
      <trkpt lat="28.3378440" lon="-16.5283040">
        <ele>1679.8</ele>
        <time>2020-10-16T11:32:38Z</time>
      </trkpt>
      <trkpt lat="28.3376870" lon="-16.5284100">
        <ele>1681.0</ele>
        <time>2020-10-16T11:32:44Z</time>
      </trkpt>
      <trkpt lat="28.3375830" lon="-16.5284550">
        <ele>1681.8</ele>
        <time>2020-10-16T11:32:48Z</time>
      </trkpt>
      <trkpt lat="28.3374560" lon="-16.5285290">
        <ele>1682.8</ele>
        <time>2020-10-16T11:32:53Z</time>
      </trkpt>
      <trkpt lat="28.3373070" lon="-16.5286100">
        <ele>1684.4</ele>
        <time>2020-10-16T11:32:59Z</time>
      </trkpt>
      <trkpt lat="28.3371590" lon="-16.5287030">
        <ele>1685.2</ele>
        <time>2020-10-16T11:33:05Z</time>
      </trkpt>
      <trkpt lat="28.3370130" lon="-16.5287760">
        <ele>1686.0</ele>
        <time>2020-10-16T11:33:10Z</time>
      </trkpt>
      <trkpt lat="28.3368770" lon="-16.5288610">
        <ele>1687.2</ele>
        <time>2020-10-16T11:33:15Z</time>
      </trkpt>
      <trkpt lat="28.3367650" lon="-16.5289760">
        <ele>1688.4</ele>
        <time>2020-10-16T11:33:20Z</time>
      </trkpt>
      <trkpt lat="28.3366830" lon="-16.5290800">
        <ele>1689.2</ele>
        <time>2020-10-16T11:33:24Z</time>
      </trkpt>
      <trkpt lat="28.3366060" lon="-16.5291910">
        <ele>1690.2</ele>
        <time>2020-10-16T11:33:28Z</time>
      </trkpt>
      <trkpt lat="28.3365230" lon="-16.5292930">
        <ele>1691.2</ele>
        <time>2020-10-16T11:33:32Z</time>
      </trkpt>
      <trkpt lat="28.3364510" lon="-16.5293560">
        <ele>1692.2</ele>
        <time>2020-10-16T11:33:35Z</time>
      </trkpt>
      <trkpt lat="28.3362990" lon="-16.5294580">
        <ele>1693.4</ele>
        <time>2020-10-16T11:33:40Z</time>
      </trkpt>
      <trkpt lat="28.3361590" lon="-16.5295490">
        <ele>1694.4</ele>
        <time>2020-10-16T11:33:45Z</time>
      </trkpt>
      <trkpt lat="28.3360310" lon="-16.5296240">
        <ele>1695.4</ele>
        <time>2020-10-16T11:33:50Z</time>
      </trkpt>
      <trkpt lat="28.3358980" lon="-16.5297250">
        <ele>1696.4</ele>
        <time>2020-10-16T11:33:55Z</time>
      </trkpt>
      <trkpt lat="28.3357600" lon="-16.5298100">
        <ele>1697.4</ele>
        <time>2020-10-16T11:34:00Z</time>
      </trkpt>
      <trkpt lat="28.3356090" lon="-16.5299110">
        <ele>1698.2</ele>
        <time>2020-10-16T11:34:06Z</time>
      </trkpt>
      <trkpt lat="28.3355070" lon="-16.5299840">
        <ele>1699.4</ele>
        <time>2020-10-16T11:34:10Z</time>
      </trkpt>
      <trkpt lat="28.3354020" lon="-16.5300500">
        <ele>1700.4</ele>
        <time>2020-10-16T11:34:14Z</time>
      </trkpt>
      <trkpt lat="28.3352620" lon="-16.5301390">
        <ele>1701.2</ele>
        <time>2020-10-16T11:34:19Z</time>
      </trkpt>
      <trkpt lat="28.3350960" lon="-16.5302380">
        <ele>1702.4</ele>
        <time>2020-10-16T11:34:25Z</time>
      </trkpt>
      <trkpt lat="28.3349830" lon="-16.5303080">
        <ele>1703.4</ele>
        <time>2020-10-16T11:34:29Z</time>
      </trkpt>
      <trkpt lat="28.3348480" lon="-16.5303980">
        <ele>1704.6</ele>
        <time>2020-10-16T11:34:34Z</time>
      </trkpt>
      <trkpt lat="28.3347360" lon="-16.5304760">
        <ele>1705.6</ele>
        <time>2020-10-16T11:34:38Z</time>
      </trkpt>
      <trkpt lat="28.3346140" lon="-16.5305570">
        <ele>1706.6</ele>
        <time>2020-10-16T11:34:42Z</time>
      </trkpt>
      <trkpt lat="28.3344300" lon="-16.5306610">
        <ele>1707.8</ele>
        <time>2020-10-16T11:34:48Z</time>
      </trkpt>
      <trkpt lat="28.3342770" lon="-16.5307380">
        <ele>1708.6</ele>
        <time>2020-10-16T11:34:53Z</time>
      </trkpt>
      <trkpt lat="28.3341410" lon="-16.5308120">
        <ele>1709.8</ele>
        <time>2020-10-16T11:34:58Z</time>
      </trkpt>
      <trkpt lat="28.3339850" lon="-16.5309110">
        <ele>1711.0</ele>
        <time>2020-10-16T11:35:04Z</time>
      </trkpt>
      <trkpt lat="28.3338740" lon="-16.5309820">
        <ele>1712.0</ele>
        <time>2020-10-16T11:35:08Z</time>
      </trkpt>
      <trkpt lat="28.3337200" lon="-16.5310840">
        <ele>1712.8</ele>
        <time>2020-10-16T11:35:14Z</time>
      </trkpt>
      <trkpt lat="28.3336130" lon="-16.5311410">
        <ele>1714.0</ele>
        <time>2020-10-16T11:35:18Z</time>
      </trkpt>
      <trkpt lat="28.3334760" lon="-16.5312100">
        <ele>1715.2</ele>
        <time>2020-10-16T11:35:23Z</time>
      </trkpt>
      <trkpt lat="28.3333430" lon="-16.5312850">
        <ele>1716.0</ele>
        <time>2020-10-16T11:35:28Z</time>
      </trkpt>
      <trkpt lat="28.3332030" lon="-16.5313570">
        <ele>1717.2</ele>
        <time>2020-10-16T11:35:33Z</time>
      </trkpt>
      <trkpt lat="28.3330300" lon="-16.5313980">
        <ele>1718.2</ele>
        <time>2020-10-16T11:35:39Z</time>
      </trkpt>
      <trkpt lat="28.3329040" lon="-16.5314090">
        <ele>1719.2</ele>
        <time>2020-10-16T11:35:43Z</time>
      </trkpt>
      <trkpt lat="28.3327370" lon="-16.5314210">
        <ele>1720.4</ele>
        <time>2020-10-16T11:35:48Z</time>
      </trkpt>
      <trkpt lat="28.3325430" lon="-16.5314350">
        <ele>1721.2</ele>
        <time>2020-10-16T11:35:54Z</time>
      </trkpt>
      <trkpt lat="28.3322290" lon="-16.5314830">
        <ele>1722.4</ele>
        <time>2020-10-16T11:36:03Z</time>
      </trkpt>
      <trkpt lat="28.3319380" lon="-16.5314900">
        <ele>1723.2</ele>
        <time>2020-10-16T11:36:11Z</time>
      </trkpt>
      <trkpt lat="28.3316900" lon="-16.5315610">
        <ele>1724.4</ele>
        <time>2020-10-16T11:36:19Z</time>
      </trkpt>
      <trkpt lat="28.3315310" lon="-16.5318180">
        <ele>1725.6</ele>
        <time>2020-10-16T11:36:26Z</time>
      </trkpt>
      <trkpt lat="28.3314270" lon="-16.5320220">
        <ele>1726.8</ele>
        <time>2020-10-16T11:36:31Z</time>
      </trkpt>
      <trkpt lat="28.3313520" lon="-16.5321730">
        <ele>1727.6</ele>
        <time>2020-10-16T11:36:35Z</time>
      </trkpt>
      <trkpt lat="28.3312780" lon="-16.5323290">
        <ele>1728.6</ele>
        <time>2020-10-16T11:36:39Z</time>
      </trkpt>
      <trkpt lat="28.3311490" lon="-16.5325050">
        <ele>1729.8</ele>
        <time>2020-10-16T11:36:45Z</time>
      </trkpt>
      <trkpt lat="28.3309560" lon="-16.5325580">
        <ele>1730.8</ele>
        <time>2020-10-16T11:36:50Z</time>
      </trkpt>
      <trkpt lat="28.3306480" lon="-16.5325550">
        <ele>1731.8</ele>
        <time>2020-10-16T11:36:59Z</time>
      </trkpt>
      <trkpt lat="28.3303910" lon="-16.5325150">
        <ele>1733.0</ele>
        <time>2020-10-16T11:37:05Z</time>
      </trkpt>
      <trkpt lat="28.3301220" lon="-16.5324730">
        <ele>1734.0</ele>
        <time>2020-10-16T11:37:11Z</time>
      </trkpt>
      <trkpt lat="28.3299400" lon="-16.5324720">
        <ele>1735.2</ele>
        <time>2020-10-16T11:37:17Z</time>
      </trkpt>
      <trkpt lat="28.3297360" lon="-16.5324820">
        <ele>1736.2</ele>
        <time>2020-10-16T11:37:22Z</time>
      </trkpt>
      <trkpt lat="28.3295570" lon="-16.5324800">
        <ele>1737.4</ele>
        <time>2020-10-16T11:37:27Z</time>
      </trkpt>
      <trkpt lat="28.3294010" lon="-16.5324410">
        <ele>1738.4</ele>
        <time>2020-10-16T11:37:31Z</time>
      </trkpt>
      <trkpt lat="28.3292920" lon="-16.5324150">
        <ele>1739.8</ele>
        <time>2020-10-16T11:37:34Z</time>
      </trkpt>
      <trkpt lat="28.3291920" lon="-16.5324010">
        <ele>1740.8</ele>
        <time>2020-10-16T11:37:37Z</time>
      </trkpt>
      <trkpt lat="28.3290630" lon="-16.5323700">
        <ele>1741.8</ele>
        <time>2020-10-16T11:37:41Z</time>
      </trkpt>
      <trkpt lat="28.3289120" lon="-16.5323320">
        <ele>1743.0</ele>
        <time>2020-10-16T11:37:45Z</time>
      </trkpt>
      <trkpt lat="28.3287260" lon="-16.5323040">
        <ele>1744.2</ele>
        <time>2020-10-16T11:37:51Z</time>
      </trkpt>
      <trkpt lat="28.3285520" lon="-16.5322880">
        <ele>1745.4</ele>
        <time>2020-10-16T11:37:56Z</time>
      </trkpt>
      <trkpt lat="28.3284100" lon="-16.5322850">
        <ele>1746.4</ele>
        <time>2020-10-16T11:38:00Z</time>
      </trkpt>
      <trkpt lat="28.3282380" lon="-16.5322590">
        <ele>1747.6</ele>
        <time>2020-10-16T11:38:05Z</time>
      </trkpt>
      <trkpt lat="28.3280830" lon="-16.5322740">
        <ele>1748.8</ele>
        <time>2020-10-16T11:38:10Z</time>
      </trkpt>
      <trkpt lat="28.3279270" lon="-16.5323020">
        <ele>1749.8</ele>
        <time>2020-10-16T11:38:15Z</time>
      </trkpt>
      <trkpt lat="28.3278270" lon="-16.5324800">
        <ele>1751.0</ele>
        <time>2020-10-16T11:38:21Z</time>
      </trkpt>
      <trkpt lat="28.3277820" lon="-16.5326240">
        <ele>1752.2</ele>
        <time>2020-10-16T11:38:25Z</time>
      </trkpt>
      <trkpt lat="28.3277500" lon="-16.5327970">
        <ele>1753.2</ele>
        <time>2020-10-16T11:38:30Z</time>
      </trkpt>
      <trkpt lat="28.3277110" lon="-16.5329250">
        <ele>1754.4</ele>
        <time>2020-10-16T11:38:34Z</time>
      </trkpt>
      <trkpt lat="28.3276540" lon="-16.5330850">
        <ele>1755.4</ele>
        <time>2020-10-16T11:38:39Z</time>
      </trkpt>
      <trkpt lat="28.3275510" lon="-16.5331630">
        <ele>1756.4</ele>
        <time>2020-10-16T11:38:43Z</time>
      </trkpt>
      <trkpt lat="28.3273690" lon="-16.5332440">
        <ele>1757.4</ele>
        <time>2020-10-16T11:38:49Z</time>
      </trkpt>
      <trkpt lat="28.3270500" lon="-16.5333580">
        <ele>1758.8</ele>
        <time>2020-10-16T11:38:58Z</time>
      </trkpt>
      <trkpt lat="28.3269330" lon="-16.5333940">
        <ele>1759.8</ele>
        <time>2020-10-16T11:39:01Z</time>
      </trkpt>
      <trkpt lat="28.3268240" lon="-16.5334340">
        <ele>1760.8</ele>
        <time>2020-10-16T11:39:04Z</time>
      </trkpt>
      <trkpt lat="28.3266880" lon="-16.5334960">
        <ele>1762.0</ele>
        <time>2020-10-16T11:39:08Z</time>
      </trkpt>
      <trkpt lat="28.3265330" lon="-16.5336530">
        <ele>1763.0</ele>
        <time>2020-10-16T11:39:13Z</time>
      </trkpt>
      <trkpt lat="28.3264180" lon="-16.5338220">
        <ele>1764.2</ele>
        <time>2020-10-16T11:39:18Z</time>
      </trkpt>
      <trkpt lat="28.3261820" lon="-16.5341480">
        <ele>1765.4</ele>
        <time>2020-10-16T11:39:28Z</time>
      </trkpt>
      <trkpt lat="28.3260310" lon="-16.5343880">
        <ele>1766.4</ele>
        <time>2020-10-16T11:39:35Z</time>
      </trkpt>
      <trkpt lat="28.3259070" lon="-16.5345890">
        <ele>1767.4</ele>
        <time>2020-10-16T11:39:41Z</time>
      </trkpt>
      <trkpt lat="28.3257950" lon="-16.5347890">
        <ele>1768.8</ele>
        <time>2020-10-16T11:39:47Z</time>
      </trkpt>
      <trkpt lat="28.3256660" lon="-16.5349990">
        <ele>1769.8</ele>
        <time>2020-10-16T11:39:53Z</time>
      </trkpt>
      <trkpt lat="28.3255880" lon="-16.5351370">
        <ele>1771.0</ele>
        <time>2020-10-16T11:39:57Z</time>
      </trkpt>
      <trkpt lat="28.3254990" lon="-16.5352710">
        <ele>1772.0</ele>
        <time>2020-10-16T11:40:01Z</time>
      </trkpt>
      <trkpt lat="28.3254090" lon="-16.5353750">
        <ele>1773.0</ele>
        <time>2020-10-16T11:40:05Z</time>
      </trkpt>
      <trkpt lat="28.3253240" lon="-16.5354560">
        <ele>1774.0</ele>
        <time>2020-10-16T11:40:09Z</time>
      </trkpt>
      <trkpt lat="28.3252320" lon="-16.5355200">
        <ele>1775.2</ele>
        <time>2020-10-16T11:40:13Z</time>
      </trkpt>
      <trkpt lat="28.3251340" lon="-16.5355980">
        <ele>1776.2</ele>
        <time>2020-10-16T11:40:17Z</time>
      </trkpt>
      <trkpt lat="28.3249980" lon="-16.5356860">
        <ele>1777.2</ele>
        <time>2020-10-16T11:40:22Z</time>
      </trkpt>
      <trkpt lat="28.3248760" lon="-16.5357740">
        <ele>1778.2</ele>
        <time>2020-10-16T11:40:27Z</time>
      </trkpt>
      <trkpt lat="28.3247480" lon="-16.5358940">
        <ele>1779.4</ele>
        <time>2020-10-16T11:40:32Z</time>
      </trkpt>
      <trkpt lat="28.3246320" lon="-16.5360570">
        <ele>1780.6</ele>
        <time>2020-10-16T11:40:37Z</time>
      </trkpt>
      <trkpt lat="28.3245410" lon="-16.5362450">
        <ele>1781.6</ele>
        <time>2020-10-16T11:40:42Z</time>
      </trkpt>
      <trkpt lat="28.3244620" lon="-16.5364260">
        <ele>1782.6</ele>
        <time>2020-10-16T11:40:47Z</time>
      </trkpt>
      <trkpt lat="28.3243500" lon="-16.5366340">
        <ele>1783.6</ele>
        <time>2020-10-16T11:40:53Z</time>
      </trkpt>
      <trkpt lat="28.3242750" lon="-16.5367890">
        <ele>1784.6</ele>
        <time>2020-10-16T11:40:58Z</time>
      </trkpt>
      <trkpt lat="28.3241950" lon="-16.5369220">
        <ele>1785.8</ele>
        <time>2020-10-16T11:41:02Z</time>
      </trkpt>
      <trkpt lat="28.3241320" lon="-16.5370620">
        <ele>1786.8</ele>
        <time>2020-10-16T11:41:06Z</time>
      </trkpt>
      <trkpt lat="28.3240620" lon="-16.5371880">
        <ele>1787.8</ele>
        <time>2020-10-16T11:41:10Z</time>
      </trkpt>
      <trkpt lat="28.3239960" lon="-16.5373630">
        <ele>1789.0</ele>
        <time>2020-10-16T11:41:15Z</time>
      </trkpt>
      <trkpt lat="28.3239300" lon="-16.5375070">
        <ele>1790.0</ele>
        <time>2020-10-16T11:41:19Z</time>
      </trkpt>
      <trkpt lat="28.3238510" lon="-16.5376450">
        <ele>1791.0</ele>
        <time>2020-10-16T11:41:23Z</time>
      </trkpt>
      <trkpt lat="28.3237760" lon="-16.5378110">
        <ele>1792.2</ele>
        <time>2020-10-16T11:41:28Z</time>
      </trkpt>
      <trkpt lat="28.3236730" lon="-16.5380240">
        <ele>1793.4</ele>
        <time>2020-10-16T11:41:34Z</time>
      </trkpt>
      <trkpt lat="28.3235700" lon="-16.5381510">
        <ele>1794.4</ele>
        <time>2020-10-16T11:41:39Z</time>
      </trkpt>
      <trkpt lat="28.3234570" lon="-16.5382270">
        <ele>1795.4</ele>
        <time>2020-10-16T11:41:43Z</time>
      </trkpt>
      <trkpt lat="28.3233150" lon="-16.5382850">
        <ele>1796.4</ele>
        <time>2020-10-16T11:41:48Z</time>
      </trkpt>
      <trkpt lat="28.3231260" lon="-16.5383510">
        <ele>1797.6</ele>
        <time>2020-10-16T11:41:54Z</time>
      </trkpt>
      <trkpt lat="28.3229640" lon="-16.5384050">
        <ele>1798.6</ele>
        <time>2020-10-16T11:42:00Z</time>
      </trkpt>
      <trkpt lat="28.3228100" lon="-16.5384640">
        <ele>1799.8</ele>
        <time>2020-10-16T11:42:06Z</time>
      </trkpt>
      <trkpt lat="28.3227250" lon="-16.5385220">
        <ele>1800.8</ele>
        <time>2020-10-16T11:42:09Z</time>
      </trkpt>
      <trkpt lat="28.3225990" lon="-16.5387220">
        <ele>1802.0</ele>
        <time>2020-10-16T11:42:15Z</time>
      </trkpt>
      <trkpt lat="28.3226720" lon="-16.5389070">
        <ele>1803.0</ele>
        <time>2020-10-16T11:42:21Z</time>
      </trkpt>
      <trkpt lat="28.3228300" lon="-16.5390580">
        <ele>1804.2</ele>
        <time>2020-10-16T11:42:27Z</time>
      </trkpt>
      <trkpt lat="28.3229480" lon="-16.5391490">
        <ele>1805.4</ele>
        <time>2020-10-16T11:42:31Z</time>
      </trkpt>
      <trkpt lat="28.3231060" lon="-16.5392940">
        <ele>1806.4</ele>
        <time>2020-10-16T11:42:37Z</time>
      </trkpt>
      <trkpt lat="28.3232110" lon="-16.5393840">
        <ele>1807.4</ele>
        <time>2020-10-16T11:42:41Z</time>
      </trkpt>
      <trkpt lat="28.3233530" lon="-16.5395380">
        <ele>1808.6</ele>
        <time>2020-10-16T11:42:47Z</time>
      </trkpt>
      <trkpt lat="28.3234450" lon="-16.5397380">
        <ele>1809.8</ele>
        <time>2020-10-16T11:42:53Z</time>
      </trkpt>
      <trkpt lat="28.3234710" lon="-16.5399170">
        <ele>1810.8</ele>
        <time>2020-10-16T11:42:58Z</time>
      </trkpt>
      <trkpt lat="28.3234170" lon="-16.5401410">
        <ele>1811.8</ele>
        <time>2020-10-16T11:43:04Z</time>
      </trkpt>
      <trkpt lat="28.3233090" lon="-16.5403470">
        <ele>1813.0</ele>
        <time>2020-10-16T11:43:10Z</time>
      </trkpt>
      <trkpt lat="28.3232030" lon="-16.5405000">
        <ele>1814.0</ele>
        <time>2020-10-16T11:43:15Z</time>
      </trkpt>
      <trkpt lat="28.3230200" lon="-16.5406840">
        <ele>1815.2</ele>
        <time>2020-10-16T11:43:22Z</time>
      </trkpt>
      <trkpt lat="28.3228690" lon="-16.5407390">
        <ele>1816.0</ele>
        <time>2020-10-16T11:43:26Z</time>
      </trkpt>
      <trkpt lat="28.3227010" lon="-16.5408130">
        <ele>1817.2</ele>
        <time>2020-10-16T11:43:31Z</time>
      </trkpt>
      <trkpt lat="28.3225040" lon="-16.5408940">
        <ele>1818.2</ele>
        <time>2020-10-16T11:43:37Z</time>
      </trkpt>
      <trkpt lat="28.3222790" lon="-16.5409600">
        <ele>1819.4</ele>
        <time>2020-10-16T11:43:43Z</time>
      </trkpt>
      <trkpt lat="28.3221430" lon="-16.5410050">
        <ele>1820.6</ele>
        <time>2020-10-16T11:43:47Z</time>
      </trkpt>
      <trkpt lat="28.3220370" lon="-16.5410480">
        <ele>1821.6</ele>
        <time>2020-10-16T11:43:50Z</time>
      </trkpt>
      <trkpt lat="28.3218620" lon="-16.5411340">
        <ele>1822.8</ele>
        <time>2020-10-16T11:43:55Z</time>
      </trkpt>
      <trkpt lat="28.3216420" lon="-16.5413060">
        <ele>1824.0</ele>
        <time>2020-10-16T11:44:02Z</time>
      </trkpt>
      <trkpt lat="28.3216140" lon="-16.5415700">
        <ele>1825.2</ele>
        <time>2020-10-16T11:44:08Z</time>
      </trkpt>
      <trkpt lat="28.3217060" lon="-16.5417760">
        <ele>1826.2</ele>
        <time>2020-10-16T11:44:14Z</time>
      </trkpt>
      <trkpt lat="28.3218710" lon="-16.5419340">
        <ele>1827.4</ele>
        <time>2020-10-16T11:44:20Z</time>
      </trkpt>
      <trkpt lat="28.3219890" lon="-16.5420290">
        <ele>1828.4</ele>
        <time>2020-10-16T11:44:24Z</time>
      </trkpt>
      <trkpt lat="28.3221080" lon="-16.5421440">
        <ele>1829.6</ele>
        <time>2020-10-16T11:44:28Z</time>
      </trkpt>
      <trkpt lat="28.3222050" lon="-16.5422600">
        <ele>1830.8</ele>
        <time>2020-10-16T11:44:32Z</time>
      </trkpt>
      <trkpt lat="28.3222880" lon="-16.5424370">
        <ele>1831.8</ele>
        <time>2020-10-16T11:44:37Z</time>
      </trkpt>
      <trkpt lat="28.3223170" lon="-16.5426710">
        <ele>1832.8</ele>
        <time>2020-10-16T11:44:43Z</time>
      </trkpt>
      <trkpt lat="28.3223110" lon="-16.5429140">
        <ele>1833.8</ele>
        <time>2020-10-16T11:44:49Z</time>
      </trkpt>
      <trkpt lat="28.3222970" lon="-16.5431130">
        <ele>1835.0</ele>
        <time>2020-10-16T11:44:54Z</time>
      </trkpt>
      <trkpt lat="28.3222960" lon="-16.5433170">
        <ele>1836.0</ele>
        <time>2020-10-16T11:44:59Z</time>
      </trkpt>
      <trkpt lat="28.3222950" lon="-16.5435250">
        <ele>1837.0</ele>
        <time>2020-10-16T11:45:04Z</time>
      </trkpt>
      <trkpt lat="28.3222970" lon="-16.5438160">
        <ele>1838.0</ele>
        <time>2020-10-16T11:45:11Z</time>
      </trkpt>
      <trkpt lat="28.3222930" lon="-16.5440610">
        <ele>1839.2</ele>
        <time>2020-10-16T11:45:17Z</time>
      </trkpt>
      <trkpt lat="28.3222900" lon="-16.5442580">
        <ele>1840.2</ele>
        <time>2020-10-16T11:45:22Z</time>
      </trkpt>
      <trkpt lat="28.3222840" lon="-16.5444570">
        <ele>1841.2</ele>
        <time>2020-10-16T11:45:27Z</time>
      </trkpt>
      <trkpt lat="28.3222890" lon="-16.5446150">
        <ele>1842.2</ele>
        <time>2020-10-16T11:45:31Z</time>
      </trkpt>
      <trkpt lat="28.3223450" lon="-16.5448330">
        <ele>1843.4</ele>
        <time>2020-10-16T11:45:37Z</time>
      </trkpt>
      <trkpt lat="28.3224080" lon="-16.5450070">
        <ele>1844.6</ele>
        <time>2020-10-16T11:45:42Z</time>
      </trkpt>
      <trkpt lat="28.3224560" lon="-16.5451440">
        <ele>1845.6</ele>
        <time>2020-10-16T11:45:46Z</time>
      </trkpt>
      <trkpt lat="28.3225110" lon="-16.5453150">
        <ele>1846.6</ele>
        <time>2020-10-16T11:45:51Z</time>
      </trkpt>
      <trkpt lat="28.3225100" lon="-16.5455850">
        <ele>1847.8</ele>
        <time>2020-10-16T11:45:58Z</time>
      </trkpt>
      <trkpt lat="28.3225010" lon="-16.5457330">
        <ele>1849.0</ele>
        <time>2020-10-16T11:46:02Z</time>
      </trkpt>
      <trkpt lat="28.3224910" lon="-16.5458430">
        <ele>1850.0</ele>
        <time>2020-10-16T11:46:05Z</time>
      </trkpt>
      <trkpt lat="28.3224710" lon="-16.5460250">
        <ele>1851.2</ele>
        <time>2020-10-16T11:46:10Z</time>
      </trkpt>
      <trkpt lat="28.3224620" lon="-16.5462580">
        <ele>1852.4</ele>
        <time>2020-10-16T11:46:16Z</time>
      </trkpt>
      <trkpt lat="28.3224480" lon="-16.5464460">
        <ele>1853.4</ele>
        <time>2020-10-16T11:46:21Z</time>
      </trkpt>
      <trkpt lat="28.3224210" lon="-16.5466740">
        <ele>1854.4</ele>
        <time>2020-10-16T11:46:27Z</time>
      </trkpt>
      <trkpt lat="28.3224030" lon="-16.5469050">
        <ele>1855.6</ele>
        <time>2020-10-16T11:46:33Z</time>
      </trkpt>
      <trkpt lat="28.3223930" lon="-16.5470550">
        <ele>1856.6</ele>
        <time>2020-10-16T11:46:37Z</time>
      </trkpt>
      <trkpt lat="28.3223610" lon="-16.5472390">
        <ele>1857.6</ele>
        <time>2020-10-16T11:46:42Z</time>
      </trkpt>
      <trkpt lat="28.3223470" lon="-16.5474680">
        <ele>1858.6</ele>
        <time>2020-10-16T11:46:48Z</time>
      </trkpt>
      <trkpt lat="28.3223370" lon="-16.5476960">
        <ele>1859.8</ele>
        <time>2020-10-16T11:46:54Z</time>
      </trkpt>
      <trkpt lat="28.3223240" lon="-16.5478460">
        <ele>1861.0</ele>
        <time>2020-10-16T11:46:58Z</time>
      </trkpt>
      <trkpt lat="28.3223030" lon="-16.5480690">
        <ele>1862.2</ele>
        <time>2020-10-16T11:47:04Z</time>
      </trkpt>
      <trkpt lat="28.3222950" lon="-16.5482090">
        <ele>1863.6</ele>
        <time>2020-10-16T11:47:08Z</time>
      </trkpt>
      <trkpt lat="28.3222970" lon="-16.5483580">
        <ele>1864.6</ele>
        <time>2020-10-16T11:47:12Z</time>
      </trkpt>
      <trkpt lat="28.3222820" lon="-16.5485450">
        <ele>1865.8</ele>
        <time>2020-10-16T11:47:17Z</time>
      </trkpt>
      <trkpt lat="28.3222730" lon="-16.5486850">
        <ele>1867.0</ele>
        <time>2020-10-16T11:47:21Z</time>
      </trkpt>
      <trkpt lat="28.3222420" lon="-16.5488600">
        <ele>1868.0</ele>
        <time>2020-10-16T11:47:26Z</time>
      </trkpt>
      <trkpt lat="28.3222250" lon="-16.5490400">
        <ele>1869.2</ele>
        <time>2020-10-16T11:47:31Z</time>
      </trkpt>
      <trkpt lat="28.3222020" lon="-16.5491480">
        <ele>1870.4</ele>
        <time>2020-10-16T11:47:34Z</time>
      </trkpt>
      <trkpt lat="28.3221870" lon="-16.5492970">
        <ele>1871.4</ele>
        <time>2020-10-16T11:47:38Z</time>
      </trkpt>
      <trkpt lat="28.3221670" lon="-16.5494720">
        <ele>1872.4</ele>
        <time>2020-10-16T11:47:43Z</time>
      </trkpt>
      <trkpt lat="28.3221420" lon="-16.5496120">
        <ele>1873.4</ele>
        <time>2020-10-16T11:47:47Z</time>
      </trkpt>
      <trkpt lat="28.3221300" lon="-16.5497970">
        <ele>1874.4</ele>
        <time>2020-10-16T11:47:52Z</time>
      </trkpt>
      <trkpt lat="28.3221190" lon="-16.5499810">
        <ele>1875.4</ele>
        <time>2020-10-16T11:47:57Z</time>
      </trkpt>
      <trkpt lat="28.3221040" lon="-16.5501660">
        <ele>1876.6</ele>
        <time>2020-10-16T11:48:02Z</time>
      </trkpt>
      <trkpt lat="28.3220960" lon="-16.5503140">
        <ele>1877.6</ele>
        <time>2020-10-16T11:48:06Z</time>
      </trkpt>
      <trkpt lat="28.3220450" lon="-16.5504530">
        <ele>1878.8</ele>
        <time>2020-10-16T11:48:10Z</time>
      </trkpt>
      <trkpt lat="28.3219240" lon="-16.5506160">
        <ele>1879.8</ele>
        <time>2020-10-16T11:48:15Z</time>
      </trkpt>
      <trkpt lat="28.3217170" lon="-16.5508820">
        <ele>1880.8</ele>
        <time>2020-10-16T11:48:23Z</time>
      </trkpt>
      <trkpt lat="28.3216720" lon="-16.5509550">
        <ele>1881.0</ele>
        <time>2020-10-16T11:48:25Z</time>
      </trkpt>
      <trkpt lat="28.3215240" lon="-16.5513080">
        <ele>1881.8</ele>
        <time>2020-10-16T11:48:34Z</time>
      </trkpt>
      <trkpt lat="28.3215070" lon="-16.5513500">
        <ele>1882.2</ele>
        <time>2020-10-16T11:48:35Z</time>
      </trkpt>
      <trkpt lat="28.3214500" lon="-16.5515170">
        <ele>1883.2</ele>
        <time>2020-10-16T11:48:39Z</time>
      </trkpt>
      <trkpt lat="28.3213260" lon="-16.5518540">
        <ele>1884.4</ele>
        <time>2020-10-16T11:48:47Z</time>
      </trkpt>
      <trkpt lat="28.3212340" lon="-16.5521680">
        <ele>1885.4</ele>
        <time>2020-10-16T11:48:54Z</time>
      </trkpt>
      <trkpt lat="28.3210760" lon="-16.5525490">
        <ele>1886.6</ele>
        <time>2020-10-16T11:49:02Z</time>
      </trkpt>
      <trkpt lat="28.3210440" lon="-16.5526530">
        <ele>1887.0</ele>
        <time>2020-10-16T11:49:04Z</time>
      </trkpt>
      <trkpt lat="28.3210010" lon="-16.5527550">
        <ele>1887.2</ele>
        <time>2020-10-16T11:49:06Z</time>
      </trkpt>
      <trkpt lat="28.3209260" lon="-16.5529520">
        <ele>1888.0</ele>
        <time>2020-10-16T11:49:10Z</time>
      </trkpt>
      <trkpt lat="28.3208690" lon="-16.5530910">
        <ele>1888.6</ele>
        <time>2020-10-16T11:49:13Z</time>
      </trkpt>
      <trkpt lat="28.3208370" lon="-16.5531780">
        <ele>1889.2</ele>
        <time>2020-10-16T11:49:15Z</time>
      </trkpt>
      <trkpt lat="28.3207630" lon="-16.5533940">
        <ele>1890.2</ele>
        <time>2020-10-16T11:49:20Z</time>
      </trkpt>
      <trkpt lat="28.3206720" lon="-16.5536720">
        <ele>1891.4</ele>
        <time>2020-10-16T11:49:27Z</time>
      </trkpt>
      <trkpt lat="28.3206390" lon="-16.5537890">
        <ele>1892.8</ele>
        <time>2020-10-16T11:49:30Z</time>
      </trkpt>
      <trkpt lat="28.3205900" lon="-16.5539410">
        <ele>1893.8</ele>
        <time>2020-10-16T11:49:34Z</time>
      </trkpt>
      <trkpt lat="28.3205440" lon="-16.5540880">
        <ele>1895.2</ele>
        <time>2020-10-16T11:49:38Z</time>
      </trkpt>
      <trkpt lat="28.3204920" lon="-16.5542750">
        <ele>1896.4</ele>
        <time>2020-10-16T11:49:43Z</time>
      </trkpt>
      <trkpt lat="28.3204340" lon="-16.5544540">
        <ele>1897.6</ele>
        <time>2020-10-16T11:49:48Z</time>
      </trkpt>
      <trkpt lat="28.3203890" lon="-16.5545950">
        <ele>1898.8</ele>
        <time>2020-10-16T11:49:52Z</time>
      </trkpt>
      <trkpt lat="28.3203390" lon="-16.5547790">
        <ele>1900.0</ele>
        <time>2020-10-16T11:49:57Z</time>
      </trkpt>
      <trkpt lat="28.3202910" lon="-16.5549240">
        <ele>1901.2</ele>
        <time>2020-10-16T11:50:01Z</time>
      </trkpt>
      <trkpt lat="28.3202450" lon="-16.5550700">
        <ele>1902.6</ele>
        <time>2020-10-16T11:50:05Z</time>
      </trkpt>
      <trkpt lat="28.3201920" lon="-16.5552200">
        <ele>1903.6</ele>
        <time>2020-10-16T11:50:09Z</time>
      </trkpt>
      <trkpt lat="28.3201300" lon="-16.5554090">
        <ele>1905.0</ele>
        <time>2020-10-16T11:50:14Z</time>
      </trkpt>
      <trkpt lat="28.3200530" lon="-16.5556340">
        <ele>1906.0</ele>
        <time>2020-10-16T11:50:20Z</time>
      </trkpt>
      <trkpt lat="28.3199250" lon="-16.5559890">
        <ele>1907.2</ele>
        <time>2020-10-16T11:50:29Z</time>
      </trkpt>
      <trkpt lat="28.3197910" lon="-16.5563440">
        <ele>1908.2</ele>
        <time>2020-10-16T11:50:38Z</time>
      </trkpt>
      <trkpt lat="28.3197000" lon="-16.5565820">
        <ele>1909.4</ele>
        <time>2020-10-16T11:50:44Z</time>
      </trkpt>
      <trkpt lat="28.3196280" lon="-16.5568170">
        <ele>1910.4</ele>
        <time>2020-10-16T11:50:50Z</time>
      </trkpt>
      <trkpt lat="28.3196130" lon="-16.5569730">
        <ele>1911.6</ele>
        <time>2020-10-16T11:50:54Z</time>
      </trkpt>
      <trkpt lat="28.3196190" lon="-16.5572170">
        <ele>1912.6</ele>
        <time>2020-10-16T11:51:00Z</time>
      </trkpt>
      <trkpt lat="28.3196330" lon="-16.5573830">
        <ele>1913.8</ele>
        <time>2020-10-16T11:51:04Z</time>
      </trkpt>
      <trkpt lat="28.3196450" lon="-16.5575050">
        <ele>1914.6</ele>
        <time>2020-10-16T11:51:07Z</time>
      </trkpt>
      <trkpt lat="28.3196500" lon="-16.5575450">
        <ele>1915.0</ele>
        <time>2020-10-16T11:51:08Z</time>
      </trkpt>
      <trkpt lat="28.3196640" lon="-16.5576680">
        <ele>1916.2</ele>
        <time>2020-10-16T11:51:11Z</time>
      </trkpt>
      <trkpt lat="28.3196680" lon="-16.5577860">
        <ele>1917.2</ele>
        <time>2020-10-16T11:51:14Z</time>
      </trkpt>
      <trkpt lat="28.3196690" lon="-16.5579840">
        <ele>1918.4</ele>
        <time>2020-10-16T11:51:19Z</time>
      </trkpt>
      <trkpt lat="28.3196760" lon="-16.5581770">
        <ele>1919.4</ele>
        <time>2020-10-16T11:51:24Z</time>
      </trkpt>
      <trkpt lat="28.3196870" lon="-16.5583750">
        <ele>1920.8</ele>
        <time>2020-10-16T11:51:29Z</time>
      </trkpt>
      <trkpt lat="28.3196960" lon="-16.5585330">
        <ele>1921.8</ele>
        <time>2020-10-16T11:51:33Z</time>
      </trkpt>
      <trkpt lat="28.3197060" lon="-16.5586520">
        <ele>1922.8</ele>
        <time>2020-10-16T11:51:36Z</time>
      </trkpt>
      <trkpt lat="28.3197130" lon="-16.5588100">
        <ele>1924.2</ele>
        <time>2020-10-16T11:51:40Z</time>
      </trkpt>
      <trkpt lat="28.3197060" lon="-16.5589620">
        <ele>1925.2</ele>
        <time>2020-10-16T11:51:44Z</time>
      </trkpt>
      <trkpt lat="28.3196380" lon="-16.5591030">
        <ele>1926.4</ele>
        <time>2020-10-16T11:51:48Z</time>
      </trkpt>
      <trkpt lat="28.3193850" lon="-16.5592940">
        <ele>1927.4</ele>
        <time>2020-10-16T11:51:56Z</time>
      </trkpt>
      <trkpt lat="28.3192210" lon="-16.5595430">
        <ele>1928.4</ele>
        <time>2020-10-16T11:52:04Z</time>
      </trkpt>
      <trkpt lat="28.3192570" lon="-16.5598400">
        <ele>1929.6</ele>
        <time>2020-10-16T11:52:12Z</time>
      </trkpt>
      <trkpt lat="28.3192920" lon="-16.5600200">
        <ele>1931.0</ele>
        <time>2020-10-16T11:52:17Z</time>
      </trkpt>
      <trkpt lat="28.3193240" lon="-16.5601600">
        <ele>1931.8</ele>
        <time>2020-10-16T11:52:21Z</time>
      </trkpt>
      <trkpt lat="28.3193590" lon="-16.5603390">
        <ele>1933.0</ele>
        <time>2020-10-16T11:52:26Z</time>
      </trkpt>
      <trkpt lat="28.3193850" lon="-16.5604830">
        <ele>1934.2</ele>
        <time>2020-10-16T11:52:30Z</time>
      </trkpt>
      <trkpt lat="28.3194190" lon="-16.5606260">
        <ele>1935.4</ele>
        <time>2020-10-16T11:52:34Z</time>
      </trkpt>
      <trkpt lat="28.3194290" lon="-16.5608100">
        <ele>1936.6</ele>
        <time>2020-10-16T11:52:39Z</time>
      </trkpt>
      <trkpt lat="28.3194240" lon="-16.5609920">
        <ele>1937.8</ele>
        <time>2020-10-16T11:52:44Z</time>
      </trkpt>
      <trkpt lat="28.3193960" lon="-16.5611700">
        <ele>1938.8</ele>
        <time>2020-10-16T11:52:49Z</time>
      </trkpt>
      <trkpt lat="28.3193520" lon="-16.5613400">
        <ele>1940.0</ele>
        <time>2020-10-16T11:52:54Z</time>
      </trkpt>
      <trkpt lat="28.3193420" lon="-16.5613740">
        <ele>1940.4</ele>
        <time>2020-10-16T11:52:55Z</time>
      </trkpt>
      <trkpt lat="28.3193120" lon="-16.5614770">
        <ele>1941.0</ele>
        <time>2020-10-16T11:52:58Z</time>
      </trkpt>
      <trkpt lat="28.3192110" lon="-16.5616160">
        <ele>1942.2</ele>
        <time>2020-10-16T11:53:03Z</time>
      </trkpt>
      <trkpt lat="28.3190830" lon="-16.5616770">
        <ele>1943.4</ele>
        <time>2020-10-16T11:53:07Z</time>
      </trkpt>
      <trkpt lat="28.3189520" lon="-16.5617000">
        <ele>1944.4</ele>
        <time>2020-10-16T11:53:11Z</time>
      </trkpt>
      <trkpt lat="28.3187770" lon="-16.5617080">
        <ele>1945.2</ele>
        <time>2020-10-16T11:53:16Z</time>
      </trkpt>
      <trkpt lat="28.3184630" lon="-16.5617430">
        <ele>1946.4</ele>
        <time>2020-10-16T11:53:25Z</time>
      </trkpt>
      <trkpt lat="28.3182980" lon="-16.5617660">
        <ele>1947.6</ele>
        <time>2020-10-16T11:53:30Z</time>
      </trkpt>
      <trkpt lat="28.3181470" lon="-16.5617820">
        <ele>1948.6</ele>
        <time>2020-10-16T11:53:35Z</time>
      </trkpt>
      <trkpt lat="28.3179580" lon="-16.5617970">
        <ele>1949.6</ele>
        <time>2020-10-16T11:53:41Z</time>
      </trkpt>
      <trkpt lat="28.3177670" lon="-16.5618220">
        <ele>1950.6</ele>
        <time>2020-10-16T11:53:47Z</time>
      </trkpt>
      <trkpt lat="28.3175860" lon="-16.5618590">
        <ele>1951.8</ele>
        <time>2020-10-16T11:53:53Z</time>
      </trkpt>
      <trkpt lat="28.3173820" lon="-16.5618960">
        <ele>1953.0</ele>
        <time>2020-10-16T11:53:59Z</time>
      </trkpt>
      <trkpt lat="28.3172910" lon="-16.5619440">
        <ele>1954.2</ele>
        <time>2020-10-16T11:54:02Z</time>
      </trkpt>
      <trkpt lat="28.3172110" lon="-16.5620520">
        <ele>1955.4</ele>
        <time>2020-10-16T11:54:06Z</time>
      </trkpt>
      <trkpt lat="28.3171660" lon="-16.5622030">
        <ele>1956.4</ele>
        <time>2020-10-16T11:54:10Z</time>
      </trkpt>
      <trkpt lat="28.3171580" lon="-16.5623520">
        <ele>1957.6</ele>
        <time>2020-10-16T11:54:14Z</time>
      </trkpt>
      <trkpt lat="28.3171640" lon="-16.5625630">
        <ele>1958.6</ele>
        <time>2020-10-16T11:54:20Z</time>
      </trkpt>
      <trkpt lat="28.3171850" lon="-16.5627660">
        <ele>1960.0</ele>
        <time>2020-10-16T11:54:26Z</time>
      </trkpt>
      <trkpt lat="28.3171890" lon="-16.5628670">
        <ele>1961.0</ele>
        <time>2020-10-16T11:54:29Z</time>
      </trkpt>
      <trkpt lat="28.3171960" lon="-16.5630730">
        <ele>1962.2</ele>
        <time>2020-10-16T11:54:35Z</time>
      </trkpt>
      <trkpt lat="28.3171970" lon="-16.5632480">
        <ele>1963.2</ele>
        <time>2020-10-16T11:54:40Z</time>
      </trkpt>
      <trkpt lat="28.3171950" lon="-16.5634140">
        <ele>1964.4</ele>
        <time>2020-10-16T11:54:45Z</time>
      </trkpt>
      <trkpt lat="28.3172020" lon="-16.5636350">
        <ele>1965.4</ele>
        <time>2020-10-16T11:54:51Z</time>
      </trkpt>
      <trkpt lat="28.3172170" lon="-16.5638510">
        <ele>1966.6</ele>
        <time>2020-10-16T11:54:57Z</time>
      </trkpt>
      <trkpt lat="28.3172250" lon="-16.5639920">
        <ele>1967.8</ele>
        <time>2020-10-16T11:55:01Z</time>
      </trkpt>
      <trkpt lat="28.3172340" lon="-16.5641970">
        <ele>1969.0</ele>
        <time>2020-10-16T11:55:07Z</time>
      </trkpt>
      <trkpt lat="28.3172400" lon="-16.5643710">
        <ele>1970.2</ele>
        <time>2020-10-16T11:55:12Z</time>
      </trkpt>
      <trkpt lat="28.3172400" lon="-16.5645400">
        <ele>1971.4</ele>
        <time>2020-10-16T11:55:17Z</time>
      </trkpt>
      <trkpt lat="28.3172450" lon="-16.5647120">
        <ele>1972.6</ele>
        <time>2020-10-16T11:55:22Z</time>
      </trkpt>
      <trkpt lat="28.3172460" lon="-16.5648880">
        <ele>1973.6</ele>
        <time>2020-10-16T11:55:27Z</time>
      </trkpt>
      <trkpt lat="28.3172670" lon="-16.5650210">
        <ele>1974.8</ele>
        <time>2020-10-16T11:55:31Z</time>
      </trkpt>
      <trkpt lat="28.3173350" lon="-16.5652110">
        <ele>1976.0</ele>
        <time>2020-10-16T11:55:37Z</time>
      </trkpt>
      <trkpt lat="28.3174030" lon="-16.5653670">
        <ele>1977.2</ele>
        <time>2020-10-16T11:55:42Z</time>
      </trkpt>
      <trkpt lat="28.3174590" lon="-16.5654930">
        <ele>1978.2</ele>
        <time>2020-10-16T11:55:46Z</time>
      </trkpt>
      <trkpt lat="28.3175520" lon="-16.5657180">
        <ele>1979.2</ele>
        <time>2020-10-16T11:55:53Z</time>
      </trkpt>
      <trkpt lat="28.3176190" lon="-16.5658810">
        <ele>1980.2</ele>
        <time>2020-10-16T11:55:58Z</time>
      </trkpt>
      <trkpt lat="28.3177040" lon="-16.5660790">
        <ele>1981.4</ele>
        <time>2020-10-16T11:56:04Z</time>
      </trkpt>
      <trkpt lat="28.3177370" lon="-16.5662600">
        <ele>1982.6</ele>
        <time>2020-10-16T11:56:09Z</time>
      </trkpt>
      <trkpt lat="28.3177210" lon="-16.5665200">
        <ele>1983.8</ele>
        <time>2020-10-16T11:56:16Z</time>
      </trkpt>
      <trkpt lat="28.3177080" lon="-16.5666680">
        <ele>1984.8</ele>
        <time>2020-10-16T11:56:20Z</time>
      </trkpt>
      <trkpt lat="28.3176870" lon="-16.5668550">
        <ele>1986.0</ele>
        <time>2020-10-16T11:56:25Z</time>
      </trkpt>
      <trkpt lat="28.3176700" lon="-16.5670370">
        <ele>1987.0</ele>
        <time>2020-10-16T11:56:30Z</time>
      </trkpt>
      <trkpt lat="28.3176570" lon="-16.5672190">
        <ele>1988.2</ele>
        <time>2020-10-16T11:56:35Z</time>
      </trkpt>
      <trkpt lat="28.3176430" lon="-16.5674070">
        <ele>1989.2</ele>
        <time>2020-10-16T11:56:40Z</time>
      </trkpt>
      <trkpt lat="28.3176250" lon="-16.5675940">
        <ele>1990.4</ele>
        <time>2020-10-16T11:56:45Z</time>
      </trkpt>
      <trkpt lat="28.3176020" lon="-16.5678550">
        <ele>1991.6</ele>
        <time>2020-10-16T11:56:52Z</time>
      </trkpt>
      <trkpt lat="28.3175930" lon="-16.5679640">
        <ele>1992.6</ele>
        <time>2020-10-16T11:56:55Z</time>
      </trkpt>
      <trkpt lat="28.3175830" lon="-16.5681470">
        <ele>1993.4</ele>
        <time>2020-10-16T11:57:00Z</time>
      </trkpt>
      <trkpt lat="28.3175670" lon="-16.5683280">
        <ele>1994.8</ele>
        <time>2020-10-16T11:57:05Z</time>
      </trkpt>
      <trkpt lat="28.3175430" lon="-16.5685470">
        <ele>1995.8</ele>
        <time>2020-10-16T11:57:11Z</time>
      </trkpt>
      <trkpt lat="28.3175330" lon="-16.5687310">
        <ele>1997.0</ele>
        <time>2020-10-16T11:57:16Z</time>
      </trkpt>
      <trkpt lat="28.3175180" lon="-16.5689590">
        <ele>1998.0</ele>
        <time>2020-10-16T11:57:22Z</time>
      </trkpt>
      <trkpt lat="28.3174960" lon="-16.5691870">
        <ele>1999.4</ele>
        <time>2020-10-16T11:57:28Z</time>
      </trkpt>
      <trkpt lat="28.3174760" lon="-16.5694490">
        <ele>2000.4</ele>
        <time>2020-10-16T11:57:35Z</time>
      </trkpt>
      <trkpt lat="28.3174440" lon="-16.5696250">
        <ele>2001.6</ele>
        <time>2020-10-16T11:57:40Z</time>
      </trkpt>
      <trkpt lat="28.3173600" lon="-16.5697760">
        <ele>2002.6</ele>
        <time>2020-10-16T11:57:45Z</time>
      </trkpt>
      <trkpt lat="28.3172150" lon="-16.5699320">
        <ele>2003.8</ele>
        <time>2020-10-16T11:57:51Z</time>
      </trkpt>
      <trkpt lat="28.3170740" lon="-16.5700890">
        <ele>2005.0</ele>
        <time>2020-10-16T11:57:57Z</time>
      </trkpt>
      <trkpt lat="28.3169570" lon="-16.5702160">
        <ele>2006.0</ele>
        <time>2020-10-16T11:58:02Z</time>
      </trkpt>
      <trkpt lat="28.3168030" lon="-16.5704010">
        <ele>2007.0</ele>
        <time>2020-10-16T11:58:09Z</time>
      </trkpt>
      <trkpt lat="28.3166350" lon="-16.5705740">
        <ele>2008.2</ele>
        <time>2020-10-16T11:58:16Z</time>
      </trkpt>
      <trkpt lat="28.3165140" lon="-16.5707370">
        <ele>2009.2</ele>
        <time>2020-10-16T11:58:22Z</time>
      </trkpt>
      <trkpt lat="28.3164910" lon="-16.5709540">
        <ele>2010.4</ele>
        <time>2020-10-16T11:58:28Z</time>
      </trkpt>
      <trkpt lat="28.3165260" lon="-16.5711390">
        <ele>2011.6</ele>
        <time>2020-10-16T11:58:33Z</time>
      </trkpt>
      <trkpt lat="28.3165630" lon="-16.5712790">
        <ele>2012.6</ele>
        <time>2020-10-16T11:58:37Z</time>
      </trkpt>
      <trkpt lat="28.3166410" lon="-16.5715510">
        <ele>2013.6</ele>
        <time>2020-10-16T11:58:45Z</time>
      </trkpt>
      <trkpt lat="28.3167090" lon="-16.5718000">
        <ele>2014.8</ele>
        <time>2020-10-16T11:58:52Z</time>
      </trkpt>
      <trkpt lat="28.3166870" lon="-16.5719820">
        <ele>2015.6</ele>
        <time>2020-10-16T11:58:57Z</time>
      </trkpt>
      <trkpt lat="28.3166370" lon="-16.5721150">
        <ele>2016.8</ele>
        <time>2020-10-16T11:59:01Z</time>
      </trkpt>
      <trkpt lat="28.3165960" lon="-16.5722030">
        <ele>2017.6</ele>
        <time>2020-10-16T11:59:04Z</time>
      </trkpt>
      <trkpt lat="28.3165870" lon="-16.5722350">
        <ele>2017.8</ele>
        <time>2020-10-16T11:59:05Z</time>
      </trkpt>
      <trkpt lat="28.3165470" lon="-16.5723620">
        <ele>2019.0</ele>
        <time>2020-10-16T11:59:09Z</time>
      </trkpt>
      <trkpt lat="28.3164970" lon="-16.5725220">
        <ele>2020.2</ele>
        <time>2020-10-16T11:59:14Z</time>
      </trkpt>
      <trkpt lat="28.3164530" lon="-16.5726520">
        <ele>2021.2</ele>
        <time>2020-10-16T11:59:18Z</time>
      </trkpt>
      <trkpt lat="28.3164030" lon="-16.5728090">
        <ele>2022.2</ele>
        <time>2020-10-16T11:59:23Z</time>
      </trkpt>
      <trkpt lat="28.3163620" lon="-16.5729360">
        <ele>2023.4</ele>
        <time>2020-10-16T11:59:27Z</time>
      </trkpt>
      <trkpt lat="28.3163050" lon="-16.5730920">
        <ele>2024.4</ele>
        <time>2020-10-16T11:59:32Z</time>
      </trkpt>
      <trkpt lat="28.3162720" lon="-16.5731860">
        <ele>2025.4</ele>
        <time>2020-10-16T11:59:35Z</time>
      </trkpt>
      <trkpt lat="28.3162360" lon="-16.5733120">
        <ele>2026.6</ele>
        <time>2020-10-16T11:59:39Z</time>
      </trkpt>
      <trkpt lat="28.3161850" lon="-16.5734650">
        <ele>2027.8</ele>
        <time>2020-10-16T11:59:44Z</time>
      </trkpt>
      <trkpt lat="28.3161300" lon="-16.5736430">
        <ele>2029.0</ele>
        <time>2020-10-16T11:59:50Z</time>
      </trkpt>
      <trkpt lat="28.3160990" lon="-16.5737600">
        <ele>2029.8</ele>
        <time>2020-10-16T11:59:54Z</time>
      </trkpt>
      <trkpt lat="28.3160590" lon="-16.5738780">
        <ele>2030.8</ele>
        <time>2020-10-16T11:59:58Z</time>
      </trkpt>
      <trkpt lat="28.3160040" lon="-16.5740630">
        <ele>2032.0</ele>
        <time>2020-10-16T12:00:04Z</time>
      </trkpt>
      <trkpt lat="28.3159710" lon="-16.5741870">
        <ele>2033.0</ele>
        <time>2020-10-16T12:00:08Z</time>
      </trkpt>
      <trkpt lat="28.3159320" lon="-16.5743070">
        <ele>2034.2</ele>
        <time>2020-10-16T12:00:12Z</time>
      </trkpt>
      <trkpt lat="28.3158850" lon="-16.5744580">
        <ele>2035.2</ele>
        <time>2020-10-16T12:00:17Z</time>
      </trkpt>
      <trkpt lat="28.3158520" lon="-16.5745500">
        <ele>2036.4</ele>
        <time>2020-10-16T12:00:20Z</time>
      </trkpt>
      <trkpt lat="28.3158000" lon="-16.5746590">
        <ele>2037.4</ele>
        <time>2020-10-16T12:00:24Z</time>
      </trkpt>
      <trkpt lat="28.3157250" lon="-16.5747970">
        <ele>2038.6</ele>
        <time>2020-10-16T12:00:29Z</time>
      </trkpt>
      <trkpt lat="28.3156260" lon="-16.5749180">
        <ele>2039.8</ele>
        <time>2020-10-16T12:00:34Z</time>
      </trkpt>
      <trkpt lat="28.3155150" lon="-16.5750630">
        <ele>2040.8</ele>
        <time>2020-10-16T12:00:40Z</time>
      </trkpt>
      <trkpt lat="28.3153600" lon="-16.5752280">
        <ele>2041.8</ele>
        <time>2020-10-16T12:00:46Z</time>
      </trkpt>
      <trkpt lat="28.3152250" lon="-16.5753940">
        <ele>2043.2</ele>
        <time>2020-10-16T12:00:52Z</time>
      </trkpt>
      <trkpt lat="28.3151020" lon="-16.5755740">
        <ele>2044.4</ele>
        <time>2020-10-16T12:00:58Z</time>
      </trkpt>
      <trkpt lat="28.3149970" lon="-16.5757180">
        <ele>2045.4</ele>
        <time>2020-10-16T12:01:03Z</time>
      </trkpt>
      <trkpt lat="28.3148800" lon="-16.5758930">
        <ele>2046.4</ele>
        <time>2020-10-16T12:01:09Z</time>
      </trkpt>
      <trkpt lat="28.3147290" lon="-16.5760720">
        <ele>2047.6</ele>
        <time>2020-10-16T12:01:16Z</time>
      </trkpt>
      <trkpt lat="28.3146110" lon="-16.5761960">
        <ele>2048.8</ele>
        <time>2020-10-16T12:01:21Z</time>
      </trkpt>
      <trkpt lat="28.3144630" lon="-16.5762780">
        <ele>2049.8</ele>
        <time>2020-10-16T12:01:26Z</time>
      </trkpt>
      <trkpt lat="28.3142820" lon="-16.5762070">
        <ele>2050.8</ele>
        <time>2020-10-16T12:01:32Z</time>
      </trkpt>
      <trkpt lat="28.3142360" lon="-16.5760310">
        <ele>2052.0</ele>
        <time>2020-10-16T12:01:37Z</time>
      </trkpt>
      <trkpt lat="28.3143320" lon="-16.5757300">
        <ele>2053.0</ele>
        <time>2020-10-16T12:01:44Z</time>
      </trkpt>
      <trkpt lat="28.3145290" lon="-16.5754010">
        <ele>2054.2</ele>
        <time>2020-10-16T12:01:52Z</time>
      </trkpt>
      <trkpt lat="28.3146830" lon="-16.5751600">
        <ele>2055.2</ele>
        <time>2020-10-16T12:01:58Z</time>
      </trkpt>
      <trkpt lat="28.3148480" lon="-16.5749020">
        <ele>2056.2</ele>
        <time>2020-10-16T12:02:04Z</time>
      </trkpt>
      <trkpt lat="28.3149030" lon="-16.5745380">
        <ele>2057.6</ele>
        <time>2020-10-16T12:02:11Z</time>
      </trkpt>
      <trkpt lat="28.3148810" lon="-16.5744400">
        <ele>2057.8</ele>
        <time>2020-10-16T12:02:13Z</time>
      </trkpt>
      <trkpt lat="28.3148240" lon="-16.5742080">
        <ele>2058.4</ele>
        <time>2020-10-16T12:02:18Z</time>
      </trkpt>
      <trkpt lat="28.3147980" lon="-16.5741060">
        <ele>2058.8</ele>
        <time>2020-10-16T12:02:20Z</time>
      </trkpt>
      <trkpt lat="28.3147440" lon="-16.5739190">
        <ele>2059.6</ele>
        <time>2020-10-16T12:02:24Z</time>
      </trkpt>
      <trkpt lat="28.3146910" lon="-16.5737080">
        <ele>2060.4</ele>
        <time>2020-10-16T12:02:29Z</time>
      </trkpt>
      <trkpt lat="28.3146560" lon="-16.5735900">
        <ele>2061.6</ele>
        <time>2020-10-16T12:02:32Z</time>
      </trkpt>
      <trkpt lat="28.3145280" lon="-16.5733750">
        <ele>2062.6</ele>
        <time>2020-10-16T12:02:38Z</time>
      </trkpt>
      <trkpt lat="28.3144020" lon="-16.5732130">
        <ele>2063.6</ele>
        <time>2020-10-16T12:02:43Z</time>
      </trkpt>
      <trkpt lat="28.3143260" lon="-16.5731200">
        <ele>2064.6</ele>
        <time>2020-10-16T12:02:46Z</time>
      </trkpt>
      <trkpt lat="28.3142050" lon="-16.5729640">
        <ele>2065.6</ele>
        <time>2020-10-16T12:02:51Z</time>
      </trkpt>
      <trkpt lat="28.3141200" lon="-16.5728360">
        <ele>2066.6</ele>
        <time>2020-10-16T12:02:55Z</time>
      </trkpt>
      <trkpt lat="28.3140060" lon="-16.5726850">
        <ele>2067.8</ele>
        <time>2020-10-16T12:03:00Z</time>
      </trkpt>
      <trkpt lat="28.3138770" lon="-16.5724840">
        <ele>2069.0</ele>
        <time>2020-10-16T12:03:06Z</time>
      </trkpt>
      <trkpt lat="28.3137910" lon="-16.5723610">
        <ele>2070.0</ele>
        <time>2020-10-16T12:03:10Z</time>
      </trkpt>
      <trkpt lat="28.3136900" lon="-16.5722160">
        <ele>2071.2</ele>
        <time>2020-10-16T12:03:15Z</time>
      </trkpt>
      <trkpt lat="28.3135970" lon="-16.5720740">
        <ele>2072.2</ele>
        <time>2020-10-16T12:03:20Z</time>
      </trkpt>
      <trkpt lat="28.3135200" lon="-16.5719710">
        <ele>2073.4</ele>
        <time>2020-10-16T12:03:24Z</time>
      </trkpt>
      <trkpt lat="28.3134410" lon="-16.5718630">
        <ele>2074.2</ele>
        <time>2020-10-16T12:03:28Z</time>
      </trkpt>
      <trkpt lat="28.3133730" lon="-16.5717050">
        <ele>2075.4</ele>
        <time>2020-10-16T12:03:33Z</time>
      </trkpt>
      <trkpt lat="28.3133390" lon="-16.5716110">
        <ele>2076.4</ele>
        <time>2020-10-16T12:03:36Z</time>
      </trkpt>
      <trkpt lat="28.3133190" lon="-16.5714690">
        <ele>2077.6</ele>
        <time>2020-10-16T12:03:40Z</time>
      </trkpt>
      <trkpt lat="28.3133240" lon="-16.5713220">
        <ele>2078.4</ele>
        <time>2020-10-16T12:03:44Z</time>
      </trkpt>
      <trkpt lat="28.3133340" lon="-16.5710540">
        <ele>2079.6</ele>
        <time>2020-10-16T12:03:52Z</time>
      </trkpt>
      <trkpt lat="28.3133390" lon="-16.5708940">
        <ele>2080.6</ele>
        <time>2020-10-16T12:03:57Z</time>
      </trkpt>
      <trkpt lat="28.3133460" lon="-16.5707350">
        <ele>2081.8</ele>
        <time>2020-10-16T12:04:02Z</time>
      </trkpt>
      <trkpt lat="28.3133580" lon="-16.5706060">
        <ele>2082.8</ele>
        <time>2020-10-16T12:04:06Z</time>
      </trkpt>
      <trkpt lat="28.3133750" lon="-16.5704180">
        <ele>2084.0</ele>
        <time>2020-10-16T12:04:12Z</time>
      </trkpt>
      <trkpt lat="28.3133870" lon="-16.5702880">
        <ele>2084.8</ele>
        <time>2020-10-16T12:04:16Z</time>
      </trkpt>
      <trkpt lat="28.3134130" lon="-16.5701210">
        <ele>2086.0</ele>
        <time>2020-10-16T12:04:21Z</time>
      </trkpt>
      <trkpt lat="28.3134140" lon="-16.5699970">
        <ele>2087.4</ele>
        <time>2020-10-16T12:04:25Z</time>
      </trkpt>
      <trkpt lat="28.3133590" lon="-16.5698530">
        <ele>2088.4</ele>
        <time>2020-10-16T12:04:30Z</time>
      </trkpt>
      <trkpt lat="28.3132520" lon="-16.5697580">
        <ele>2089.6</ele>
        <time>2020-10-16T12:04:35Z</time>
      </trkpt>
      <trkpt lat="28.3131580" lon="-16.5696880">
        <ele>2090.8</ele>
        <time>2020-10-16T12:04:39Z</time>
      </trkpt>
      <trkpt lat="28.3130580" lon="-16.5696210">
        <ele>2092.0</ele>
        <time>2020-10-16T12:04:43Z</time>
      </trkpt>
      <trkpt lat="28.3129370" lon="-16.5695360">
        <ele>2093.0</ele>
        <time>2020-10-16T12:04:48Z</time>
      </trkpt>
      <trkpt lat="28.3128060" lon="-16.5694340">
        <ele>2094.0</ele>
        <time>2020-10-16T12:04:54Z</time>
      </trkpt>
      <trkpt lat="28.3126800" lon="-16.5693060">
        <ele>2095.2</ele>
        <time>2020-10-16T12:05:00Z</time>
      </trkpt>
      <trkpt lat="28.3125840" lon="-16.5691900">
        <ele>2096.2</ele>
        <time>2020-10-16T12:05:05Z</time>
      </trkpt>
      <trkpt lat="28.3124790" lon="-16.5690820">
        <ele>2097.2</ele>
        <time>2020-10-16T12:05:10Z</time>
      </trkpt>
      <trkpt lat="28.3123440" lon="-16.5689420">
        <ele>2098.4</ele>
        <time>2020-10-16T12:05:16Z</time>
      </trkpt>
      <trkpt lat="28.3122110" lon="-16.5688020">
        <ele>2099.2</ele>
        <time>2020-10-16T12:05:22Z</time>
      </trkpt>
      <trkpt lat="28.3121070" lon="-16.5686910">
        <ele>2100.2</ele>
        <time>2020-10-16T12:05:27Z</time>
      </trkpt>
      <trkpt lat="28.3119780" lon="-16.5685510">
        <ele>2101.4</ele>
        <time>2020-10-16T12:05:33Z</time>
      </trkpt>
      <trkpt lat="28.3118940" lon="-16.5684160">
        <ele>2102.6</ele>
        <time>2020-10-16T12:05:38Z</time>
      </trkpt>
      <trkpt lat="28.3118210" lon="-16.5682030">
        <ele>2103.8</ele>
        <time>2020-10-16T12:05:45Z</time>
      </trkpt>
      <trkpt lat="28.3117690" lon="-16.5679520">
        <ele>2104.8</ele>
        <time>2020-10-16T12:05:52Z</time>
      </trkpt>
      <trkpt lat="28.3117450" lon="-16.5678150">
        <ele>2106.2</ele>
        <time>2020-10-16T12:05:56Z</time>
      </trkpt>
      <trkpt lat="28.3117250" lon="-16.5676360">
        <ele>2107.4</ele>
        <time>2020-10-16T12:06:01Z</time>
      </trkpt>
      <trkpt lat="28.3117090" lon="-16.5674560">
        <ele>2108.6</ele>
        <time>2020-10-16T12:06:06Z</time>
      </trkpt>
      <trkpt lat="28.3116750" lon="-16.5672890">
        <ele>2109.6</ele>
        <time>2020-10-16T12:06:11Z</time>
      </trkpt>
      <trkpt lat="28.3115740" lon="-16.5671390">
        <ele>2110.8</ele>
        <time>2020-10-16T12:06:17Z</time>
      </trkpt>
      <trkpt lat="28.3115030" lon="-16.5671180">
        <ele>2112.0</ele>
        <time>2020-10-16T12:06:20Z</time>
      </trkpt>
      <trkpt lat="28.3114000" lon="-16.5671390">
        <ele>2112.8</ele>
        <time>2020-10-16T12:06:24Z</time>
      </trkpt>
      <trkpt lat="28.3113080" lon="-16.5672060">
        <ele>2113.8</ele>
        <time>2020-10-16T12:06:28Z</time>
      </trkpt>
      <trkpt lat="28.3112640" lon="-16.5672890">
        <ele>2115.0</ele>
        <time>2020-10-16T12:06:31Z</time>
      </trkpt>
      <trkpt lat="28.3112280" lon="-16.5674110">
        <ele>2116.2</ele>
        <time>2020-10-16T12:06:35Z</time>
      </trkpt>
      <trkpt lat="28.3112280" lon="-16.5675350">
        <ele>2117.2</ele>
        <time>2020-10-16T12:06:39Z</time>
      </trkpt>
      <trkpt lat="28.3112400" lon="-16.5676650">
        <ele>2118.2</ele>
        <time>2020-10-16T12:06:43Z</time>
      </trkpt>
      <trkpt lat="28.3112460" lon="-16.5678590">
        <ele>2119.2</ele>
        <time>2020-10-16T12:06:49Z</time>
      </trkpt>
      <trkpt lat="28.3112680" lon="-16.5680840">
        <ele>2120.2</ele>
        <time>2020-10-16T12:06:56Z</time>
      </trkpt>
      <trkpt lat="28.3112790" lon="-16.5682830">
        <ele>2121.4</ele>
        <time>2020-10-16T12:07:02Z</time>
      </trkpt>
      <trkpt lat="28.3112920" lon="-16.5684910">
        <ele>2122.4</ele>
        <time>2020-10-16T12:07:08Z</time>
      </trkpt>
      <trkpt lat="28.3112990" lon="-16.5686940">
        <ele>2123.4</ele>
        <time>2020-10-16T12:07:14Z</time>
      </trkpt>
      <trkpt lat="28.3113110" lon="-16.5689040">
        <ele>2124.6</ele>
        <time>2020-10-16T12:07:20Z</time>
      </trkpt>
      <trkpt lat="28.3113250" lon="-16.5690800">
        <ele>2125.6</ele>
        <time>2020-10-16T12:07:25Z</time>
      </trkpt>
      <trkpt lat="28.3113410" lon="-16.5693260">
        <ele>2126.6</ele>
        <time>2020-10-16T12:07:32Z</time>
      </trkpt>
      <trkpt lat="28.3113560" lon="-16.5695360">
        <ele>2127.6</ele>
        <time>2020-10-16T12:07:38Z</time>
      </trkpt>
      <trkpt lat="28.3113650" lon="-16.5696770">
        <ele>2128.6</ele>
        <time>2020-10-16T12:07:42Z</time>
      </trkpt>
      <trkpt lat="28.3113600" lon="-16.5698190">
        <ele>2129.8</ele>
        <time>2020-10-16T12:07:46Z</time>
      </trkpt>
      <trkpt lat="28.3112970" lon="-16.5700560">
        <ele>2130.6</ele>
        <time>2020-10-16T12:07:52Z</time>
      </trkpt>
      <trkpt lat="28.3112050" lon="-16.5703480">
        <ele>2131.8</ele>
        <time>2020-10-16T12:07:59Z</time>
      </trkpt>
      <trkpt lat="28.3111140" lon="-16.5706550">
        <ele>2132.8</ele>
        <time>2020-10-16T12:08:07Z</time>
      </trkpt>
      <trkpt lat="28.3110020" lon="-16.5708450">
        <ele>2134.0</ele>
        <time>2020-10-16T12:08:13Z</time>
      </trkpt>
      <trkpt lat="28.3107970" lon="-16.5709270">
        <ele>2135.0</ele>
        <time>2020-10-16T12:08:20Z</time>
      </trkpt>
      <trkpt lat="28.3106230" lon="-16.5708480">
        <ele>2135.8</ele>
        <time>2020-10-16T12:08:26Z</time>
      </trkpt>
      <trkpt lat="28.3105490" lon="-16.5706810">
        <ele>2137.2</ele>
        <time>2020-10-16T12:08:31Z</time>
      </trkpt>
      <trkpt lat="28.3105540" lon="-16.5705620">
        <ele>2138.4</ele>
        <time>2020-10-16T12:08:34Z</time>
      </trkpt>
      <trkpt lat="28.3105760" lon="-16.5704010">
        <ele>2139.4</ele>
        <time>2020-10-16T12:08:38Z</time>
      </trkpt>
      <trkpt lat="28.3106290" lon="-16.5700730">
        <ele>2140.6</ele>
        <time>2020-10-16T12:08:46Z</time>
      </trkpt>
      <trkpt lat="28.3107040" lon="-16.5697180">
        <ele>2141.6</ele>
        <time>2020-10-16T12:08:54Z</time>
      </trkpt>
      <trkpt lat="28.3107520" lon="-16.5694460">
        <ele>2142.6</ele>
        <time>2020-10-16T12:09:00Z</time>
      </trkpt>
      <trkpt lat="28.3106950" lon="-16.5690950">
        <ele>2143.8</ele>
        <time>2020-10-16T12:09:09Z</time>
      </trkpt>
      <trkpt lat="28.3105140" lon="-16.5688950">
        <ele>2144.8</ele>
        <time>2020-10-16T12:09:16Z</time>
      </trkpt>
      <trkpt lat="28.3103660" lon="-16.5687270">
        <ele>2145.6</ele>
        <time>2020-10-16T12:09:22Z</time>
      </trkpt>
      <trkpt lat="28.3101930" lon="-16.5685290">
        <ele>2146.6</ele>
        <time>2020-10-16T12:09:29Z</time>
      </trkpt>
      <trkpt lat="28.3100210" lon="-16.5683280">
        <ele>2147.8</ele>
        <time>2020-10-16T12:09:36Z</time>
      </trkpt>
      <trkpt lat="28.3098940" lon="-16.5681780">
        <ele>2148.6</ele>
        <time>2020-10-16T12:09:41Z</time>
      </trkpt>
      <trkpt lat="28.3097560" lon="-16.5680020">
        <ele>2150.0</ele>
        <time>2020-10-16T12:09:47Z</time>
      </trkpt>
      <trkpt lat="28.3096430" lon="-16.5678660">
        <ele>2151.2</ele>
        <time>2020-10-16T12:09:52Z</time>
      </trkpt>
      <trkpt lat="28.3095470" lon="-16.5677690">
        <ele>2152.2</ele>
        <time>2020-10-16T12:09:56Z</time>
      </trkpt>
      <trkpt lat="28.3094280" lon="-16.5676500">
        <ele>2153.2</ele>
        <time>2020-10-16T12:10:01Z</time>
      </trkpt>
      <trkpt lat="28.3092910" lon="-16.5675300">
        <ele>2154.4</ele>
        <time>2020-10-16T12:10:06Z</time>
      </trkpt>
      <trkpt lat="28.3091420" lon="-16.5673910">
        <ele>2155.6</ele>
        <time>2020-10-16T12:10:12Z</time>
      </trkpt>
      <trkpt lat="28.3090430" lon="-16.5673060">
        <ele>2156.6</ele>
        <time>2020-10-16T12:10:16Z</time>
      </trkpt>
      <trkpt lat="28.3089110" lon="-16.5672240">
        <ele>2157.4</ele>
        <time>2020-10-16T12:10:21Z</time>
      </trkpt>
      <trkpt lat="28.3088820" lon="-16.5671990">
        <ele>2157.6</ele>
        <time>2020-10-16T12:10:22Z</time>
      </trkpt>
      <trkpt lat="28.3087520" lon="-16.5670920">
        <ele>2158.8</ele>
        <time>2020-10-16T12:10:27Z</time>
      </trkpt>
      <trkpt lat="28.3086640" lon="-16.5670450">
        <ele>2159.8</ele>
        <time>2020-10-16T12:10:30Z</time>
      </trkpt>
      <trkpt lat="28.3085470" lon="-16.5669880">
        <ele>2161.0</ele>
        <time>2020-10-16T12:10:34Z</time>
      </trkpt>
      <trkpt lat="28.3084350" lon="-16.5669380">
        <ele>2162.2</ele>
        <time>2020-10-16T12:10:38Z</time>
      </trkpt>
      <trkpt lat="28.3083120" lon="-16.5668600">
        <ele>2163.2</ele>
        <time>2020-10-16T12:10:42Z</time>
      </trkpt>
      <trkpt lat="28.3081230" lon="-16.5667270">
        <ele>2164.2</ele>
        <time>2020-10-16T12:10:49Z</time>
      </trkpt>
      <trkpt lat="28.3079900" lon="-16.5664720">
        <ele>2165.2</ele>
        <time>2020-10-16T12:10:57Z</time>
      </trkpt>
      <trkpt lat="28.3079050" lon="-16.5662250">
        <ele>2166.4</ele>
        <time>2020-10-16T12:11:04Z</time>
      </trkpt>
      <trkpt lat="28.3077920" lon="-16.5659900">
        <ele>2167.6</ele>
        <time>2020-10-16T12:11:11Z</time>
      </trkpt>
      <trkpt lat="28.3076540" lon="-16.5658350">
        <ele>2168.8</ele>
        <time>2020-10-16T12:11:17Z</time>
      </trkpt>
      <trkpt lat="28.3075510" lon="-16.5657560">
        <ele>2170.0</ele>
        <time>2020-10-16T12:11:21Z</time>
      </trkpt>
      <trkpt lat="28.3074370" lon="-16.5656770">
        <ele>2171.0</ele>
        <time>2020-10-16T12:11:25Z</time>
      </trkpt>
      <trkpt lat="28.3072470" lon="-16.5655490">
        <ele>2171.8</ele>
        <time>2020-10-16T12:11:31Z</time>
      </trkpt>
      <trkpt lat="28.3070540" lon="-16.5654090">
        <ele>2173.0</ele>
        <time>2020-10-16T12:11:36Z</time>
      </trkpt>
      <trkpt lat="28.3068910" lon="-16.5652860">
        <ele>2174.0</ele>
        <time>2020-10-16T12:11:40Z</time>
      </trkpt>
      <trkpt lat="28.3067520" lon="-16.5651890">
        <ele>2175.2</ele>
        <time>2020-10-16T12:11:43Z</time>
      </trkpt>
      <trkpt lat="28.3065570" lon="-16.5650410">
        <ele>2176.4</ele>
        <time>2020-10-16T12:11:47Z</time>
      </trkpt>
      <trkpt lat="28.3064160" lon="-16.5649350">
        <ele>2177.6</ele>
        <time>2020-10-16T12:11:50Z</time>
      </trkpt>
      <trkpt lat="28.3062830" lon="-16.5648370">
        <ele>2178.6</ele>
        <time>2020-10-16T12:11:53Z</time>
      </trkpt>
      <trkpt lat="28.3061070" lon="-16.5647360">
        <ele>2179.6</ele>
        <time>2020-10-16T12:11:57Z</time>
      </trkpt>
      <trkpt lat="28.3059870" lon="-16.5646690">
        <ele>2180.8</ele>
        <time>2020-10-16T12:12:00Z</time>
      </trkpt>
      <trkpt lat="28.3060400" lon="-16.5648460">
        <ele>2184.6</ele>
        <time>2020-10-16T12:19:33Z</time>
      </trkpt>
      <trkpt lat="28.3060300" lon="-16.5648240">
        <ele>2184.6</ele>
        <time>2020-10-16T12:19:34Z</time>
      </trkpt>
      <trkpt lat="28.3059850" lon="-16.5647500">
        <ele>2184.4</ele>
        <time>2020-10-16T12:19:37Z</time>
      </trkpt>
      <trkpt lat="28.3058700" lon="-16.5646700">
        <ele>2184.0</ele>
        <time>2020-10-16T12:19:42Z</time>
      </trkpt>
      <trkpt lat="28.3057580" lon="-16.5646350">
        <ele>2184.0</ele>
        <time>2020-10-16T12:19:45Z</time>
      </trkpt>
      <trkpt lat="28.3056260" lon="-16.5646340">
        <ele>2184.0</ele>
        <time>2020-10-16T12:19:48Z</time>
      </trkpt>
      <trkpt lat="28.3055470" lon="-16.5646390">
        <ele>2184.2</ele>
        <time>2020-10-16T12:19:50Z</time>
      </trkpt>
      <trkpt lat="28.3054720" lon="-16.5646440">
        <ele>2184.6</ele>
        <time>2020-10-16T12:19:52Z</time>
      </trkpt>
      <trkpt lat="28.3053670" lon="-16.5646590">
        <ele>2185.4</ele>
        <time>2020-10-16T12:19:55Z</time>
      </trkpt>
      <trkpt lat="28.3053300" lon="-16.5646590">
        <ele>2185.8</ele>
        <time>2020-10-16T12:19:56Z</time>
      </trkpt>
      <trkpt lat="28.3052160" lon="-16.5646670">
        <ele>2186.8</ele>
        <time>2020-10-16T12:19:59Z</time>
      </trkpt>
      <trkpt lat="28.3050790" lon="-16.5647490">
        <ele>2188.0</ele>
        <time>2020-10-16T12:20:03Z</time>
      </trkpt>
      <trkpt lat="28.3049700" lon="-16.5648740">
        <ele>2189.2</ele>
        <time>2020-10-16T12:20:07Z</time>
      </trkpt>
      <trkpt lat="28.3048890" lon="-16.5649690">
        <ele>2190.4</ele>
        <time>2020-10-16T12:20:10Z</time>
      </trkpt>
      <trkpt lat="28.3047520" lon="-16.5651290">
        <ele>2191.6</ele>
        <time>2020-10-16T12:20:15Z</time>
      </trkpt>
      <trkpt lat="28.3046210" lon="-16.5652850">
        <ele>2192.8</ele>
        <time>2020-10-16T12:20:20Z</time>
      </trkpt>
      <trkpt lat="28.3045180" lon="-16.5654070">
        <ele>2193.8</ele>
        <time>2020-10-16T12:20:24Z</time>
      </trkpt>
      <trkpt lat="28.3043920" lon="-16.5655580">
        <ele>2194.8</ele>
        <time>2020-10-16T12:20:29Z</time>
      </trkpt>
      <trkpt lat="28.3042190" lon="-16.5657720">
        <ele>2195.8</ele>
        <time>2020-10-16T12:20:36Z</time>
      </trkpt>
      <trkpt lat="28.3041430" lon="-16.5659090">
        <ele>2196.8</ele>
        <time>2020-10-16T12:20:40Z</time>
      </trkpt>
      <trkpt lat="28.3040720" lon="-16.5660500">
        <ele>2198.0</ele>
        <time>2020-10-16T12:20:44Z</time>
      </trkpt>
      <trkpt lat="28.3039910" lon="-16.5662270">
        <ele>2199.2</ele>
        <time>2020-10-16T12:20:49Z</time>
      </trkpt>
      <trkpt lat="28.3038950" lon="-16.5664370">
        <ele>2200.2</ele>
        <time>2020-10-16T12:20:55Z</time>
      </trkpt>
      <trkpt lat="28.3038180" lon="-16.5666050">
        <ele>2201.6</ele>
        <time>2020-10-16T12:21:00Z</time>
      </trkpt>
      <trkpt lat="28.3037690" lon="-16.5667050">
        <ele>2202.6</ele>
        <time>2020-10-16T12:21:03Z</time>
      </trkpt>
      <trkpt lat="28.3037060" lon="-16.5668400">
        <ele>2203.6</ele>
        <time>2020-10-16T12:21:07Z</time>
      </trkpt>
      <trkpt lat="28.3036620" lon="-16.5669430">
        <ele>2204.6</ele>
        <time>2020-10-16T12:21:10Z</time>
      </trkpt>
      <trkpt lat="28.3036470" lon="-16.5669770">
        <ele>2204.6</ele>
        <time>2020-10-16T12:21:11Z</time>
      </trkpt>
      <trkpt lat="28.3035840" lon="-16.5671110">
        <ele>2205.6</ele>
        <time>2020-10-16T12:21:15Z</time>
      </trkpt>
      <trkpt lat="28.3035260" lon="-16.5672430">
        <ele>2206.8</ele>
        <time>2020-10-16T12:21:19Z</time>
      </trkpt>
      <trkpt lat="28.3034690" lon="-16.5673730">
        <ele>2207.8</ele>
        <time>2020-10-16T12:21:23Z</time>
      </trkpt>
      <trkpt lat="28.3034220" lon="-16.5674710">
        <ele>2208.8</ele>
        <time>2020-10-16T12:21:26Z</time>
      </trkpt>
      <trkpt lat="28.3033260" lon="-16.5676530">
        <ele>2210.0</ele>
        <time>2020-10-16T12:21:32Z</time>
      </trkpt>
      <trkpt lat="28.3031800" lon="-16.5677840">
        <ele>2211.2</ele>
        <time>2020-10-16T12:21:38Z</time>
      </trkpt>
      <trkpt lat="28.3029820" lon="-16.5679030">
        <ele>2212.2</ele>
        <time>2020-10-16T12:21:45Z</time>
      </trkpt>
      <trkpt lat="28.3027820" lon="-16.5680230">
        <ele>2213.4</ele>
        <time>2020-10-16T12:21:52Z</time>
      </trkpt>
      <trkpt lat="28.3026280" lon="-16.5681060">
        <ele>2214.4</ele>
        <time>2020-10-16T12:21:57Z</time>
      </trkpt>
      <trkpt lat="28.3024200" lon="-16.5682280">
        <ele>2215.6</ele>
        <time>2020-10-16T12:22:04Z</time>
      </trkpt>
      <trkpt lat="28.3022520" lon="-16.5683150">
        <ele>2216.8</ele>
        <time>2020-10-16T12:22:09Z</time>
      </trkpt>
      <trkpt lat="28.3020850" lon="-16.5684090">
        <ele>2218.0</ele>
        <time>2020-10-16T12:22:14Z</time>
      </trkpt>
      <trkpt lat="28.3020200" lon="-16.5684450">
        <ele>2218.6</ele>
        <time>2020-10-16T12:22:16Z</time>
      </trkpt>
      <trkpt lat="28.3018510" lon="-16.5685390">
        <ele>2219.0</ele>
        <time>2020-10-16T12:22:21Z</time>
      </trkpt>
      <trkpt lat="28.3015320" lon="-16.5686240">
        <ele>2220.2</ele>
        <time>2020-10-16T12:22:30Z</time>
      </trkpt>
      <trkpt lat="28.3013560" lon="-16.5684720">
        <ele>2221.2</ele>
        <time>2020-10-16T12:22:36Z</time>
      </trkpt>
      <trkpt lat="28.3012800" lon="-16.5680250">
        <ele>2222.0</ele>
        <time>2020-10-16T12:22:47Z</time>
      </trkpt>
      <trkpt lat="28.3012610" lon="-16.5678210">
        <ele>2223.0</ele>
        <time>2020-10-16T12:22:52Z</time>
      </trkpt>
      <trkpt lat="28.3012360" lon="-16.5676630">
        <ele>2224.2</ele>
        <time>2020-10-16T12:22:56Z</time>
      </trkpt>
      <trkpt lat="28.3011980" lon="-16.5675480">
        <ele>2225.4</ele>
        <time>2020-10-16T12:22:59Z</time>
      </trkpt>
      <trkpt lat="28.3011280" lon="-16.5673970">
        <ele>2226.6</ele>
        <time>2020-10-16T12:23:03Z</time>
      </trkpt>
      <trkpt lat="28.3010180" lon="-16.5671830">
        <ele>2227.6</ele>
        <time>2020-10-16T12:23:09Z</time>
      </trkpt>
      <trkpt lat="28.3008750" lon="-16.5670610">
        <ele>2228.8</ele>
        <time>2020-10-16T12:23:14Z</time>
      </trkpt>
      <trkpt lat="28.3007050" lon="-16.5669970">
        <ele>2230.0</ele>
        <time>2020-10-16T12:23:19Z</time>
      </trkpt>
      <trkpt lat="28.3005040" lon="-16.5669470">
        <ele>2230.8</ele>
        <time>2020-10-16T12:23:25Z</time>
      </trkpt>
      <trkpt lat="28.3003490" lon="-16.5668080">
        <ele>2231.8</ele>
        <time>2020-10-16T12:23:31Z</time>
      </trkpt>
      <trkpt lat="28.3003320" lon="-16.5667750">
        <ele>2232.0</ele>
        <time>2020-10-16T12:23:32Z</time>
      </trkpt>
      <trkpt lat="28.3002970" lon="-16.5665880">
        <ele>2233.0</ele>
        <time>2020-10-16T12:23:37Z</time>
      </trkpt>
      <trkpt lat="28.3003340" lon="-16.5663590">
        <ele>2234.4</ele>
        <time>2020-10-16T12:23:43Z</time>
      </trkpt>
      <trkpt lat="28.3003730" lon="-16.5661690">
        <ele>2235.6</ele>
        <time>2020-10-16T12:23:48Z</time>
      </trkpt>
      <trkpt lat="28.3003650" lon="-16.5660120">
        <ele>2237.0</ele>
        <time>2020-10-16T12:23:52Z</time>
      </trkpt>
      <trkpt lat="28.3003520" lon="-16.5658570">
        <ele>2238.0</ele>
        <time>2020-10-16T12:23:56Z</time>
      </trkpt>
      <trkpt lat="28.3003280" lon="-16.5656230">
        <ele>2239.2</ele>
        <time>2020-10-16T12:24:02Z</time>
      </trkpt>
      <trkpt lat="28.3002920" lon="-16.5654760">
        <ele>2240.2</ele>
        <time>2020-10-16T12:24:06Z</time>
      </trkpt>
      <trkpt lat="28.3001900" lon="-16.5653280">
        <ele>2241.2</ele>
        <time>2020-10-16T12:24:11Z</time>
      </trkpt>
      <trkpt lat="28.3000370" lon="-16.5652430">
        <ele>2242.2</ele>
        <time>2020-10-16T12:24:16Z</time>
      </trkpt>
      <trkpt lat="28.2998740" lon="-16.5652410">
        <ele>2243.4</ele>
        <time>2020-10-16T12:24:21Z</time>
      </trkpt>
      <trkpt lat="28.2997560" lon="-16.5653060">
        <ele>2244.4</ele>
        <time>2020-10-16T12:24:25Z</time>
      </trkpt>
      <trkpt lat="28.2996190" lon="-16.5654030">
        <ele>2245.6</ele>
        <time>2020-10-16T12:24:30Z</time>
      </trkpt>
      <trkpt lat="28.2994260" lon="-16.5655250">
        <ele>2246.6</ele>
        <time>2020-10-16T12:24:37Z</time>
      </trkpt>
      <trkpt lat="28.2993480" lon="-16.5655800">
        <ele>2247.6</ele>
        <time>2020-10-16T12:24:40Z</time>
      </trkpt>
      <trkpt lat="28.2992430" lon="-16.5656450">
        <ele>2249.0</ele>
        <time>2020-10-16T12:24:44Z</time>
      </trkpt>
      <trkpt lat="28.2990950" lon="-16.5657470">
        <ele>2250.2</ele>
        <time>2020-10-16T12:24:50Z</time>
      </trkpt>
      <trkpt lat="28.2989940" lon="-16.5658130">
        <ele>2251.2</ele>
        <time>2020-10-16T12:24:54Z</time>
      </trkpt>
      <trkpt lat="28.2988940" lon="-16.5658790">
        <ele>2252.2</ele>
        <time>2020-10-16T12:24:58Z</time>
      </trkpt>
      <trkpt lat="28.2987690" lon="-16.5659480">
        <ele>2253.6</ele>
        <time>2020-10-16T12:25:03Z</time>
      </trkpt>
      <trkpt lat="28.2986390" lon="-16.5659940">
        <ele>2254.8</ele>
        <time>2020-10-16T12:25:08Z</time>
      </trkpt>
      <trkpt lat="28.2985320" lon="-16.5659770">
        <ele>2256.4</ele>
        <time>2020-10-16T12:25:12Z</time>
      </trkpt>
      <trkpt lat="28.2984560" lon="-16.5659430">
        <ele>2257.4</ele>
        <time>2020-10-16T12:25:15Z</time>
      </trkpt>
      <trkpt lat="28.2982630" lon="-16.5658020">
        <ele>2258.2</ele>
        <time>2020-10-16T12:25:23Z</time>
      </trkpt>
      <trkpt lat="28.2981470" lon="-16.5657130">
        <ele>2259.4</ele>
        <time>2020-10-16T12:25:28Z</time>
      </trkpt>
      <trkpt lat="28.2980510" lon="-16.5656410">
        <ele>2260.6</ele>
        <time>2020-10-16T12:25:32Z</time>
      </trkpt>
      <trkpt lat="28.2978660" lon="-16.5655150">
        <ele>2261.6</ele>
        <time>2020-10-16T12:25:40Z</time>
      </trkpt>
      <trkpt lat="28.2977130" lon="-16.5654210">
        <ele>2262.8</ele>
        <time>2020-10-16T12:25:46Z</time>
      </trkpt>
      <trkpt lat="28.2976590" lon="-16.5653990">
        <ele>2264.0</ele>
        <time>2020-10-16T12:25:48Z</time>
      </trkpt>
      <trkpt lat="28.2975190" lon="-16.5653830">
        <ele>2265.2</ele>
        <time>2020-10-16T12:25:53Z</time>
      </trkpt>
      <trkpt lat="28.2974060" lon="-16.5654160">
        <ele>2266.2</ele>
        <time>2020-10-16T12:25:57Z</time>
      </trkpt>
      <trkpt lat="28.2972690" lon="-16.5654800">
        <ele>2267.6</ele>
        <time>2020-10-16T12:26:02Z</time>
      </trkpt>
      <trkpt lat="28.2970490" lon="-16.5655660">
        <ele>2268.6</ele>
        <time>2020-10-16T12:26:10Z</time>
      </trkpt>
      <trkpt lat="28.2969120" lon="-16.5656180">
        <ele>2269.6</ele>
        <time>2020-10-16T12:26:15Z</time>
      </trkpt>
      <trkpt lat="28.2967490" lon="-16.5656870">
        <ele>2271.0</ele>
        <time>2020-10-16T12:26:21Z</time>
      </trkpt>
      <trkpt lat="28.2966420" lon="-16.5657370">
        <ele>2272.2</ele>
        <time>2020-10-16T12:26:25Z</time>
      </trkpt>
      <trkpt lat="28.2964330" lon="-16.5657780">
        <ele>2273.4</ele>
        <time>2020-10-16T12:26:32Z</time>
      </trkpt>
      <trkpt lat="28.2962780" lon="-16.5657490">
        <ele>2274.4</ele>
        <time>2020-10-16T12:26:37Z</time>
      </trkpt>
      <trkpt lat="28.2961130" lon="-16.5657090">
        <ele>2275.6</ele>
        <time>2020-10-16T12:26:42Z</time>
      </trkpt>
      <trkpt lat="28.2958810" lon="-16.5656550">
        <ele>2276.4</ele>
        <time>2020-10-16T12:26:48Z</time>
      </trkpt>
      <trkpt lat="28.2957920" lon="-16.5656350">
        <ele>2276.8</ele>
        <time>2020-10-16T12:26:50Z</time>
      </trkpt>
      <trkpt lat="28.2952790" lon="-16.5655250">
        <ele>2277.6</ele>
        <time>2020-10-16T12:27:01Z</time>
      </trkpt>
      <trkpt lat="28.2949500" lon="-16.5654450">
        <ele>2277.6</ele>
        <time>2020-10-16T12:27:08Z</time>
      </trkpt>
      <trkpt lat="28.2946090" lon="-16.5653640">
        <ele>2278.6</ele>
        <time>2020-10-16T12:27:14Z</time>
      </trkpt>
      <trkpt lat="28.2941600" lon="-16.5652650">
        <ele>2279.8</ele>
        <time>2020-10-16T12:27:21Z</time>
      </trkpt>
      <trkpt lat="28.2937610" lon="-16.5651690">
        <ele>2280.0</ele>
        <time>2020-10-16T12:27:27Z</time>
      </trkpt>
      <trkpt lat="28.2932000" lon="-16.5650370">
        <ele>2280.4</ele>
        <time>2020-10-16T12:27:35Z</time>
      </trkpt>
      <trkpt lat="28.2927630" lon="-16.5649400">
        <ele>2280.8</ele>
        <time>2020-10-16T12:27:41Z</time>
      </trkpt>
      <trkpt lat="28.2921730" lon="-16.5648050">
        <ele>2281.2</ele>
        <time>2020-10-16T12:27:49Z</time>
      </trkpt>
      <trkpt lat="28.2920990" lon="-16.5647880">
        <ele>2281.4</ele>
        <time>2020-10-16T12:27:50Z</time>
      </trkpt>
      <trkpt lat="28.2917310" lon="-16.5647200">
        <ele>2281.8</ele>
        <time>2020-10-16T12:27:55Z</time>
      </trkpt>
      <trkpt lat="28.2911700" lon="-16.5647990">
        <ele>2282.6</ele>
        <time>2020-10-16T12:28:03Z</time>
      </trkpt>
      <trkpt lat="28.2910300" lon="-16.5648250">
        <ele>2283.0</ele>
        <time>2020-10-16T12:28:05Z</time>
      </trkpt>
      <trkpt lat="28.2906070" lon="-16.5649090">
        <ele>2284.0</ele>
        <time>2020-10-16T12:28:11Z</time>
      </trkpt>
      <trkpt lat="28.2900280" lon="-16.5650220">
        <ele>2284.8</ele>
        <time>2020-10-16T12:28:19Z</time>
      </trkpt>
      <trkpt lat="28.2897270" lon="-16.5650780">
        <ele>2285.0</ele>
        <time>2020-10-16T12:28:23Z</time>
      </trkpt>
      <trkpt lat="28.2891860" lon="-16.5651770">
        <ele>2285.4</ele>
        <time>2020-10-16T12:28:30Z</time>
      </trkpt>
      <trkpt lat="28.2889540" lon="-16.5652100">
        <ele>2285.8</ele>
        <time>2020-10-16T12:28:33Z</time>
      </trkpt>
      <trkpt lat="28.2887240" lon="-16.5651550">
        <ele>2286.0</ele>
        <time>2020-10-16T12:28:36Z</time>
      </trkpt>
      <trkpt lat="28.2886510" lon="-16.5651230">
        <ele>2286.2</ele>
        <time>2020-10-16T12:28:37Z</time>
      </trkpt>
      <trkpt lat="28.2880860" lon="-16.5648510">
        <ele>2287.0</ele>
        <time>2020-10-16T12:28:45Z</time>
      </trkpt>
      <trkpt lat="28.2880170" lon="-16.5648180">
        <ele>2287.2</ele>
        <time>2020-10-16T12:28:46Z</time>
      </trkpt>
      <trkpt lat="28.2878770" lon="-16.5647550">
        <ele>2287.6</ele>
        <time>2020-10-16T12:28:48Z</time>
      </trkpt>
      <trkpt lat="28.2876500" lon="-16.5647390">
        <ele>2288.2</ele>
        <time>2020-10-16T12:28:51Z</time>
      </trkpt>
      <trkpt lat="28.2874270" lon="-16.5648250">
        <ele>2288.4</ele>
        <time>2020-10-16T12:28:54Z</time>
      </trkpt>
      <trkpt lat="28.2868860" lon="-16.5651200">
        <ele>2289.0</ele>
        <time>2020-10-16T12:29:02Z</time>
      </trkpt>
      <trkpt lat="28.2865010" lon="-16.5653500">
        <ele>2289.6</ele>
        <time>2020-10-16T12:29:08Z</time>
      </trkpt>
      <trkpt lat="28.2861100" lon="-16.5658220">
        <ele>2289.8</ele>
        <time>2020-10-16T12:29:16Z</time>
      </trkpt>
      <trkpt lat="28.2858670" lon="-16.5661560">
        <ele>2290.2</ele>
        <time>2020-10-16T12:29:21Z</time>
      </trkpt>
      <trkpt lat="28.2854900" lon="-16.5666730">
        <ele>2291.2</ele>
        <time>2020-10-16T12:29:29Z</time>
      </trkpt>
      <trkpt lat="28.2851430" lon="-16.5671430">
        <ele>2291.8</ele>
        <time>2020-10-16T12:29:37Z</time>
      </trkpt>
      <trkpt lat="28.2849000" lon="-16.5674710">
        <ele>2292.2</ele>
        <time>2020-10-16T12:29:43Z</time>
      </trkpt>
      <trkpt lat="28.2847360" lon="-16.5676830">
        <ele>2293.0</ele>
        <time>2020-10-16T12:29:47Z</time>
      </trkpt>
      <trkpt lat="28.2844220" lon="-16.5681150">
        <ele>2294.2</ele>
        <time>2020-10-16T12:29:55Z</time>
      </trkpt>
      <trkpt lat="28.2841760" lon="-16.5685540">
        <ele>2295.2</ele>
        <time>2020-10-16T12:30:03Z</time>
      </trkpt>
      <trkpt lat="28.2840410" lon="-16.5688280">
        <ele>2296.2</ele>
        <time>2020-10-16T12:30:08Z</time>
      </trkpt>
      <trkpt lat="28.2839620" lon="-16.5689910">
        <ele>2297.2</ele>
        <time>2020-10-16T12:30:11Z</time>
      </trkpt>
      <trkpt lat="28.2837330" lon="-16.5694740">
        <ele>2298.4</ele>
        <time>2020-10-16T12:30:20Z</time>
      </trkpt>
      <trkpt lat="28.2836380" lon="-16.5697490">
        <ele>2299.0</ele>
        <time>2020-10-16T12:30:25Z</time>
      </trkpt>
      <trkpt lat="28.2836240" lon="-16.5699770">
        <ele>2299.4</ele>
        <time>2020-10-16T12:30:29Z</time>
      </trkpt>
      <trkpt lat="28.2836570" lon="-16.5706340">
        <ele>2300.2</ele>
        <time>2020-10-16T12:30:40Z</time>
      </trkpt>
      <trkpt lat="28.2836580" lon="-16.5706910">
        <ele>2300.4</ele>
        <time>2020-10-16T12:30:41Z</time>
      </trkpt>
      <trkpt lat="28.2836690" lon="-16.5709640">
        <ele>2301.2</ele>
        <time>2020-10-16T12:30:46Z</time>
      </trkpt>
      <trkpt lat="28.2836520" lon="-16.5712650">
        <ele>2302.2</ele>
        <time>2020-10-16T12:30:52Z</time>
      </trkpt>
      <trkpt lat="28.2835660" lon="-16.5714350">
        <ele>2303.2</ele>
        <time>2020-10-16T12:30:56Z</time>
      </trkpt>
      <trkpt lat="28.2835400" lon="-16.5714730">
        <ele>2303.4</ele>
        <time>2020-10-16T12:30:57Z</time>
      </trkpt>
      <trkpt lat="28.2833890" lon="-16.5716380">
        <ele>2304.2</ele>
        <time>2020-10-16T12:31:02Z</time>
      </trkpt>
      <trkpt lat="28.2832010" lon="-16.5718040">
        <ele>2305.4</ele>
        <time>2020-10-16T12:31:08Z</time>
      </trkpt>
      <trkpt lat="28.2830520" lon="-16.5719310">
        <ele>2306.4</ele>
        <time>2020-10-16T12:31:13Z</time>
      </trkpt>
      <trkpt lat="28.2829390" lon="-16.5720340">
        <ele>2307.6</ele>
        <time>2020-10-16T12:31:17Z</time>
      </trkpt>
      <trkpt lat="28.2828570" lon="-16.5721110">
        <ele>2308.8</ele>
        <time>2020-10-16T12:31:20Z</time>
      </trkpt>
      <trkpt lat="28.2828320" lon="-16.5721360">
        <ele>2309.0</ele>
        <time>2020-10-16T12:31:21Z</time>
      </trkpt>
      <trkpt lat="28.2827530" lon="-16.5722090">
        <ele>2310.0</ele>
        <time>2020-10-16T12:31:24Z</time>
      </trkpt>
      <trkpt lat="28.2825890" lon="-16.5723590">
        <ele>2311.0</ele>
        <time>2020-10-16T12:31:30Z</time>
      </trkpt>
      <trkpt lat="28.2824500" lon="-16.5724780">
        <ele>2311.8</ele>
        <time>2020-10-16T12:31:35Z</time>
      </trkpt>
      <trkpt lat="28.2822990" lon="-16.5726210">
        <ele>2313.0</ele>
        <time>2020-10-16T12:31:41Z</time>
      </trkpt>
      <trkpt lat="28.2821470" lon="-16.5727490">
        <ele>2314.2</ele>
        <time>2020-10-16T12:31:47Z</time>
      </trkpt>
      <trkpt lat="28.2820290" lon="-16.5728650">
        <ele>2315.4</ele>
        <time>2020-10-16T12:31:52Z</time>
      </trkpt>
      <trkpt lat="28.2818970" lon="-16.5730120">
        <ele>2316.4</ele>
        <time>2020-10-16T12:31:58Z</time>
      </trkpt>
      <trkpt lat="28.2818150" lon="-16.5731490">
        <ele>2317.6</ele>
        <time>2020-10-16T12:32:03Z</time>
      </trkpt>
      <trkpt lat="28.2817140" lon="-16.5733310">
        <ele>2318.8</ele>
        <time>2020-10-16T12:32:09Z</time>
      </trkpt>
      <trkpt lat="28.2816630" lon="-16.5734260">
        <ele>2319.8</ele>
        <time>2020-10-16T12:32:12Z</time>
      </trkpt>
      <trkpt lat="28.2815370" lon="-16.5736450">
        <ele>2320.8</ele>
        <time>2020-10-16T12:32:19Z</time>
      </trkpt>
      <trkpt lat="28.2814280" lon="-16.5738330">
        <ele>2322.0</ele>
        <time>2020-10-16T12:32:25Z</time>
      </trkpt>
      <trkpt lat="28.2813560" lon="-16.5739580">
        <ele>2323.0</ele>
        <time>2020-10-16T12:32:29Z</time>
      </trkpt>
      <trkpt lat="28.2812470" lon="-16.5741510">
        <ele>2323.8</ele>
        <time>2020-10-16T12:32:35Z</time>
      </trkpt>
      <trkpt lat="28.2811890" lon="-16.5742450">
        <ele>2324.8</ele>
        <time>2020-10-16T12:32:38Z</time>
      </trkpt>
      <trkpt lat="28.2810960" lon="-16.5744040">
        <ele>2326.0</ele>
        <time>2020-10-16T12:32:43Z</time>
      </trkpt>
      <trkpt lat="28.2809740" lon="-16.5746330">
        <ele>2327.0</ele>
        <time>2020-10-16T12:32:50Z</time>
      </trkpt>
      <trkpt lat="28.2808800" lon="-16.5747970">
        <ele>2328.2</ele>
        <time>2020-10-16T12:32:55Z</time>
      </trkpt>
      <trkpt lat="28.2808070" lon="-16.5749290">
        <ele>2329.4</ele>
        <time>2020-10-16T12:32:59Z</time>
      </trkpt>
      <trkpt lat="28.2807320" lon="-16.5750660">
        <ele>2330.6</ele>
        <time>2020-10-16T12:33:03Z</time>
      </trkpt>
      <trkpt lat="28.2805980" lon="-16.5753040">
        <ele>2331.4</ele>
        <time>2020-10-16T12:33:10Z</time>
      </trkpt>
      <trkpt lat="28.2805060" lon="-16.5754740">
        <ele>2332.6</ele>
        <time>2020-10-16T12:33:15Z</time>
      </trkpt>
      <trkpt lat="28.2802950" lon="-16.5758430">
        <ele>2333.6</ele>
        <time>2020-10-16T12:33:26Z</time>
      </trkpt>
      <trkpt lat="28.2801900" lon="-16.5760220">
        <ele>2334.6</ele>
        <time>2020-10-16T12:33:31Z</time>
      </trkpt>
      <trkpt lat="28.2799440" lon="-16.5764560">
        <ele>2335.6</ele>
        <time>2020-10-16T12:33:42Z</time>
      </trkpt>
      <trkpt lat="28.2797660" lon="-16.5767650">
        <ele>2336.8</ele>
        <time>2020-10-16T12:33:51Z</time>
      </trkpt>
      <trkpt lat="28.2796610" lon="-16.5769560">
        <ele>2337.6</ele>
        <time>2020-10-16T12:33:57Z</time>
      </trkpt>
      <trkpt lat="28.2795810" lon="-16.5770660">
        <ele>2338.8</ele>
        <time>2020-10-16T12:34:01Z</time>
      </trkpt>
      <trkpt lat="28.2794740" lon="-16.5771380">
        <ele>2340.0</ele>
        <time>2020-10-16T12:34:05Z</time>
      </trkpt>
      <trkpt lat="28.2793200" lon="-16.5771640">
        <ele>2341.2</ele>
        <time>2020-10-16T12:34:10Z</time>
      </trkpt>
      <trkpt lat="28.2792000" lon="-16.5771310">
        <ele>2342.4</ele>
        <time>2020-10-16T12:34:14Z</time>
      </trkpt>
      <trkpt lat="28.2790000" lon="-16.5769710">
        <ele>2343.4</ele>
        <time>2020-10-16T12:34:22Z</time>
      </trkpt>
      <trkpt lat="28.2788650" lon="-16.5768360">
        <ele>2344.2</ele>
        <time>2020-10-16T12:34:28Z</time>
      </trkpt>
      <trkpt lat="28.2786870" lon="-16.5766610">
        <ele>2345.6</ele>
        <time>2020-10-16T12:34:36Z</time>
      </trkpt>
      <trkpt lat="28.2785600" lon="-16.5765270">
        <ele>2346.6</ele>
        <time>2020-10-16T12:34:42Z</time>
      </trkpt>
      <trkpt lat="28.2784520" lon="-16.5764200">
        <ele>2347.6</ele>
        <time>2020-10-16T12:34:47Z</time>
      </trkpt>
      <trkpt lat="28.2783310" lon="-16.5763340">
        <ele>2348.8</ele>
        <time>2020-10-16T12:34:52Z</time>
      </trkpt>
      <trkpt lat="28.2782250" lon="-16.5762950">
        <ele>2350.2</ele>
        <time>2020-10-16T12:34:56Z</time>
      </trkpt>
      <trkpt lat="28.2781120" lon="-16.5762780">
        <ele>2351.2</ele>
        <time>2020-10-16T12:35:00Z</time>
      </trkpt>
      <trkpt lat="28.2779980" lon="-16.5762660">
        <ele>2352.4</ele>
        <time>2020-10-16T12:35:04Z</time>
      </trkpt>
      <trkpt lat="28.2778020" lon="-16.5762430">
        <ele>2353.6</ele>
        <time>2020-10-16T12:35:11Z</time>
      </trkpt>
      <trkpt lat="28.2776360" lon="-16.5762310">
        <ele>2354.6</ele>
        <time>2020-10-16T12:35:17Z</time>
      </trkpt>
      <trkpt lat="28.2774380" lon="-16.5762560">
        <ele>2355.6</ele>
        <time>2020-10-16T12:35:24Z</time>
      </trkpt>
      <trkpt lat="28.2771600" lon="-16.5764150">
        <ele>2356.6</ele>
        <time>2020-10-16T12:35:35Z</time>
      </trkpt>
      <trkpt lat="28.2770370" lon="-16.5764980">
        <ele>2357.6</ele>
        <time>2020-10-16T12:35:40Z</time>
      </trkpt>
      <trkpt lat="28.2768520" lon="-16.5766320">
        <ele>2358.6</ele>
        <time>2020-10-16T12:35:48Z</time>
      </trkpt>
      <trkpt lat="28.2767360" lon="-16.5767170">
        <ele>2359.8</ele>
        <time>2020-10-16T12:35:53Z</time>
      </trkpt>
      <trkpt lat="28.2766130" lon="-16.5768020">
        <ele>2360.8</ele>
        <time>2020-10-16T12:35:58Z</time>
      </trkpt>
      <trkpt lat="28.2764450" lon="-16.5769250">
        <ele>2362.0</ele>
        <time>2020-10-16T12:36:05Z</time>
      </trkpt>
      <trkpt lat="28.2763030" lon="-16.5770790">
        <ele>2363.0</ele>
        <time>2020-10-16T12:36:12Z</time>
      </trkpt>
      <trkpt lat="28.2762120" lon="-16.5773060">
        <ele>2364.0</ele>
        <time>2020-10-16T12:36:20Z</time>
      </trkpt>
      <trkpt lat="28.2761260" lon="-16.5776380">
        <ele>2365.2</ele>
        <time>2020-10-16T12:36:30Z</time>
      </trkpt>
      <trkpt lat="28.2759910" lon="-16.5781210">
        <ele>2366.0</ele>
        <time>2020-10-16T12:36:45Z</time>
      </trkpt>
      <trkpt lat="28.2759830" lon="-16.5781530">
        <ele>2366.2</ele>
        <time>2020-10-16T12:36:46Z</time>
      </trkpt>
      <trkpt lat="28.2758470" lon="-16.5786670">
        <ele>2367.2</ele>
        <time>2020-10-16T12:37:00Z</time>
      </trkpt>
      <trkpt lat="28.2757860" lon="-16.5789050">
        <ele>2367.6</ele>
        <time>2020-10-16T12:37:06Z</time>
      </trkpt>
      <trkpt lat="28.2757750" lon="-16.5789450">
        <ele>2368.0</ele>
        <time>2020-10-16T12:37:07Z</time>
      </trkpt>
      <trkpt lat="28.2756810" lon="-16.5793230">
        <ele>2369.0</ele>
        <time>2020-10-16T12:37:17Z</time>
      </trkpt>
      <trkpt lat="28.2755910" lon="-16.5796800">
        <ele>2370.0</ele>
        <time>2020-10-16T12:37:27Z</time>
      </trkpt>
      <trkpt lat="28.2755440" lon="-16.5798580">
        <ele>2370.8</ele>
        <time>2020-10-16T12:37:33Z</time>
      </trkpt>
      <trkpt lat="28.2755230" lon="-16.5799320">
        <ele>2371.6</ele>
        <time>2020-10-16T12:37:36Z</time>
      </trkpt>
      <trkpt lat="28.2755100" lon="-16.5799750">
        <ele>2372.0</ele>
        <time>2020-10-16T12:37:38Z</time>
      </trkpt>
      <trkpt lat="28.2754650" lon="-16.5801810">
        <ele>2373.2</ele>
        <time>2020-10-16T12:37:45Z</time>
      </trkpt>
      <trkpt lat="28.2754450" lon="-16.5802700">
        <ele>2374.2</ele>
        <time>2020-10-16T12:37:50Z</time>
      </trkpt>
      <trkpt lat="28.2754450" lon="-16.5802780">
        <ele>2374.2</ele>
        <time>2020-10-16T12:37:52Z</time>
      </trkpt>
      <trkpt lat="28.2754290" lon="-16.5803210">
        <ele>2374.2</ele>
        <time>2020-10-16T12:38:41Z</time>
      </trkpt>
      <trkpt lat="28.2754130" lon="-16.5803510">
        <ele>2374.2</ele>
        <time>2020-10-16T12:38:42Z</time>
      </trkpt>
      <trkpt lat="28.2752170" lon="-16.5805370">
        <ele>2374.2</ele>
        <time>2020-10-16T12:38:49Z</time>
      </trkpt>
      <trkpt lat="28.2750400" lon="-16.5806050">
        <ele>2374.8</ele>
        <time>2020-10-16T12:38:54Z</time>
      </trkpt>
      <trkpt lat="28.2750030" lon="-16.5806110">
        <ele>2375.0</ele>
        <time>2020-10-16T12:38:55Z</time>
      </trkpt>
      <trkpt lat="28.2748920" lon="-16.5806050">
        <ele>2376.0</ele>
        <time>2020-10-16T12:38:58Z</time>
      </trkpt>
      <trkpt lat="28.2746170" lon="-16.5804000">
        <ele>2377.0</ele>
        <time>2020-10-16T12:39:07Z</time>
      </trkpt>
      <trkpt lat="28.2744810" lon="-16.5801840">
        <ele>2377.4</ele>
        <time>2020-10-16T12:39:13Z</time>
      </trkpt>
      <trkpt lat="28.2743990" lon="-16.5800700">
        <ele>2377.4</ele>
        <time>2020-10-16T12:39:16Z</time>
      </trkpt>
      <trkpt lat="28.2743510" lon="-16.5799870">
        <ele>2378.0</ele>
        <time>2020-10-16T12:39:18Z</time>
      </trkpt>
      <trkpt lat="28.2742440" lon="-16.5797870">
        <ele>2378.8</ele>
        <time>2020-10-16T12:39:23Z</time>
      </trkpt>
      <trkpt lat="28.2742190" lon="-16.5797510">
        <ele>2379.2</ele>
        <time>2020-10-16T12:39:24Z</time>
      </trkpt>
      <trkpt lat="28.2740680" lon="-16.5796060">
        <ele>2380.4</ele>
        <time>2020-10-16T12:39:29Z</time>
      </trkpt>
      <trkpt lat="28.2740320" lon="-16.5795840">
        <ele>2380.6</ele>
        <time>2020-10-16T12:39:30Z</time>
      </trkpt>
      <trkpt lat="28.2739100" lon="-16.5795350">
        <ele>2381.8</ele>
        <time>2020-10-16T12:39:33Z</time>
      </trkpt>
      <trkpt lat="28.2737130" lon="-16.5795290">
        <ele>2382.6</ele>
        <time>2020-10-16T12:39:37Z</time>
      </trkpt>
      <trkpt lat="28.2736620" lon="-16.5795350">
        <ele>2382.8</ele>
        <time>2020-10-16T12:39:38Z</time>
      </trkpt>
      <trkpt lat="28.2731260" lon="-16.5796580">
        <ele>2383.0</ele>
        <time>2020-10-16T12:39:49Z</time>
      </trkpt>
      <trkpt lat="28.2728650" lon="-16.5797170">
        <ele>2384.0</ele>
        <time>2020-10-16T12:39:56Z</time>
      </trkpt>
      <trkpt lat="28.2726530" lon="-16.5797600">
        <ele>2385.2</ele>
        <time>2020-10-16T12:40:02Z</time>
      </trkpt>
      <trkpt lat="28.2724880" lon="-16.5797930">
        <ele>2386.6</ele>
        <time>2020-10-16T12:40:07Z</time>
      </trkpt>
      <trkpt lat="28.2723520" lon="-16.5798180">
        <ele>2388.0</ele>
        <time>2020-10-16T12:40:11Z</time>
      </trkpt>
      <trkpt lat="28.2722150" lon="-16.5798420">
        <ele>2389.0</ele>
        <time>2020-10-16T12:40:15Z</time>
      </trkpt>
      <trkpt lat="28.2720490" lon="-16.5798680">
        <ele>2390.4</ele>
        <time>2020-10-16T12:40:20Z</time>
      </trkpt>
      <trkpt lat="28.2718750" lon="-16.5798890">
        <ele>2391.6</ele>
        <time>2020-10-16T12:40:25Z</time>
      </trkpt>
      <trkpt lat="28.2716640" lon="-16.5799180">
        <ele>2392.6</ele>
        <time>2020-10-16T12:40:31Z</time>
      </trkpt>
      <trkpt lat="28.2714910" lon="-16.5799450">
        <ele>2393.8</ele>
        <time>2020-10-16T12:40:36Z</time>
      </trkpt>
      <trkpt lat="28.2712910" lon="-16.5799870">
        <ele>2394.8</ele>
        <time>2020-10-16T12:40:42Z</time>
      </trkpt>
      <trkpt lat="28.2711020" lon="-16.5800790">
        <ele>2395.8</ele>
        <time>2020-10-16T12:40:48Z</time>
      </trkpt>
      <trkpt lat="28.2709600" lon="-16.5801950">
        <ele>2397.0</ele>
        <time>2020-10-16T12:40:53Z</time>
      </trkpt>
      <trkpt lat="28.2707790" lon="-16.5803640">
        <ele>2398.0</ele>
        <time>2020-10-16T12:41:00Z</time>
      </trkpt>
      <trkpt lat="28.2706780" lon="-16.5804530">
        <ele>2399.4</ele>
        <time>2020-10-16T12:41:04Z</time>
      </trkpt>
      <trkpt lat="28.2705600" lon="-16.5805830">
        <ele>2400.6</ele>
        <time>2020-10-16T12:41:09Z</time>
      </trkpt>
      <trkpt lat="28.2704290" lon="-16.5808440">
        <ele>2401.8</ele>
        <time>2020-10-16T12:41:17Z</time>
      </trkpt>
      <trkpt lat="28.2703670" lon="-16.5809750">
        <ele>2402.8</ele>
        <time>2020-10-16T12:41:21Z</time>
      </trkpt>
      <trkpt lat="28.2703090" lon="-16.5810990">
        <ele>2403.8</ele>
        <time>2020-10-16T12:41:25Z</time>
      </trkpt>
      <trkpt lat="28.2702530" lon="-16.5812290">
        <ele>2404.8</ele>
        <time>2020-10-16T12:41:29Z</time>
      </trkpt>
      <trkpt lat="28.2702050" lon="-16.5813330">
        <ele>2405.8</ele>
        <time>2020-10-16T12:41:32Z</time>
      </trkpt>
      <trkpt lat="28.2701440" lon="-16.5814680">
        <ele>2407.0</ele>
        <time>2020-10-16T12:41:36Z</time>
      </trkpt>
      <trkpt lat="28.2700510" lon="-16.5816290">
        <ele>2408.2</ele>
        <time>2020-10-16T12:41:41Z</time>
      </trkpt>
      <trkpt lat="28.2699440" lon="-16.5817260">
        <ele>2409.4</ele>
        <time>2020-10-16T12:41:45Z</time>
      </trkpt>
      <trkpt lat="28.2697650" lon="-16.5818300">
        <ele>2410.4</ele>
        <time>2020-10-16T12:41:51Z</time>
      </trkpt>
      <trkpt lat="28.2696100" lon="-16.5818970">
        <ele>2411.6</ele>
        <time>2020-10-16T12:41:56Z</time>
      </trkpt>
      <trkpt lat="28.2694800" lon="-16.5819510">
        <ele>2412.8</ele>
        <time>2020-10-16T12:42:00Z</time>
      </trkpt>
      <trkpt lat="28.2693450" lon="-16.5820010">
        <ele>2413.8</ele>
        <time>2020-10-16T12:42:04Z</time>
      </trkpt>
      <trkpt lat="28.2692210" lon="-16.5820790">
        <ele>2415.0</ele>
        <time>2020-10-16T12:42:08Z</time>
      </trkpt>
      <trkpt lat="28.2691110" lon="-16.5822360">
        <ele>2416.0</ele>
        <time>2020-10-16T12:42:13Z</time>
      </trkpt>
      <trkpt lat="28.2690030" lon="-16.5826700">
        <ele>2417.4</ele>
        <time>2020-10-16T12:42:24Z</time>
      </trkpt>
      <trkpt lat="28.2689610" lon="-16.5828290">
        <ele>2418.4</ele>
        <time>2020-10-16T12:42:28Z</time>
      </trkpt>
      <trkpt lat="28.2689150" lon="-16.5830320">
        <ele>2419.6</ele>
        <time>2020-10-16T12:42:33Z</time>
      </trkpt>
      <trkpt lat="28.2687890" lon="-16.5836020">
        <ele>2420.6</ele>
        <time>2020-10-16T12:42:47Z</time>
      </trkpt>
      <trkpt lat="28.2687290" lon="-16.5838850">
        <ele>2421.6</ele>
        <time>2020-10-16T12:42:54Z</time>
      </trkpt>
      <trkpt lat="28.2686770" lon="-16.5841270">
        <ele>2422.6</ele>
        <time>2020-10-16T12:43:00Z</time>
      </trkpt>
      <trkpt lat="28.2686150" lon="-16.5844080">
        <ele>2423.8</ele>
        <time>2020-10-16T12:43:07Z</time>
      </trkpt>
      <trkpt lat="28.2685660" lon="-16.5846160">
        <ele>2424.8</ele>
        <time>2020-10-16T12:43:12Z</time>
      </trkpt>
      <trkpt lat="28.2684870" lon="-16.5849370">
        <ele>2425.6</ele>
        <time>2020-10-16T12:43:20Z</time>
      </trkpt>
      <trkpt lat="28.2684430" lon="-16.5851410">
        <ele>2426.8</ele>
        <time>2020-10-16T12:43:25Z</time>
      </trkpt>
      <trkpt lat="28.2683940" lon="-16.5853410">
        <ele>2427.8</ele>
        <time>2020-10-16T12:43:30Z</time>
      </trkpt>
      <trkpt lat="28.2683490" lon="-16.5854990">
        <ele>2428.8</ele>
        <time>2020-10-16T12:43:34Z</time>
      </trkpt>
      <trkpt lat="28.2681460" lon="-16.5858650">
        <ele>2429.8</ele>
        <time>2020-10-16T12:43:43Z</time>
      </trkpt>
      <trkpt lat="28.2681130" lon="-16.5859050">
        <ele>2429.8</ele>
        <time>2020-10-16T12:43:44Z</time>
      </trkpt>
      <trkpt lat="28.2677950" lon="-16.5862640">
        <ele>2429.8</ele>
        <time>2020-10-16T12:43:53Z</time>
      </trkpt>
      <trkpt lat="28.2676250" lon="-16.5864700">
        <ele>2429.8</ele>
        <time>2020-10-16T12:43:58Z</time>
      </trkpt>
      <trkpt lat="28.2675590" lon="-16.5865470">
        <ele>2429.8</ele>
        <time>2020-10-16T12:44:00Z</time>
      </trkpt>
      <trkpt lat="28.2671600" lon="-16.5870020">
        <ele>2430.4</ele>
        <time>2020-10-16T12:44:13Z</time>
      </trkpt>
      <trkpt lat="28.2671020" lon="-16.5870710">
        <ele>2430.8</ele>
        <time>2020-10-16T12:44:15Z</time>
      </trkpt>
      <trkpt lat="28.2669590" lon="-16.5872420">
        <ele>2431.8</ele>
        <time>2020-10-16T12:44:20Z</time>
      </trkpt>
      <trkpt lat="28.2667000" lon="-16.5875600">
        <ele>2433.0</ele>
        <time>2020-10-16T12:44:29Z</time>
      </trkpt>
      <trkpt lat="28.2664970" lon="-16.5878000">
        <ele>2434.0</ele>
        <time>2020-10-16T12:44:36Z</time>
      </trkpt>
      <trkpt lat="28.2662940" lon="-16.5880300">
        <ele>2435.2</ele>
        <time>2020-10-16T12:44:43Z</time>
      </trkpt>
      <trkpt lat="28.2661000" lon="-16.5882650">
        <ele>2436.2</ele>
        <time>2020-10-16T12:44:50Z</time>
      </trkpt>
      <trkpt lat="28.2658590" lon="-16.5885460">
        <ele>2437.2</ele>
        <time>2020-10-16T12:44:59Z</time>
      </trkpt>
      <trkpt lat="28.2656410" lon="-16.5887910">
        <ele>2438.4</ele>
        <time>2020-10-16T12:45:07Z</time>
      </trkpt>
      <trkpt lat="28.2654260" lon="-16.5890400">
        <ele>2439.4</ele>
        <time>2020-10-16T12:45:15Z</time>
      </trkpt>
      <trkpt lat="28.2651730" lon="-16.5893330">
        <ele>2440.2</ele>
        <time>2020-10-16T12:45:24Z</time>
      </trkpt>
      <trkpt lat="28.2648280" lon="-16.5897400">
        <ele>2440.6</ele>
        <time>2020-10-16T12:45:35Z</time>
      </trkpt>
      <trkpt lat="28.2644300" lon="-16.5902100">
        <ele>2441.2</ele>
        <time>2020-10-16T12:45:46Z</time>
      </trkpt>
      <trkpt lat="28.2643500" lon="-16.5902990">
        <ele>2441.2</ele>
        <time>2020-10-16T12:45:48Z</time>
      </trkpt>
      <trkpt lat="28.2640780" lon="-16.5906230">
        <ele>2442.4</ele>
        <time>2020-10-16T12:45:55Z</time>
      </trkpt>
      <trkpt lat="28.2639620" lon="-16.5907590">
        <ele>2442.6</ele>
        <time>2020-10-16T12:45:58Z</time>
      </trkpt>
      <trkpt lat="28.2635820" lon="-16.5911950">
        <ele>2442.6</ele>
        <time>2020-10-16T12:46:08Z</time>
      </trkpt>
      <trkpt lat="28.2631750" lon="-16.5916760">
        <ele>2442.6</ele>
        <time>2020-10-16T12:46:18Z</time>
      </trkpt>
      <trkpt lat="28.2628390" lon="-16.5920610">
        <ele>2443.2</ele>
        <time>2020-10-16T12:46:26Z</time>
      </trkpt>
      <trkpt lat="28.2627460" lon="-16.5921530">
        <ele>2443.4</ele>
        <time>2020-10-16T12:46:28Z</time>
      </trkpt>
      <trkpt lat="28.2622060" lon="-16.5923040">
        <ele>2444.0</ele>
        <time>2020-10-16T12:46:37Z</time>
      </trkpt>
      <trkpt lat="28.2617360" lon="-16.5923740">
        <ele>2444.0</ele>
        <time>2020-10-16T12:46:45Z</time>
      </trkpt>
      <trkpt lat="28.2614780" lon="-16.5925130">
        <ele>2444.0</ele>
        <time>2020-10-16T12:46:50Z</time>
      </trkpt>
      <trkpt lat="28.2613300" lon="-16.5926240">
        <ele>2444.0</ele>
        <time>2020-10-16T12:46:53Z</time>
      </trkpt>
      <trkpt lat="28.2608720" lon="-16.5929570">
        <ele>2444.4</ele>
        <time>2020-10-16T12:47:02Z</time>
      </trkpt>
      <trkpt lat="28.2606300" lon="-16.5931430">
        <ele>2444.8</ele>
        <time>2020-10-16T12:47:07Z</time>
      </trkpt>
      <trkpt lat="28.2605830" lon="-16.5931760">
        <ele>2445.0</ele>
        <time>2020-10-16T12:47:08Z</time>
      </trkpt>
      <trkpt lat="28.2604260" lon="-16.5933050">
        <ele>2445.6</ele>
        <time>2020-10-16T12:47:12Z</time>
      </trkpt>
      <trkpt lat="28.2603510" lon="-16.5934200">
        <ele>2446.0</ele>
        <time>2020-10-16T12:47:15Z</time>
      </trkpt>
      <trkpt lat="28.2603210" lon="-16.5936430">
        <ele>2446.6</ele>
        <time>2020-10-16T12:47:20Z</time>
      </trkpt>
      <trkpt lat="28.2603270" lon="-16.5937800">
        <ele>2447.4</ele>
        <time>2020-10-16T12:47:23Z</time>
      </trkpt>
      <trkpt lat="28.2603340" lon="-16.5940140">
        <ele>2448.4</ele>
        <time>2020-10-16T12:47:28Z</time>
      </trkpt>
      <trkpt lat="28.2603420" lon="-16.5942410">
        <ele>2449.4</ele>
        <time>2020-10-16T12:47:33Z</time>
      </trkpt>
      <trkpt lat="28.2603450" lon="-16.5944650">
        <ele>2450.6</ele>
        <time>2020-10-16T12:47:38Z</time>
      </trkpt>
      <trkpt lat="28.2603780" lon="-16.5946750">
        <ele>2451.8</ele>
        <time>2020-10-16T12:47:43Z</time>
      </trkpt>
      <trkpt lat="28.2605300" lon="-16.5949990">
        <ele>2452.6</ele>
        <time>2020-10-16T12:47:51Z</time>
      </trkpt>
      <trkpt lat="28.2605550" lon="-16.5950380">
        <ele>2452.8</ele>
        <time>2020-10-16T12:47:52Z</time>
      </trkpt>
      <trkpt lat="28.2608960" lon="-16.5955350">
        <ele>2453.6</ele>
        <time>2020-10-16T12:48:05Z</time>
      </trkpt>
      <trkpt lat="28.2613060" lon="-16.5959750">
        <ele>2453.6</ele>
        <time>2020-10-16T12:48:18Z</time>
      </trkpt>
      <trkpt lat="28.2614210" lon="-16.5960590">
        <ele>2453.6</ele>
        <time>2020-10-16T12:48:21Z</time>
      </trkpt>
      <trkpt lat="28.2614970" lon="-16.5961180">
        <ele>2453.8</ele>
        <time>2020-10-16T12:48:23Z</time>
      </trkpt>
      <trkpt lat="28.2616410" lon="-16.5963860">
        <ele>2454.8</ele>
        <time>2020-10-16T12:48:29Z</time>
      </trkpt>
      <trkpt lat="28.2615960" lon="-16.5966020">
        <ele>2455.8</ele>
        <time>2020-10-16T12:48:33Z</time>
      </trkpt>
      <trkpt lat="28.2614040" lon="-16.5968170">
        <ele>2456.2</ele>
        <time>2020-10-16T12:48:38Z</time>
      </trkpt>
      <trkpt lat="28.2613550" lon="-16.5968430">
        <ele>2456.2</ele>
        <time>2020-10-16T12:48:39Z</time>
      </trkpt>
      <trkpt lat="28.2611500" lon="-16.5968940">
        <ele>2456.4</ele>
        <time>2020-10-16T12:48:43Z</time>
      </trkpt>
      <trkpt lat="28.2609990" lon="-16.5969190">
        <ele>2456.8</ele>
        <time>2020-10-16T12:48:46Z</time>
      </trkpt>
      <trkpt lat="28.2604470" lon="-16.5970280">
        <ele>2457.4</ele>
        <time>2020-10-16T12:48:57Z</time>
      </trkpt>
      <trkpt lat="28.2603510" lon="-16.5970510">
        <ele>2457.6</ele>
        <time>2020-10-16T12:48:59Z</time>
      </trkpt>
      <trkpt lat="28.2602130" lon="-16.5971030">
        <ele>2458.2</ele>
        <time>2020-10-16T12:49:02Z</time>
      </trkpt>
      <trkpt lat="28.2601300" lon="-16.5971560">
        <ele>2458.6</ele>
        <time>2020-10-16T12:49:04Z</time>
      </trkpt>
      <trkpt lat="28.2600930" lon="-16.5971890">
        <ele>2458.8</ele>
        <time>2020-10-16T12:49:05Z</time>
      </trkpt>
      <trkpt lat="28.2600570" lon="-16.5972250">
        <ele>2459.0</ele>
        <time>2020-10-16T12:49:06Z</time>
      </trkpt>
      <trkpt lat="28.2598830" lon="-16.5974190">
        <ele>2460.0</ele>
        <time>2020-10-16T12:49:11Z</time>
      </trkpt>
      <trkpt lat="28.2597050" lon="-16.5976180">
        <ele>2461.0</ele>
        <time>2020-10-16T12:49:16Z</time>
      </trkpt>
      <trkpt lat="28.2593500" lon="-16.5980300">
        <ele>2462.0</ele>
        <time>2020-10-16T12:49:26Z</time>
      </trkpt>
      <trkpt lat="28.2592990" lon="-16.5981240">
        <ele>2462.6</ele>
        <time>2020-10-16T12:49:28Z</time>
      </trkpt>
      <trkpt lat="28.2591930" lon="-16.5985700">
        <ele>2463.0</ele>
        <time>2020-10-16T12:49:37Z</time>
      </trkpt>
      <trkpt lat="28.2591350" lon="-16.5988860">
        <ele>2463.2</ele>
        <time>2020-10-16T12:49:45Z</time>
      </trkpt>
      <trkpt lat="28.2590740" lon="-16.5992070">
        <ele>2464.2</ele>
        <time>2020-10-16T12:49:53Z</time>
      </trkpt>
      <trkpt lat="28.2590700" lon="-16.5993240">
        <ele>2465.2</ele>
        <time>2020-10-16T12:49:56Z</time>
      </trkpt>
      <trkpt lat="28.2590950" lon="-16.5994780">
        <ele>2466.2</ele>
        <time>2020-10-16T12:50:00Z</time>
      </trkpt>
      <trkpt lat="28.2591740" lon="-16.5996480">
        <ele>2467.4</ele>
        <time>2020-10-16T12:50:05Z</time>
      </trkpt>
      <trkpt lat="28.2592260" lon="-16.5997450">
        <ele>2468.4</ele>
        <time>2020-10-16T12:50:08Z</time>
      </trkpt>
      <trkpt lat="28.2593340" lon="-16.5999460">
        <ele>2469.6</ele>
        <time>2020-10-16T12:50:14Z</time>
      </trkpt>
      <trkpt lat="28.2594210" lon="-16.6001110">
        <ele>2470.6</ele>
        <time>2020-10-16T12:50:19Z</time>
      </trkpt>
      <trkpt lat="28.2594710" lon="-16.6002060">
        <ele>2471.8</ele>
        <time>2020-10-16T12:50:22Z</time>
      </trkpt>
      <trkpt lat="28.2595350" lon="-16.6003250">
        <ele>2473.2</ele>
        <time>2020-10-16T12:50:26Z</time>
      </trkpt>
      <trkpt lat="28.2596270" lon="-16.6005090">
        <ele>2474.2</ele>
        <time>2020-10-16T12:50:32Z</time>
      </trkpt>
      <trkpt lat="28.2597430" lon="-16.6007170">
        <ele>2474.8</ele>
        <time>2020-10-16T12:50:39Z</time>
      </trkpt>
      <trkpt lat="28.2598110" lon="-16.6008690">
        <ele>2475.4</ele>
        <time>2020-10-16T12:50:44Z</time>
      </trkpt>
      <trkpt lat="28.2598300" lon="-16.6009650">
        <ele>2476.4</ele>
        <time>2020-10-16T12:50:47Z</time>
      </trkpt>
      <trkpt lat="28.2598330" lon="-16.6011340">
        <ele>2477.4</ele>
        <time>2020-10-16T12:50:52Z</time>
      </trkpt>
      <trkpt lat="28.2598030" lon="-16.6013040">
        <ele>2478.4</ele>
        <time>2020-10-16T12:50:57Z</time>
      </trkpt>
      <trkpt lat="28.2597780" lon="-16.6014380">
        <ele>2479.6</ele>
        <time>2020-10-16T12:51:01Z</time>
      </trkpt>
      <trkpt lat="28.2597510" lon="-16.6016020">
        <ele>2480.2</ele>
        <time>2020-10-16T12:51:06Z</time>
      </trkpt>
      <trkpt lat="28.2597340" lon="-16.6017010">
        <ele>2480.8</ele>
        <time>2020-10-16T12:51:09Z</time>
      </trkpt>
      <trkpt lat="28.2597060" lon="-16.6018330">
        <ele>2482.0</ele>
        <time>2020-10-16T12:51:13Z</time>
      </trkpt>
      <trkpt lat="28.2596810" lon="-16.6020050">
        <ele>2483.0</ele>
        <time>2020-10-16T12:51:18Z</time>
      </trkpt>
      <trkpt lat="28.2596560" lon="-16.6021780">
        <ele>2484.0</ele>
        <time>2020-10-16T12:51:23Z</time>
      </trkpt>
      <trkpt lat="28.2596120" lon="-16.6024640">
        <ele>2485.0</ele>
        <time>2020-10-16T12:51:31Z</time>
      </trkpt>
      <trkpt lat="28.2595820" lon="-16.6026410">
        <ele>2486.2</ele>
        <time>2020-10-16T12:51:36Z</time>
      </trkpt>
      <trkpt lat="28.2595510" lon="-16.6028530">
        <ele>2487.4</ele>
        <time>2020-10-16T12:51:42Z</time>
      </trkpt>
      <trkpt lat="28.2595100" lon="-16.6031110">
        <ele>2488.6</ele>
        <time>2020-10-16T12:51:49Z</time>
      </trkpt>
      <trkpt lat="28.2594780" lon="-16.6033420">
        <ele>2489.6</ele>
        <time>2020-10-16T12:51:55Z</time>
      </trkpt>
      <trkpt lat="28.2594490" lon="-16.6034880">
        <ele>2490.6</ele>
        <time>2020-10-16T12:51:59Z</time>
      </trkpt>
      <trkpt lat="28.2594150" lon="-16.6037090">
        <ele>2491.8</ele>
        <time>2020-10-16T12:52:05Z</time>
      </trkpt>
      <trkpt lat="28.2593880" lon="-16.6038560">
        <ele>2492.8</ele>
        <time>2020-10-16T12:52:09Z</time>
      </trkpt>
      <trkpt lat="28.2591190" lon="-16.6044160">
        <ele>2493.2</ele>
        <time>2020-10-16T12:52:25Z</time>
      </trkpt>
      <trkpt lat="28.2590270" lon="-16.6045960">
        <ele>2493.6</ele>
        <time>2020-10-16T12:52:30Z</time>
      </trkpt>
      <trkpt lat="28.2589570" lon="-16.6047460">
        <ele>2494.8</ele>
        <time>2020-10-16T12:52:34Z</time>
      </trkpt>
      <trkpt lat="28.2588850" lon="-16.6051730">
        <ele>2495.8</ele>
        <time>2020-10-16T12:52:44Z</time>
      </trkpt>
      <trkpt lat="28.2590040" lon="-16.6055800">
        <ele>2496.8</ele>
        <time>2020-10-16T12:52:54Z</time>
      </trkpt>
      <trkpt lat="28.2593350" lon="-16.6060410">
        <ele>2497.8</ele>
        <time>2020-10-16T12:53:07Z</time>
      </trkpt>
      <trkpt lat="28.2595300" lon="-16.6063490">
        <ele>2498.0</ele>
        <time>2020-10-16T12:53:15Z</time>
      </trkpt>
      <trkpt lat="28.2595730" lon="-16.6064770">
        <ele>2498.0</ele>
        <time>2020-10-16T12:53:18Z</time>
      </trkpt>
      <trkpt lat="28.2595800" lon="-16.6067070">
        <ele>2498.0</ele>
        <time>2020-10-16T12:53:23Z</time>
      </trkpt>
      <trkpt lat="28.2595420" lon="-16.6072620">
        <ele>2499.0</ele>
        <time>2020-10-16T12:53:34Z</time>
      </trkpt>
      <trkpt lat="28.2595260" lon="-16.6075000">
        <ele>2500.0</ele>
        <time>2020-10-16T12:53:39Z</time>
      </trkpt>
      <trkpt lat="28.2595150" lon="-16.6076400">
        <ele>2501.2</ele>
        <time>2020-10-16T12:53:42Z</time>
      </trkpt>
      <trkpt lat="28.2595010" lon="-16.6078250">
        <ele>2502.4</ele>
        <time>2020-10-16T12:53:46Z</time>
      </trkpt>
      <trkpt lat="28.2594980" lon="-16.6079180">
        <ele>2503.2</ele>
        <time>2020-10-16T12:53:48Z</time>
      </trkpt>
      <trkpt lat="28.2594930" lon="-16.6080090">
        <ele>2503.4</ele>
        <time>2020-10-16T12:53:50Z</time>
      </trkpt>
      <trkpt lat="28.2594850" lon="-16.6081480">
        <ele>2504.6</ele>
        <time>2020-10-16T12:53:53Z</time>
      </trkpt>
      <trkpt lat="28.2594600" lon="-16.6082880">
        <ele>2505.4</ele>
        <time>2020-10-16T12:53:56Z</time>
      </trkpt>
      <trkpt lat="28.2594320" lon="-16.6083810">
        <ele>2505.8</ele>
        <time>2020-10-16T12:53:58Z</time>
      </trkpt>
      <trkpt lat="28.2593680" lon="-16.6085210">
        <ele>2506.6</ele>
        <time>2020-10-16T12:54:01Z</time>
      </trkpt>
      <trkpt lat="28.2593120" lon="-16.6086160">
        <ele>2506.8</ele>
        <time>2020-10-16T12:54:03Z</time>
      </trkpt>
      <trkpt lat="28.2590510" lon="-16.6090470">
        <ele>2507.2</ele>
        <time>2020-10-16T12:54:11Z</time>
      </trkpt>
      <trkpt lat="28.2588110" lon="-16.6094570">
        <ele>2507.0</ele>
        <time>2020-10-16T12:54:18Z</time>
      </trkpt>
      <trkpt lat="28.2586370" lon="-16.6097470">
        <ele>2505.6</ele>
        <time>2020-10-16T12:54:23Z</time>
      </trkpt>
      <trkpt lat="28.2585590" lon="-16.6098710">
        <ele>2504.6</ele>
        <time>2020-10-16T12:54:25Z</time>
      </trkpt>
      <trkpt lat="28.2582600" lon="-16.6103860">
        <ele>2503.4</ele>
        <time>2020-10-16T12:54:33Z</time>
      </trkpt>
      <trkpt lat="28.2582220" lon="-16.6104520">
        <ele>2503.4</ele>
        <time>2020-10-16T12:54:34Z</time>
      </trkpt>
      <trkpt lat="28.2579460" lon="-16.6109110">
        <ele>2502.4</ele>
        <time>2020-10-16T12:54:41Z</time>
      </trkpt>
      <trkpt lat="28.2579090" lon="-16.6109790">
        <ele>2502.2</ele>
        <time>2020-10-16T12:54:42Z</time>
      </trkpt>
      <trkpt lat="28.2578440" lon="-16.6111230">
        <ele>2502.2</ele>
        <time>2020-10-16T12:54:44Z</time>
      </trkpt>
      <trkpt lat="28.2577390" lon="-16.6116320">
        <ele>2501.2</ele>
        <time>2020-10-16T12:54:50Z</time>
      </trkpt>
      <trkpt lat="28.2576780" lon="-16.6120110">
        <ele>2500.0</ele>
        <time>2020-10-16T12:54:54Z</time>
      </trkpt>
      <trkpt lat="28.2576660" lon="-16.6122170">
        <ele>2497.6</ele>
        <time>2020-10-16T12:54:56Z</time>
      </trkpt>
      <trkpt lat="28.2576830" lon="-16.6123250">
        <ele>2496.4</ele>
        <time>2020-10-16T12:54:57Z</time>
      </trkpt>
      <trkpt lat="28.2577230" lon="-16.6124270">
        <ele>2495.2</ele>
        <time>2020-10-16T12:54:58Z</time>
      </trkpt>
      <trkpt lat="28.2579600" lon="-16.6126410">
        <ele>2494.0</ele>
        <time>2020-10-16T12:55:01Z</time>
      </trkpt>
      <trkpt lat="28.2583290" lon="-16.6128880">
        <ele>2493.2</ele>
        <time>2020-10-16T12:55:05Z</time>
      </trkpt>
      <trkpt lat="28.2584250" lon="-16.6129570">
        <ele>2492.8</ele>
        <time>2020-10-16T12:55:06Z</time>
      </trkpt>
      <trkpt lat="28.2585170" lon="-16.6130330">
        <ele>2492.2</ele>
        <time>2020-10-16T12:55:07Z</time>
      </trkpt>
      <trkpt lat="28.2586010" lon="-16.6131230">
        <ele>2491.4</ele>
        <time>2020-10-16T12:55:08Z</time>
      </trkpt>
      <trkpt lat="28.2587380" lon="-16.6133340">
        <ele>2490.0</ele>
        <time>2020-10-16T12:55:10Z</time>
      </trkpt>
      <trkpt lat="28.2588770" lon="-16.6135400">
        <ele>2488.8</ele>
        <time>2020-10-16T12:55:12Z</time>
      </trkpt>
      <trkpt lat="28.2590430" lon="-16.6137140">
        <ele>2487.8</ele>
        <time>2020-10-16T12:55:14Z</time>
      </trkpt>
      <trkpt lat="28.2592260" lon="-16.6138750">
        <ele>2486.2</ele>
        <time>2020-10-16T12:55:16Z</time>
      </trkpt>
      <trkpt lat="28.2594060" lon="-16.6140320">
        <ele>2484.4</ele>
        <time>2020-10-16T12:55:18Z</time>
      </trkpt>
      <trkpt lat="28.2594910" lon="-16.6141180">
        <ele>2484.0</ele>
        <time>2020-10-16T12:55:19Z</time>
      </trkpt>
      <trkpt lat="28.2596100" lon="-16.6143290">
        <ele>2483.2</ele>
        <time>2020-10-16T12:55:21Z</time>
      </trkpt>
      <trkpt lat="28.2596700" lon="-16.6145730">
        <ele>2483.0</ele>
        <time>2020-10-16T12:55:23Z</time>
      </trkpt>
      <trkpt lat="28.2597250" lon="-16.6148190">
        <ele>2482.0</ele>
        <time>2020-10-16T12:55:25Z</time>
      </trkpt>
      <trkpt lat="28.2597680" lon="-16.6150620">
        <ele>2481.4</ele>
        <time>2020-10-16T12:55:27Z</time>
      </trkpt>
      <trkpt lat="28.2597660" lon="-16.6151790">
        <ele>2481.0</ele>
        <time>2020-10-16T12:55:28Z</time>
      </trkpt>
      <trkpt lat="28.2596520" lon="-16.6153660">
        <ele>2479.8</ele>
        <time>2020-10-16T12:55:30Z</time>
      </trkpt>
      <trkpt lat="28.2594700" lon="-16.6154660">
        <ele>2478.2</ele>
        <time>2020-10-16T12:55:32Z</time>
      </trkpt>
      <trkpt lat="28.2593720" lon="-16.6154980">
        <ele>2477.6</ele>
        <time>2020-10-16T12:55:33Z</time>
      </trkpt>
      <trkpt lat="28.2592770" lon="-16.6155290">
        <ele>2477.0</ele>
        <time>2020-10-16T12:55:34Z</time>
      </trkpt>
      <trkpt lat="28.2590170" lon="-16.6156560">
        <ele>2475.8</ele>
        <time>2020-10-16T12:55:37Z</time>
      </trkpt>
      <trkpt lat="28.2588650" lon="-16.6159250">
        <ele>2474.6</ele>
        <time>2020-10-16T12:55:40Z</time>
      </trkpt>
      <trkpt lat="28.2588350" lon="-16.6160310">
        <ele>2474.4</ele>
        <time>2020-10-16T12:55:41Z</time>
      </trkpt>
      <trkpt lat="28.2587730" lon="-16.6162480">
        <ele>2474.0</ele>
        <time>2020-10-16T12:55:43Z</time>
      </trkpt>
      <trkpt lat="28.2587450" lon="-16.6163590">
        <ele>2473.6</ele>
        <time>2020-10-16T12:55:44Z</time>
      </trkpt>
      <trkpt lat="28.2586210" lon="-16.6168170">
        <ele>2472.6</ele>
        <time>2020-10-16T12:55:48Z</time>
      </trkpt>
      <trkpt lat="28.2585540" lon="-16.6170450">
        <ele>2471.6</ele>
        <time>2020-10-16T12:55:50Z</time>
      </trkpt>
      <trkpt lat="28.2584890" lon="-16.6172750">
        <ele>2470.2</ele>
        <time>2020-10-16T12:55:52Z</time>
      </trkpt>
      <trkpt lat="28.2583910" lon="-16.6176240">
        <ele>2469.0</ele>
        <time>2020-10-16T12:55:55Z</time>
      </trkpt>
      <trkpt lat="28.2583050" lon="-16.6178440">
        <ele>2468.4</ele>
        <time>2020-10-16T12:55:57Z</time>
      </trkpt>
      <trkpt lat="28.2581580" lon="-16.6180060">
        <ele>2467.6</ele>
        <time>2020-10-16T12:55:59Z</time>
      </trkpt>
      <trkpt lat="28.2578740" lon="-16.6181290">
        <ele>2466.8</ele>
        <time>2020-10-16T12:56:02Z</time>
      </trkpt>
      <trkpt lat="28.2577790" lon="-16.6181600">
        <ele>2466.2</ele>
        <time>2020-10-16T12:56:03Z</time>
      </trkpt>
      <trkpt lat="28.2573860" lon="-16.6182210">
        <ele>2464.8</ele>
        <time>2020-10-16T12:56:07Z</time>
      </trkpt>
      <trkpt lat="28.2569790" lon="-16.6182400">
        <ele>2463.6</ele>
        <time>2020-10-16T12:56:11Z</time>
      </trkpt>
      <trkpt lat="28.2565810" lon="-16.6182830">
        <ele>2462.8</ele>
        <time>2020-10-16T12:56:14Z</time>
      </trkpt>
      <trkpt lat="28.2564910" lon="-16.6183210">
        <ele>2462.4</ele>
        <time>2020-10-16T12:56:16Z</time>
      </trkpt>
      <trkpt lat="28.2562550" lon="-16.6186330">
        <ele>2461.2</ele>
        <time>2020-10-16T12:56:20Z</time>
      </trkpt>
      <trkpt lat="28.2560490" lon="-16.6189200">
        <ele>2460.0</ele>
        <time>2020-10-16T12:56:24Z</time>
      </trkpt>
      <trkpt lat="28.2559470" lon="-16.6190610">
        <ele>2458.8</ele>
        <time>2020-10-16T12:56:26Z</time>
      </trkpt>
      <trkpt lat="28.2557050" lon="-16.6193910">
        <ele>2457.8</ele>
        <time>2020-10-16T12:56:31Z</time>
      </trkpt>
      <trkpt lat="28.2556600" lon="-16.6194550">
        <ele>2457.8</ele>
        <time>2020-10-16T12:56:32Z</time>
      </trkpt>
      <trkpt lat="28.2553860" lon="-16.6199000">
        <ele>2457.8</ele>
        <time>2020-10-16T12:56:39Z</time>
      </trkpt>
      <trkpt lat="28.2551930" lon="-16.6204830">
        <ele>2458.0</ele>
        <time>2020-10-16T12:56:47Z</time>
      </trkpt>
      <trkpt lat="28.2549960" lon="-16.6211010">
        <ele>2457.4</ele>
        <time>2020-10-16T12:56:55Z</time>
      </trkpt>
      <trkpt lat="28.2550000" lon="-16.6213460">
        <ele>2456.8</ele>
        <time>2020-10-16T12:56:58Z</time>
      </trkpt>
      <trkpt lat="28.2550050" lon="-16.6215040">
        <ele>2456.0</ele>
        <time>2020-10-16T12:57:00Z</time>
      </trkpt>
      <trkpt lat="28.2549980" lon="-16.6215810">
        <ele>2455.6</ele>
        <time>2020-10-16T12:57:01Z</time>
      </trkpt>
      <trkpt lat="28.2549010" lon="-16.6218610">
        <ele>2454.4</ele>
        <time>2020-10-16T12:57:05Z</time>
      </trkpt>
      <trkpt lat="28.2546920" lon="-16.6222350">
        <ele>2453.4</ele>
        <time>2020-10-16T12:57:11Z</time>
      </trkpt>
      <trkpt lat="28.2549120" lon="-16.6224610">
        <ele>2452.4</ele>
        <time>2020-10-16T12:57:16Z</time>
      </trkpt>
      <trkpt lat="28.2550350" lon="-16.6225280">
        <ele>2452.4</ele>
        <time>2020-10-16T12:57:19Z</time>
      </trkpt>
      <trkpt lat="28.2551470" lon="-16.6225910">
        <ele>2452.4</ele>
        <time>2020-10-16T12:57:22Z</time>
      </trkpt>
      <trkpt lat="28.2552470" lon="-16.6226460">
        <ele>2453.4</ele>
        <time>2020-10-16T12:57:25Z</time>
      </trkpt>
      <trkpt lat="28.2553140" lon="-16.6226810">
        <ele>2454.6</ele>
        <time>2020-10-16T12:57:27Z</time>
      </trkpt>
      <trkpt lat="28.2554530" lon="-16.6227730">
        <ele>2455.6</ele>
        <time>2020-10-16T12:57:32Z</time>
      </trkpt>
      <trkpt lat="28.2555640" lon="-16.6228380">
        <ele>2456.8</ele>
        <time>2020-10-16T12:57:36Z</time>
      </trkpt>
      <trkpt lat="28.2556610" lon="-16.6228950">
        <ele>2458.0</ele>
        <time>2020-10-16T12:57:40Z</time>
      </trkpt>
      <trkpt lat="28.2556840" lon="-16.6229070">
        <ele>2458.6</ele>
        <time>2020-10-16T12:57:41Z</time>
      </trkpt>
      <trkpt lat="28.2557110" lon="-16.6229180">
        <ele>2459.0</ele>
        <time>2020-10-16T12:57:42Z</time>
      </trkpt>
      <trkpt lat="28.2557630" lon="-16.6229400">
        <ele>2460.2</ele>
        <time>2020-10-16T12:57:44Z</time>
      </trkpt>
      <trkpt lat="28.2558300" lon="-16.6229560">
        <ele>2461.6</ele>
        <time>2020-10-16T12:57:47Z</time>
      </trkpt>
      <trkpt lat="28.2559310" lon="-16.6229870">
        <ele>2462.6</ele>
        <time>2020-10-16T12:57:50Z</time>
      </trkpt>
      <trkpt lat="28.2560040" lon="-16.6230180">
        <ele>2463.8</ele>
        <time>2020-10-16T12:57:54Z</time>
      </trkpt>
      <trkpt lat="28.2560780" lon="-16.6230490">
        <ele>2465.2</ele>
        <time>2020-10-16T12:57:57Z</time>
      </trkpt>
      <trkpt lat="28.2561400" lon="-16.6230920">
        <ele>2466.4</ele>
        <time>2020-10-16T12:58:00Z</time>
      </trkpt>
      <trkpt lat="28.2561980" lon="-16.6231440">
        <ele>2467.4</ele>
        <time>2020-10-16T12:58:03Z</time>
      </trkpt>
      <trkpt lat="28.2562470" lon="-16.6232080">
        <ele>2468.8</ele>
        <time>2020-10-16T12:58:06Z</time>
      </trkpt>
      <trkpt lat="28.2562900" lon="-16.6233060">
        <ele>2470.0</ele>
        <time>2020-10-16T12:58:10Z</time>
      </trkpt>
      <trkpt lat="28.2563250" lon="-16.6233990">
        <ele>2471.2</ele>
        <time>2020-10-16T12:58:14Z</time>
      </trkpt>
      <trkpt lat="28.2563440" lon="-16.6234980">
        <ele>2472.4</ele>
        <time>2020-10-16T12:58:18Z</time>
      </trkpt>
      <trkpt lat="28.2563610" lon="-16.6235920">
        <ele>2473.6</ele>
        <time>2020-10-16T12:58:22Z</time>
      </trkpt>
      <trkpt lat="28.2563270" lon="-16.6237590">
        <ele>2474.6</ele>
        <time>2020-10-16T12:58:29Z</time>
      </trkpt>
      <trkpt lat="28.2563250" lon="-16.6237770">
        <ele>2474.8</ele>
        <time>2020-10-16T12:58:30Z</time>
      </trkpt>
      <trkpt lat="28.2563430" lon="-16.6238100">
        <ele>2475.4</ele>
        <time>2020-10-16T12:58:34Z</time>
      </trkpt>
      <trkpt lat="28.2562620" lon="-16.6239860">
        <ele>2476.6</ele>
        <time>2020-10-16T13:11:55Z</time>
      </trkpt>
      <trkpt lat="28.2562500" lon="-16.6240340">
        <ele>2477.2</ele>
        <time>2020-10-16T13:11:58Z</time>
      </trkpt>
      <trkpt lat="28.2562260" lon="-16.6240650">
        <ele>2478.0</ele>
        <time>2020-10-16T13:12:00Z</time>
      </trkpt>
      <trkpt lat="28.2561860" lon="-16.6241090">
        <ele>2478.8</ele>
        <time>2020-10-16T13:12:03Z</time>
      </trkpt>
      <trkpt lat="28.2561420" lon="-16.6241520">
        <ele>2479.0</ele>
        <time>2020-10-16T13:12:06Z</time>
      </trkpt>
      <trkpt lat="28.2560880" lon="-16.6242230">
        <ele>2479.2</ele>
        <time>2020-10-16T13:12:10Z</time>
      </trkpt>
      <trkpt lat="28.2560300" lon="-16.6243170">
        <ele>2480.0</ele>
        <time>2020-10-16T13:12:15Z</time>
      </trkpt>
      <trkpt lat="28.2559800" lon="-16.6243890">
        <ele>2481.2</ele>
        <time>2020-10-16T13:12:19Z</time>
      </trkpt>
      <trkpt lat="28.2558890" lon="-16.6245360">
        <ele>2482.4</ele>
        <time>2020-10-16T13:12:26Z</time>
      </trkpt>
      <trkpt lat="28.2558420" lon="-16.6246250">
        <ele>2483.6</ele>
        <time>2020-10-16T13:12:30Z</time>
      </trkpt>
      <trkpt lat="28.2558090" lon="-16.6246990">
        <ele>2484.8</ele>
        <time>2020-10-16T13:12:33Z</time>
      </trkpt>
      <trkpt lat="28.2557300" lon="-16.6248340">
        <ele>2486.0</ele>
        <time>2020-10-16T13:12:39Z</time>
      </trkpt>
      <trkpt lat="28.2556840" lon="-16.6249250">
        <ele>2487.0</ele>
        <time>2020-10-16T13:12:43Z</time>
      </trkpt>
      <trkpt lat="28.2556360" lon="-16.6250030">
        <ele>2488.6</ele>
        <time>2020-10-16T13:12:46Z</time>
      </trkpt>
      <trkpt lat="28.2555910" lon="-16.6250910">
        <ele>2489.8</ele>
        <time>2020-10-16T13:12:49Z</time>
      </trkpt>
      <trkpt lat="28.2554650" lon="-16.6252850">
        <ele>2490.8</ele>
        <time>2020-10-16T13:12:56Z</time>
      </trkpt>
      <trkpt lat="28.2553790" lon="-16.6254130">
        <ele>2491.8</ele>
        <time>2020-10-16T13:13:01Z</time>
      </trkpt>
      <trkpt lat="28.2553270" lon="-16.6254750">
        <ele>2493.0</ele>
        <time>2020-10-16T13:13:04Z</time>
      </trkpt>
      <trkpt lat="28.2552620" lon="-16.6255630">
        <ele>2494.0</ele>
        <time>2020-10-16T13:13:08Z</time>
      </trkpt>
      <trkpt lat="28.2551090" lon="-16.6256940">
        <ele>2495.2</ele>
        <time>2020-10-16T13:13:16Z</time>
      </trkpt>
      <trkpt lat="28.2550310" lon="-16.6257510">
        <ele>2496.4</ele>
        <time>2020-10-16T13:13:20Z</time>
      </trkpt>
      <trkpt lat="28.2549440" lon="-16.6257690">
        <ele>2497.4</ele>
        <time>2020-10-16T13:13:25Z</time>
      </trkpt>
      <trkpt lat="28.2549320" lon="-16.6257730">
        <ele>2497.8</ele>
        <time>2020-10-16T13:13:26Z</time>
      </trkpt>
      <trkpt lat="28.2549170" lon="-16.6257780">
        <ele>2498.6</ele>
        <time>2020-10-16T13:13:28Z</time>
      </trkpt>
      <trkpt lat="28.2549170" lon="-16.6257770">
        <ele>2499.0</ele>
        <time>2020-10-16T13:13:29Z</time>
      </trkpt>
      <trkpt lat="28.2552880" lon="-16.6254770">
        <ele>2418.4</ele>
        <time>2020-10-16T14:31:46Z</time>
      </trkpt>
      <trkpt lat="28.2553300" lon="-16.6254310">
        <ele>2418.2</ele>
        <time>2020-10-16T14:31:47Z</time>
      </trkpt>
      <trkpt lat="28.2553770" lon="-16.6253830">
        <ele>2417.4</ele>
        <time>2020-10-16T14:31:48Z</time>
      </trkpt>
      <trkpt lat="28.2554260" lon="-16.6253280">
        <ele>2416.8</ele>
        <time>2020-10-16T14:31:49Z</time>
      </trkpt>
      <trkpt lat="28.2554750" lon="-16.6252630">
        <ele>2416.0</ele>
        <time>2020-10-16T14:31:50Z</time>
      </trkpt>
      <trkpt lat="28.2555240" lon="-16.6251890">
        <ele>2415.8</ele>
        <time>2020-10-16T14:31:51Z</time>
      </trkpt>
      <trkpt lat="28.2555750" lon="-16.6251080">
        <ele>2414.8</ele>
        <time>2020-10-16T14:31:52Z</time>
      </trkpt>
      <trkpt lat="28.2556270" lon="-16.6250220">
        <ele>2413.8</ele>
        <time>2020-10-16T14:31:53Z</time>
      </trkpt>
      <trkpt lat="28.2556780" lon="-16.6249340">
        <ele>2412.8</ele>
        <time>2020-10-16T14:31:54Z</time>
      </trkpt>
      <trkpt lat="28.2557290" lon="-16.6248450">
        <ele>2412.0</ele>
        <time>2020-10-16T14:31:55Z</time>
      </trkpt>
      <trkpt lat="28.2558380" lon="-16.6246600">
        <ele>2410.0</ele>
        <time>2020-10-16T14:31:57Z</time>
      </trkpt>
      <trkpt lat="28.2558920" lon="-16.6245630">
        <ele>2407.8</ele>
        <time>2020-10-16T14:31:58Z</time>
      </trkpt>
      <trkpt lat="28.2560030" lon="-16.6243690">
        <ele>2406.0</ele>
        <time>2020-10-16T14:32:00Z</time>
      </trkpt>
      <trkpt lat="28.2561090" lon="-16.6241840">
        <ele>2404.0</ele>
        <time>2020-10-16T14:32:02Z</time>
      </trkpt>
      <trkpt lat="28.2562120" lon="-16.6240000">
        <ele>2406.6</ele>
        <time>2020-10-16T14:32:04Z</time>
      </trkpt>
      <trkpt lat="28.2562580" lon="-16.6239090">
        <ele>2407.6</ele>
        <time>2020-10-16T14:32:05Z</time>
      </trkpt>
      <trkpt lat="28.2562960" lon="-16.6238180">
        <ele>2407.8</ele>
        <time>2020-10-16T14:32:06Z</time>
      </trkpt>
      <trkpt lat="28.2563420" lon="-16.6236270">
        <ele>2406.6</ele>
        <time>2020-10-16T14:32:08Z</time>
      </trkpt>
      <trkpt lat="28.2563350" lon="-16.6234050">
        <ele>2404.8</ele>
        <time>2020-10-16T14:32:10Z</time>
      </trkpt>
      <trkpt lat="28.2562310" lon="-16.6231850">
        <ele>2403.0</ele>
        <time>2020-10-16T14:32:12Z</time>
      </trkpt>
      <trkpt lat="28.2560370" lon="-16.6230230">
        <ele>2401.4</ele>
        <time>2020-10-16T14:32:14Z</time>
      </trkpt>
      <trkpt lat="28.2558000" lon="-16.6229390">
        <ele>2399.8</ele>
        <time>2020-10-16T14:32:16Z</time>
      </trkpt>
      <trkpt lat="28.2556760" lon="-16.6228910">
        <ele>2399.0</ele>
        <time>2020-10-16T14:32:17Z</time>
      </trkpt>
      <trkpt lat="28.2555570" lon="-16.6228300">
        <ele>2398.0</ele>
        <time>2020-10-16T14:32:18Z</time>
      </trkpt>
      <trkpt lat="28.2554460" lon="-16.6227630">
        <ele>2396.8</ele>
        <time>2020-10-16T14:32:19Z</time>
      </trkpt>
      <trkpt lat="28.2553370" lon="-16.6226970">
        <ele>2395.8</ele>
        <time>2020-10-16T14:32:20Z</time>
      </trkpt>
      <trkpt lat="28.2552300" lon="-16.6226350">
        <ele>2394.4</ele>
        <time>2020-10-16T14:32:21Z</time>
      </trkpt>
      <trkpt lat="28.2551260" lon="-16.6225760">
        <ele>2393.0</ele>
        <time>2020-10-16T14:32:22Z</time>
      </trkpt>
      <trkpt lat="28.2550270" lon="-16.6225170">
        <ele>2391.4</ele>
        <time>2020-10-16T14:32:23Z</time>
      </trkpt>
      <trkpt lat="28.2549340" lon="-16.6224620">
        <ele>2389.8</ele>
        <time>2020-10-16T14:32:24Z</time>
      </trkpt>
      <trkpt lat="28.2548480" lon="-16.6224130">
        <ele>2388.4</ele>
        <time>2020-10-16T14:32:25Z</time>
      </trkpt>
      <trkpt lat="28.2547680" lon="-16.6223770">
        <ele>2387.0</ele>
        <time>2020-10-16T14:32:26Z</time>
      </trkpt>
      <trkpt lat="28.2546920" lon="-16.6223630">
        <ele>2385.6</ele>
        <time>2020-10-16T14:32:27Z</time>
      </trkpt>
      <trkpt lat="28.2546260" lon="-16.6223780">
        <ele>2384.2</ele>
        <time>2020-10-16T14:32:28Z</time>
      </trkpt>
      <trkpt lat="28.2545720" lon="-16.6224210">
        <ele>2383.0</ele>
        <time>2020-10-16T14:32:29Z</time>
      </trkpt>
      <trkpt lat="28.2545340" lon="-16.6224830">
        <ele>2381.8</ele>
        <time>2020-10-16T14:32:30Z</time>
      </trkpt>
      <trkpt lat="28.2544860" lon="-16.6226310">
        <ele>2378.2</ele>
        <time>2020-10-16T14:32:32Z</time>
      </trkpt>
      <trkpt lat="28.2544330" lon="-16.6227860">
        <ele>2376.2</ele>
        <time>2020-10-16T14:32:34Z</time>
      </trkpt>
      <trkpt lat="28.2544090" lon="-16.6228660">
        <ele>2375.0</ele>
        <time>2020-10-16T14:32:35Z</time>
      </trkpt>
      <trkpt lat="28.2543840" lon="-16.6229500">
        <ele>2373.8</ele>
        <time>2020-10-16T14:32:36Z</time>
      </trkpt>
      <trkpt lat="28.2543340" lon="-16.6231200">
        <ele>2372.8</ele>
        <time>2020-10-16T14:32:38Z</time>
      </trkpt>
      <trkpt lat="28.2543080" lon="-16.6232070">
        <ele>2372.6</ele>
        <time>2020-10-16T14:32:39Z</time>
      </trkpt>
      <trkpt lat="28.2542270" lon="-16.6234700">
        <ele>2372.0</ele>
        <time>2020-10-16T14:32:42Z</time>
      </trkpt>
      <trkpt lat="28.2541980" lon="-16.6235590">
        <ele>2371.6</ele>
        <time>2020-10-16T14:32:43Z</time>
      </trkpt>
      <trkpt lat="28.2539920" lon="-16.6242070">
        <ele>2370.4</ele>
        <time>2020-10-16T14:32:50Z</time>
      </trkpt>
      <trkpt lat="28.2539000" lon="-16.6244860">
        <ele>2369.2</ele>
        <time>2020-10-16T14:32:53Z</time>
      </trkpt>
      <trkpt lat="28.2538140" lon="-16.6247690">
        <ele>2368.0</ele>
        <time>2020-10-16T14:32:56Z</time>
      </trkpt>
      <trkpt lat="28.2537100" lon="-16.6250360">
        <ele>2366.6</ele>
        <time>2020-10-16T14:32:59Z</time>
      </trkpt>
      <trkpt lat="28.2534830" lon="-16.6252940">
        <ele>2365.2</ele>
        <time>2020-10-16T14:33:03Z</time>
      </trkpt>
      <trkpt lat="28.2534130" lon="-16.6253440">
        <ele>2364.6</ele>
        <time>2020-10-16T14:33:04Z</time>
      </trkpt>
      <trkpt lat="28.2533410" lon="-16.6253940">
        <ele>2364.2</ele>
        <time>2020-10-16T14:33:05Z</time>
      </trkpt>
      <trkpt lat="28.2531940" lon="-16.6254960">
        <ele>2363.0</ele>
        <time>2020-10-16T14:33:07Z</time>
      </trkpt>
      <trkpt lat="28.2528860" lon="-16.6257030">
        <ele>2361.6</ele>
        <time>2020-10-16T14:33:11Z</time>
      </trkpt>
      <trkpt lat="28.2526480" lon="-16.6258680">
        <ele>2360.4</ele>
        <time>2020-10-16T14:33:14Z</time>
      </trkpt>
      <trkpt lat="28.2522420" lon="-16.6261460">
        <ele>2359.6</ele>
        <time>2020-10-16T14:33:19Z</time>
      </trkpt>
      <trkpt lat="28.2521610" lon="-16.6262010">
        <ele>2359.4</ele>
        <time>2020-10-16T14:33:20Z</time>
      </trkpt>
      <trkpt lat="28.2519130" lon="-16.6263720">
        <ele>2358.4</ele>
        <time>2020-10-16T14:33:23Z</time>
      </trkpt>
      <trkpt lat="28.2516540" lon="-16.6265430">
        <ele>2357.0</ele>
        <time>2020-10-16T14:33:26Z</time>
      </trkpt>
      <trkpt lat="28.2513950" lon="-16.6267170">
        <ele>2355.8</ele>
        <time>2020-10-16T14:33:29Z</time>
      </trkpt>
      <trkpt lat="28.2512270" lon="-16.6268300">
        <ele>2354.6</ele>
        <time>2020-10-16T14:33:31Z</time>
      </trkpt>
      <trkpt lat="28.2509870" lon="-16.6269950">
        <ele>2353.4</ele>
        <time>2020-10-16T14:33:34Z</time>
      </trkpt>
      <trkpt lat="28.2507490" lon="-16.6271560">
        <ele>2352.4</ele>
        <time>2020-10-16T14:33:37Z</time>
      </trkpt>
      <trkpt lat="28.2502350" lon="-16.6273750">
        <ele>2351.6</ele>
        <time>2020-10-16T14:33:43Z</time>
      </trkpt>
      <trkpt lat="28.2500510" lon="-16.6274130">
        <ele>2351.0</ele>
        <time>2020-10-16T14:33:45Z</time>
      </trkpt>
      <trkpt lat="28.2494810" lon="-16.6274960">
        <ele>2350.2</ele>
        <time>2020-10-16T14:33:51Z</time>
      </trkpt>
      <trkpt lat="28.2492850" lon="-16.6275240">
        <ele>2350.0</ele>
        <time>2020-10-16T14:33:53Z</time>
      </trkpt>
      <trkpt lat="28.2486820" lon="-16.6276190">
        <ele>2348.8</ele>
        <time>2020-10-16T14:33:59Z</time>
      </trkpt>
      <trkpt lat="28.2481040" lon="-16.6277100">
        <ele>2347.8</ele>
        <time>2020-10-16T14:34:04Z</time>
      </trkpt>
      <trkpt lat="28.2478620" lon="-16.6277530">
        <ele>2346.6</ele>
        <time>2020-10-16T14:34:06Z</time>
      </trkpt>
      <trkpt lat="28.2476150" lon="-16.6278040">
        <ele>2345.2</ele>
        <time>2020-10-16T14:34:08Z</time>
      </trkpt>
      <trkpt lat="28.2474930" lon="-16.6278340">
        <ele>2344.2</ele>
        <time>2020-10-16T14:34:09Z</time>
      </trkpt>
      <trkpt lat="28.2473740" lon="-16.6278730">
        <ele>2341.8</ele>
        <time>2020-10-16T14:34:10Z</time>
      </trkpt>
      <trkpt lat="28.2472610" lon="-16.6279210">
        <ele>2340.6</ele>
        <time>2020-10-16T14:34:11Z</time>
      </trkpt>
      <trkpt lat="28.2471520" lon="-16.6279810">
        <ele>2339.6</ele>
        <time>2020-10-16T14:34:12Z</time>
      </trkpt>
      <trkpt lat="28.2470470" lon="-16.6280500">
        <ele>2338.6</ele>
        <time>2020-10-16T14:34:13Z</time>
      </trkpt>
      <trkpt lat="28.2469450" lon="-16.6281210">
        <ele>2337.4</ele>
        <time>2020-10-16T14:34:14Z</time>
      </trkpt>
      <trkpt lat="28.2468440" lon="-16.6281970">
        <ele>2336.2</ele>
        <time>2020-10-16T14:34:15Z</time>
      </trkpt>
      <trkpt lat="28.2467440" lon="-16.6282790">
        <ele>2334.8</ele>
        <time>2020-10-16T14:34:16Z</time>
      </trkpt>
      <trkpt lat="28.2466440" lon="-16.6283620">
        <ele>2333.4</ele>
        <time>2020-10-16T14:34:17Z</time>
      </trkpt>
      <trkpt lat="28.2465440" lon="-16.6284450">
        <ele>2332.4</ele>
        <time>2020-10-16T14:34:18Z</time>
      </trkpt>
      <trkpt lat="28.2463470" lon="-16.6286150">
        <ele>2330.8</ele>
        <time>2020-10-16T14:34:20Z</time>
      </trkpt>
      <trkpt lat="28.2462490" lon="-16.6287030">
        <ele>2329.2</ele>
        <time>2020-10-16T14:34:21Z</time>
      </trkpt>
      <trkpt lat="28.2461470" lon="-16.6287910">
        <ele>2328.0</ele>
        <time>2020-10-16T14:34:22Z</time>
      </trkpt>
      <trkpt lat="28.2459380" lon="-16.6289650">
        <ele>2326.0</ele>
        <time>2020-10-16T14:34:24Z</time>
      </trkpt>
      <trkpt lat="28.2458340" lon="-16.6290550">
        <ele>2324.6</ele>
        <time>2020-10-16T14:34:25Z</time>
      </trkpt>
      <trkpt lat="28.2457280" lon="-16.6291430">
        <ele>2322.8</ele>
        <time>2020-10-16T14:34:26Z</time>
      </trkpt>
      <trkpt lat="28.2456210" lon="-16.6292340">
        <ele>2321.4</ele>
        <time>2020-10-16T14:34:27Z</time>
      </trkpt>
      <trkpt lat="28.2454050" lon="-16.6294150">
        <ele>2319.4</ele>
        <time>2020-10-16T14:34:29Z</time>
      </trkpt>
      <trkpt lat="28.2452970" lon="-16.6295050">
        <ele>2318.2</ele>
        <time>2020-10-16T14:34:30Z</time>
      </trkpt>
      <trkpt lat="28.2451900" lon="-16.6295970">
        <ele>2317.0</ele>
        <time>2020-10-16T14:34:31Z</time>
      </trkpt>
      <trkpt lat="28.2450830" lon="-16.6296890">
        <ele>2316.0</ele>
        <time>2020-10-16T14:34:32Z</time>
      </trkpt>
      <trkpt lat="28.2448680" lon="-16.6298770">
        <ele>2314.0</ele>
        <time>2020-10-16T14:34:34Z</time>
      </trkpt>
      <trkpt lat="28.2447580" lon="-16.6299700">
        <ele>2313.0</ele>
        <time>2020-10-16T14:34:35Z</time>
      </trkpt>
      <trkpt lat="28.2446470" lon="-16.6300630">
        <ele>2312.0</ele>
        <time>2020-10-16T14:34:36Z</time>
      </trkpt>
      <trkpt lat="28.2445340" lon="-16.6301540">
        <ele>2310.4</ele>
        <time>2020-10-16T14:34:37Z</time>
      </trkpt>
      <trkpt lat="28.2444150" lon="-16.6302360">
        <ele>2308.8</ele>
        <time>2020-10-16T14:34:38Z</time>
      </trkpt>
      <trkpt lat="28.2442920" lon="-16.6303120">
        <ele>2307.2</ele>
        <time>2020-10-16T14:34:39Z</time>
      </trkpt>
      <trkpt lat="28.2441610" lon="-16.6303730">
        <ele>2305.8</ele>
        <time>2020-10-16T14:34:40Z</time>
      </trkpt>
      <trkpt lat="28.2440240" lon="-16.6304210">
        <ele>2304.4</ele>
        <time>2020-10-16T14:34:41Z</time>
      </trkpt>
      <trkpt lat="28.2438800" lon="-16.6304540">
        <ele>2303.4</ele>
        <time>2020-10-16T14:34:42Z</time>
      </trkpt>
      <trkpt lat="28.2437340" lon="-16.6304700">
        <ele>2301.2</ele>
        <time>2020-10-16T14:34:43Z</time>
      </trkpt>
      <trkpt lat="28.2435870" lon="-16.6304740">
        <ele>2300.2</ele>
        <time>2020-10-16T14:34:44Z</time>
      </trkpt>
      <trkpt lat="28.2434380" lon="-16.6304670">
        <ele>2299.0</ele>
        <time>2020-10-16T14:34:45Z</time>
      </trkpt>
      <trkpt lat="28.2432850" lon="-16.6304560">
        <ele>2297.8</ele>
        <time>2020-10-16T14:34:46Z</time>
      </trkpt>
      <trkpt lat="28.2431320" lon="-16.6304410">
        <ele>2296.6</ele>
        <time>2020-10-16T14:34:47Z</time>
      </trkpt>
      <trkpt lat="28.2428280" lon="-16.6304110">
        <ele>2295.0</ele>
        <time>2020-10-16T14:34:49Z</time>
      </trkpt>
      <trkpt lat="28.2426750" lon="-16.6303960">
        <ele>2294.0</ele>
        <time>2020-10-16T14:34:50Z</time>
      </trkpt>
      <trkpt lat="28.2425220" lon="-16.6303800">
        <ele>2292.6</ele>
        <time>2020-10-16T14:34:51Z</time>
      </trkpt>
      <trkpt lat="28.2423680" lon="-16.6303630">
        <ele>2291.0</ele>
        <time>2020-10-16T14:34:52Z</time>
      </trkpt>
      <trkpt lat="28.2422150" lon="-16.6303460">
        <ele>2289.6</ele>
        <time>2020-10-16T14:34:53Z</time>
      </trkpt>
      <trkpt lat="28.2420640" lon="-16.6303290">
        <ele>2287.8</ele>
        <time>2020-10-16T14:34:54Z</time>
      </trkpt>
      <trkpt lat="28.2419140" lon="-16.6303150">
        <ele>2285.8</ele>
        <time>2020-10-16T14:34:55Z</time>
      </trkpt>
      <trkpt lat="28.2417630" lon="-16.6303000">
        <ele>2284.4</ele>
        <time>2020-10-16T14:34:56Z</time>
      </trkpt>
      <trkpt lat="28.2416130" lon="-16.6302880">
        <ele>2283.4</ele>
        <time>2020-10-16T14:34:57Z</time>
      </trkpt>
      <trkpt lat="28.2414620" lon="-16.6302750">
        <ele>2282.4</ele>
        <time>2020-10-16T14:34:58Z</time>
      </trkpt>
      <trkpt lat="28.2411620" lon="-16.6302460">
        <ele>2280.2</ele>
        <time>2020-10-16T14:35:00Z</time>
      </trkpt>
      <trkpt lat="28.2410120" lon="-16.6302290">
        <ele>2278.0</ele>
        <time>2020-10-16T14:35:01Z</time>
      </trkpt>
      <trkpt lat="28.2408630" lon="-16.6302150">
        <ele>2276.8</ele>
        <time>2020-10-16T14:35:02Z</time>
      </trkpt>
      <trkpt lat="28.2405730" lon="-16.6301920">
        <ele>2275.6</ele>
        <time>2020-10-16T14:35:04Z</time>
      </trkpt>
      <trkpt lat="28.2402910" lon="-16.6301700">
        <ele>2274.0</ele>
        <time>2020-10-16T14:35:06Z</time>
      </trkpt>
      <trkpt lat="28.2400140" lon="-16.6301430">
        <ele>2272.8</ele>
        <time>2020-10-16T14:35:08Z</time>
      </trkpt>
      <trkpt lat="28.2398770" lon="-16.6301320">
        <ele>2271.4</ele>
        <time>2020-10-16T14:35:09Z</time>
      </trkpt>
      <trkpt lat="28.2397420" lon="-16.6301200">
        <ele>2270.2</ele>
        <time>2020-10-16T14:35:10Z</time>
      </trkpt>
      <trkpt lat="28.2394760" lon="-16.6300950">
        <ele>2268.6</ele>
        <time>2020-10-16T14:35:12Z</time>
      </trkpt>
      <trkpt lat="28.2392150" lon="-16.6300750">
        <ele>2267.4</ele>
        <time>2020-10-16T14:35:14Z</time>
      </trkpt>
      <trkpt lat="28.2388310" lon="-16.6300380">
        <ele>2265.6</ele>
        <time>2020-10-16T14:35:17Z</time>
      </trkpt>
      <trkpt lat="28.2385790" lon="-16.6300160">
        <ele>2264.0</ele>
        <time>2020-10-16T14:35:19Z</time>
      </trkpt>
      <trkpt lat="28.2383310" lon="-16.6299960">
        <ele>2262.8</ele>
        <time>2020-10-16T14:35:21Z</time>
      </trkpt>
      <trkpt lat="28.2380800" lon="-16.6299760">
        <ele>2262.0</ele>
        <time>2020-10-16T14:35:23Z</time>
      </trkpt>
      <trkpt lat="28.2377020" lon="-16.6299420">
        <ele>2261.0</ele>
        <time>2020-10-16T14:35:26Z</time>
      </trkpt>
      <trkpt lat="28.2374490" lon="-16.6299190">
        <ele>2259.8</ele>
        <time>2020-10-16T14:35:28Z</time>
      </trkpt>
      <trkpt lat="28.2368240" lon="-16.6298620">
        <ele>2258.4</ele>
        <time>2020-10-16T14:35:33Z</time>
      </trkpt>
      <trkpt lat="28.2365780" lon="-16.6298390">
        <ele>2257.2</ele>
        <time>2020-10-16T14:35:35Z</time>
      </trkpt>
      <trkpt lat="28.2362140" lon="-16.6298050">
        <ele>2256.2</ele>
        <time>2020-10-16T14:35:38Z</time>
      </trkpt>
      <trkpt lat="28.2359730" lon="-16.6297810">
        <ele>2255.0</ele>
        <time>2020-10-16T14:35:40Z</time>
      </trkpt>
      <trkpt lat="28.2355080" lon="-16.6297400">
        <ele>2254.0</ele>
        <time>2020-10-16T14:35:44Z</time>
      </trkpt>
      <trkpt lat="28.2351660" lon="-16.6297130">
        <ele>2252.6</ele>
        <time>2020-10-16T14:35:47Z</time>
      </trkpt>
      <trkpt lat="28.2350520" lon="-16.6297050">
        <ele>2251.0</ele>
        <time>2020-10-16T14:35:48Z</time>
      </trkpt>
      <trkpt lat="28.2347080" lon="-16.6296750">
        <ele>2249.8</ele>
        <time>2020-10-16T14:35:51Z</time>
      </trkpt>
      <trkpt lat="28.2343660" lon="-16.6296450">
        <ele>2248.6</ele>
        <time>2020-10-16T14:35:54Z</time>
      </trkpt>
      <trkpt lat="28.2339040" lon="-16.6296010">
        <ele>2247.6</ele>
        <time>2020-10-16T14:35:58Z</time>
      </trkpt>
      <trkpt lat="28.2335510" lon="-16.6295680">
        <ele>2246.6</ele>
        <time>2020-10-16T14:36:01Z</time>
      </trkpt>
      <trkpt lat="28.2330790" lon="-16.6295250">
        <ele>2244.8</ele>
        <time>2020-10-16T14:36:05Z</time>
      </trkpt>
      <trkpt lat="28.2327310" lon="-16.6294940">
        <ele>2244.0</ele>
        <time>2020-10-16T14:36:08Z</time>
      </trkpt>
      <trkpt lat="28.2323790" lon="-16.6294600">
        <ele>2242.6</ele>
        <time>2020-10-16T14:36:11Z</time>
      </trkpt>
      <trkpt lat="28.2319110" lon="-16.6294210">
        <ele>2241.6</ele>
        <time>2020-10-16T14:36:15Z</time>
      </trkpt>
      <trkpt lat="28.2315580" lon="-16.6293900">
        <ele>2240.2</ele>
        <time>2020-10-16T14:36:18Z</time>
      </trkpt>
      <trkpt lat="28.2312050" lon="-16.6293580">
        <ele>2238.8</ele>
        <time>2020-10-16T14:36:21Z</time>
      </trkpt>
      <trkpt lat="28.2309700" lon="-16.6293390">
        <ele>2237.6</ele>
        <time>2020-10-16T14:36:23Z</time>
      </trkpt>
      <trkpt lat="28.2306150" lon="-16.6293080">
        <ele>2236.4</ele>
        <time>2020-10-16T14:36:26Z</time>
      </trkpt>
      <trkpt lat="28.2302580" lon="-16.6292760">
        <ele>2235.2</ele>
        <time>2020-10-16T14:36:29Z</time>
      </trkpt>
      <trkpt lat="28.2298960" lon="-16.6292450">
        <ele>2233.8</ele>
        <time>2020-10-16T14:36:32Z</time>
      </trkpt>
      <trkpt lat="28.2297730" lon="-16.6292340">
        <ele>2233.6</ele>
        <time>2020-10-16T14:36:33Z</time>
      </trkpt>
      <trkpt lat="28.2292810" lon="-16.6291930">
        <ele>2232.8</ele>
        <time>2020-10-16T14:36:37Z</time>
      </trkpt>
      <trkpt lat="28.2286700" lon="-16.6291420">
        <ele>2231.6</ele>
        <time>2020-10-16T14:36:42Z</time>
      </trkpt>
      <trkpt lat="28.2283010" lon="-16.6291100">
        <ele>2230.4</ele>
        <time>2020-10-16T14:36:45Z</time>
      </trkpt>
      <trkpt lat="28.2280590" lon="-16.6290890">
        <ele>2229.2</ele>
        <time>2020-10-16T14:36:47Z</time>
      </trkpt>
      <trkpt lat="28.2276940" lon="-16.6290540">
        <ele>2227.8</ele>
        <time>2020-10-16T14:36:50Z</time>
      </trkpt>
      <trkpt lat="28.2274540" lon="-16.6290340">
        <ele>2226.6</ele>
        <time>2020-10-16T14:36:52Z</time>
      </trkpt>
      <trkpt lat="28.2272170" lon="-16.6290150">
        <ele>2225.4</ele>
        <time>2020-10-16T14:36:54Z</time>
      </trkpt>
      <trkpt lat="28.2268710" lon="-16.6289840">
        <ele>2224.2</ele>
        <time>2020-10-16T14:36:57Z</time>
      </trkpt>
      <trkpt lat="28.2264210" lon="-16.6289480">
        <ele>2223.0</ele>
        <time>2020-10-16T14:37:01Z</time>
      </trkpt>
      <trkpt lat="28.2259750" lon="-16.6289070">
        <ele>2222.0</ele>
        <time>2020-10-16T14:37:05Z</time>
      </trkpt>
      <trkpt lat="28.2254190" lon="-16.6288550">
        <ele>2221.4</ele>
        <time>2020-10-16T14:37:10Z</time>
      </trkpt>
      <trkpt lat="28.2248640" lon="-16.6288070">
        <ele>2220.8</ele>
        <time>2020-10-16T14:37:15Z</time>
      </trkpt>
      <trkpt lat="28.2245270" lon="-16.6287760">
        <ele>2219.6</ele>
        <time>2020-10-16T14:37:18Z</time>
      </trkpt>
      <trkpt lat="28.2239590" lon="-16.6287240">
        <ele>2219.0</ele>
        <time>2020-10-16T14:37:23Z</time>
      </trkpt>
      <trkpt lat="28.2237280" lon="-16.6286910">
        <ele>2218.4</ele>
        <time>2020-10-16T14:37:25Z</time>
      </trkpt>
      <trkpt lat="28.2233720" lon="-16.6286320">
        <ele>2217.2</ele>
        <time>2020-10-16T14:37:28Z</time>
      </trkpt>
      <trkpt lat="28.2230050" lon="-16.6285640">
        <ele>2216.2</ele>
        <time>2020-10-16T14:37:31Z</time>
      </trkpt>
      <trkpt lat="28.2224830" lon="-16.6284730">
        <ele>2214.8</ele>
        <time>2020-10-16T14:37:35Z</time>
      </trkpt>
      <trkpt lat="28.2220750" lon="-16.6284030">
        <ele>2213.4</ele>
        <time>2020-10-16T14:37:38Z</time>
      </trkpt>
      <trkpt lat="28.2217990" lon="-16.6283560">
        <ele>2212.0</ele>
        <time>2020-10-16T14:37:40Z</time>
      </trkpt>
      <trkpt lat="28.2215220" lon="-16.6283060">
        <ele>2210.2</ele>
        <time>2020-10-16T14:37:42Z</time>
      </trkpt>
      <trkpt lat="28.2212530" lon="-16.6282590">
        <ele>2208.2</ele>
        <time>2020-10-16T14:37:44Z</time>
      </trkpt>
      <trkpt lat="28.2211230" lon="-16.6282370">
        <ele>2207.2</ele>
        <time>2020-10-16T14:37:45Z</time>
      </trkpt>
      <trkpt lat="28.2208710" lon="-16.6281930">
        <ele>2205.4</ele>
        <time>2020-10-16T14:37:47Z</time>
      </trkpt>
      <trkpt lat="28.2206240" lon="-16.6281480">
        <ele>2204.0</ele>
        <time>2020-10-16T14:37:49Z</time>
      </trkpt>
      <trkpt lat="28.2203790" lon="-16.6281050">
        <ele>2202.6</ele>
        <time>2020-10-16T14:37:51Z</time>
      </trkpt>
      <trkpt lat="28.2201370" lon="-16.6280620">
        <ele>2200.8</ele>
        <time>2020-10-16T14:37:53Z</time>
      </trkpt>
      <trkpt lat="28.2200150" lon="-16.6280400">
        <ele>2199.4</ele>
        <time>2020-10-16T14:37:54Z</time>
      </trkpt>
      <trkpt lat="28.2198940" lon="-16.6280190">
        <ele>2197.8</ele>
        <time>2020-10-16T14:37:55Z</time>
      </trkpt>
      <trkpt lat="28.2197750" lon="-16.6280000">
        <ele>2196.8</ele>
        <time>2020-10-16T14:37:56Z</time>
      </trkpt>
      <trkpt lat="28.2196560" lon="-16.6279830">
        <ele>2195.4</ele>
        <time>2020-10-16T14:37:57Z</time>
      </trkpt>
      <trkpt lat="28.2194250" lon="-16.6279490">
        <ele>2193.8</ele>
        <time>2020-10-16T14:37:59Z</time>
      </trkpt>
      <trkpt lat="28.2191990" lon="-16.6279070">
        <ele>2192.4</ele>
        <time>2020-10-16T14:38:01Z</time>
      </trkpt>
      <trkpt lat="28.2189840" lon="-16.6278710">
        <ele>2191.4</ele>
        <time>2020-10-16T14:38:03Z</time>
      </trkpt>
      <trkpt lat="28.2186690" lon="-16.6278150">
        <ele>2189.8</ele>
        <time>2020-10-16T14:38:06Z</time>
      </trkpt>
      <trkpt lat="28.2181580" lon="-16.6276490">
        <ele>2188.6</ele>
        <time>2020-10-16T14:38:11Z</time>
      </trkpt>
      <trkpt lat="28.2177720" lon="-16.6271790">
        <ele>2187.4</ele>
        <time>2020-10-16T14:38:16Z</time>
      </trkpt>
      <trkpt lat="28.2177200" lon="-16.6270570">
        <ele>2187.0</ele>
        <time>2020-10-16T14:38:17Z</time>
      </trkpt>
      <trkpt lat="28.2176680" lon="-16.6269270">
        <ele>2186.4</ele>
        <time>2020-10-16T14:38:18Z</time>
      </trkpt>
      <trkpt lat="28.2175730" lon="-16.6266620">
        <ele>2185.4</ele>
        <time>2020-10-16T14:38:20Z</time>
      </trkpt>
      <trkpt lat="28.2174100" lon="-16.6262690">
        <ele>2184.2</ele>
        <time>2020-10-16T14:38:23Z</time>
      </trkpt>
      <trkpt lat="28.2172250" lon="-16.6260740">
        <ele>2183.2</ele>
        <time>2020-10-16T14:38:25Z</time>
      </trkpt>
      <trkpt lat="28.2169720" lon="-16.6260110">
        <ele>2182.0</ele>
        <time>2020-10-16T14:38:27Z</time>
      </trkpt>
      <trkpt lat="28.2167160" lon="-16.6260880">
        <ele>2180.6</ele>
        <time>2020-10-16T14:38:29Z</time>
      </trkpt>
      <trkpt lat="28.2164880" lon="-16.6262270">
        <ele>2179.4</ele>
        <time>2020-10-16T14:38:31Z</time>
      </trkpt>
      <trkpt lat="28.2162700" lon="-16.6263730">
        <ele>2177.4</ele>
        <time>2020-10-16T14:38:33Z</time>
      </trkpt>
      <trkpt lat="28.2160530" lon="-16.6265180">
        <ele>2176.2</ele>
        <time>2020-10-16T14:38:35Z</time>
      </trkpt>
      <trkpt lat="28.2159440" lon="-16.6265910">
        <ele>2175.2</ele>
        <time>2020-10-16T14:38:36Z</time>
      </trkpt>
      <trkpt lat="28.2158340" lon="-16.6266610">
        <ele>2174.0</ele>
        <time>2020-10-16T14:38:37Z</time>
      </trkpt>
      <trkpt lat="28.2156120" lon="-16.6268060">
        <ele>2172.2</ele>
        <time>2020-10-16T14:38:39Z</time>
      </trkpt>
      <trkpt lat="28.2154970" lon="-16.6268770">
        <ele>2170.6</ele>
        <time>2020-10-16T14:38:40Z</time>
      </trkpt>
      <trkpt lat="28.2152660" lon="-16.6270230">
        <ele>2168.8</ele>
        <time>2020-10-16T14:38:42Z</time>
      </trkpt>
      <trkpt lat="28.2150280" lon="-16.6271670">
        <ele>2166.6</ele>
        <time>2020-10-16T14:38:44Z</time>
      </trkpt>
      <trkpt lat="28.2149080" lon="-16.6272430">
        <ele>2165.4</ele>
        <time>2020-10-16T14:38:45Z</time>
      </trkpt>
      <trkpt lat="28.2147890" lon="-16.6273200">
        <ele>2164.2</ele>
        <time>2020-10-16T14:38:46Z</time>
      </trkpt>
      <trkpt lat="28.2145490" lon="-16.6274740">
        <ele>2162.6</ele>
        <time>2020-10-16T14:38:48Z</time>
      </trkpt>
      <trkpt lat="28.2143050" lon="-16.6276230">
        <ele>2160.6</ele>
        <time>2020-10-16T14:38:50Z</time>
      </trkpt>
      <trkpt lat="28.2141830" lon="-16.6276990">
        <ele>2159.4</ele>
        <time>2020-10-16T14:38:51Z</time>
      </trkpt>
      <trkpt lat="28.2140600" lon="-16.6277730">
        <ele>2158.2</ele>
        <time>2020-10-16T14:38:52Z</time>
      </trkpt>
      <trkpt lat="28.2139380" lon="-16.6278490">
        <ele>2157.0</ele>
        <time>2020-10-16T14:38:53Z</time>
      </trkpt>
      <trkpt lat="28.2138160" lon="-16.6279240">
        <ele>2155.6</ele>
        <time>2020-10-16T14:38:54Z</time>
      </trkpt>
      <trkpt lat="28.2136940" lon="-16.6280000">
        <ele>2154.2</ele>
        <time>2020-10-16T14:38:55Z</time>
      </trkpt>
      <trkpt lat="28.2135720" lon="-16.6280780">
        <ele>2153.0</ele>
        <time>2020-10-16T14:38:56Z</time>
      </trkpt>
      <trkpt lat="28.2134520" lon="-16.6281580">
        <ele>2151.6</ele>
        <time>2020-10-16T14:38:57Z</time>
      </trkpt>
      <trkpt lat="28.2133320" lon="-16.6282430">
        <ele>2150.4</ele>
        <time>2020-10-16T14:38:58Z</time>
      </trkpt>
      <trkpt lat="28.2132150" lon="-16.6283300">
        <ele>2149.0</ele>
        <time>2020-10-16T14:38:59Z</time>
      </trkpt>
      <trkpt lat="28.2131020" lon="-16.6284250">
        <ele>2148.0</ele>
        <time>2020-10-16T14:39:00Z</time>
      </trkpt>
      <trkpt lat="28.2129940" lon="-16.6285300">
        <ele>2146.8</ele>
        <time>2020-10-16T14:39:01Z</time>
      </trkpt>
      <trkpt lat="28.2128910" lon="-16.6286420">
        <ele>2145.6</ele>
        <time>2020-10-16T14:39:02Z</time>
      </trkpt>
      <trkpt lat="28.2127960" lon="-16.6287620">
        <ele>2144.4</ele>
        <time>2020-10-16T14:39:03Z</time>
      </trkpt>
      <trkpt lat="28.2127050" lon="-16.6288870">
        <ele>2143.2</ele>
        <time>2020-10-16T14:39:04Z</time>
      </trkpt>
      <trkpt lat="28.2126170" lon="-16.6290130">
        <ele>2142.0</ele>
        <time>2020-10-16T14:39:05Z</time>
      </trkpt>
      <trkpt lat="28.2124370" lon="-16.6292640">
        <ele>2140.0</ele>
        <time>2020-10-16T14:39:07Z</time>
      </trkpt>
      <trkpt lat="28.2123470" lon="-16.6293890">
        <ele>2138.8</ele>
        <time>2020-10-16T14:39:08Z</time>
      </trkpt>
      <trkpt lat="28.2122620" lon="-16.6295180">
        <ele>2137.8</ele>
        <time>2020-10-16T14:39:09Z</time>
      </trkpt>
      <trkpt lat="28.2121890" lon="-16.6296550">
        <ele>2136.6</ele>
        <time>2020-10-16T14:39:10Z</time>
      </trkpt>
      <trkpt lat="28.2121350" lon="-16.6298040">
        <ele>2135.6</ele>
        <time>2020-10-16T14:39:11Z</time>
      </trkpt>
      <trkpt lat="28.2120900" lon="-16.6301300">
        <ele>2132.0</ele>
        <time>2020-10-16T14:39:13Z</time>
      </trkpt>
      <trkpt lat="28.2120960" lon="-16.6302990">
        <ele>2130.8</ele>
        <time>2020-10-16T14:39:14Z</time>
      </trkpt>
      <trkpt lat="28.2121100" lon="-16.6304700">
        <ele>2129.6</ele>
        <time>2020-10-16T14:39:15Z</time>
      </trkpt>
      <trkpt lat="28.2121250" lon="-16.6306410">
        <ele>2128.4</ele>
        <time>2020-10-16T14:39:16Z</time>
      </trkpt>
      <trkpt lat="28.2121580" lon="-16.6309770">
        <ele>2126.2</ele>
        <time>2020-10-16T14:39:18Z</time>
      </trkpt>
      <trkpt lat="28.2121740" lon="-16.6311430">
        <ele>2125.2</ele>
        <time>2020-10-16T14:39:19Z</time>
      </trkpt>
      <trkpt lat="28.2121890" lon="-16.6313070">
        <ele>2123.8</ele>
        <time>2020-10-16T14:39:20Z</time>
      </trkpt>
      <trkpt lat="28.2121950" lon="-16.6314690">
        <ele>2122.6</ele>
        <time>2020-10-16T14:39:21Z</time>
      </trkpt>
      <trkpt lat="28.2121870" lon="-16.6316240">
        <ele>2121.4</ele>
        <time>2020-10-16T14:39:22Z</time>
      </trkpt>
      <trkpt lat="28.2121580" lon="-16.6317790">
        <ele>2120.2</ele>
        <time>2020-10-16T14:39:23Z</time>
      </trkpt>
      <trkpt lat="28.2121070" lon="-16.6319220">
        <ele>2119.2</ele>
        <time>2020-10-16T14:39:24Z</time>
      </trkpt>
      <trkpt lat="28.2120400" lon="-16.6320570">
        <ele>2118.0</ele>
        <time>2020-10-16T14:39:25Z</time>
      </trkpt>
      <trkpt lat="28.2119640" lon="-16.6321870">
        <ele>2117.0</ele>
        <time>2020-10-16T14:39:26Z</time>
      </trkpt>
      <trkpt lat="28.2118080" lon="-16.6324510">
        <ele>2115.4</ele>
        <time>2020-10-16T14:39:28Z</time>
      </trkpt>
      <trkpt lat="28.2116710" lon="-16.6327310">
        <ele>2114.2</ele>
        <time>2020-10-16T14:39:30Z</time>
      </trkpt>
      <trkpt lat="28.2116180" lon="-16.6328800">
        <ele>2113.4</ele>
        <time>2020-10-16T14:39:31Z</time>
      </trkpt>
      <trkpt lat="28.2115770" lon="-16.6330330">
        <ele>2112.6</ele>
        <time>2020-10-16T14:39:32Z</time>
      </trkpt>
      <trkpt lat="28.2115160" lon="-16.6333440">
        <ele>2110.6</ele>
        <time>2020-10-16T14:39:34Z</time>
      </trkpt>
      <trkpt lat="28.2114660" lon="-16.6336500">
        <ele>2108.8</ele>
        <time>2020-10-16T14:39:36Z</time>
      </trkpt>
      <trkpt lat="28.2114190" lon="-16.6339450">
        <ele>2106.6</ele>
        <time>2020-10-16T14:39:38Z</time>
      </trkpt>
      <trkpt lat="28.2113970" lon="-16.6340880">
        <ele>2105.6</ele>
        <time>2020-10-16T14:39:39Z</time>
      </trkpt>
      <trkpt lat="28.2113770" lon="-16.6342290">
        <ele>2104.2</ele>
        <time>2020-10-16T14:39:40Z</time>
      </trkpt>
      <trkpt lat="28.2113560" lon="-16.6343670">
        <ele>2103.0</ele>
        <time>2020-10-16T14:39:41Z</time>
      </trkpt>
      <trkpt lat="28.2113360" lon="-16.6345030">
        <ele>2102.2</ele>
        <time>2020-10-16T14:39:42Z</time>
      </trkpt>
      <trkpt lat="28.2112740" lon="-16.6348970">
        <ele>2100.8</ele>
        <time>2020-10-16T14:39:45Z</time>
      </trkpt>
      <trkpt lat="28.2111910" lon="-16.6354220">
        <ele>2099.6</ele>
        <time>2020-10-16T14:39:49Z</time>
      </trkpt>
      <trkpt lat="28.2111340" lon="-16.6358180">
        <ele>2098.4</ele>
        <time>2020-10-16T14:39:52Z</time>
      </trkpt>
      <trkpt lat="28.2110500" lon="-16.6363490">
        <ele>2097.0</ele>
        <time>2020-10-16T14:39:56Z</time>
      </trkpt>
      <trkpt lat="28.2109860" lon="-16.6367510">
        <ele>2096.0</ele>
        <time>2020-10-16T14:39:59Z</time>
      </trkpt>
      <trkpt lat="28.2109250" lon="-16.6371310">
        <ele>2094.8</ele>
        <time>2020-10-16T14:40:02Z</time>
      </trkpt>
      <trkpt lat="28.2108870" lon="-16.6373730">
        <ele>2093.4</ele>
        <time>2020-10-16T14:40:04Z</time>
      </trkpt>
      <trkpt lat="28.2108320" lon="-16.6377140">
        <ele>2091.8</ele>
        <time>2020-10-16T14:40:07Z</time>
      </trkpt>
      <trkpt lat="28.2107950" lon="-16.6379330">
        <ele>2090.6</ele>
        <time>2020-10-16T14:40:09Z</time>
      </trkpt>
      <trkpt lat="28.2106970" lon="-16.6385580">
        <ele>2090.0</ele>
        <time>2020-10-16T14:40:15Z</time>
      </trkpt>
      <trkpt lat="28.2105890" lon="-16.6392450">
        <ele>2090.0</ele>
        <time>2020-10-16T14:40:22Z</time>
      </trkpt>
      <trkpt lat="28.2104890" lon="-16.6398680">
        <ele>2090.0</ele>
        <time>2020-10-16T14:40:29Z</time>
      </trkpt>
      <trkpt lat="28.2103850" lon="-16.6405030">
        <ele>2091.6</ele>
        <time>2020-10-16T14:40:37Z</time>
      </trkpt>
      <trkpt lat="28.2103750" lon="-16.6405710">
        <ele>2091.8</ele>
        <time>2020-10-16T14:40:38Z</time>
      </trkpt>
      <trkpt lat="28.2102810" lon="-16.6411790">
        <ele>2092.6</ele>
        <time>2020-10-16T14:40:46Z</time>
      </trkpt>
      <trkpt lat="28.2101800" lon="-16.6418040">
        <ele>2092.2</ele>
        <time>2020-10-16T14:40:53Z</time>
      </trkpt>
      <trkpt lat="28.2101220" lon="-16.6421710">
        <ele>2090.4</ele>
        <time>2020-10-16T14:40:57Z</time>
      </trkpt>
      <trkpt lat="28.2100860" lon="-16.6424370">
        <ele>2089.2</ele>
        <time>2020-10-16T14:41:00Z</time>
      </trkpt>
      <trkpt lat="28.2100400" lon="-16.6430560">
        <ele>2088.8</ele>
        <time>2020-10-16T14:41:07Z</time>
      </trkpt>
      <trkpt lat="28.2100690" lon="-16.6436720">
        <ele>2088.6</ele>
        <time>2020-10-16T14:41:14Z</time>
      </trkpt>
      <trkpt lat="28.2101180" lon="-16.6441810">
        <ele>2088.2</ele>
        <time>2020-10-16T14:41:20Z</time>
      </trkpt>
      <trkpt lat="28.2101810" lon="-16.6448380">
        <ele>2088.0</ele>
        <time>2020-10-16T14:41:28Z</time>
      </trkpt>
      <trkpt lat="28.2102440" lon="-16.6454650">
        <ele>2088.4</ele>
        <time>2020-10-16T14:41:36Z</time>
      </trkpt>
      <trkpt lat="28.2103070" lon="-16.6461020">
        <ele>2088.6</ele>
        <time>2020-10-16T14:41:44Z</time>
      </trkpt>
      <trkpt lat="28.2103680" lon="-16.6467400">
        <ele>2088.8</ele>
        <time>2020-10-16T14:41:52Z</time>
      </trkpt>
      <trkpt lat="28.2104300" lon="-16.6473690">
        <ele>2089.2</ele>
        <time>2020-10-16T14:42:00Z</time>
      </trkpt>
      <trkpt lat="28.2104880" lon="-16.6479830">
        <ele>2089.4</ele>
        <time>2020-10-16T14:42:08Z</time>
      </trkpt>
      <trkpt lat="28.2104950" lon="-16.6480590">
        <ele>2089.4</ele>
        <time>2020-10-16T14:42:09Z</time>
      </trkpt>
      <trkpt lat="28.2105590" lon="-16.6487340">
        <ele>2089.4</ele>
        <time>2020-10-16T14:42:18Z</time>
      </trkpt>
      <trkpt lat="28.2106150" lon="-16.6493610">
        <ele>2089.4</ele>
        <time>2020-10-16T14:42:26Z</time>
      </trkpt>
      <trkpt lat="28.2106740" lon="-16.6499870">
        <ele>2089.2</ele>
        <time>2020-10-16T14:42:34Z</time>
      </trkpt>
      <trkpt lat="28.2107370" lon="-16.6506520">
        <ele>2089.4</ele>
        <time>2020-10-16T14:42:43Z</time>
      </trkpt>
      <trkpt lat="28.2108020" lon="-16.6513190">
        <ele>2090.0</ele>
        <time>2020-10-16T14:42:53Z</time>
      </trkpt>
      <trkpt lat="28.2108140" lon="-16.6514430">
        <ele>2090.8</ele>
        <time>2020-10-16T14:42:55Z</time>
      </trkpt>
      <trkpt lat="28.2108410" lon="-16.6517380">
        <ele>2092.2</ele>
        <time>2020-10-16T14:43:00Z</time>
      </trkpt>
      <trkpt lat="28.2108600" lon="-16.6519000">
        <ele>2093.6</ele>
        <time>2020-10-16T14:43:03Z</time>
      </trkpt>
      <trkpt lat="28.2109000" lon="-16.6523050">
        <ele>2094.6</ele>
        <time>2020-10-16T14:43:11Z</time>
      </trkpt>
      <trkpt lat="28.2109300" lon="-16.6525990">
        <ele>2095.6</ele>
        <time>2020-10-16T14:43:17Z</time>
      </trkpt>
      <trkpt lat="28.2109600" lon="-16.6528860">
        <ele>2096.6</ele>
        <time>2020-10-16T14:43:23Z</time>
      </trkpt>
      <trkpt lat="28.2109930" lon="-16.6532660">
        <ele>2097.8</ele>
        <time>2020-10-16T14:43:31Z</time>
      </trkpt>
      <trkpt lat="28.2110380" lon="-16.6537420">
        <ele>2098.8</ele>
        <time>2020-10-16T14:43:41Z</time>
      </trkpt>
      <trkpt lat="28.2110460" lon="-16.6538890">
        <ele>2099.8</ele>
        <time>2020-10-16T14:43:44Z</time>
      </trkpt>
      <trkpt lat="28.2110490" lon="-16.6541810">
        <ele>2101.2</ele>
        <time>2020-10-16T14:43:50Z</time>
      </trkpt>
      <trkpt lat="28.2110250" lon="-16.6545320">
        <ele>2102.2</ele>
        <time>2020-10-16T14:43:57Z</time>
      </trkpt>
      <trkpt lat="28.2109800" lon="-16.6549370">
        <ele>2103.2</ele>
        <time>2020-10-16T14:44:05Z</time>
      </trkpt>
      <trkpt lat="28.2109450" lon="-16.6552570">
        <ele>2104.4</ele>
        <time>2020-10-16T14:44:11Z</time>
      </trkpt>
      <trkpt lat="28.2109200" lon="-16.6554670">
        <ele>2105.6</ele>
        <time>2020-10-16T14:44:15Z</time>
      </trkpt>
      <trkpt lat="28.2108810" lon="-16.6557850">
        <ele>2106.8</ele>
        <time>2020-10-16T14:44:21Z</time>
      </trkpt>
      <trkpt lat="28.2108370" lon="-16.6561690">
        <ele>2108.0</ele>
        <time>2020-10-16T14:44:28Z</time>
      </trkpt>
      <trkpt lat="28.2108240" lon="-16.6568020">
        <ele>2108.8</ele>
        <time>2020-10-16T14:44:39Z</time>
      </trkpt>
      <trkpt lat="28.2109040" lon="-16.6571440">
        <ele>2109.2</ele>
        <time>2020-10-16T14:44:45Z</time>
      </trkpt>
      <trkpt lat="28.2111730" lon="-16.6577080">
        <ele>2109.6</ele>
        <time>2020-10-16T14:44:55Z</time>
      </trkpt>
      <trkpt lat="28.2114790" lon="-16.6582430">
        <ele>2109.8</ele>
        <time>2020-10-16T14:45:05Z</time>
      </trkpt>
      <trkpt lat="28.2117900" lon="-16.6587920">
        <ele>2110.0</ele>
        <time>2020-10-16T14:45:15Z</time>
      </trkpt>
      <trkpt lat="28.2121060" lon="-16.6593580">
        <ele>2109.8</ele>
        <time>2020-10-16T14:45:25Z</time>
      </trkpt>
      <trkpt lat="28.2124090" lon="-16.6598920">
        <ele>2110.2</ele>
        <time>2020-10-16T14:45:34Z</time>
      </trkpt>
      <trkpt lat="28.2124440" lon="-16.6599520">
        <ele>2110.2</ele>
        <time>2020-10-16T14:45:35Z</time>
      </trkpt>
      <trkpt lat="28.2127490" lon="-16.6604980">
        <ele>2111.4</ele>
        <time>2020-10-16T14:45:44Z</time>
      </trkpt>
      <trkpt lat="28.2130030" lon="-16.6610570">
        <ele>2112.4</ele>
        <time>2020-10-16T14:45:53Z</time>
      </trkpt>
      <trkpt lat="28.2132240" lon="-16.6616890">
        <ele>2112.6</ele>
        <time>2020-10-16T14:46:02Z</time>
      </trkpt>
      <trkpt lat="28.2134460" lon="-16.6623170">
        <ele>2112.0</ele>
        <time>2020-10-16T14:46:10Z</time>
      </trkpt>
      <trkpt lat="28.2135380" lon="-16.6625880">
        <ele>2111.4</ele>
        <time>2020-10-16T14:46:13Z</time>
      </trkpt>
      <trkpt lat="28.2137040" lon="-16.6630470">
        <ele>2110.2</ele>
        <time>2020-10-16T14:46:18Z</time>
      </trkpt>
      <trkpt lat="28.2138440" lon="-16.6634370">
        <ele>2108.8</ele>
        <time>2020-10-16T14:46:22Z</time>
      </trkpt>
      <trkpt lat="28.2139520" lon="-16.6637520">
        <ele>2107.6</ele>
        <time>2020-10-16T14:46:25Z</time>
      </trkpt>
      <trkpt lat="28.2140690" lon="-16.6640850">
        <ele>2106.4</ele>
        <time>2020-10-16T14:46:28Z</time>
      </trkpt>
      <trkpt lat="28.2141500" lon="-16.6643150">
        <ele>2105.2</ele>
        <time>2020-10-16T14:46:30Z</time>
      </trkpt>
      <trkpt lat="28.2142320" lon="-16.6645460">
        <ele>2104.0</ele>
        <time>2020-10-16T14:46:32Z</time>
      </trkpt>
      <trkpt lat="28.2143530" lon="-16.6648850">
        <ele>2103.0</ele>
        <time>2020-10-16T14:46:35Z</time>
      </trkpt>
      <trkpt lat="28.2144310" lon="-16.6651070">
        <ele>2101.6</ele>
        <time>2020-10-16T14:46:37Z</time>
      </trkpt>
      <trkpt lat="28.2146500" lon="-16.6657270">
        <ele>2101.0</ele>
        <time>2020-10-16T14:46:43Z</time>
      </trkpt>
      <trkpt lat="28.2148490" lon="-16.6662980">
        <ele>2101.6</ele>
        <time>2020-10-16T14:46:49Z</time>
      </trkpt>
      <trkpt lat="28.2150750" lon="-16.6669360">
        <ele>2101.8</ele>
        <time>2020-10-16T14:46:57Z</time>
      </trkpt>
      <trkpt lat="28.2152820" lon="-16.6675290">
        <ele>2101.6</ele>
        <time>2020-10-16T14:47:05Z</time>
      </trkpt>
      <trkpt lat="28.2154530" lon="-16.6680180">
        <ele>2103.0</ele>
        <time>2020-10-16T14:47:12Z</time>
      </trkpt>
      <trkpt lat="28.2156560" lon="-16.6685880">
        <ele>2104.0</ele>
        <time>2020-10-16T14:47:21Z</time>
      </trkpt>
      <trkpt lat="28.2158400" lon="-16.6691130">
        <ele>2104.0</ele>
        <time>2020-10-16T14:47:30Z</time>
      </trkpt>
      <trkpt lat="28.2160160" lon="-16.6697030">
        <ele>2105.0</ele>
        <time>2020-10-16T14:47:40Z</time>
      </trkpt>
      <trkpt lat="28.2160400" lon="-16.6698210">
        <ele>2105.4</ele>
        <time>2020-10-16T14:47:42Z</time>
      </trkpt>
      <trkpt lat="28.2160220" lon="-16.6704360">
        <ele>2106.2</ele>
        <time>2020-10-16T14:47:52Z</time>
      </trkpt>
      <trkpt lat="28.2160100" lon="-16.6704980">
        <ele>2106.4</ele>
        <time>2020-10-16T14:47:53Z</time>
      </trkpt>
      <trkpt lat="28.2157540" lon="-16.6710860">
        <ele>2107.2</ele>
        <time>2020-10-16T14:48:03Z</time>
      </trkpt>
      <trkpt lat="28.2156050" lon="-16.6712980">
        <ele>2107.4</ele>
        <time>2020-10-16T14:48:07Z</time>
      </trkpt>
      <trkpt lat="28.2152340" lon="-16.6718270">
        <ele>2108.4</ele>
        <time>2020-10-16T14:48:17Z</time>
      </trkpt>
      <trkpt lat="28.2152000" lon="-16.6718790">
        <ele>2108.6</ele>
        <time>2020-10-16T14:48:18Z</time>
      </trkpt>
      <trkpt lat="28.2149010" lon="-16.6724240">
        <ele>2109.4</ele>
        <time>2020-10-16T14:48:28Z</time>
      </trkpt>
      <trkpt lat="28.2148830" lon="-16.6724860">
        <ele>2109.6</ele>
        <time>2020-10-16T14:48:29Z</time>
      </trkpt>
      <trkpt lat="28.2147600" lon="-16.6731320">
        <ele>2110.6</ele>
        <time>2020-10-16T14:48:39Z</time>
      </trkpt>
      <trkpt lat="28.2147530" lon="-16.6731980">
        <ele>2110.8</ele>
        <time>2020-10-16T14:48:40Z</time>
      </trkpt>
      <trkpt lat="28.2146800" lon="-16.6738270">
        <ele>2111.4</ele>
        <time>2020-10-16T14:48:49Z</time>
      </trkpt>
      <trkpt lat="28.2146470" lon="-16.6741180">
        <ele>2112.0</ele>
        <time>2020-10-16T14:48:53Z</time>
      </trkpt>
      <trkpt lat="28.2145670" lon="-16.6747920">
        <ele>2112.4</ele>
        <time>2020-10-16T14:49:02Z</time>
      </trkpt>
      <trkpt lat="28.2144860" lon="-16.6754710">
        <ele>2112.4</ele>
        <time>2020-10-16T14:49:11Z</time>
      </trkpt>
      <trkpt lat="28.2144160" lon="-16.6760800">
        <ele>2111.8</ele>
        <time>2020-10-16T14:49:19Z</time>
      </trkpt>
      <trkpt lat="28.2143360" lon="-16.6767450">
        <ele>2111.8</ele>
        <time>2020-10-16T14:49:27Z</time>
      </trkpt>
      <trkpt lat="28.2142670" lon="-16.6773930">
        <ele>2112.2</ele>
        <time>2020-10-16T14:49:35Z</time>
      </trkpt>
      <trkpt lat="28.2142060" lon="-16.6780470">
        <ele>2112.6</ele>
        <time>2020-10-16T14:49:44Z</time>
      </trkpt>
      <trkpt lat="28.2141570" lon="-16.6786790">
        <ele>2113.0</ele>
        <time>2020-10-16T14:49:53Z</time>
      </trkpt>
      <trkpt lat="28.2141320" lon="-16.6790500">
        <ele>2113.2</ele>
        <time>2020-10-16T14:49:58Z</time>
      </trkpt>
      <trkpt lat="28.2141130" lon="-16.6793470">
        <ele>2114.2</ele>
        <time>2020-10-16T14:50:02Z</time>
      </trkpt>
      <trkpt lat="28.2140310" lon="-16.6799940">
        <ele>2114.6</ele>
        <time>2020-10-16T14:50:11Z</time>
      </trkpt>
      <trkpt lat="28.2138750" lon="-16.6804270">
        <ele>2115.4</ele>
        <time>2020-10-16T14:50:18Z</time>
      </trkpt>
      <trkpt lat="28.2137830" lon="-16.6805810">
        <ele>2115.6</ele>
        <time>2020-10-16T14:50:21Z</time>
      </trkpt>
      <trkpt lat="28.2134790" lon="-16.6808840">
        <ele>2116.4</ele>
        <time>2020-10-16T14:50:29Z</time>
      </trkpt>
      <trkpt lat="28.2133990" lon="-16.6809400">
        <ele>2116.8</ele>
        <time>2020-10-16T14:50:31Z</time>
      </trkpt>
      <trkpt lat="28.2133170" lon="-16.6809850">
        <ele>2117.8</ele>
        <time>2020-10-16T14:50:33Z</time>
      </trkpt>
      <trkpt lat="28.2132760" lon="-16.6810020">
        <ele>2117.8</ele>
        <time>2020-10-16T14:50:34Z</time>
      </trkpt>
      <trkpt lat="28.2130860" lon="-16.6810550">
        <ele>2118.8</ele>
        <time>2020-10-16T14:50:39Z</time>
      </trkpt>
      <trkpt lat="28.2129690" lon="-16.6810660">
        <ele>2120.0</ele>
        <time>2020-10-16T14:50:42Z</time>
      </trkpt>
      <trkpt lat="28.2128130" lon="-16.6810640">
        <ele>2121.0</ele>
        <time>2020-10-16T14:50:46Z</time>
      </trkpt>
      <trkpt lat="28.2126640" lon="-16.6810400">
        <ele>2122.0</ele>
        <time>2020-10-16T14:50:50Z</time>
      </trkpt>
      <trkpt lat="28.2125570" lon="-16.6810170">
        <ele>2123.2</ele>
        <time>2020-10-16T14:50:53Z</time>
      </trkpt>
      <trkpt lat="28.2123820" lon="-16.6809750">
        <ele>2124.4</ele>
        <time>2020-10-16T14:50:58Z</time>
      </trkpt>
      <trkpt lat="28.2121340" lon="-16.6808630">
        <ele>2125.4</ele>
        <time>2020-10-16T14:51:05Z</time>
      </trkpt>
      <trkpt lat="28.2117880" lon="-16.6806980">
        <ele>2126.6</ele>
        <time>2020-10-16T14:51:15Z</time>
      </trkpt>
      <trkpt lat="28.2115910" lon="-16.6806000">
        <ele>2127.6</ele>
        <time>2020-10-16T14:51:21Z</time>
      </trkpt>
      <trkpt lat="28.2113940" lon="-16.6805220">
        <ele>2128.8</ele>
        <time>2020-10-16T14:51:27Z</time>
      </trkpt>
      <trkpt lat="28.2112290" lon="-16.6804840">
        <ele>2130.2</ele>
        <time>2020-10-16T14:51:32Z</time>
      </trkpt>
      <trkpt lat="28.2110930" lon="-16.6804780">
        <ele>2131.2</ele>
        <time>2020-10-16T14:51:36Z</time>
      </trkpt>
      <trkpt lat="28.2108870" lon="-16.6804820">
        <ele>2132.4</ele>
        <time>2020-10-16T14:51:42Z</time>
      </trkpt>
      <trkpt lat="28.2107150" lon="-16.6804850">
        <ele>2133.6</ele>
        <time>2020-10-16T14:51:47Z</time>
      </trkpt>
      <trkpt lat="28.2105770" lon="-16.6804780">
        <ele>2134.6</ele>
        <time>2020-10-16T14:51:51Z</time>
      </trkpt>
      <trkpt lat="28.2103700" lon="-16.6804240">
        <ele>2135.8</ele>
        <time>2020-10-16T14:51:57Z</time>
      </trkpt>
      <trkpt lat="28.2102330" lon="-16.6803860">
        <ele>2137.0</ele>
        <time>2020-10-16T14:52:01Z</time>
      </trkpt>
      <trkpt lat="28.2100960" lon="-16.6803470">
        <ele>2138.0</ele>
        <time>2020-10-16T14:52:05Z</time>
      </trkpt>
      <trkpt lat="28.2099260" lon="-16.6802970">
        <ele>2139.0</ele>
        <time>2020-10-16T14:52:10Z</time>
      </trkpt>
      <trkpt lat="28.2097540" lon="-16.6802450">
        <ele>2140.6</ele>
        <time>2020-10-16T14:52:15Z</time>
      </trkpt>
      <trkpt lat="28.2095800" lon="-16.6802030">
        <ele>2141.6</ele>
        <time>2020-10-16T14:52:20Z</time>
      </trkpt>
      <trkpt lat="28.2093320" lon="-16.6802030">
        <ele>2142.8</ele>
        <time>2020-10-16T14:52:27Z</time>
      </trkpt>
      <trkpt lat="28.2091940" lon="-16.6802260">
        <ele>2144.0</ele>
        <time>2020-10-16T14:52:31Z</time>
      </trkpt>
      <trkpt lat="28.2090220" lon="-16.6802450">
        <ele>2145.0</ele>
        <time>2020-10-16T14:52:36Z</time>
      </trkpt>
      <trkpt lat="28.2087870" lon="-16.6802050">
        <ele>2146.2</ele>
        <time>2020-10-16T14:52:43Z</time>
      </trkpt>
      <trkpt lat="28.2086260" lon="-16.6801400">
        <ele>2147.4</ele>
        <time>2020-10-16T14:52:48Z</time>
      </trkpt>
      <trkpt lat="28.2084640" lon="-16.6800260">
        <ele>2148.4</ele>
        <time>2020-10-16T14:52:53Z</time>
      </trkpt>
      <trkpt lat="28.2082600" lon="-16.6798720">
        <ele>2149.6</ele>
        <time>2020-10-16T14:52:59Z</time>
      </trkpt>
      <trkpt lat="28.2079580" lon="-16.6798060">
        <ele>2150.6</ele>
        <time>2020-10-16T14:53:07Z</time>
      </trkpt>
      <trkpt lat="28.2076040" lon="-16.6800050">
        <ele>2151.8</ele>
        <time>2020-10-16T14:53:17Z</time>
      </trkpt>
      <trkpt lat="28.2075690" lon="-16.6800270">
        <ele>2151.8</ele>
        <time>2020-10-16T14:53:18Z</time>
      </trkpt>
      <trkpt lat="28.2073260" lon="-16.6801780">
        <ele>2153.0</ele>
        <time>2020-10-16T14:53:25Z</time>
      </trkpt>
      <trkpt lat="28.2071850" lon="-16.6802670">
        <ele>2154.0</ele>
        <time>2020-10-16T14:53:29Z</time>
      </trkpt>
      <trkpt lat="28.2068950" lon="-16.6804810">
        <ele>2155.2</ele>
        <time>2020-10-16T14:53:37Z</time>
      </trkpt>
      <trkpt lat="28.2068660" lon="-16.6805220">
        <ele>2155.2</ele>
        <time>2020-10-16T14:53:38Z</time>
      </trkpt>
      <trkpt lat="28.2068150" lon="-16.6807120">
        <ele>2156.0</ele>
        <time>2020-10-16T14:53:42Z</time>
      </trkpt>
      <trkpt lat="28.2068040" lon="-16.6807610">
        <ele>2156.2</ele>
        <time>2020-10-16T14:53:43Z</time>
      </trkpt>
      <trkpt lat="28.2067480" lon="-16.6809960">
        <ele>2157.4</ele>
        <time>2020-10-16T14:53:48Z</time>
      </trkpt>
      <trkpt lat="28.2066590" lon="-16.6812440">
        <ele>2158.6</ele>
        <time>2020-10-16T14:53:54Z</time>
      </trkpt>
      <trkpt lat="28.2066240" lon="-16.6813170">
        <ele>2159.8</ele>
        <time>2020-10-16T14:53:56Z</time>
      </trkpt>
      <trkpt lat="28.2065680" lon="-16.6814150">
        <ele>2160.6</ele>
        <time>2020-10-16T14:53:59Z</time>
      </trkpt>
      <trkpt lat="28.2064040" lon="-16.6815230">
        <ele>2162.0</ele>
        <time>2020-10-16T14:54:05Z</time>
      </trkpt>
      <trkpt lat="28.2063120" lon="-16.6815090">
        <ele>2163.2</ele>
        <time>2020-10-16T14:54:08Z</time>
      </trkpt>
      <trkpt lat="28.2062380" lon="-16.6814330">
        <ele>2164.6</ele>
        <time>2020-10-16T14:54:11Z</time>
      </trkpt>
      <trkpt lat="28.2061960" lon="-16.6813260">
        <ele>2165.6</ele>
        <time>2020-10-16T14:54:14Z</time>
      </trkpt>
      <trkpt lat="28.2061820" lon="-16.6812150">
        <ele>2167.0</ele>
        <time>2020-10-16T14:54:17Z</time>
      </trkpt>
      <trkpt lat="28.2062030" lon="-16.6809570">
        <ele>2168.2</ele>
        <time>2020-10-16T14:54:25Z</time>
      </trkpt>
      <trkpt lat="28.2062150" lon="-16.6807390">
        <ele>2169.2</ele>
        <time>2020-10-16T14:54:32Z</time>
      </trkpt>
      <trkpt lat="28.2062100" lon="-16.6806490">
        <ele>2170.6</ele>
        <time>2020-10-16T14:54:35Z</time>
      </trkpt>
      <trkpt lat="28.2062000" lon="-16.6805290">
        <ele>2171.8</ele>
        <time>2020-10-16T14:54:39Z</time>
      </trkpt>
      <trkpt lat="28.2061800" lon="-16.6803540">
        <ele>2172.8</ele>
        <time>2020-10-16T14:54:45Z</time>
      </trkpt>
      <trkpt lat="28.2061450" lon="-16.6801490">
        <ele>2173.8</ele>
        <time>2020-10-16T14:54:52Z</time>
      </trkpt>
      <trkpt lat="28.2061040" lon="-16.6799790">
        <ele>2175.0</ele>
        <time>2020-10-16T14:54:58Z</time>
      </trkpt>
      <trkpt lat="28.2060560" lon="-16.6798500">
        <ele>2176.2</ele>
        <time>2020-10-16T14:55:03Z</time>
      </trkpt>
      <trkpt lat="28.2059910" lon="-16.6797600">
        <ele>2177.2</ele>
        <time>2020-10-16T14:55:07Z</time>
      </trkpt>
      <trkpt lat="28.2058840" lon="-16.6796670">
        <ele>2178.4</ele>
        <time>2020-10-16T14:55:12Z</time>
      </trkpt>
      <trkpt lat="28.2057370" lon="-16.6795920">
        <ele>2179.4</ele>
        <time>2020-10-16T14:55:18Z</time>
      </trkpt>
      <trkpt lat="28.2055810" lon="-16.6795280">
        <ele>2180.6</ele>
        <time>2020-10-16T14:55:24Z</time>
      </trkpt>
      <trkpt lat="28.2054300" lon="-16.6794620">
        <ele>2181.6</ele>
        <time>2020-10-16T14:55:30Z</time>
      </trkpt>
      <trkpt lat="28.2052780" lon="-16.6794020">
        <ele>2182.8</ele>
        <time>2020-10-16T14:55:36Z</time>
      </trkpt>
      <trkpt lat="28.2051200" lon="-16.6793430">
        <ele>2184.2</ele>
        <time>2020-10-16T14:55:42Z</time>
      </trkpt>
      <trkpt lat="28.2049850" lon="-16.6793060">
        <ele>2185.2</ele>
        <time>2020-10-16T14:55:47Z</time>
      </trkpt>
      <trkpt lat="28.2048430" lon="-16.6793110">
        <ele>2186.4</ele>
        <time>2020-10-16T14:55:52Z</time>
      </trkpt>
      <trkpt lat="28.2047340" lon="-16.6793570">
        <ele>2187.6</ele>
        <time>2020-10-16T14:55:56Z</time>
      </trkpt>
      <trkpt lat="28.2045970" lon="-16.6794460">
        <ele>2188.8</ele>
        <time>2020-10-16T14:56:01Z</time>
      </trkpt>
      <trkpt lat="28.2044260" lon="-16.6795280">
        <ele>2189.8</ele>
        <time>2020-10-16T14:56:07Z</time>
      </trkpt>
      <trkpt lat="28.2042610" lon="-16.6795390">
        <ele>2191.0</ele>
        <time>2020-10-16T14:56:12Z</time>
      </trkpt>
      <trkpt lat="28.2039470" lon="-16.6795020">
        <ele>2192.0</ele>
        <time>2020-10-16T14:56:21Z</time>
      </trkpt>
      <trkpt lat="28.2037240" lon="-16.6793790">
        <ele>2193.2</ele>
        <time>2020-10-16T14:56:29Z</time>
      </trkpt>
      <trkpt lat="28.2036560" lon="-16.6792560">
        <ele>2194.4</ele>
        <time>2020-10-16T14:56:33Z</time>
      </trkpt>
      <trkpt lat="28.2036310" lon="-16.6789710">
        <ele>2195.6</ele>
        <time>2020-10-16T14:56:41Z</time>
      </trkpt>
      <trkpt lat="28.2036790" lon="-16.6788040">
        <ele>2196.8</ele>
        <time>2020-10-16T14:56:46Z</time>
      </trkpt>
      <trkpt lat="28.2037480" lon="-16.6786470">
        <ele>2197.8</ele>
        <time>2020-10-16T14:56:51Z</time>
      </trkpt>
      <trkpt lat="28.2038890" lon="-16.6784220">
        <ele>2199.0</ele>
        <time>2020-10-16T14:56:59Z</time>
      </trkpt>
      <trkpt lat="28.2039990" lon="-16.6782610">
        <ele>2200.2</ele>
        <time>2020-10-16T14:57:05Z</time>
      </trkpt>
      <trkpt lat="28.2040560" lon="-16.6781790">
        <ele>2201.2</ele>
        <time>2020-10-16T14:57:08Z</time>
      </trkpt>
      <trkpt lat="28.2041400" lon="-16.6780790">
        <ele>2202.2</ele>
        <time>2020-10-16T14:57:12Z</time>
      </trkpt>
      <trkpt lat="28.2042400" lon="-16.6779560">
        <ele>2203.4</ele>
        <time>2020-10-16T14:57:17Z</time>
      </trkpt>
      <trkpt lat="28.2043650" lon="-16.6777810">
        <ele>2204.4</ele>
        <time>2020-10-16T14:57:24Z</time>
      </trkpt>
      <trkpt lat="28.2044260" lon="-16.6776690">
        <ele>2205.6</ele>
        <time>2020-10-16T14:57:28Z</time>
      </trkpt>
      <trkpt lat="28.2045250" lon="-16.6774900">
        <ele>2206.8</ele>
        <time>2020-10-16T14:57:34Z</time>
      </trkpt>
      <trkpt lat="28.2046210" lon="-16.6773240">
        <ele>2208.0</ele>
        <time>2020-10-16T14:57:40Z</time>
      </trkpt>
      <trkpt lat="28.2047050" lon="-16.6771400">
        <ele>2209.2</ele>
        <time>2020-10-16T14:57:46Z</time>
      </trkpt>
      <trkpt lat="28.2047600" lon="-16.6770180">
        <ele>2210.2</ele>
        <time>2020-10-16T14:57:50Z</time>
      </trkpt>
      <trkpt lat="28.2048080" lon="-16.6768960">
        <ele>2211.2</ele>
        <time>2020-10-16T14:57:54Z</time>
      </trkpt>
      <trkpt lat="28.2048720" lon="-16.6767550">
        <ele>2212.4</ele>
        <time>2020-10-16T14:57:59Z</time>
      </trkpt>
      <trkpt lat="28.2049390" lon="-16.6766510">
        <ele>2213.4</ele>
        <time>2020-10-16T14:58:03Z</time>
      </trkpt>
      <trkpt lat="28.2050220" lon="-16.6765580">
        <ele>2214.6</ele>
        <time>2020-10-16T14:58:07Z</time>
      </trkpt>
      <trkpt lat="28.2051000" lon="-16.6764620">
        <ele>2215.6</ele>
        <time>2020-10-16T14:58:11Z</time>
      </trkpt>
      <trkpt lat="28.2052220" lon="-16.6763310">
        <ele>2216.6</ele>
        <time>2020-10-16T14:58:17Z</time>
      </trkpt>
      <trkpt lat="28.2053710" lon="-16.6761880">
        <ele>2217.8</ele>
        <time>2020-10-16T14:58:24Z</time>
      </trkpt>
      <trkpt lat="28.2055410" lon="-16.6760130">
        <ele>2219.0</ele>
        <time>2020-10-16T14:58:32Z</time>
      </trkpt>
      <trkpt lat="28.2056260" lon="-16.6759260">
        <ele>2220.0</ele>
        <time>2020-10-16T14:58:36Z</time>
      </trkpt>
      <trkpt lat="28.2057240" lon="-16.6758150">
        <ele>2221.2</ele>
        <time>2020-10-16T14:58:41Z</time>
      </trkpt>
      <trkpt lat="28.2058500" lon="-16.6756860">
        <ele>2222.4</ele>
        <time>2020-10-16T14:58:47Z</time>
      </trkpt>
      <trkpt lat="28.2059590" lon="-16.6755440">
        <ele>2223.6</ele>
        <time>2020-10-16T14:58:53Z</time>
      </trkpt>
      <trkpt lat="28.2060180" lon="-16.6754350">
        <ele>2224.6</ele>
        <time>2020-10-16T14:58:57Z</time>
      </trkpt>
      <trkpt lat="28.2060510" lon="-16.6753460">
        <ele>2225.6</ele>
        <time>2020-10-16T14:59:00Z</time>
      </trkpt>
      <trkpt lat="28.2060950" lon="-16.6751900">
        <ele>2226.8</ele>
        <time>2020-10-16T14:59:05Z</time>
      </trkpt>
      <trkpt lat="28.2061080" lon="-16.6749990">
        <ele>2227.8</ele>
        <time>2020-10-16T14:59:11Z</time>
      </trkpt>
      <trkpt lat="28.2060330" lon="-16.6747870">
        <ele>2229.0</ele>
        <time>2020-10-16T14:59:18Z</time>
      </trkpt>
      <trkpt lat="28.2058750" lon="-16.6745930">
        <ele>2230.0</ele>
        <time>2020-10-16T14:59:26Z</time>
      </trkpt>
      <trkpt lat="28.2057570" lon="-16.6744560">
        <ele>2231.2</ele>
        <time>2020-10-16T14:59:32Z</time>
      </trkpt>
      <trkpt lat="28.2056140" lon="-16.6743330">
        <ele>2232.2</ele>
        <time>2020-10-16T14:59:38Z</time>
      </trkpt>
      <trkpt lat="28.2054310" lon="-16.6741990">
        <ele>2233.2</ele>
        <time>2020-10-16T14:59:45Z</time>
      </trkpt>
      <trkpt lat="28.2051590" lon="-16.6740590">
        <ele>2234.2</ele>
        <time>2020-10-16T14:59:55Z</time>
      </trkpt>
      <trkpt lat="28.2049340" lon="-16.6739480">
        <ele>2235.2</ele>
        <time>2020-10-16T15:00:03Z</time>
      </trkpt>
      <trkpt lat="28.2047440" lon="-16.6738400">
        <ele>2236.2</ele>
        <time>2020-10-16T15:00:10Z</time>
      </trkpt>
      <trkpt lat="28.2045810" lon="-16.6737640">
        <ele>2237.4</ele>
        <time>2020-10-16T15:00:16Z</time>
      </trkpt>
      <trkpt lat="28.2042790" lon="-16.6736380">
        <ele>2238.4</ele>
        <time>2020-10-16T15:00:27Z</time>
      </trkpt>
      <trkpt lat="28.2040870" lon="-16.6736400">
        <ele>2239.8</ele>
        <time>2020-10-16T15:00:33Z</time>
      </trkpt>
      <trkpt lat="28.2039340" lon="-16.6736790">
        <ele>2241.0</ele>
        <time>2020-10-16T15:00:38Z</time>
      </trkpt>
      <trkpt lat="28.2038480" lon="-16.6737100">
        <ele>2242.0</ele>
        <time>2020-10-16T15:00:41Z</time>
      </trkpt>
      <trkpt lat="28.2037030" lon="-16.6737520">
        <ele>2243.2</ele>
        <time>2020-10-16T15:00:46Z</time>
      </trkpt>
      <trkpt lat="28.2035250" lon="-16.6737270">
        <ele>2244.2</ele>
        <time>2020-10-16T15:00:52Z</time>
      </trkpt>
      <trkpt lat="28.2033980" lon="-16.6736330">
        <ele>2245.6</ele>
        <time>2020-10-16T15:00:57Z</time>
      </trkpt>
      <trkpt lat="28.2033170" lon="-16.6735250">
        <ele>2246.6</ele>
        <time>2020-10-16T15:01:01Z</time>
      </trkpt>
      <trkpt lat="28.2032260" lon="-16.6733070">
        <ele>2247.6</ele>
        <time>2020-10-16T15:01:08Z</time>
      </trkpt>
      <trkpt lat="28.2031460" lon="-16.6731570">
        <ele>2248.6</ele>
        <time>2020-10-16T15:01:13Z</time>
      </trkpt>
      <trkpt lat="28.2030310" lon="-16.6730070">
        <ele>2249.8</ele>
        <time>2020-10-16T15:01:19Z</time>
      </trkpt>
      <trkpt lat="28.2028950" lon="-16.6729300">
        <ele>2251.2</ele>
        <time>2020-10-16T15:01:24Z</time>
      </trkpt>
      <trkpt lat="28.2027110" lon="-16.6728800">
        <ele>2252.2</ele>
        <time>2020-10-16T15:01:30Z</time>
      </trkpt>
      <trkpt lat="28.2025100" lon="-16.6728160">
        <ele>2253.4</ele>
        <time>2020-10-16T15:01:37Z</time>
      </trkpt>
      <trkpt lat="28.2023640" lon="-16.6727010">
        <ele>2254.4</ele>
        <time>2020-10-16T15:01:43Z</time>
      </trkpt>
      <trkpt lat="28.2023100" lon="-16.6726190">
        <ele>2255.4</ele>
        <time>2020-10-16T15:01:46Z</time>
      </trkpt>
      <trkpt lat="28.2022560" lon="-16.6724590">
        <ele>2256.6</ele>
        <time>2020-10-16T15:01:51Z</time>
      </trkpt>
      <trkpt lat="28.2022190" lon="-16.6721800">
        <ele>2257.8</ele>
        <time>2020-10-16T15:01:59Z</time>
      </trkpt>
      <trkpt lat="28.2022110" lon="-16.6720020">
        <ele>2258.8</ele>
        <time>2020-10-16T15:02:04Z</time>
      </trkpt>
      <trkpt lat="28.2022220" lon="-16.6718180">
        <ele>2260.0</ele>
        <time>2020-10-16T15:02:09Z</time>
      </trkpt>
      <trkpt lat="28.2022560" lon="-16.6716410">
        <ele>2261.0</ele>
        <time>2020-10-16T15:02:14Z</time>
      </trkpt>
      <trkpt lat="28.2023000" lon="-16.6714220">
        <ele>2262.2</ele>
        <time>2020-10-16T15:02:20Z</time>
      </trkpt>
      <trkpt lat="28.2023580" lon="-16.6711530">
        <ele>2263.2</ele>
        <time>2020-10-16T15:02:27Z</time>
      </trkpt>
      <trkpt lat="28.2024230" lon="-16.6708460">
        <ele>2264.4</ele>
        <time>2020-10-16T15:02:35Z</time>
      </trkpt>
      <trkpt lat="28.2024650" lon="-16.6703860">
        <ele>2265.2</ele>
        <time>2020-10-16T15:02:46Z</time>
      </trkpt>
      <trkpt lat="28.2024400" lon="-16.6702950">
        <ele>2265.2</ele>
        <time>2020-10-16T15:02:48Z</time>
      </trkpt>
      <trkpt lat="28.2022400" lon="-16.6700790">
        <ele>2265.4</ele>
        <time>2020-10-16T15:02:54Z</time>
      </trkpt>
      <trkpt lat="28.2019310" lon="-16.6701100">
        <ele>2265.6</ele>
        <time>2020-10-16T15:03:00Z</time>
      </trkpt>
      <trkpt lat="28.2018320" lon="-16.6701750">
        <ele>2265.6</ele>
        <time>2020-10-16T15:03:02Z</time>
      </trkpt>
      <trkpt lat="28.2017050" lon="-16.6702970">
        <ele>2265.8</ele>
        <time>2020-10-16T15:03:05Z</time>
      </trkpt>
      <trkpt lat="28.2012700" lon="-16.6707580">
        <ele>2265.6</ele>
        <time>2020-10-16T15:03:15Z</time>
      </trkpt>
      <trkpt lat="28.2008410" lon="-16.6711950">
        <ele>2265.6</ele>
        <time>2020-10-16T15:03:24Z</time>
      </trkpt>
      <trkpt lat="28.2004270" lon="-16.6716230">
        <ele>2265.4</ele>
        <time>2020-10-16T15:03:32Z</time>
      </trkpt>
      <trkpt lat="28.2000240" lon="-16.6720990">
        <ele>2265.6</ele>
        <time>2020-10-16T15:03:40Z</time>
      </trkpt>
      <trkpt lat="28.1999300" lon="-16.6724050">
        <ele>2266.2</ele>
        <time>2020-10-16T15:03:44Z</time>
      </trkpt>
      <trkpt lat="28.1999170" lon="-16.6724860">
        <ele>2266.4</ele>
        <time>2020-10-16T15:03:45Z</time>
      </trkpt>
      <trkpt lat="28.1998030" lon="-16.6728630">
        <ele>2266.8</ele>
        <time>2020-10-16T15:03:50Z</time>
      </trkpt>
      <trkpt lat="28.1994670" lon="-16.6733460">
        <ele>2267.2</ele>
        <time>2020-10-16T15:03:58Z</time>
      </trkpt>
      <trkpt lat="28.1994180" lon="-16.6733910">
        <ele>2267.2</ele>
        <time>2020-10-16T15:03:59Z</time>
      </trkpt>
      <trkpt lat="28.1992100" lon="-16.6734930">
        <ele>2267.4</ele>
        <time>2020-10-16T15:04:03Z</time>
      </trkpt>
      <trkpt lat="28.1990280" lon="-16.6734690">
        <ele>2267.4</ele>
        <time>2020-10-16T15:04:06Z</time>
      </trkpt>
      <trkpt lat="28.1989650" lon="-16.6734510">
        <ele>2267.6</ele>
        <time>2020-10-16T15:04:07Z</time>
      </trkpt>
      <trkpt lat="28.1984540" lon="-16.6732210">
        <ele>2268.0</ele>
        <time>2020-10-16T15:04:16Z</time>
      </trkpt>
      <trkpt lat="28.1983550" lon="-16.6731740">
        <ele>2268.6</ele>
        <time>2020-10-16T15:04:18Z</time>
      </trkpt>
      <trkpt lat="28.1982120" lon="-16.6731080">
        <ele>2269.8</ele>
        <time>2020-10-16T15:04:21Z</time>
      </trkpt>
      <trkpt lat="28.1979590" lon="-16.6729900">
        <ele>2270.8</ele>
        <time>2020-10-16T15:04:27Z</time>
      </trkpt>
      <trkpt lat="28.1978860" lon="-16.6729430">
        <ele>2271.0</ele>
        <time>2020-10-16T15:04:29Z</time>
      </trkpt>
      <trkpt lat="28.1977650" lon="-16.6728260">
        <ele>2272.0</ele>
        <time>2020-10-16T15:04:33Z</time>
      </trkpt>
      <trkpt lat="28.1977270" lon="-16.6727640">
        <ele>2272.8</ele>
        <time>2020-10-16T15:04:36Z</time>
      </trkpt>
      <trkpt lat="28.1977160" lon="-16.6727290">
        <ele>2273.0</ele>
        <time>2020-10-16T15:04:46Z</time>
      </trkpt>
      <trkpt lat="28.1977040" lon="-16.6726950">
        <ele>2273.0</ele>
        <time>2020-10-16T15:04:47Z</time>
      </trkpt>
      <trkpt lat="28.1975340" lon="-16.6720860">
        <ele>2272.8</ele>
        <time>2020-10-16T15:04:55Z</time>
      </trkpt>
      <trkpt lat="28.1974390" lon="-16.6716790">
        <ele>2271.8</ele>
        <time>2020-10-16T15:04:59Z</time>
      </trkpt>
      <trkpt lat="28.1973590" lon="-16.6713680">
        <ele>2271.0</ele>
        <time>2020-10-16T15:05:02Z</time>
      </trkpt>
      <trkpt lat="28.1973100" lon="-16.6712770">
        <ele>2270.8</ele>
        <time>2020-10-16T15:05:03Z</time>
      </trkpt>
      <trkpt lat="28.1970760" lon="-16.6710990">
        <ele>2270.0</ele>
        <time>2020-10-16T15:05:06Z</time>
      </trkpt>
      <trkpt lat="28.1969750" lon="-16.6710870">
        <ele>2269.8</ele>
        <time>2020-10-16T15:05:07Z</time>
      </trkpt>
      <trkpt lat="28.1966680" lon="-16.6711430">
        <ele>2268.6</ele>
        <time>2020-10-16T15:05:10Z</time>
      </trkpt>
      <trkpt lat="28.1962660" lon="-16.6712250">
        <ele>2267.4</ele>
        <time>2020-10-16T15:05:14Z</time>
      </trkpt>
      <trkpt lat="28.1959700" lon="-16.6712640">
        <ele>2266.4</ele>
        <time>2020-10-16T15:05:17Z</time>
      </trkpt>
      <trkpt lat="28.1958700" lon="-16.6712530">
        <ele>2266.2</ele>
        <time>2020-10-16T15:05:18Z</time>
      </trkpt>
      <trkpt lat="28.1956280" lon="-16.6710770">
        <ele>2265.0</ele>
        <time>2020-10-16T15:05:21Z</time>
      </trkpt>
      <trkpt lat="28.1955610" lon="-16.6705770">
        <ele>2264.4</ele>
        <time>2020-10-16T15:05:25Z</time>
      </trkpt>
      <trkpt lat="28.1955500" lon="-16.6700090">
        <ele>2264.0</ele>
        <time>2020-10-16T15:05:29Z</time>
      </trkpt>
      <trkpt lat="28.1955410" lon="-16.6697120">
        <ele>2262.6</ele>
        <time>2020-10-16T15:05:31Z</time>
      </trkpt>
      <trkpt lat="28.1955330" lon="-16.6694100">
        <ele>2261.0</ele>
        <time>2020-10-16T15:05:33Z</time>
      </trkpt>
      <trkpt lat="28.1955190" lon="-16.6691060">
        <ele>2259.6</ele>
        <time>2020-10-16T15:05:35Z</time>
      </trkpt>
      <trkpt lat="28.1955270" lon="-16.6688030">
        <ele>2258.4</ele>
        <time>2020-10-16T15:05:37Z</time>
      </trkpt>
      <trkpt lat="28.1955590" lon="-16.6686500">
        <ele>2257.2</ele>
        <time>2020-10-16T15:05:38Z</time>
      </trkpt>
      <trkpt lat="28.1956700" lon="-16.6683680">
        <ele>2255.2</ele>
        <time>2020-10-16T15:05:40Z</time>
      </trkpt>
      <trkpt lat="28.1958280" lon="-16.6680960">
        <ele>2252.6</ele>
        <time>2020-10-16T15:05:42Z</time>
      </trkpt>
      <trkpt lat="28.1959930" lon="-16.6678160">
        <ele>2250.8</ele>
        <time>2020-10-16T15:05:44Z</time>
      </trkpt>
      <trkpt lat="28.1961610" lon="-16.6675380">
        <ele>2249.6</ele>
        <time>2020-10-16T15:05:46Z</time>
      </trkpt>
      <trkpt lat="28.1963140" lon="-16.6672490">
        <ele>2248.0</ele>
        <time>2020-10-16T15:05:48Z</time>
      </trkpt>
      <trkpt lat="28.1963760" lon="-16.6670990">
        <ele>2246.6</ele>
        <time>2020-10-16T15:05:49Z</time>
      </trkpt>
      <trkpt lat="28.1964240" lon="-16.6669460">
        <ele>2245.2</ele>
        <time>2020-10-16T15:05:50Z</time>
      </trkpt>
      <trkpt lat="28.1964510" lon="-16.6667900">
        <ele>2244.2</ele>
        <time>2020-10-16T15:05:51Z</time>
      </trkpt>
      <trkpt lat="28.1963590" lon="-16.6664940">
        <ele>2242.6</ele>
        <time>2020-10-16T15:05:53Z</time>
      </trkpt>
      <trkpt lat="28.1961560" lon="-16.6662850">
        <ele>2240.6</ele>
        <time>2020-10-16T15:05:55Z</time>
      </trkpt>
      <trkpt lat="28.1960250" lon="-16.6662270">
        <ele>2239.6</ele>
        <time>2020-10-16T15:05:56Z</time>
      </trkpt>
      <trkpt lat="28.1958870" lon="-16.6662020">
        <ele>2238.4</ele>
        <time>2020-10-16T15:05:57Z</time>
      </trkpt>
      <trkpt lat="28.1956040" lon="-16.6662190">
        <ele>2236.6</ele>
        <time>2020-10-16T15:05:59Z</time>
      </trkpt>
      <trkpt lat="28.1953140" lon="-16.6662960">
        <ele>2235.0</ele>
        <time>2020-10-16T15:06:01Z</time>
      </trkpt>
      <trkpt lat="28.1951680" lon="-16.6663360">
        <ele>2233.8</ele>
        <time>2020-10-16T15:06:02Z</time>
      </trkpt>
      <trkpt lat="28.1950220" lon="-16.6663730">
        <ele>2232.4</ele>
        <time>2020-10-16T15:06:03Z</time>
      </trkpt>
      <trkpt lat="28.1948770" lon="-16.6664160">
        <ele>2231.4</ele>
        <time>2020-10-16T15:06:04Z</time>
      </trkpt>
      <trkpt lat="28.1947300" lon="-16.6664530">
        <ele>2230.2</ele>
        <time>2020-10-16T15:06:05Z</time>
      </trkpt>
      <trkpt lat="28.1945850" lon="-16.6664940">
        <ele>2228.8</ele>
        <time>2020-10-16T15:06:06Z</time>
      </trkpt>
      <trkpt lat="28.1943010" lon="-16.6665960">
        <ele>2227.4</ele>
        <time>2020-10-16T15:06:08Z</time>
      </trkpt>
      <trkpt lat="28.1940200" lon="-16.6667120">
        <ele>2226.0</ele>
        <time>2020-10-16T15:06:10Z</time>
      </trkpt>
      <trkpt lat="28.1937450" lon="-16.6668250">
        <ele>2224.0</ele>
        <time>2020-10-16T15:06:12Z</time>
      </trkpt>
      <trkpt lat="28.1934670" lon="-16.6669180">
        <ele>2221.8</ele>
        <time>2020-10-16T15:06:14Z</time>
      </trkpt>
      <trkpt lat="28.1933260" lon="-16.6669590">
        <ele>2219.8</ele>
        <time>2020-10-16T15:06:15Z</time>
      </trkpt>
      <trkpt lat="28.1930410" lon="-16.6670400">
        <ele>2217.8</ele>
        <time>2020-10-16T15:06:17Z</time>
      </trkpt>
      <trkpt lat="28.1928970" lon="-16.6670820">
        <ele>2216.8</ele>
        <time>2020-10-16T15:06:18Z</time>
      </trkpt>
      <trkpt lat="28.1926160" lon="-16.6671900">
        <ele>2215.0</ele>
        <time>2020-10-16T15:06:20Z</time>
      </trkpt>
      <trkpt lat="28.1923410" lon="-16.6673190">
        <ele>2213.2</ele>
        <time>2020-10-16T15:06:22Z</time>
      </trkpt>
      <trkpt lat="28.1922050" lon="-16.6673850">
        <ele>2212.0</ele>
        <time>2020-10-16T15:06:23Z</time>
      </trkpt>
      <trkpt lat="28.1920720" lon="-16.6674500">
        <ele>2211.0</ele>
        <time>2020-10-16T15:06:24Z</time>
      </trkpt>
      <trkpt lat="28.1919430" lon="-16.6675110">
        <ele>2210.0</ele>
        <time>2020-10-16T15:06:25Z</time>
      </trkpt>
      <trkpt lat="28.1918140" lon="-16.6675610">
        <ele>2208.8</ele>
        <time>2020-10-16T15:06:26Z</time>
      </trkpt>
      <trkpt lat="28.1916830" lon="-16.6675800">
        <ele>2207.6</ele>
        <time>2020-10-16T15:06:27Z</time>
      </trkpt>
      <trkpt lat="28.1915560" lon="-16.6675640">
        <ele>2206.4</ele>
        <time>2020-10-16T15:06:28Z</time>
      </trkpt>
      <trkpt lat="28.1914450" lon="-16.6675030">
        <ele>2205.4</ele>
        <time>2020-10-16T15:06:29Z</time>
      </trkpt>
      <trkpt lat="28.1913320" lon="-16.6672630">
        <ele>2203.6</ele>
        <time>2020-10-16T15:06:31Z</time>
      </trkpt>
      <trkpt lat="28.1913510" lon="-16.6669540">
        <ele>2202.2</ele>
        <time>2020-10-16T15:06:33Z</time>
      </trkpt>
      <trkpt lat="28.1914330" lon="-16.6666470">
        <ele>2200.2</ele>
        <time>2020-10-16T15:06:35Z</time>
      </trkpt>
      <trkpt lat="28.1914780" lon="-16.6664960">
        <ele>2199.2</ele>
        <time>2020-10-16T15:06:36Z</time>
      </trkpt>
      <trkpt lat="28.1915770" lon="-16.6661950">
        <ele>2197.8</ele>
        <time>2020-10-16T15:06:38Z</time>
      </trkpt>
      <trkpt lat="28.1916550" lon="-16.6658900">
        <ele>2196.4</ele>
        <time>2020-10-16T15:06:40Z</time>
      </trkpt>
      <trkpt lat="28.1916460" lon="-16.6655840">
        <ele>2194.4</ele>
        <time>2020-10-16T15:06:42Z</time>
      </trkpt>
      <trkpt lat="28.1915940" lon="-16.6654350">
        <ele>2193.4</ele>
        <time>2020-10-16T15:06:43Z</time>
      </trkpt>
      <trkpt lat="28.1914620" lon="-16.6651480">
        <ele>2191.6</ele>
        <time>2020-10-16T15:06:45Z</time>
      </trkpt>
      <trkpt lat="28.1913340" lon="-16.6648680">
        <ele>2189.8</ele>
        <time>2020-10-16T15:06:47Z</time>
      </trkpt>
      <trkpt lat="28.1912730" lon="-16.6647280">
        <ele>2188.0</ele>
        <time>2020-10-16T15:06:48Z</time>
      </trkpt>
      <trkpt lat="28.1912170" lon="-16.6645820">
        <ele>2186.8</ele>
        <time>2020-10-16T15:06:49Z</time>
      </trkpt>
      <trkpt lat="28.1911710" lon="-16.6644310">
        <ele>2185.8</ele>
        <time>2020-10-16T15:06:50Z</time>
      </trkpt>
      <trkpt lat="28.1911410" lon="-16.6641060">
        <ele>2184.2</ele>
        <time>2020-10-16T15:06:52Z</time>
      </trkpt>
      <trkpt lat="28.1911640" lon="-16.6637670">
        <ele>2182.6</ele>
        <time>2020-10-16T15:06:54Z</time>
      </trkpt>
      <trkpt lat="28.1911800" lon="-16.6634320">
        <ele>2181.0</ele>
        <time>2020-10-16T15:06:56Z</time>
      </trkpt>
      <trkpt lat="28.1911300" lon="-16.6631100">
        <ele>2179.8</ele>
        <time>2020-10-16T15:06:58Z</time>
      </trkpt>
      <trkpt lat="28.1910130" lon="-16.6627970">
        <ele>2178.2</ele>
        <time>2020-10-16T15:07:00Z</time>
      </trkpt>
      <trkpt lat="28.1909440" lon="-16.6626420">
        <ele>2177.0</ele>
        <time>2020-10-16T15:07:01Z</time>
      </trkpt>
      <trkpt lat="28.1908600" lon="-16.6624960">
        <ele>2176.0</ele>
        <time>2020-10-16T15:07:02Z</time>
      </trkpt>
      <trkpt lat="28.1906430" lon="-16.6622700">
        <ele>2174.4</ele>
        <time>2020-10-16T15:07:04Z</time>
      </trkpt>
      <trkpt lat="28.1905160" lon="-16.6621780">
        <ele>2173.2</ele>
        <time>2020-10-16T15:07:05Z</time>
      </trkpt>
      <trkpt lat="28.1903900" lon="-16.6620870">
        <ele>2172.0</ele>
        <time>2020-10-16T15:07:06Z</time>
      </trkpt>
      <trkpt lat="28.1902650" lon="-16.6619940">
        <ele>2170.8</ele>
        <time>2020-10-16T15:07:07Z</time>
      </trkpt>
      <trkpt lat="28.1900250" lon="-16.6618130">
        <ele>2169.2</ele>
        <time>2020-10-16T15:07:09Z</time>
      </trkpt>
      <trkpt lat="28.1897890" lon="-16.6616440">
        <ele>2167.8</ele>
        <time>2020-10-16T15:07:11Z</time>
      </trkpt>
      <trkpt lat="28.1895370" lon="-16.6615140">
        <ele>2166.2</ele>
        <time>2020-10-16T15:07:13Z</time>
      </trkpt>
      <trkpt lat="28.1892600" lon="-16.6614980">
        <ele>2165.0</ele>
        <time>2020-10-16T15:07:15Z</time>
      </trkpt>
      <trkpt lat="28.1889880" lon="-16.6615960">
        <ele>2164.0</ele>
        <time>2020-10-16T15:07:17Z</time>
      </trkpt>
      <trkpt lat="28.1887140" lon="-16.6617060">
        <ele>2162.6</ele>
        <time>2020-10-16T15:07:19Z</time>
      </trkpt>
      <trkpt lat="28.1884450" lon="-16.6617890">
        <ele>2160.0</ele>
        <time>2020-10-16T15:07:21Z</time>
      </trkpt>
      <trkpt lat="28.1883110" lon="-16.6617870">
        <ele>2159.0</ele>
        <time>2020-10-16T15:07:22Z</time>
      </trkpt>
      <trkpt lat="28.1880670" lon="-16.6616690">
        <ele>2157.0</ele>
        <time>2020-10-16T15:07:24Z</time>
      </trkpt>
      <trkpt lat="28.1879570" lon="-16.6615650">
        <ele>2155.6</ele>
        <time>2020-10-16T15:07:25Z</time>
      </trkpt>
      <trkpt lat="28.1878510" lon="-16.6614550">
        <ele>2154.6</ele>
        <time>2020-10-16T15:07:26Z</time>
      </trkpt>
      <trkpt lat="28.1876670" lon="-16.6612290">
        <ele>2153.2</ele>
        <time>2020-10-16T15:07:28Z</time>
      </trkpt>
      <trkpt lat="28.1875720" lon="-16.6609630">
        <ele>2151.4</ele>
        <time>2020-10-16T15:07:30Z</time>
      </trkpt>
      <trkpt lat="28.1876200" lon="-16.6606740">
        <ele>2149.8</ele>
        <time>2020-10-16T15:07:32Z</time>
      </trkpt>
      <trkpt lat="28.1876860" lon="-16.6605360">
        <ele>2148.6</ele>
        <time>2020-10-16T15:07:33Z</time>
      </trkpt>
      <trkpt lat="28.1877630" lon="-16.6604000">
        <ele>2147.6</ele>
        <time>2020-10-16T15:07:34Z</time>
      </trkpt>
      <trkpt lat="28.1879250" lon="-16.6601170">
        <ele>2145.6</ele>
        <time>2020-10-16T15:07:36Z</time>
      </trkpt>
      <trkpt lat="28.1880740" lon="-16.6598180">
        <ele>2143.8</ele>
        <time>2020-10-16T15:07:38Z</time>
      </trkpt>
      <trkpt lat="28.1882400" lon="-16.6595290">
        <ele>2142.0</ele>
        <time>2020-10-16T15:07:40Z</time>
      </trkpt>
      <trkpt lat="28.1883420" lon="-16.6594010">
        <ele>2140.8</ele>
        <time>2020-10-16T15:07:41Z</time>
      </trkpt>
      <trkpt lat="28.1885660" lon="-16.6591740">
        <ele>2138.8</ele>
        <time>2020-10-16T15:07:43Z</time>
      </trkpt>
      <trkpt lat="28.1886850" lon="-16.6590770">
        <ele>2137.8</ele>
        <time>2020-10-16T15:07:44Z</time>
      </trkpt>
      <trkpt lat="28.1889290" lon="-16.6589140">
        <ele>2135.8</ele>
        <time>2020-10-16T15:07:46Z</time>
      </trkpt>
      <trkpt lat="28.1891400" lon="-16.6587450">
        <ele>2133.8</ele>
        <time>2020-10-16T15:07:48Z</time>
      </trkpt>
      <trkpt lat="28.1892330" lon="-16.6584810">
        <ele>2131.8</ele>
        <time>2020-10-16T15:07:50Z</time>
      </trkpt>
      <trkpt lat="28.1891910" lon="-16.6581800">
        <ele>2130.0</ele>
        <time>2020-10-16T15:07:52Z</time>
      </trkpt>
      <trkpt lat="28.1891600" lon="-16.6580300">
        <ele>2129.0</ele>
        <time>2020-10-16T15:07:53Z</time>
      </trkpt>
      <trkpt lat="28.1891310" lon="-16.6578760">
        <ele>2127.4</ele>
        <time>2020-10-16T15:07:54Z</time>
      </trkpt>
      <trkpt lat="28.1890750" lon="-16.6575620">
        <ele>2125.4</ele>
        <time>2020-10-16T15:07:56Z</time>
      </trkpt>
      <trkpt lat="28.1890470" lon="-16.6574060">
        <ele>2124.0</ele>
        <time>2020-10-16T15:07:57Z</time>
      </trkpt>
      <trkpt lat="28.1889990" lon="-16.6572550">
        <ele>2122.4</ele>
        <time>2020-10-16T15:07:58Z</time>
      </trkpt>
      <trkpt lat="28.1889220" lon="-16.6571190">
        <ele>2121.0</ele>
        <time>2020-10-16T15:07:59Z</time>
      </trkpt>
      <trkpt lat="28.1886840" lon="-16.6569210">
        <ele>2119.0</ele>
        <time>2020-10-16T15:08:01Z</time>
      </trkpt>
      <trkpt lat="28.1885380" lon="-16.6568680">
        <ele>2117.8</ele>
        <time>2020-10-16T15:08:02Z</time>
      </trkpt>
      <trkpt lat="28.1882210" lon="-16.6568130">
        <ele>2115.8</ele>
        <time>2020-10-16T15:08:04Z</time>
      </trkpt>
      <trkpt lat="28.1880620" lon="-16.6567850">
        <ele>2114.4</ele>
        <time>2020-10-16T15:08:05Z</time>
      </trkpt>
      <trkpt lat="28.1879030" lon="-16.6567550">
        <ele>2113.2</ele>
        <time>2020-10-16T15:08:06Z</time>
      </trkpt>
      <trkpt lat="28.1877370" lon="-16.6567270">
        <ele>2111.8</ele>
        <time>2020-10-16T15:08:07Z</time>
      </trkpt>
      <trkpt lat="28.1875710" lon="-16.6567010">
        <ele>2110.6</ele>
        <time>2020-10-16T15:08:08Z</time>
      </trkpt>
      <trkpt lat="28.1874020" lon="-16.6566750">
        <ele>2109.2</ele>
        <time>2020-10-16T15:08:09Z</time>
      </trkpt>
      <trkpt lat="28.1872330" lon="-16.6566510">
        <ele>2107.8</ele>
        <time>2020-10-16T15:08:10Z</time>
      </trkpt>
      <trkpt lat="28.1870630" lon="-16.6566450">
        <ele>2106.4</ele>
        <time>2020-10-16T15:08:11Z</time>
      </trkpt>
      <trkpt lat="28.1868960" lon="-16.6566780">
        <ele>2105.2</ele>
        <time>2020-10-16T15:08:12Z</time>
      </trkpt>
      <trkpt lat="28.1867390" lon="-16.6567430">
        <ele>2104.0</ele>
        <time>2020-10-16T15:08:13Z</time>
      </trkpt>
      <trkpt lat="28.1865790" lon="-16.6568200">
        <ele>2103.0</ele>
        <time>2020-10-16T15:08:14Z</time>
      </trkpt>
      <trkpt lat="28.1864240" lon="-16.6569060">
        <ele>2101.8</ele>
        <time>2020-10-16T15:08:15Z</time>
      </trkpt>
      <trkpt lat="28.1862660" lon="-16.6569890">
        <ele>2100.6</ele>
        <time>2020-10-16T15:08:16Z</time>
      </trkpt>
      <trkpt lat="28.1861040" lon="-16.6570610">
        <ele>2099.4</ele>
        <time>2020-10-16T15:08:17Z</time>
      </trkpt>
      <trkpt lat="28.1859400" lon="-16.6571280">
        <ele>2098.2</ele>
        <time>2020-10-16T15:08:18Z</time>
      </trkpt>
      <trkpt lat="28.1857770" lon="-16.6571910">
        <ele>2096.8</ele>
        <time>2020-10-16T15:08:19Z</time>
      </trkpt>
      <trkpt lat="28.1856160" lon="-16.6572520">
        <ele>2095.6</ele>
        <time>2020-10-16T15:08:20Z</time>
      </trkpt>
      <trkpt lat="28.1854520" lon="-16.6573120">
        <ele>2094.2</ele>
        <time>2020-10-16T15:08:21Z</time>
      </trkpt>
      <trkpt lat="28.1852870" lon="-16.6573680">
        <ele>2092.8</ele>
        <time>2020-10-16T15:08:22Z</time>
      </trkpt>
      <trkpt lat="28.1851240" lon="-16.6574220">
        <ele>2091.6</ele>
        <time>2020-10-16T15:08:23Z</time>
      </trkpt>
      <trkpt lat="28.1849600" lon="-16.6574750">
        <ele>2090.2</ele>
        <time>2020-10-16T15:08:24Z</time>
      </trkpt>
      <trkpt lat="28.1847970" lon="-16.6575250">
        <ele>2088.6</ele>
        <time>2020-10-16T15:08:25Z</time>
      </trkpt>
      <trkpt lat="28.1846370" lon="-16.6575860">
        <ele>2087.6</ele>
        <time>2020-10-16T15:08:26Z</time>
      </trkpt>
      <trkpt lat="28.1844820" lon="-16.6576630">
        <ele>2085.0</ele>
        <time>2020-10-16T15:08:27Z</time>
      </trkpt>
      <trkpt lat="28.1843410" lon="-16.6577680">
        <ele>2083.6</ele>
        <time>2020-10-16T15:08:28Z</time>
      </trkpt>
      <trkpt lat="28.1842110" lon="-16.6578890">
        <ele>2082.0</ele>
        <time>2020-10-16T15:08:29Z</time>
      </trkpt>
      <trkpt lat="28.1840840" lon="-16.6580140">
        <ele>2080.4</ele>
        <time>2020-10-16T15:08:30Z</time>
      </trkpt>
      <trkpt lat="28.1838220" lon="-16.6582370">
        <ele>2078.8</ele>
        <time>2020-10-16T15:08:32Z</time>
      </trkpt>
      <trkpt lat="28.1835490" lon="-16.6584270">
        <ele>2076.8</ele>
        <time>2020-10-16T15:08:34Z</time>
      </trkpt>
      <trkpt lat="28.1834150" lon="-16.6585230">
        <ele>2075.6</ele>
        <time>2020-10-16T15:08:35Z</time>
      </trkpt>
      <trkpt lat="28.1832800" lon="-16.6586200">
        <ele>2074.0</ele>
        <time>2020-10-16T15:08:36Z</time>
      </trkpt>
      <trkpt lat="28.1831460" lon="-16.6587180">
        <ele>2072.4</ele>
        <time>2020-10-16T15:08:37Z</time>
      </trkpt>
      <trkpt lat="28.1828750" lon="-16.6588960">
        <ele>2070.6</ele>
        <time>2020-10-16T15:08:39Z</time>
      </trkpt>
      <trkpt lat="28.1827400" lon="-16.6589740">
        <ele>2069.4</ele>
        <time>2020-10-16T15:08:40Z</time>
      </trkpt>
      <trkpt lat="28.1824770" lon="-16.6591170">
        <ele>2068.0</ele>
        <time>2020-10-16T15:08:42Z</time>
      </trkpt>
      <trkpt lat="28.1823460" lon="-16.6591670">
        <ele>2067.2</ele>
        <time>2020-10-16T15:08:43Z</time>
      </trkpt>
      <trkpt lat="28.1822120" lon="-16.6591900">
        <ele>2066.4</ele>
        <time>2020-10-16T15:08:44Z</time>
      </trkpt>
      <trkpt lat="28.1820740" lon="-16.6591870">
        <ele>2065.2</ele>
        <time>2020-10-16T15:08:45Z</time>
      </trkpt>
      <trkpt lat="28.1819330" lon="-16.6591680">
        <ele>2064.0</ele>
        <time>2020-10-16T15:08:46Z</time>
      </trkpt>
      <trkpt lat="28.1817890" lon="-16.6591440">
        <ele>2062.8</ele>
        <time>2020-10-16T15:08:47Z</time>
      </trkpt>
      <trkpt lat="28.1816450" lon="-16.6591200">
        <ele>2061.4</ele>
        <time>2020-10-16T15:08:48Z</time>
      </trkpt>
      <trkpt lat="28.1814990" lon="-16.6590940">
        <ele>2060.0</ele>
        <time>2020-10-16T15:08:49Z</time>
      </trkpt>
      <trkpt lat="28.1813510" lon="-16.6590690">
        <ele>2058.8</ele>
        <time>2020-10-16T15:08:50Z</time>
      </trkpt>
      <trkpt lat="28.1812020" lon="-16.6590410">
        <ele>2057.4</ele>
        <time>2020-10-16T15:08:51Z</time>
      </trkpt>
      <trkpt lat="28.1810540" lon="-16.6590150">
        <ele>2056.2</ele>
        <time>2020-10-16T15:08:52Z</time>
      </trkpt>
      <trkpt lat="28.1807590" lon="-16.6589670">
        <ele>2054.6</ele>
        <time>2020-10-16T15:08:54Z</time>
      </trkpt>
      <trkpt lat="28.1806140" lon="-16.6589400">
        <ele>2053.4</ele>
        <time>2020-10-16T15:08:55Z</time>
      </trkpt>
      <trkpt lat="28.1803390" lon="-16.6588480">
        <ele>2051.6</ele>
        <time>2020-10-16T15:08:57Z</time>
      </trkpt>
      <trkpt lat="28.1802170" lon="-16.6587670">
        <ele>2050.6</ele>
        <time>2020-10-16T15:08:58Z</time>
      </trkpt>
      <trkpt lat="28.1801100" lon="-16.6586640">
        <ele>2049.4</ele>
        <time>2020-10-16T15:08:59Z</time>
      </trkpt>
      <trkpt lat="28.1800140" lon="-16.6585450">
        <ele>2047.0</ele>
        <time>2020-10-16T15:09:00Z</time>
      </trkpt>
      <trkpt lat="28.1799250" lon="-16.6584110">
        <ele>2046.0</ele>
        <time>2020-10-16T15:09:01Z</time>
      </trkpt>
      <trkpt lat="28.1798370" lon="-16.6582760">
        <ele>2045.0</ele>
        <time>2020-10-16T15:09:02Z</time>
      </trkpt>
      <trkpt lat="28.1797500" lon="-16.6581390">
        <ele>2043.6</ele>
        <time>2020-10-16T15:09:03Z</time>
      </trkpt>
      <trkpt lat="28.1796600" lon="-16.6580030">
        <ele>2042.4</ele>
        <time>2020-10-16T15:09:04Z</time>
      </trkpt>
      <trkpt lat="28.1795710" lon="-16.6578670">
        <ele>2041.4</ele>
        <time>2020-10-16T15:09:05Z</time>
      </trkpt>
      <trkpt lat="28.1793840" lon="-16.6576040">
        <ele>2039.6</ele>
        <time>2020-10-16T15:09:07Z</time>
      </trkpt>
      <trkpt lat="28.1792700" lon="-16.6574950">
        <ele>2038.6</ele>
        <time>2020-10-16T15:09:08Z</time>
      </trkpt>
      <trkpt lat="28.1789890" lon="-16.6573860">
        <ele>2036.6</ele>
        <time>2020-10-16T15:09:10Z</time>
      </trkpt>
      <trkpt lat="28.1787010" lon="-16.6573800">
        <ele>2034.6</ele>
        <time>2020-10-16T15:09:12Z</time>
      </trkpt>
      <trkpt lat="28.1785630" lon="-16.6573670">
        <ele>2033.6</ele>
        <time>2020-10-16T15:09:13Z</time>
      </trkpt>
      <trkpt lat="28.1784350" lon="-16.6573310">
        <ele>2032.2</ele>
        <time>2020-10-16T15:09:14Z</time>
      </trkpt>
      <trkpt lat="28.1783230" lon="-16.6572580">
        <ele>2030.8</ele>
        <time>2020-10-16T15:09:15Z</time>
      </trkpt>
      <trkpt lat="28.1781430" lon="-16.6570300">
        <ele>2028.8</ele>
        <time>2020-10-16T15:09:17Z</time>
      </trkpt>
      <trkpt lat="28.1780650" lon="-16.6568900">
        <ele>2027.4</ele>
        <time>2020-10-16T15:09:18Z</time>
      </trkpt>
      <trkpt lat="28.1779860" lon="-16.6567480">
        <ele>2025.8</ele>
        <time>2020-10-16T15:09:19Z</time>
      </trkpt>
      <trkpt lat="28.1779060" lon="-16.6566080">
        <ele>2024.6</ele>
        <time>2020-10-16T15:09:20Z</time>
      </trkpt>
      <trkpt lat="28.1777480" lon="-16.6563210">
        <ele>2023.4</ele>
        <time>2020-10-16T15:09:22Z</time>
      </trkpt>
      <trkpt lat="28.1775710" lon="-16.6560440">
        <ele>2021.6</ele>
        <time>2020-10-16T15:09:24Z</time>
      </trkpt>
      <trkpt lat="28.1774660" lon="-16.6559220">
        <ele>2020.6</ele>
        <time>2020-10-16T15:09:25Z</time>
      </trkpt>
      <trkpt lat="28.1773510" lon="-16.6558120">
        <ele>2019.4</ele>
        <time>2020-10-16T15:09:26Z</time>
      </trkpt>
      <trkpt lat="28.1772330" lon="-16.6557070">
        <ele>2018.2</ele>
        <time>2020-10-16T15:09:27Z</time>
      </trkpt>
      <trkpt lat="28.1770230" lon="-16.6555110">
        <ele>2016.4</ele>
        <time>2020-10-16T15:09:29Z</time>
      </trkpt>
      <trkpt lat="28.1769420" lon="-16.6554130">
        <ele>2015.4</ele>
        <time>2020-10-16T15:09:30Z</time>
      </trkpt>
      <trkpt lat="28.1768970" lon="-16.6552960">
        <ele>2014.4</ele>
        <time>2020-10-16T15:09:31Z</time>
      </trkpt>
      <trkpt lat="28.1768880" lon="-16.6551700">
        <ele>2013.2</ele>
        <time>2020-10-16T15:09:32Z</time>
      </trkpt>
      <trkpt lat="28.1769240" lon="-16.6550530">
        <ele>2010.8</ele>
        <time>2020-10-16T15:09:33Z</time>
      </trkpt>
      <trkpt lat="28.1769870" lon="-16.6549510">
        <ele>2009.4</ele>
        <time>2020-10-16T15:09:34Z</time>
      </trkpt>
      <trkpt lat="28.1770900" lon="-16.6548720">
        <ele>2008.2</ele>
        <time>2020-10-16T15:09:35Z</time>
      </trkpt>
      <trkpt lat="28.1773170" lon="-16.6547160">
        <ele>2006.4</ele>
        <time>2020-10-16T15:09:37Z</time>
      </trkpt>
      <trkpt lat="28.1774980" lon="-16.6544930">
        <ele>2005.4</ele>
        <time>2020-10-16T15:09:39Z</time>
      </trkpt>
      <trkpt lat="28.1775240" lon="-16.6542090">
        <ele>2003.8</ele>
        <time>2020-10-16T15:09:41Z</time>
      </trkpt>
      <trkpt lat="28.1773880" lon="-16.6539720">
        <ele>2001.8</ele>
        <time>2020-10-16T15:09:43Z</time>
      </trkpt>
      <trkpt lat="28.1773000" lon="-16.6538680">
        <ele>2000.8</ele>
        <time>2020-10-16T15:09:44Z</time>
      </trkpt>
      <trkpt lat="28.1772100" lon="-16.6537610">
        <ele>2000.0</ele>
        <time>2020-10-16T15:09:45Z</time>
      </trkpt>
      <trkpt lat="28.1771230" lon="-16.6536510">
        <ele>1998.8</ele>
        <time>2020-10-16T15:09:46Z</time>
      </trkpt>
      <trkpt lat="28.1770340" lon="-16.6535380">
        <ele>1997.8</ele>
        <time>2020-10-16T15:09:47Z</time>
      </trkpt>
      <trkpt lat="28.1768720" lon="-16.6532960">
        <ele>1995.8</ele>
        <time>2020-10-16T15:09:49Z</time>
      </trkpt>
      <trkpt lat="28.1767120" lon="-16.6530410">
        <ele>1994.0</ele>
        <time>2020-10-16T15:09:51Z</time>
      </trkpt>
      <trkpt lat="28.1766320" lon="-16.6529100">
        <ele>1993.0</ele>
        <time>2020-10-16T15:09:52Z</time>
      </trkpt>
      <trkpt lat="28.1765510" lon="-16.6527760">
        <ele>1992.0</ele>
        <time>2020-10-16T15:09:53Z</time>
      </trkpt>
      <trkpt lat="28.1764670" lon="-16.6526430">
        <ele>1990.8</ele>
        <time>2020-10-16T15:09:54Z</time>
      </trkpt>
      <trkpt lat="28.1763760" lon="-16.6525160">
        <ele>1989.8</ele>
        <time>2020-10-16T15:09:55Z</time>
      </trkpt>
      <trkpt lat="28.1762840" lon="-16.6523910">
        <ele>1988.8</ele>
        <time>2020-10-16T15:09:56Z</time>
      </trkpt>
      <trkpt lat="28.1761910" lon="-16.6522660">
        <ele>1987.8</ele>
        <time>2020-10-16T15:09:57Z</time>
      </trkpt>
      <trkpt lat="28.1760990" lon="-16.6521400">
        <ele>1986.8</ele>
        <time>2020-10-16T15:09:58Z</time>
      </trkpt>
      <trkpt lat="28.1760090" lon="-16.6520180">
        <ele>1985.6</ele>
        <time>2020-10-16T15:09:59Z</time>
      </trkpt>
      <trkpt lat="28.1759210" lon="-16.6519010">
        <ele>1984.6</ele>
        <time>2020-10-16T15:10:00Z</time>
      </trkpt>
      <trkpt lat="28.1758400" lon="-16.6517820">
        <ele>1983.6</ele>
        <time>2020-10-16T15:10:01Z</time>
      </trkpt>
      <trkpt lat="28.1757700" lon="-16.6516550">
        <ele>1982.4</ele>
        <time>2020-10-16T15:10:02Z</time>
      </trkpt>
      <trkpt lat="28.1756950" lon="-16.6513670">
        <ele>1980.2</ele>
        <time>2020-10-16T15:10:04Z</time>
      </trkpt>
      <trkpt lat="28.1756730" lon="-16.6512210">
        <ele>1979.2</ele>
        <time>2020-10-16T15:10:05Z</time>
      </trkpt>
      <trkpt lat="28.1756420" lon="-16.6510810">
        <ele>1976.8</ele>
        <time>2020-10-16T15:10:06Z</time>
      </trkpt>
      <trkpt lat="28.1755960" lon="-16.6509510">
        <ele>1975.8</ele>
        <time>2020-10-16T15:10:07Z</time>
      </trkpt>
      <trkpt lat="28.1755270" lon="-16.6508430">
        <ele>1974.8</ele>
        <time>2020-10-16T15:10:08Z</time>
      </trkpt>
      <trkpt lat="28.1753190" lon="-16.6507620">
        <ele>1973.0</ele>
        <time>2020-10-16T15:10:10Z</time>
      </trkpt>
      <trkpt lat="28.1751330" lon="-16.6509020">
        <ele>1971.2</ele>
        <time>2020-10-16T15:10:12Z</time>
      </trkpt>
      <trkpt lat="28.1750180" lon="-16.6511650">
        <ele>1969.4</ele>
        <time>2020-10-16T15:10:14Z</time>
      </trkpt>
      <trkpt lat="28.1749700" lon="-16.6513040">
        <ele>1968.6</ele>
        <time>2020-10-16T15:10:15Z</time>
      </trkpt>
      <trkpt lat="28.1749230" lon="-16.6514400">
        <ele>1967.8</ele>
        <time>2020-10-16T15:10:16Z</time>
      </trkpt>
      <trkpt lat="28.1748900" lon="-16.6515850">
        <ele>1967.0</ele>
        <time>2020-10-16T15:10:17Z</time>
      </trkpt>
      <trkpt lat="28.1748820" lon="-16.6517290">
        <ele>1966.2</ele>
        <time>2020-10-16T15:10:18Z</time>
      </trkpt>
      <trkpt lat="28.1749170" lon="-16.6520190">
        <ele>1964.6</ele>
        <time>2020-10-16T15:10:20Z</time>
      </trkpt>
      <trkpt lat="28.1749410" lon="-16.6522920">
        <ele>1963.0</ele>
        <time>2020-10-16T15:10:22Z</time>
      </trkpt>
      <trkpt lat="28.1748930" lon="-16.6525370">
        <ele>1961.4</ele>
        <time>2020-10-16T15:10:24Z</time>
      </trkpt>
      <trkpt lat="28.1747370" lon="-16.6526680">
        <ele>1959.8</ele>
        <time>2020-10-16T15:10:26Z</time>
      </trkpt>
      <trkpt lat="28.1745490" lon="-16.6525670">
        <ele>1958.0</ele>
        <time>2020-10-16T15:10:28Z</time>
      </trkpt>
      <trkpt lat="28.1744130" lon="-16.6523490">
        <ele>1956.2</ele>
        <time>2020-10-16T15:10:30Z</time>
      </trkpt>
      <trkpt lat="28.1743490" lon="-16.6522290">
        <ele>1955.6</ele>
        <time>2020-10-16T15:10:31Z</time>
      </trkpt>
      <trkpt lat="28.1742880" lon="-16.6521080">
        <ele>1954.8</ele>
        <time>2020-10-16T15:10:32Z</time>
      </trkpt>
      <trkpt lat="28.1741640" lon="-16.6518580">
        <ele>1953.4</ele>
        <time>2020-10-16T15:10:34Z</time>
      </trkpt>
      <trkpt lat="28.1740530" lon="-16.6516020">
        <ele>1952.2</ele>
        <time>2020-10-16T15:10:36Z</time>
      </trkpt>
      <trkpt lat="28.1740060" lon="-16.6513290">
        <ele>1950.6</ele>
        <time>2020-10-16T15:10:38Z</time>
      </trkpt>
      <trkpt lat="28.1740250" lon="-16.6511900">
        <ele>1949.0</ele>
        <time>2020-10-16T15:10:39Z</time>
      </trkpt>
      <trkpt lat="28.1741300" lon="-16.6509280">
        <ele>1948.0</ele>
        <time>2020-10-16T15:10:41Z</time>
      </trkpt>
      <trkpt lat="28.1741950" lon="-16.6508020">
        <ele>1947.4</ele>
        <time>2020-10-16T15:10:42Z</time>
      </trkpt>
      <trkpt lat="28.1743480" lon="-16.6505700">
        <ele>1946.6</ele>
        <time>2020-10-16T15:10:44Z</time>
      </trkpt>
      <trkpt lat="28.1745780" lon="-16.6504390">
        <ele>1945.4</ele>
        <time>2020-10-16T15:10:46Z</time>
      </trkpt>
      <trkpt lat="28.1748440" lon="-16.6503830">
        <ele>1944.2</ele>
        <time>2020-10-16T15:10:48Z</time>
      </trkpt>
      <trkpt lat="28.1751160" lon="-16.6503250">
        <ele>1942.8</ele>
        <time>2020-10-16T15:10:50Z</time>
      </trkpt>
      <trkpt lat="28.1753820" lon="-16.6502670">
        <ele>1941.6</ele>
        <time>2020-10-16T15:10:52Z</time>
      </trkpt>
      <trkpt lat="28.1756340" lon="-16.6502170">
        <ele>1939.8</ele>
        <time>2020-10-16T15:10:54Z</time>
      </trkpt>
      <trkpt lat="28.1758700" lon="-16.6501400">
        <ele>1938.0</ele>
        <time>2020-10-16T15:10:56Z</time>
      </trkpt>
      <trkpt lat="28.1760460" lon="-16.6499750">
        <ele>1936.6</ele>
        <time>2020-10-16T15:10:58Z</time>
      </trkpt>
      <trkpt lat="28.1761160" lon="-16.6496360">
        <ele>1935.4</ele>
        <time>2020-10-16T15:11:01Z</time>
      </trkpt>
      <trkpt lat="28.1758940" lon="-16.6493920">
        <ele>1934.4</ele>
        <time>2020-10-16T15:11:04Z</time>
      </trkpt>
      <trkpt lat="28.1756540" lon="-16.6492550">
        <ele>1934.2</ele>
        <time>2020-10-16T15:11:06Z</time>
      </trkpt>
      <trkpt lat="28.1750570" lon="-16.6489210">
        <ele>1933.2</ele>
        <time>2020-10-16T15:11:11Z</time>
      </trkpt>
      <trkpt lat="28.1748250" lon="-16.6487700">
        <ele>1931.0</ele>
        <time>2020-10-16T15:11:13Z</time>
      </trkpt>
      <trkpt lat="28.1747240" lon="-16.6486790">
        <ele>1929.6</ele>
        <time>2020-10-16T15:11:14Z</time>
      </trkpt>
      <trkpt lat="28.1745560" lon="-16.6484550">
        <ele>1928.0</ele>
        <time>2020-10-16T15:11:16Z</time>
      </trkpt>
      <trkpt lat="28.1744940" lon="-16.6481470">
        <ele>1926.4</ele>
        <time>2020-10-16T15:11:18Z</time>
      </trkpt>
      <trkpt lat="28.1744840" lon="-16.6479830">
        <ele>1925.6</ele>
        <time>2020-10-16T15:11:19Z</time>
      </trkpt>
      <trkpt lat="28.1744790" lon="-16.6478140">
        <ele>1924.6</ele>
        <time>2020-10-16T15:11:20Z</time>
      </trkpt>
      <trkpt lat="28.1744760" lon="-16.6476440">
        <ele>1923.4</ele>
        <time>2020-10-16T15:11:21Z</time>
      </trkpt>
      <trkpt lat="28.1744630" lon="-16.6474750">
        <ele>1922.2</ele>
        <time>2020-10-16T15:11:22Z</time>
      </trkpt>
      <trkpt lat="28.1744290" lon="-16.6473100">
        <ele>1921.0</ele>
        <time>2020-10-16T15:11:23Z</time>
      </trkpt>
      <trkpt lat="28.1743600" lon="-16.6471630">
        <ele>1920.0</ele>
        <time>2020-10-16T15:11:24Z</time>
      </trkpt>
      <trkpt lat="28.1741200" lon="-16.6469510">
        <ele>1918.0</ele>
        <time>2020-10-16T15:11:26Z</time>
      </trkpt>
      <trkpt lat="28.1739670" lon="-16.6468950">
        <ele>1916.8</ele>
        <time>2020-10-16T15:11:27Z</time>
      </trkpt>
      <trkpt lat="28.1738070" lon="-16.6468640">
        <ele>1915.8</ele>
        <time>2020-10-16T15:11:28Z</time>
      </trkpt>
      <trkpt lat="28.1736480" lon="-16.6468440">
        <ele>1914.6</ele>
        <time>2020-10-16T15:11:29Z</time>
      </trkpt>
      <trkpt lat="28.1734900" lon="-16.6468320">
        <ele>1913.4</ele>
        <time>2020-10-16T15:11:30Z</time>
      </trkpt>
      <trkpt lat="28.1731730" lon="-16.6467920">
        <ele>1911.2</ele>
        <time>2020-10-16T15:11:32Z</time>
      </trkpt>
      <trkpt lat="28.1730120" lon="-16.6467710">
        <ele>1909.4</ele>
        <time>2020-10-16T15:11:33Z</time>
      </trkpt>
      <trkpt lat="28.1728490" lon="-16.6467500">
        <ele>1907.6</ele>
        <time>2020-10-16T15:11:34Z</time>
      </trkpt>
      <trkpt lat="28.1726870" lon="-16.6467310">
        <ele>1905.8</ele>
        <time>2020-10-16T15:11:35Z</time>
      </trkpt>
      <trkpt lat="28.1725330" lon="-16.6467090">
        <ele>1904.2</ele>
        <time>2020-10-16T15:11:36Z</time>
      </trkpt>
      <trkpt lat="28.1723880" lon="-16.6466860">
        <ele>1903.2</ele>
        <time>2020-10-16T15:11:37Z</time>
      </trkpt>
      <trkpt lat="28.1722500" lon="-16.6466550">
        <ele>1902.0</ele>
        <time>2020-10-16T15:11:38Z</time>
      </trkpt>
      <trkpt lat="28.1721270" lon="-16.6465870">
        <ele>1900.4</ele>
        <time>2020-10-16T15:11:39Z</time>
      </trkpt>
      <trkpt lat="28.1720150" lon="-16.6464950">
        <ele>1898.4</ele>
        <time>2020-10-16T15:11:40Z</time>
      </trkpt>
      <trkpt lat="28.1719160" lon="-16.6463800">
        <ele>1896.8</ele>
        <time>2020-10-16T15:11:41Z</time>
      </trkpt>
      <trkpt lat="28.1718380" lon="-16.6462370">
        <ele>1895.8</ele>
        <time>2020-10-16T15:11:42Z</time>
      </trkpt>
      <trkpt lat="28.1717210" lon="-16.6459290">
        <ele>1893.8</ele>
        <time>2020-10-16T15:11:44Z</time>
      </trkpt>
      <trkpt lat="28.1716310" lon="-16.6456100">
        <ele>1891.4</ele>
        <time>2020-10-16T15:11:46Z</time>
      </trkpt>
      <trkpt lat="28.1716180" lon="-16.6454420">
        <ele>1890.2</ele>
        <time>2020-10-16T15:11:47Z</time>
      </trkpt>
      <trkpt lat="28.1716260" lon="-16.6452690">
        <ele>1889.0</ele>
        <time>2020-10-16T15:11:48Z</time>
      </trkpt>
      <trkpt lat="28.1716610" lon="-16.6450980">
        <ele>1887.4</ele>
        <time>2020-10-16T15:11:49Z</time>
      </trkpt>
      <trkpt lat="28.1717180" lon="-16.6449370">
        <ele>1886.2</ele>
        <time>2020-10-16T15:11:50Z</time>
      </trkpt>
      <trkpt lat="28.1718060" lon="-16.6447860">
        <ele>1884.8</ele>
        <time>2020-10-16T15:11:51Z</time>
      </trkpt>
      <trkpt lat="28.1719080" lon="-16.6446540">
        <ele>1883.4</ele>
        <time>2020-10-16T15:11:52Z</time>
      </trkpt>
      <trkpt lat="28.1721850" lon="-16.6444780">
        <ele>1881.6</ele>
        <time>2020-10-16T15:11:54Z</time>
      </trkpt>
      <trkpt lat="28.1723330" lon="-16.6444070">
        <ele>1880.6</ele>
        <time>2020-10-16T15:11:55Z</time>
      </trkpt>
      <trkpt lat="28.1724810" lon="-16.6443370">
        <ele>1879.2</ele>
        <time>2020-10-16T15:11:56Z</time>
      </trkpt>
      <trkpt lat="28.1726290" lon="-16.6442670">
        <ele>1878.0</ele>
        <time>2020-10-16T15:11:57Z</time>
      </trkpt>
      <trkpt lat="28.1727720" lon="-16.6442040">
        <ele>1876.6</ele>
        <time>2020-10-16T15:11:58Z</time>
      </trkpt>
      <trkpt lat="28.1729200" lon="-16.6441630">
        <ele>1875.4</ele>
        <time>2020-10-16T15:11:59Z</time>
      </trkpt>
      <trkpt lat="28.1732310" lon="-16.6441370">
        <ele>1873.4</ele>
        <time>2020-10-16T15:12:01Z</time>
      </trkpt>
      <trkpt lat="28.1733910" lon="-16.6441330">
        <ele>1872.4</ele>
        <time>2020-10-16T15:12:02Z</time>
      </trkpt>
      <trkpt lat="28.1735490" lon="-16.6441280">
        <ele>1871.2</ele>
        <time>2020-10-16T15:12:03Z</time>
      </trkpt>
      <trkpt lat="28.1737050" lon="-16.6441280">
        <ele>1870.0</ele>
        <time>2020-10-16T15:12:04Z</time>
      </trkpt>
      <trkpt lat="28.1740080" lon="-16.6441590">
        <ele>1868.4</ele>
        <time>2020-10-16T15:12:06Z</time>
      </trkpt>
      <trkpt lat="28.1743040" lon="-16.6442530">
        <ele>1866.8</ele>
        <time>2020-10-16T15:12:08Z</time>
      </trkpt>
      <trkpt lat="28.1746030" lon="-16.6443720">
        <ele>1864.8</ele>
        <time>2020-10-16T15:12:10Z</time>
      </trkpt>
      <trkpt lat="28.1747480" lon="-16.6444250">
        <ele>1863.8</ele>
        <time>2020-10-16T15:12:11Z</time>
      </trkpt>
      <trkpt lat="28.1748960" lon="-16.6444710">
        <ele>1862.6</ele>
        <time>2020-10-16T15:12:12Z</time>
      </trkpt>
      <trkpt lat="28.1750470" lon="-16.6445050">
        <ele>1861.4</ele>
        <time>2020-10-16T15:12:13Z</time>
      </trkpt>
      <trkpt lat="28.1752020" lon="-16.6445230">
        <ele>1860.4</ele>
        <time>2020-10-16T15:12:14Z</time>
      </trkpt>
      <trkpt lat="28.1753590" lon="-16.6445350">
        <ele>1859.2</ele>
        <time>2020-10-16T15:12:15Z</time>
      </trkpt>
      <trkpt lat="28.1755160" lon="-16.6445560">
        <ele>1858.0</ele>
        <time>2020-10-16T15:12:16Z</time>
      </trkpt>
      <trkpt lat="28.1756710" lon="-16.6445900">
        <ele>1856.8</ele>
        <time>2020-10-16T15:12:17Z</time>
      </trkpt>
      <trkpt lat="28.1759720" lon="-16.6446920">
        <ele>1853.4</ele>
        <time>2020-10-16T15:12:19Z</time>
      </trkpt>
      <trkpt lat="28.1761240" lon="-16.6447490">
        <ele>1852.2</ele>
        <time>2020-10-16T15:12:20Z</time>
      </trkpt>
      <trkpt lat="28.1762790" lon="-16.6448090">
        <ele>1850.8</ele>
        <time>2020-10-16T15:12:21Z</time>
      </trkpt>
      <trkpt lat="28.1764310" lon="-16.6448710">
        <ele>1849.8</ele>
        <time>2020-10-16T15:12:22Z</time>
      </trkpt>
      <trkpt lat="28.1765790" lon="-16.6449250">
        <ele>1848.8</ele>
        <time>2020-10-16T15:12:23Z</time>
      </trkpt>
      <trkpt lat="28.1767220" lon="-16.6449690">
        <ele>1847.6</ele>
        <time>2020-10-16T15:12:24Z</time>
      </trkpt>
      <trkpt lat="28.1768630" lon="-16.6449900">
        <ele>1846.4</ele>
        <time>2020-10-16T15:12:25Z</time>
      </trkpt>
      <trkpt lat="28.1769980" lon="-16.6449820">
        <ele>1845.0</ele>
        <time>2020-10-16T15:12:26Z</time>
      </trkpt>
      <trkpt lat="28.1771300" lon="-16.6449400">
        <ele>1843.8</ele>
        <time>2020-10-16T15:12:27Z</time>
      </trkpt>
      <trkpt lat="28.1772480" lon="-16.6448580">
        <ele>1842.4</ele>
        <time>2020-10-16T15:12:28Z</time>
      </trkpt>
      <trkpt lat="28.1773530" lon="-16.6447490">
        <ele>1841.2</ele>
        <time>2020-10-16T15:12:29Z</time>
      </trkpt>
      <trkpt lat="28.1774440" lon="-16.6446250">
        <ele>1840.0</ele>
        <time>2020-10-16T15:12:30Z</time>
      </trkpt>
      <trkpt lat="28.1775110" lon="-16.6444840">
        <ele>1838.8</ele>
        <time>2020-10-16T15:12:31Z</time>
      </trkpt>
      <trkpt lat="28.1775710" lon="-16.6443370">
        <ele>1837.6</ele>
        <time>2020-10-16T15:12:32Z</time>
      </trkpt>
      <trkpt lat="28.1776210" lon="-16.6441850">
        <ele>1836.2</ele>
        <time>2020-10-16T15:12:33Z</time>
      </trkpt>
      <trkpt lat="28.1776440" lon="-16.6440250">
        <ele>1834.8</ele>
        <time>2020-10-16T15:12:34Z</time>
      </trkpt>
      <trkpt lat="28.1776360" lon="-16.6438710">
        <ele>1833.2</ele>
        <time>2020-10-16T15:12:35Z</time>
      </trkpt>
      <trkpt lat="28.1775990" lon="-16.6437220">
        <ele>1831.8</ele>
        <time>2020-10-16T15:12:36Z</time>
      </trkpt>
      <trkpt lat="28.1775150" lon="-16.6435900">
        <ele>1830.6</ele>
        <time>2020-10-16T15:12:37Z</time>
      </trkpt>
      <trkpt lat="28.1773900" lon="-16.6434890">
        <ele>1829.0</ele>
        <time>2020-10-16T15:12:38Z</time>
      </trkpt>
      <trkpt lat="28.1772420" lon="-16.6434310">
        <ele>1827.8</ele>
        <time>2020-10-16T15:12:39Z</time>
      </trkpt>
      <trkpt lat="28.1770850" lon="-16.6434130">
        <ele>1826.6</ele>
        <time>2020-10-16T15:12:40Z</time>
      </trkpt>
      <trkpt lat="28.1769240" lon="-16.6434190">
        <ele>1825.4</ele>
        <time>2020-10-16T15:12:41Z</time>
      </trkpt>
      <trkpt lat="28.1767750" lon="-16.6434380">
        <ele>1824.2</ele>
        <time>2020-10-16T15:12:42Z</time>
      </trkpt>
      <trkpt lat="28.1766310" lon="-16.6434520">
        <ele>1823.0</ele>
        <time>2020-10-16T15:12:43Z</time>
      </trkpt>
      <trkpt lat="28.1764900" lon="-16.6434450">
        <ele>1822.0</ele>
        <time>2020-10-16T15:12:44Z</time>
      </trkpt>
      <trkpt lat="28.1763610" lon="-16.6434140">
        <ele>1820.4</ele>
        <time>2020-10-16T15:12:45Z</time>
      </trkpt>
      <trkpt lat="28.1762440" lon="-16.6433530">
        <ele>1819.0</ele>
        <time>2020-10-16T15:12:46Z</time>
      </trkpt>
      <trkpt lat="28.1761420" lon="-16.6432520">
        <ele>1817.6</ele>
        <time>2020-10-16T15:12:47Z</time>
      </trkpt>
      <trkpt lat="28.1760540" lon="-16.6431300">
        <ele>1816.2</ele>
        <time>2020-10-16T15:12:48Z</time>
      </trkpt>
      <trkpt lat="28.1759740" lon="-16.6429960">
        <ele>1814.8</ele>
        <time>2020-10-16T15:12:49Z</time>
      </trkpt>
      <trkpt lat="28.1758980" lon="-16.6428570">
        <ele>1813.6</ele>
        <time>2020-10-16T15:12:50Z</time>
      </trkpt>
      <trkpt lat="28.1758270" lon="-16.6427180">
        <ele>1812.4</ele>
        <time>2020-10-16T15:12:51Z</time>
      </trkpt>
      <trkpt lat="28.1757490" lon="-16.6425790">
        <ele>1810.0</ele>
        <time>2020-10-16T15:12:52Z</time>
      </trkpt>
      <trkpt lat="28.1756710" lon="-16.6424340">
        <ele>1808.8</ele>
        <time>2020-10-16T15:12:53Z</time>
      </trkpt>
      <trkpt lat="28.1756040" lon="-16.6422810">
        <ele>1807.6</ele>
        <time>2020-10-16T15:12:54Z</time>
      </trkpt>
      <trkpt lat="28.1755500" lon="-16.6421230">
        <ele>1806.4</ele>
        <time>2020-10-16T15:12:55Z</time>
      </trkpt>
      <trkpt lat="28.1755120" lon="-16.6419570">
        <ele>1804.8</ele>
        <time>2020-10-16T15:12:56Z</time>
      </trkpt>
      <trkpt lat="28.1754860" lon="-16.6417890">
        <ele>1803.2</ele>
        <time>2020-10-16T15:12:57Z</time>
      </trkpt>
      <trkpt lat="28.1754650" lon="-16.6416210">
        <ele>1801.6</ele>
        <time>2020-10-16T15:12:58Z</time>
      </trkpt>
      <trkpt lat="28.1754480" lon="-16.6414520">
        <ele>1800.0</ele>
        <time>2020-10-16T15:12:59Z</time>
      </trkpt>
      <trkpt lat="28.1754310" lon="-16.6412820">
        <ele>1798.4</ele>
        <time>2020-10-16T15:13:00Z</time>
      </trkpt>
      <trkpt lat="28.1754120" lon="-16.6411130">
        <ele>1796.8</ele>
        <time>2020-10-16T15:13:01Z</time>
      </trkpt>
      <trkpt lat="28.1753950" lon="-16.6409430">
        <ele>1795.2</ele>
        <time>2020-10-16T15:13:02Z</time>
      </trkpt>
      <trkpt lat="28.1753780" lon="-16.6407730">
        <ele>1793.8</ele>
        <time>2020-10-16T15:13:03Z</time>
      </trkpt>
      <trkpt lat="28.1753640" lon="-16.6406030">
        <ele>1792.4</ele>
        <time>2020-10-16T15:13:04Z</time>
      </trkpt>
      <trkpt lat="28.1753500" lon="-16.6404330">
        <ele>1791.0</ele>
        <time>2020-10-16T15:13:05Z</time>
      </trkpt>
      <trkpt lat="28.1753350" lon="-16.6402630">
        <ele>1789.8</ele>
        <time>2020-10-16T15:13:06Z</time>
      </trkpt>
      <trkpt lat="28.1753210" lon="-16.6400940">
        <ele>1788.4</ele>
        <time>2020-10-16T15:13:07Z</time>
      </trkpt>
      <trkpt lat="28.1753070" lon="-16.6399240">
        <ele>1787.2</ele>
        <time>2020-10-16T15:13:08Z</time>
      </trkpt>
      <trkpt lat="28.1752890" lon="-16.6397530">
        <ele>1785.8</ele>
        <time>2020-10-16T15:13:09Z</time>
      </trkpt>
      <trkpt lat="28.1752630" lon="-16.6395850">
        <ele>1784.6</ele>
        <time>2020-10-16T15:13:10Z</time>
      </trkpt>
      <trkpt lat="28.1752220" lon="-16.6394210">
        <ele>1783.0</ele>
        <time>2020-10-16T15:13:11Z</time>
      </trkpt>
      <trkpt lat="28.1751580" lon="-16.6392710">
        <ele>1781.4</ele>
        <time>2020-10-16T15:13:12Z</time>
      </trkpt>
      <trkpt lat="28.1750790" lon="-16.6391320">
        <ele>1779.8</ele>
        <time>2020-10-16T15:13:13Z</time>
      </trkpt>
      <trkpt lat="28.1749870" lon="-16.6389990">
        <ele>1778.6</ele>
        <time>2020-10-16T15:13:14Z</time>
      </trkpt>
      <trkpt lat="28.1748870" lon="-16.6388770">
        <ele>1777.6</ele>
        <time>2020-10-16T15:13:15Z</time>
      </trkpt>
      <trkpt lat="28.1747800" lon="-16.6387590">
        <ele>1776.4</ele>
        <time>2020-10-16T15:13:16Z</time>
      </trkpt>
      <trkpt lat="28.1746540" lon="-16.6386560">
        <ele>1775.0</ele>
        <time>2020-10-16T15:13:17Z</time>
      </trkpt>
      <trkpt lat="28.1745210" lon="-16.6385590">
        <ele>1773.6</ele>
        <time>2020-10-16T15:13:18Z</time>
      </trkpt>
      <trkpt lat="28.1743780" lon="-16.6384680">
        <ele>1772.4</ele>
        <time>2020-10-16T15:13:19Z</time>
      </trkpt>
      <trkpt lat="28.1742400" lon="-16.6383710">
        <ele>1771.2</ele>
        <time>2020-10-16T15:13:20Z</time>
      </trkpt>
      <trkpt lat="28.1740990" lon="-16.6382710">
        <ele>1770.2</ele>
        <time>2020-10-16T15:13:21Z</time>
      </trkpt>
      <trkpt lat="28.1739490" lon="-16.6381670">
        <ele>1768.8</ele>
        <time>2020-10-16T15:13:22Z</time>
      </trkpt>
      <trkpt lat="28.1737990" lon="-16.6380620">
        <ele>1767.2</ele>
        <time>2020-10-16T15:13:23Z</time>
      </trkpt>
      <trkpt lat="28.1736520" lon="-16.6379580">
        <ele>1766.0</ele>
        <time>2020-10-16T15:13:24Z</time>
      </trkpt>
      <trkpt lat="28.1735080" lon="-16.6378550">
        <ele>1763.4</ele>
        <time>2020-10-16T15:13:25Z</time>
      </trkpt>
      <trkpt lat="28.1733650" lon="-16.6377540">
        <ele>1761.8</ele>
        <time>2020-10-16T15:13:26Z</time>
      </trkpt>
      <trkpt lat="28.1732190" lon="-16.6376510">
        <ele>1760.4</ele>
        <time>2020-10-16T15:13:27Z</time>
      </trkpt>
      <trkpt lat="28.1730750" lon="-16.6375490">
        <ele>1758.8</ele>
        <time>2020-10-16T15:13:28Z</time>
      </trkpt>
      <trkpt lat="28.1729310" lon="-16.6374540">
        <ele>1757.2</ele>
        <time>2020-10-16T15:13:29Z</time>
      </trkpt>
      <trkpt lat="28.1727840" lon="-16.6373650">
        <ele>1755.8</ele>
        <time>2020-10-16T15:13:30Z</time>
      </trkpt>
      <trkpt lat="28.1726330" lon="-16.6372830">
        <ele>1754.4</ele>
        <time>2020-10-16T15:13:31Z</time>
      </trkpt>
      <trkpt lat="28.1724790" lon="-16.6372060">
        <ele>1753.2</ele>
        <time>2020-10-16T15:13:32Z</time>
      </trkpt>
      <trkpt lat="28.1723180" lon="-16.6371340">
        <ele>1751.8</ele>
        <time>2020-10-16T15:13:33Z</time>
      </trkpt>
      <trkpt lat="28.1721600" lon="-16.6370660">
        <ele>1750.2</ele>
        <time>2020-10-16T15:13:34Z</time>
      </trkpt>
      <trkpt lat="28.1720040" lon="-16.6370000">
        <ele>1748.8</ele>
        <time>2020-10-16T15:13:35Z</time>
      </trkpt>
      <trkpt lat="28.1718500" lon="-16.6369330">
        <ele>1747.2</ele>
        <time>2020-10-16T15:13:36Z</time>
      </trkpt>
      <trkpt lat="28.1716970" lon="-16.6368670">
        <ele>1745.8</ele>
        <time>2020-10-16T15:13:37Z</time>
      </trkpt>
      <trkpt lat="28.1715430" lon="-16.6368010">
        <ele>1744.6</ele>
        <time>2020-10-16T15:13:38Z</time>
      </trkpt>
      <trkpt lat="28.1713900" lon="-16.6367370">
        <ele>1743.2</ele>
        <time>2020-10-16T15:13:39Z</time>
      </trkpt>
      <trkpt lat="28.1712430" lon="-16.6366720">
        <ele>1741.8</ele>
        <time>2020-10-16T15:13:40Z</time>
      </trkpt>
      <trkpt lat="28.1710970" lon="-16.6366110">
        <ele>1740.0</ele>
        <time>2020-10-16T15:13:41Z</time>
      </trkpt>
      <trkpt lat="28.1709540" lon="-16.6365520">
        <ele>1738.6</ele>
        <time>2020-10-16T15:13:42Z</time>
      </trkpt>
      <trkpt lat="28.1708100" lon="-16.6364910">
        <ele>1737.4</ele>
        <time>2020-10-16T15:13:43Z</time>
      </trkpt>
      <trkpt lat="28.1706660" lon="-16.6364330">
        <ele>1736.2</ele>
        <time>2020-10-16T15:13:44Z</time>
      </trkpt>
      <trkpt lat="28.1705250" lon="-16.6363780">
        <ele>1735.0</ele>
        <time>2020-10-16T15:13:45Z</time>
      </trkpt>
      <trkpt lat="28.1703820" lon="-16.6363280">
        <ele>1733.8</ele>
        <time>2020-10-16T15:13:46Z</time>
      </trkpt>
      <trkpt lat="28.1702410" lon="-16.6362860">
        <ele>1732.4</ele>
        <time>2020-10-16T15:13:47Z</time>
      </trkpt>
      <trkpt lat="28.1701030" lon="-16.6362410">
        <ele>1731.2</ele>
        <time>2020-10-16T15:13:48Z</time>
      </trkpt>
      <trkpt lat="28.1699620" lon="-16.6361970">
        <ele>1730.0</ele>
        <time>2020-10-16T15:13:49Z</time>
      </trkpt>
      <trkpt lat="28.1698190" lon="-16.6361530">
        <ele>1728.8</ele>
        <time>2020-10-16T15:13:50Z</time>
      </trkpt>
      <trkpt lat="28.1696740" lon="-16.6361060">
        <ele>1727.6</ele>
        <time>2020-10-16T15:13:51Z</time>
      </trkpt>
      <trkpt lat="28.1695280" lon="-16.6360570">
        <ele>1726.2</ele>
        <time>2020-10-16T15:13:52Z</time>
      </trkpt>
      <trkpt lat="28.1693820" lon="-16.6360050">
        <ele>1725.0</ele>
        <time>2020-10-16T15:13:53Z</time>
      </trkpt>
      <trkpt lat="28.1692360" lon="-16.6359570">
        <ele>1723.8</ele>
        <time>2020-10-16T15:13:54Z</time>
      </trkpt>
      <trkpt lat="28.1690900" lon="-16.6359050">
        <ele>1722.8</ele>
        <time>2020-10-16T15:13:55Z</time>
      </trkpt>
      <trkpt lat="28.1689470" lon="-16.6358480">
        <ele>1721.6</ele>
        <time>2020-10-16T15:13:56Z</time>
      </trkpt>
      <trkpt lat="28.1686610" lon="-16.6357220">
        <ele>1719.8</ele>
        <time>2020-10-16T15:13:58Z</time>
      </trkpt>
      <trkpt lat="28.1685200" lon="-16.6356550">
        <ele>1718.8</ele>
        <time>2020-10-16T15:13:59Z</time>
      </trkpt>
      <trkpt lat="28.1683800" lon="-16.6355870">
        <ele>1716.6</ele>
        <time>2020-10-16T15:14:00Z</time>
      </trkpt>
      <trkpt lat="28.1682390" lon="-16.6355200">
        <ele>1715.4</ele>
        <time>2020-10-16T15:14:01Z</time>
      </trkpt>
      <trkpt lat="28.1679570" lon="-16.6353880">
        <ele>1713.6</ele>
        <time>2020-10-16T15:14:03Z</time>
      </trkpt>
      <trkpt lat="28.1678190" lon="-16.6353220">
        <ele>1712.6</ele>
        <time>2020-10-16T15:14:04Z</time>
      </trkpt>
      <trkpt lat="28.1676790" lon="-16.6352580">
        <ele>1711.4</ele>
        <time>2020-10-16T15:14:05Z</time>
      </trkpt>
      <trkpt lat="28.1675370" lon="-16.6351990">
        <ele>1709.8</ele>
        <time>2020-10-16T15:14:06Z</time>
      </trkpt>
      <trkpt lat="28.1673910" lon="-16.6351510">
        <ele>1708.2</ele>
        <time>2020-10-16T15:14:07Z</time>
      </trkpt>
      <trkpt lat="28.1672420" lon="-16.6351120">
        <ele>1707.2</ele>
        <time>2020-10-16T15:14:08Z</time>
      </trkpt>
      <trkpt lat="28.1669510" lon="-16.6350520">
        <ele>1705.2</ele>
        <time>2020-10-16T15:14:10Z</time>
      </trkpt>
      <trkpt lat="28.1668050" lon="-16.6350320">
        <ele>1704.0</ele>
        <time>2020-10-16T15:14:11Z</time>
      </trkpt>
      <trkpt lat="28.1666580" lon="-16.6350190">
        <ele>1702.8</ele>
        <time>2020-10-16T15:14:12Z</time>
      </trkpt>
      <trkpt lat="28.1665180" lon="-16.6350000">
        <ele>1701.8</ele>
        <time>2020-10-16T15:14:13Z</time>
      </trkpt>
      <trkpt lat="28.1663730" lon="-16.6349800">
        <ele>1700.6</ele>
        <time>2020-10-16T15:14:14Z</time>
      </trkpt>
      <trkpt lat="28.1662300" lon="-16.6349540">
        <ele>1699.4</ele>
        <time>2020-10-16T15:14:15Z</time>
      </trkpt>
      <trkpt lat="28.1660900" lon="-16.6349120">
        <ele>1698.4</ele>
        <time>2020-10-16T15:14:16Z</time>
      </trkpt>
      <trkpt lat="28.1659570" lon="-16.6348430">
        <ele>1697.2</ele>
        <time>2020-10-16T15:14:17Z</time>
      </trkpt>
      <trkpt lat="28.1658320" lon="-16.6347550">
        <ele>1696.0</ele>
        <time>2020-10-16T15:14:18Z</time>
      </trkpt>
      <trkpt lat="28.1657130" lon="-16.6346580">
        <ele>1695.0</ele>
        <time>2020-10-16T15:14:19Z</time>
      </trkpt>
      <trkpt lat="28.1654940" lon="-16.6344920">
        <ele>1693.2</ele>
        <time>2020-10-16T15:14:21Z</time>
      </trkpt>
      <trkpt lat="28.1653870" lon="-16.6344440">
        <ele>1692.2</ele>
        <time>2020-10-16T15:14:22Z</time>
      </trkpt>
      <trkpt lat="28.1652760" lon="-16.6344510">
        <ele>1691.2</ele>
        <time>2020-10-16T15:14:23Z</time>
      </trkpt>
      <trkpt lat="28.1651860" lon="-16.6345160">
        <ele>1690.0</ele>
        <time>2020-10-16T15:14:24Z</time>
      </trkpt>
      <trkpt lat="28.1651450" lon="-16.6346090">
        <ele>1688.8</ele>
        <time>2020-10-16T15:14:25Z</time>
      </trkpt>
      <trkpt lat="28.1651440" lon="-16.6348120">
        <ele>1687.0</ele>
        <time>2020-10-16T15:14:27Z</time>
      </trkpt>
      <trkpt lat="28.1652760" lon="-16.6349290">
        <ele>1685.2</ele>
        <time>2020-10-16T15:14:29Z</time>
      </trkpt>
      <trkpt lat="28.1655630" lon="-16.6350120">
        <ele>1683.4</ele>
        <time>2020-10-16T15:14:31Z</time>
      </trkpt>
      <trkpt lat="28.1657040" lon="-16.6350490">
        <ele>1682.4</ele>
        <time>2020-10-16T15:14:32Z</time>
      </trkpt>
      <trkpt lat="28.1658270" lon="-16.6350910">
        <ele>1679.8</ele>
        <time>2020-10-16T15:14:33Z</time>
      </trkpt>
      <trkpt lat="28.1659530" lon="-16.6351440">
        <ele>1678.8</ele>
        <time>2020-10-16T15:14:34Z</time>
      </trkpt>
      <trkpt lat="28.1662060" lon="-16.6352560">
        <ele>1677.0</ele>
        <time>2020-10-16T15:14:36Z</time>
      </trkpt>
      <trkpt lat="28.1664710" lon="-16.6353920">
        <ele>1675.8</ele>
        <time>2020-10-16T15:14:38Z</time>
      </trkpt>
      <trkpt lat="28.1667350" lon="-16.6355190">
        <ele>1674.6</ele>
        <time>2020-10-16T15:14:40Z</time>
      </trkpt>
      <trkpt lat="28.1670000" lon="-16.6356550">
        <ele>1672.6</ele>
        <time>2020-10-16T15:14:42Z</time>
      </trkpt>
      <trkpt lat="28.1672750" lon="-16.6357970">
        <ele>1671.0</ele>
        <time>2020-10-16T15:14:44Z</time>
      </trkpt>
      <trkpt lat="28.1675610" lon="-16.6359530">
        <ele>1669.0</ele>
        <time>2020-10-16T15:14:46Z</time>
      </trkpt>
      <trkpt lat="28.1678230" lon="-16.6361020">
        <ele>1667.0</ele>
        <time>2020-10-16T15:14:48Z</time>
      </trkpt>
      <trkpt lat="28.1679430" lon="-16.6361780">
        <ele>1665.8</ele>
        <time>2020-10-16T15:14:49Z</time>
      </trkpt>
      <trkpt lat="28.1680450" lon="-16.6362720">
        <ele>1664.8</ele>
        <time>2020-10-16T15:14:50Z</time>
      </trkpt>
      <trkpt lat="28.1681540" lon="-16.6364970">
        <ele>1662.8</ele>
        <time>2020-10-16T15:14:52Z</time>
      </trkpt>
      <trkpt lat="28.1681360" lon="-16.6366170">
        <ele>1661.6</ele>
        <time>2020-10-16T15:14:53Z</time>
      </trkpt>
      <trkpt lat="28.1680940" lon="-16.6367160">
        <ele>1660.4</ele>
        <time>2020-10-16T15:14:54Z</time>
      </trkpt>
      <trkpt lat="28.1679930" lon="-16.6367790">
        <ele>1659.0</ele>
        <time>2020-10-16T15:14:55Z</time>
      </trkpt>
      <trkpt lat="28.1678620" lon="-16.6368070">
        <ele>1658.2</ele>
        <time>2020-10-16T15:14:56Z</time>
      </trkpt>
      <trkpt lat="28.1676060" lon="-16.6367480">
        <ele>1656.4</ele>
        <time>2020-10-16T15:14:58Z</time>
      </trkpt>
      <trkpt lat="28.1673490" lon="-16.6366100">
        <ele>1655.2</ele>
        <time>2020-10-16T15:15:00Z</time>
      </trkpt>
      <trkpt lat="28.1670900" lon="-16.6364580">
        <ele>1653.4</ele>
        <time>2020-10-16T15:15:02Z</time>
      </trkpt>
      <trkpt lat="28.1669580" lon="-16.6363760">
        <ele>1652.4</ele>
        <time>2020-10-16T15:15:03Z</time>
      </trkpt>
      <trkpt lat="28.1668240" lon="-16.6362990">
        <ele>1651.2</ele>
        <time>2020-10-16T15:15:04Z</time>
      </trkpt>
      <trkpt lat="28.1666850" lon="-16.6362300">
        <ele>1649.8</ele>
        <time>2020-10-16T15:15:05Z</time>
      </trkpt>
      <trkpt lat="28.1665470" lon="-16.6361690">
        <ele>1647.6</ele>
        <time>2020-10-16T15:15:06Z</time>
      </trkpt>
      <trkpt lat="28.1664000" lon="-16.6361140">
        <ele>1646.4</ele>
        <time>2020-10-16T15:15:07Z</time>
      </trkpt>
      <trkpt lat="28.1661040" lon="-16.6360100">
        <ele>1644.8</ele>
        <time>2020-10-16T15:15:09Z</time>
      </trkpt>
      <trkpt lat="28.1658070" lon="-16.6359110">
        <ele>1643.0</ele>
        <time>2020-10-16T15:15:11Z</time>
      </trkpt>
      <trkpt lat="28.1656620" lon="-16.6358590">
        <ele>1642.0</ele>
        <time>2020-10-16T15:15:12Z</time>
      </trkpt>
      <trkpt lat="28.1655160" lon="-16.6358100">
        <ele>1640.8</ele>
        <time>2020-10-16T15:15:13Z</time>
      </trkpt>
      <trkpt lat="28.1653690" lon="-16.6357590">
        <ele>1639.8</ele>
        <time>2020-10-16T15:15:14Z</time>
      </trkpt>
      <trkpt lat="28.1652220" lon="-16.6357100">
        <ele>1638.6</ele>
        <time>2020-10-16T15:15:15Z</time>
      </trkpt>
      <trkpt lat="28.1649320" lon="-16.6356080">
        <ele>1636.6</ele>
        <time>2020-10-16T15:15:17Z</time>
      </trkpt>
      <trkpt lat="28.1647860" lon="-16.6355590">
        <ele>1635.4</ele>
        <time>2020-10-16T15:15:18Z</time>
      </trkpt>
      <trkpt lat="28.1646440" lon="-16.6355070">
        <ele>1634.4</ele>
        <time>2020-10-16T15:15:19Z</time>
      </trkpt>
      <trkpt lat="28.1643640" lon="-16.6353960">
        <ele>1632.4</ele>
        <time>2020-10-16T15:15:21Z</time>
      </trkpt>
      <trkpt lat="28.1642350" lon="-16.6353270">
        <ele>1631.4</ele>
        <time>2020-10-16T15:15:22Z</time>
      </trkpt>
      <trkpt lat="28.1640170" lon="-16.6351610">
        <ele>1629.4</ele>
        <time>2020-10-16T15:15:24Z</time>
      </trkpt>
      <trkpt lat="28.1639270" lon="-16.6350750">
        <ele>1628.0</ele>
        <time>2020-10-16T15:15:25Z</time>
      </trkpt>
      <trkpt lat="28.1638450" lon="-16.6349900">
        <ele>1627.0</ele>
        <time>2020-10-16T15:15:26Z</time>
      </trkpt>
      <trkpt lat="28.1637630" lon="-16.6349170">
        <ele>1625.8</ele>
        <time>2020-10-16T15:15:27Z</time>
      </trkpt>
      <trkpt lat="28.1636800" lon="-16.6348600">
        <ele>1624.8</ele>
        <time>2020-10-16T15:15:28Z</time>
      </trkpt>
      <trkpt lat="28.1635890" lon="-16.6348600">
        <ele>1623.6</ele>
        <time>2020-10-16T15:15:29Z</time>
      </trkpt>
      <trkpt lat="28.1635190" lon="-16.6349160">
        <ele>1622.4</ele>
        <time>2020-10-16T15:15:30Z</time>
      </trkpt>
      <trkpt lat="28.1634830" lon="-16.6350190">
        <ele>1621.4</ele>
        <time>2020-10-16T15:15:31Z</time>
      </trkpt>
      <trkpt lat="28.1635320" lon="-16.6352380">
        <ele>1619.4</ele>
        <time>2020-10-16T15:15:33Z</time>
      </trkpt>
      <trkpt lat="28.1636170" lon="-16.6353210">
        <ele>1618.4</ele>
        <time>2020-10-16T15:15:34Z</time>
      </trkpt>
      <trkpt lat="28.1638260" lon="-16.6354560">
        <ele>1616.6</ele>
        <time>2020-10-16T15:15:36Z</time>
      </trkpt>
      <trkpt lat="28.1640490" lon="-16.6355920">
        <ele>1614.8</ele>
        <time>2020-10-16T15:15:38Z</time>
      </trkpt>
      <trkpt lat="28.1641650" lon="-16.6356590">
        <ele>1613.8</ele>
        <time>2020-10-16T15:15:39Z</time>
      </trkpt>
      <trkpt lat="28.1642820" lon="-16.6357270">
        <ele>1611.8</ele>
        <time>2020-10-16T15:15:40Z</time>
      </trkpt>
      <trkpt lat="28.1645230" lon="-16.6358640">
        <ele>1610.2</ele>
        <time>2020-10-16T15:15:42Z</time>
      </trkpt>
      <trkpt lat="28.1647610" lon="-16.6360140">
        <ele>1608.8</ele>
        <time>2020-10-16T15:15:44Z</time>
      </trkpt>
      <trkpt lat="28.1649900" lon="-16.6361980">
        <ele>1606.8</ele>
        <time>2020-10-16T15:15:46Z</time>
      </trkpt>
      <trkpt lat="28.1652150" lon="-16.6364020">
        <ele>1605.0</ele>
        <time>2020-10-16T15:15:48Z</time>
      </trkpt>
      <trkpt lat="28.1653300" lon="-16.6365070">
        <ele>1604.0</ele>
        <time>2020-10-16T15:15:49Z</time>
      </trkpt>
      <trkpt lat="28.1654450" lon="-16.6366140">
        <ele>1602.8</ele>
        <time>2020-10-16T15:15:50Z</time>
      </trkpt>
      <trkpt lat="28.1656760" lon="-16.6368270">
        <ele>1601.0</ele>
        <time>2020-10-16T15:15:52Z</time>
      </trkpt>
      <trkpt lat="28.1657910" lon="-16.6369340">
        <ele>1599.8</ele>
        <time>2020-10-16T15:15:53Z</time>
      </trkpt>
      <trkpt lat="28.1658990" lon="-16.6370310">
        <ele>1598.2</ele>
        <time>2020-10-16T15:15:54Z</time>
      </trkpt>
      <trkpt lat="28.1660030" lon="-16.6371290">
        <ele>1597.2</ele>
        <time>2020-10-16T15:15:55Z</time>
      </trkpt>
      <trkpt lat="28.1661040" lon="-16.6372200">
        <ele>1596.0</ele>
        <time>2020-10-16T15:15:56Z</time>
      </trkpt>
      <trkpt lat="28.1662910" lon="-16.6373820">
        <ele>1594.0</ele>
        <time>2020-10-16T15:15:58Z</time>
      </trkpt>
      <trkpt lat="28.1663570" lon="-16.6374590">
        <ele>1593.0</ele>
        <time>2020-10-16T15:15:59Z</time>
      </trkpt>
      <trkpt lat="28.1664210" lon="-16.6375850">
        <ele>1591.0</ele>
        <time>2020-10-16T15:16:01Z</time>
      </trkpt>
      <trkpt lat="28.1664300" lon="-16.6376770">
        <ele>1589.2</ele>
        <time>2020-10-16T15:16:03Z</time>
      </trkpt>
      <trkpt lat="28.1664230" lon="-16.6377210">
        <ele>1588.0</ele>
        <time>2020-10-16T15:16:04Z</time>
      </trkpt>
      <trkpt lat="28.1664190" lon="-16.6377610">
        <ele>1587.0</ele>
        <time>2020-10-16T15:16:05Z</time>
      </trkpt>
      <trkpt lat="28.1664100" lon="-16.6378210">
        <ele>1585.4</ele>
        <time>2020-10-16T15:16:07Z</time>
      </trkpt>
      <trkpt lat="28.1664120" lon="-16.6378430">
        <ele>1584.6</ele>
        <time>2020-10-16T15:16:09Z</time>
      </trkpt>
      <trkpt lat="28.1663570" lon="-16.6379020">
        <ele>1584.0</ele>
        <time>2020-10-16T15:17:32Z</time>
      </trkpt>
      <trkpt lat="28.1661630" lon="-16.6379380">
        <ele>1583.8</ele>
        <time>2020-10-16T15:17:36Z</time>
      </trkpt>
      <trkpt lat="28.1658740" lon="-16.6379030">
        <ele>1583.6</ele>
        <time>2020-10-16T15:17:40Z</time>
      </trkpt>
      <trkpt lat="28.1656190" lon="-16.6378500">
        <ele>1582.8</ele>
        <time>2020-10-16T15:17:43Z</time>
      </trkpt>
      <trkpt lat="28.1652390" lon="-16.6378210">
        <ele>1581.4</ele>
        <time>2020-10-16T15:17:47Z</time>
      </trkpt>
      <trkpt lat="28.1647370" lon="-16.6378560">
        <ele>1580.6</ele>
        <time>2020-10-16T15:17:52Z</time>
      </trkpt>
      <trkpt lat="28.1646410" lon="-16.6378950">
        <ele>1580.4</ele>
        <time>2020-10-16T15:17:53Z</time>
      </trkpt>
      <trkpt lat="28.1644630" lon="-16.6380320">
        <ele>1579.2</ele>
        <time>2020-10-16T15:17:55Z</time>
      </trkpt>
      <trkpt lat="28.1642980" lon="-16.6381930">
        <ele>1578.2</ele>
        <time>2020-10-16T15:17:57Z</time>
      </trkpt>
      <trkpt lat="28.1642150" lon="-16.6382770">
        <ele>1577.8</ele>
        <time>2020-10-16T15:17:58Z</time>
      </trkpt>
      <trkpt lat="28.1640580" lon="-16.6384590">
        <ele>1576.6</ele>
        <time>2020-10-16T15:18:00Z</time>
      </trkpt>
      <trkpt lat="28.1638960" lon="-16.6386470">
        <ele>1575.6</ele>
        <time>2020-10-16T15:18:02Z</time>
      </trkpt>
      <trkpt lat="28.1636270" lon="-16.6389110">
        <ele>1574.4</ele>
        <time>2020-10-16T15:18:05Z</time>
      </trkpt>
      <trkpt lat="28.1634150" lon="-16.6390550">
        <ele>1573.4</ele>
        <time>2020-10-16T15:18:07Z</time>
      </trkpt>
      <trkpt lat="28.1631730" lon="-16.6391180">
        <ele>1571.8</ele>
        <time>2020-10-16T15:18:09Z</time>
      </trkpt>
      <trkpt lat="28.1629140" lon="-16.6391020">
        <ele>1570.4</ele>
        <time>2020-10-16T15:18:11Z</time>
      </trkpt>
      <trkpt lat="28.1626510" lon="-16.6390830">
        <ele>1568.8</ele>
        <time>2020-10-16T15:18:13Z</time>
      </trkpt>
      <trkpt lat="28.1623880" lon="-16.6390950">
        <ele>1567.0</ele>
        <time>2020-10-16T15:18:15Z</time>
      </trkpt>
      <trkpt lat="28.1621200" lon="-16.6391190">
        <ele>1565.4</ele>
        <time>2020-10-16T15:18:17Z</time>
      </trkpt>
      <trkpt lat="28.1618540" lon="-16.6391500">
        <ele>1563.8</ele>
        <time>2020-10-16T15:18:19Z</time>
      </trkpt>
      <trkpt lat="28.1615950" lon="-16.6391810">
        <ele>1562.8</ele>
        <time>2020-10-16T15:18:21Z</time>
      </trkpt>
      <trkpt lat="28.1613410" lon="-16.6392440">
        <ele>1561.0</ele>
        <time>2020-10-16T15:18:23Z</time>
      </trkpt>
      <trkpt lat="28.1611180" lon="-16.6393880">
        <ele>1559.6</ele>
        <time>2020-10-16T15:18:25Z</time>
      </trkpt>
      <trkpt lat="28.1609870" lon="-16.6396230">
        <ele>1558.4</ele>
        <time>2020-10-16T15:18:27Z</time>
      </trkpt>
      <trkpt lat="28.1609440" lon="-16.6399080">
        <ele>1556.2</ele>
        <time>2020-10-16T15:18:29Z</time>
      </trkpt>
      <trkpt lat="28.1609330" lon="-16.6401840">
        <ele>1554.8</ele>
        <time>2020-10-16T15:18:31Z</time>
      </trkpt>
      <trkpt lat="28.1608340" lon="-16.6404070">
        <ele>1553.4</ele>
        <time>2020-10-16T15:18:33Z</time>
      </trkpt>
      <trkpt lat="28.1606400" lon="-16.6404360">
        <ele>1551.8</ele>
        <time>2020-10-16T15:18:35Z</time>
      </trkpt>
      <trkpt lat="28.1604640" lon="-16.6402830">
        <ele>1550.2</ele>
        <time>2020-10-16T15:18:37Z</time>
      </trkpt>
      <trkpt lat="28.1603890" lon="-16.6400210">
        <ele>1548.8</ele>
        <time>2020-10-16T15:18:39Z</time>
      </trkpt>
      <trkpt lat="28.1603690" lon="-16.6397440">
        <ele>1547.6</ele>
        <time>2020-10-16T15:18:41Z</time>
      </trkpt>
      <trkpt lat="28.1603600" lon="-16.6394560">
        <ele>1546.6</ele>
        <time>2020-10-16T15:18:43Z</time>
      </trkpt>
      <trkpt lat="28.1603440" lon="-16.6391640">
        <ele>1545.4</ele>
        <time>2020-10-16T15:18:45Z</time>
      </trkpt>
      <trkpt lat="28.1602780" lon="-16.6388820">
        <ele>1544.4</ele>
        <time>2020-10-16T15:18:47Z</time>
      </trkpt>
      <trkpt lat="28.1601470" lon="-16.6386450">
        <ele>1542.8</ele>
        <time>2020-10-16T15:18:49Z</time>
      </trkpt>
      <trkpt lat="28.1599460" lon="-16.6384740">
        <ele>1541.2</ele>
        <time>2020-10-16T15:18:51Z</time>
      </trkpt>
      <trkpt lat="28.1598340" lon="-16.6384000">
        <ele>1540.4</ele>
        <time>2020-10-16T15:18:52Z</time>
      </trkpt>
      <trkpt lat="28.1597210" lon="-16.6383310">
        <ele>1539.6</ele>
        <time>2020-10-16T15:18:53Z</time>
      </trkpt>
      <trkpt lat="28.1594850" lon="-16.6382100">
        <ele>1537.8</ele>
        <time>2020-10-16T15:18:55Z</time>
      </trkpt>
      <trkpt lat="28.1592290" lon="-16.6381420">
        <ele>1536.0</ele>
        <time>2020-10-16T15:18:57Z</time>
      </trkpt>
      <trkpt lat="28.1589670" lon="-16.6380940">
        <ele>1534.0</ele>
        <time>2020-10-16T15:18:59Z</time>
      </trkpt>
      <trkpt lat="28.1587090" lon="-16.6380550">
        <ele>1532.2</ele>
        <time>2020-10-16T15:19:01Z</time>
      </trkpt>
      <trkpt lat="28.1585830" lon="-16.6380340">
        <ele>1530.4</ele>
        <time>2020-10-16T15:19:02Z</time>
      </trkpt>
      <trkpt lat="28.1583390" lon="-16.6380090">
        <ele>1528.4</ele>
        <time>2020-10-16T15:19:04Z</time>
      </trkpt>
      <trkpt lat="28.1582230" lon="-16.6380220">
        <ele>1527.2</ele>
        <time>2020-10-16T15:19:05Z</time>
      </trkpt>
      <trkpt lat="28.1580340" lon="-16.6380910">
        <ele>1525.4</ele>
        <time>2020-10-16T15:19:07Z</time>
      </trkpt>
      <trkpt lat="28.1579580" lon="-16.6381280">
        <ele>1524.4</ele>
        <time>2020-10-16T15:19:08Z</time>
      </trkpt>
      <trkpt lat="28.1578800" lon="-16.6381540">
        <ele>1523.4</ele>
        <time>2020-10-16T15:19:09Z</time>
      </trkpt>
      <trkpt lat="28.1577000" lon="-16.6381790">
        <ele>1521.8</ele>
        <time>2020-10-16T15:19:11Z</time>
      </trkpt>
      <trkpt lat="28.1575100" lon="-16.6381580">
        <ele>1520.0</ele>
        <time>2020-10-16T15:19:13Z</time>
      </trkpt>
      <trkpt lat="28.1574120" lon="-16.6381350">
        <ele>1519.4</ele>
        <time>2020-10-16T15:19:14Z</time>
      </trkpt>
      <trkpt lat="28.1573150" lon="-16.6381260">
        <ele>1518.6</ele>
        <time>2020-10-16T15:19:15Z</time>
      </trkpt>
      <trkpt lat="28.1571220" lon="-16.6381720">
        <ele>1517.0</ele>
        <time>2020-10-16T15:19:17Z</time>
      </trkpt>
      <trkpt lat="28.1569290" lon="-16.6382700">
        <ele>1515.4</ele>
        <time>2020-10-16T15:19:19Z</time>
      </trkpt>
      <trkpt lat="28.1567330" lon="-16.6383820">
        <ele>1513.8</ele>
        <time>2020-10-16T15:19:21Z</time>
      </trkpt>
      <trkpt lat="28.1565400" lon="-16.6384900">
        <ele>1512.8</ele>
        <time>2020-10-16T15:19:23Z</time>
      </trkpt>
      <trkpt lat="28.1563380" lon="-16.6385760">
        <ele>1511.6</ele>
        <time>2020-10-16T15:19:25Z</time>
      </trkpt>
      <trkpt lat="28.1560060" lon="-16.6386270">
        <ele>1510.4</ele>
        <time>2020-10-16T15:19:28Z</time>
      </trkpt>
      <trkpt lat="28.1557710" lon="-16.6386430">
        <ele>1509.2</ele>
        <time>2020-10-16T15:19:30Z</time>
      </trkpt>
      <trkpt lat="28.1555280" lon="-16.6386750">
        <ele>1508.0</ele>
        <time>2020-10-16T15:19:32Z</time>
      </trkpt>
      <trkpt lat="28.1552870" lon="-16.6387500">
        <ele>1507.0</ele>
        <time>2020-10-16T15:19:34Z</time>
      </trkpt>
      <trkpt lat="28.1551680" lon="-16.6387960">
        <ele>1505.6</ele>
        <time>2020-10-16T15:19:35Z</time>
      </trkpt>
      <trkpt lat="28.1549260" lon="-16.6388950">
        <ele>1503.6</ele>
        <time>2020-10-16T15:19:37Z</time>
      </trkpt>
      <trkpt lat="28.1546860" lon="-16.6389960">
        <ele>1501.8</ele>
        <time>2020-10-16T15:19:39Z</time>
      </trkpt>
      <trkpt lat="28.1545700" lon="-16.6390560">
        <ele>1500.6</ele>
        <time>2020-10-16T15:19:40Z</time>
      </trkpt>
      <trkpt lat="28.1544590" lon="-16.6391300">
        <ele>1499.8</ele>
        <time>2020-10-16T15:19:41Z</time>
      </trkpt>
      <trkpt lat="28.1542590" lon="-16.6393090">
        <ele>1498.4</ele>
        <time>2020-10-16T15:19:43Z</time>
      </trkpt>
      <trkpt lat="28.1540830" lon="-16.6395250">
        <ele>1496.8</ele>
        <time>2020-10-16T15:19:45Z</time>
      </trkpt>
      <trkpt lat="28.1539970" lon="-16.6396390">
        <ele>1495.8</ele>
        <time>2020-10-16T15:19:46Z</time>
      </trkpt>
      <trkpt lat="28.1539110" lon="-16.6397510">
        <ele>1494.8</ele>
        <time>2020-10-16T15:19:47Z</time>
      </trkpt>
      <trkpt lat="28.1537460" lon="-16.6399660">
        <ele>1493.2</ele>
        <time>2020-10-16T15:19:49Z</time>
      </trkpt>
      <trkpt lat="28.1535820" lon="-16.6401430">
        <ele>1491.6</ele>
        <time>2020-10-16T15:19:51Z</time>
      </trkpt>
      <trkpt lat="28.1534860" lon="-16.6401890">
        <ele>1490.6</ele>
        <time>2020-10-16T15:19:52Z</time>
      </trkpt>
      <trkpt lat="28.1532860" lon="-16.6401600">
        <ele>1488.8</ele>
        <time>2020-10-16T15:19:54Z</time>
      </trkpt>
      <trkpt lat="28.1531250" lon="-16.6400540">
        <ele>1486.8</ele>
        <time>2020-10-16T15:19:56Z</time>
      </trkpt>
      <trkpt lat="28.1529500" lon="-16.6400130">
        <ele>1485.0</ele>
        <time>2020-10-16T15:19:58Z</time>
      </trkpt>
      <trkpt lat="28.1527600" lon="-16.6400230">
        <ele>1483.0</ele>
        <time>2020-10-16T15:20:00Z</time>
      </trkpt>
      <trkpt lat="28.1525570" lon="-16.6400480">
        <ele>1481.2</ele>
        <time>2020-10-16T15:20:02Z</time>
      </trkpt>
      <trkpt lat="28.1524520" lon="-16.6400700">
        <ele>1480.6</ele>
        <time>2020-10-16T15:20:03Z</time>
      </trkpt>
      <trkpt lat="28.1523480" lon="-16.6401060">
        <ele>1480.2</ele>
        <time>2020-10-16T15:20:04Z</time>
      </trkpt>
      <trkpt lat="28.1521440" lon="-16.6402340">
        <ele>1478.6</ele>
        <time>2020-10-16T15:20:06Z</time>
      </trkpt>
      <trkpt lat="28.1520440" lon="-16.6403150">
        <ele>1478.0</ele>
        <time>2020-10-16T15:20:07Z</time>
      </trkpt>
      <trkpt lat="28.1519440" lon="-16.6404030">
        <ele>1477.4</ele>
        <time>2020-10-16T15:20:08Z</time>
      </trkpt>
      <trkpt lat="28.1517490" lon="-16.6405830">
        <ele>1475.6</ele>
        <time>2020-10-16T15:20:10Z</time>
      </trkpt>
      <trkpt lat="28.1516460" lon="-16.6406680">
        <ele>1474.6</ele>
        <time>2020-10-16T15:20:11Z</time>
      </trkpt>
      <trkpt lat="28.1515380" lon="-16.6407440">
        <ele>1473.6</ele>
        <time>2020-10-16T15:20:12Z</time>
      </trkpt>
      <trkpt lat="28.1514250" lon="-16.6408110">
        <ele>1472.6</ele>
        <time>2020-10-16T15:20:13Z</time>
      </trkpt>
      <trkpt lat="28.1511900" lon="-16.6409190">
        <ele>1470.6</ele>
        <time>2020-10-16T15:20:15Z</time>
      </trkpt>
      <trkpt lat="28.1510690" lon="-16.6409640">
        <ele>1469.6</ele>
        <time>2020-10-16T15:20:16Z</time>
      </trkpt>
      <trkpt lat="28.1508290" lon="-16.6410520">
        <ele>1468.2</ele>
        <time>2020-10-16T15:20:18Z</time>
      </trkpt>
      <trkpt lat="28.1505870" lon="-16.6411430">
        <ele>1467.2</ele>
        <time>2020-10-16T15:20:20Z</time>
      </trkpt>
      <trkpt lat="28.1504670" lon="-16.6411860">
        <ele>1467.0</ele>
        <time>2020-10-16T15:20:21Z</time>
      </trkpt>
      <trkpt lat="28.1501130" lon="-16.6413170">
        <ele>1466.2</ele>
        <time>2020-10-16T15:20:24Z</time>
      </trkpt>
      <trkpt lat="28.1499970" lon="-16.6413670">
        <ele>1466.0</ele>
        <time>2020-10-16T15:20:25Z</time>
      </trkpt>
      <trkpt lat="28.1498850" lon="-16.6414240">
        <ele>1466.0</ele>
        <time>2020-10-16T15:20:26Z</time>
      </trkpt>
      <trkpt lat="28.1495690" lon="-16.6416300">
        <ele>1465.2</ele>
        <time>2020-10-16T15:20:29Z</time>
      </trkpt>
      <trkpt lat="28.1494700" lon="-16.6417070">
        <ele>1465.0</ele>
        <time>2020-10-16T15:20:30Z</time>
      </trkpt>
      <trkpt lat="28.1490750" lon="-16.6420480">
        <ele>1464.6</ele>
        <time>2020-10-16T15:20:34Z</time>
      </trkpt>
      <trkpt lat="28.1486530" lon="-16.6424190">
        <ele>1464.0</ele>
        <time>2020-10-16T15:20:38Z</time>
      </trkpt>
      <trkpt lat="28.1483200" lon="-16.6427080">
        <ele>1462.6</ele>
        <time>2020-10-16T15:20:41Z</time>
      </trkpt>
      <trkpt lat="28.1480880" lon="-16.6428950">
        <ele>1460.6</ele>
        <time>2020-10-16T15:20:43Z</time>
      </trkpt>
      <trkpt lat="28.1479660" lon="-16.6429830">
        <ele>1459.6</ele>
        <time>2020-10-16T15:20:44Z</time>
      </trkpt>
      <trkpt lat="28.1477100" lon="-16.6431440">
        <ele>1458.0</ele>
        <time>2020-10-16T15:20:46Z</time>
      </trkpt>
      <trkpt lat="28.1475760" lon="-16.6432190">
        <ele>1456.8</ele>
        <time>2020-10-16T15:20:47Z</time>
      </trkpt>
      <trkpt lat="28.1474400" lon="-16.6432940">
        <ele>1455.8</ele>
        <time>2020-10-16T15:20:48Z</time>
      </trkpt>
      <trkpt lat="28.1473030" lon="-16.6433690">
        <ele>1454.8</ele>
        <time>2020-10-16T15:20:49Z</time>
      </trkpt>
      <trkpt lat="28.1470260" lon="-16.6435200">
        <ele>1452.8</ele>
        <time>2020-10-16T15:20:51Z</time>
      </trkpt>
      <trkpt lat="28.1468850" lon="-16.6435970">
        <ele>1451.6</ele>
        <time>2020-10-16T15:20:52Z</time>
      </trkpt>
      <trkpt lat="28.1467430" lon="-16.6436730">
        <ele>1450.4</ele>
        <time>2020-10-16T15:20:53Z</time>
      </trkpt>
      <trkpt lat="28.1466000" lon="-16.6437500">
        <ele>1449.2</ele>
        <time>2020-10-16T15:20:54Z</time>
      </trkpt>
      <trkpt lat="28.1464560" lon="-16.6438270">
        <ele>1448.0</ele>
        <time>2020-10-16T15:20:55Z</time>
      </trkpt>
      <trkpt lat="28.1463120" lon="-16.6439040">
        <ele>1447.0</ele>
        <time>2020-10-16T15:20:56Z</time>
      </trkpt>
      <trkpt lat="28.1461670" lon="-16.6439830">
        <ele>1445.8</ele>
        <time>2020-10-16T15:20:57Z</time>
      </trkpt>
      <trkpt lat="28.1460220" lon="-16.6440590">
        <ele>1444.8</ele>
        <time>2020-10-16T15:20:58Z</time>
      </trkpt>
      <trkpt lat="28.1458780" lon="-16.6441350">
        <ele>1443.8</ele>
        <time>2020-10-16T15:20:59Z</time>
      </trkpt>
      <trkpt lat="28.1457340" lon="-16.6442090">
        <ele>1442.8</ele>
        <time>2020-10-16T15:21:00Z</time>
      </trkpt>
      <trkpt lat="28.1455910" lon="-16.6442830">
        <ele>1441.6</ele>
        <time>2020-10-16T15:21:01Z</time>
      </trkpt>
      <trkpt lat="28.1454470" lon="-16.6443570">
        <ele>1440.4</ele>
        <time>2020-10-16T15:21:02Z</time>
      </trkpt>
      <trkpt lat="28.1453030" lon="-16.6444280">
        <ele>1439.2</ele>
        <time>2020-10-16T15:21:03Z</time>
      </trkpt>
      <trkpt lat="28.1451590" lon="-16.6444950">
        <ele>1438.2</ele>
        <time>2020-10-16T15:21:04Z</time>
      </trkpt>
      <trkpt lat="28.1450130" lon="-16.6445600">
        <ele>1437.0</ele>
        <time>2020-10-16T15:21:05Z</time>
      </trkpt>
      <trkpt lat="28.1448660" lon="-16.6446230">
        <ele>1435.8</ele>
        <time>2020-10-16T15:21:06Z</time>
      </trkpt>
      <trkpt lat="28.1447190" lon="-16.6446840">
        <ele>1434.8</ele>
        <time>2020-10-16T15:21:07Z</time>
      </trkpt>
      <trkpt lat="28.1445700" lon="-16.6447420">
        <ele>1433.6</ele>
        <time>2020-10-16T15:21:08Z</time>
      </trkpt>
      <trkpt lat="28.1444210" lon="-16.6447990">
        <ele>1432.8</ele>
        <time>2020-10-16T15:21:09Z</time>
      </trkpt>
      <trkpt lat="28.1442730" lon="-16.6448540">
        <ele>1431.6</ele>
        <time>2020-10-16T15:21:10Z</time>
      </trkpt>
      <trkpt lat="28.1441270" lon="-16.6449100">
        <ele>1430.2</ele>
        <time>2020-10-16T15:21:11Z</time>
      </trkpt>
      <trkpt lat="28.1439850" lon="-16.6449640">
        <ele>1428.2</ele>
        <time>2020-10-16T15:21:12Z</time>
      </trkpt>
      <trkpt lat="28.1438430" lon="-16.6450170">
        <ele>1427.0</ele>
        <time>2020-10-16T15:21:13Z</time>
      </trkpt>
      <trkpt lat="28.1437040" lon="-16.6450670">
        <ele>1425.8</ele>
        <time>2020-10-16T15:21:14Z</time>
      </trkpt>
      <trkpt lat="28.1435680" lon="-16.6451160">
        <ele>1424.6</ele>
        <time>2020-10-16T15:21:15Z</time>
      </trkpt>
      <trkpt lat="28.1433050" lon="-16.6452240">
        <ele>1422.6</ele>
        <time>2020-10-16T15:21:17Z</time>
      </trkpt>
      <trkpt lat="28.1430560" lon="-16.6453610">
        <ele>1420.8</ele>
        <time>2020-10-16T15:21:19Z</time>
      </trkpt>
      <trkpt lat="28.1428180" lon="-16.6455250">
        <ele>1419.0</ele>
        <time>2020-10-16T15:21:21Z</time>
      </trkpt>
      <trkpt lat="28.1425950" lon="-16.6457070">
        <ele>1417.6</ele>
        <time>2020-10-16T15:21:23Z</time>
      </trkpt>
      <trkpt lat="28.1424910" lon="-16.6458080">
        <ele>1416.8</ele>
        <time>2020-10-16T15:21:24Z</time>
      </trkpt>
      <trkpt lat="28.1423980" lon="-16.6459210">
        <ele>1416.0</ele>
        <time>2020-10-16T15:21:25Z</time>
      </trkpt>
      <trkpt lat="28.1422410" lon="-16.6461760">
        <ele>1414.8</ele>
        <time>2020-10-16T15:21:27Z</time>
      </trkpt>
      <trkpt lat="28.1421290" lon="-16.6464560">
        <ele>1413.2</ele>
        <time>2020-10-16T15:21:29Z</time>
      </trkpt>
      <trkpt lat="28.1420600" lon="-16.6467510">
        <ele>1411.8</ele>
        <time>2020-10-16T15:21:31Z</time>
      </trkpt>
      <trkpt lat="28.1420480" lon="-16.6470580">
        <ele>1410.6</ele>
        <time>2020-10-16T15:21:33Z</time>
      </trkpt>
      <trkpt lat="28.1420800" lon="-16.6473690">
        <ele>1409.8</ele>
        <time>2020-10-16T15:21:35Z</time>
      </trkpt>
      <trkpt lat="28.1421040" lon="-16.6475250">
        <ele>1409.2</ele>
        <time>2020-10-16T15:21:36Z</time>
      </trkpt>
      <trkpt lat="28.1421520" lon="-16.6478360">
        <ele>1408.0</ele>
        <time>2020-10-16T15:21:38Z</time>
      </trkpt>
      <trkpt lat="28.1421990" lon="-16.6481450">
        <ele>1406.4</ele>
        <time>2020-10-16T15:21:40Z</time>
      </trkpt>
      <trkpt lat="28.1422420" lon="-16.6484490">
        <ele>1404.8</ele>
        <time>2020-10-16T15:21:42Z</time>
      </trkpt>
      <trkpt lat="28.1422890" lon="-16.6487510">
        <ele>1403.4</ele>
        <time>2020-10-16T15:21:44Z</time>
      </trkpt>
      <trkpt lat="28.1423350" lon="-16.6490530">
        <ele>1401.8</ele>
        <time>2020-10-16T15:21:46Z</time>
      </trkpt>
      <trkpt lat="28.1423930" lon="-16.6493570">
        <ele>1400.4</ele>
        <time>2020-10-16T15:21:48Z</time>
      </trkpt>
      <trkpt lat="28.1424600" lon="-16.6496650">
        <ele>1399.0</ele>
        <time>2020-10-16T15:21:50Z</time>
      </trkpt>
      <trkpt lat="28.1425400" lon="-16.6499690">
        <ele>1397.6</ele>
        <time>2020-10-16T15:21:52Z</time>
      </trkpt>
      <trkpt lat="28.1426300" lon="-16.6502600">
        <ele>1396.0</ele>
        <time>2020-10-16T15:21:54Z</time>
      </trkpt>
      <trkpt lat="28.1427180" lon="-16.6505440">
        <ele>1395.0</ele>
        <time>2020-10-16T15:21:56Z</time>
      </trkpt>
      <trkpt lat="28.1428090" lon="-16.6508340">
        <ele>1393.6</ele>
        <time>2020-10-16T15:21:58Z</time>
      </trkpt>
      <trkpt lat="28.1429030" lon="-16.6511340">
        <ele>1392.0</ele>
        <time>2020-10-16T15:22:00Z</time>
      </trkpt>
      <trkpt lat="28.1430030" lon="-16.6514320">
        <ele>1390.4</ele>
        <time>2020-10-16T15:22:02Z</time>
      </trkpt>
      <trkpt lat="28.1430880" lon="-16.6517320">
        <ele>1388.6</ele>
        <time>2020-10-16T15:22:04Z</time>
      </trkpt>
      <trkpt lat="28.1431110" lon="-16.6518900">
        <ele>1387.6</ele>
        <time>2020-10-16T15:22:05Z</time>
      </trkpt>
      <trkpt lat="28.1431130" lon="-16.6520530">
        <ele>1386.6</ele>
        <time>2020-10-16T15:22:06Z</time>
      </trkpt>
      <trkpt lat="28.1430950" lon="-16.6522150">
        <ele>1385.6</ele>
        <time>2020-10-16T15:22:07Z</time>
      </trkpt>
      <trkpt lat="28.1430590" lon="-16.6523760">
        <ele>1384.4</ele>
        <time>2020-10-16T15:22:08Z</time>
      </trkpt>
      <trkpt lat="28.1430080" lon="-16.6525350">
        <ele>1383.2</ele>
        <time>2020-10-16T15:22:09Z</time>
      </trkpt>
      <trkpt lat="28.1429450" lon="-16.6526890">
        <ele>1382.4</ele>
        <time>2020-10-16T15:22:10Z</time>
      </trkpt>
      <trkpt lat="28.1428760" lon="-16.6528410">
        <ele>1381.4</ele>
        <time>2020-10-16T15:22:11Z</time>
      </trkpt>
      <trkpt lat="28.1428110" lon="-16.6529900">
        <ele>1380.2</ele>
        <time>2020-10-16T15:22:12Z</time>
      </trkpt>
      <trkpt lat="28.1427470" lon="-16.6531340">
        <ele>1379.2</ele>
        <time>2020-10-16T15:22:13Z</time>
      </trkpt>
      <trkpt lat="28.1426830" lon="-16.6532730">
        <ele>1378.0</ele>
        <time>2020-10-16T15:22:14Z</time>
      </trkpt>
      <trkpt lat="28.1426160" lon="-16.6534050">
        <ele>1376.8</ele>
        <time>2020-10-16T15:22:15Z</time>
      </trkpt>
      <trkpt lat="28.1425380" lon="-16.6535240">
        <ele>1375.6</ele>
        <time>2020-10-16T15:22:16Z</time>
      </trkpt>
      <trkpt lat="28.1424420" lon="-16.6536230">
        <ele>1374.6</ele>
        <time>2020-10-16T15:22:17Z</time>
      </trkpt>
      <trkpt lat="28.1423260" lon="-16.6536940">
        <ele>1373.4</ele>
        <time>2020-10-16T15:22:18Z</time>
      </trkpt>
      <trkpt lat="28.1422050" lon="-16.6537430">
        <ele>1371.4</ele>
        <time>2020-10-16T15:22:19Z</time>
      </trkpt>
      <trkpt lat="28.1420850" lon="-16.6537680">
        <ele>1370.2</ele>
        <time>2020-10-16T15:22:20Z</time>
      </trkpt>
      <trkpt lat="28.1419630" lon="-16.6537710">
        <ele>1369.0</ele>
        <time>2020-10-16T15:22:21Z</time>
      </trkpt>
      <trkpt lat="28.1418400" lon="-16.6537630">
        <ele>1367.8</ele>
        <time>2020-10-16T15:22:22Z</time>
      </trkpt>
      <trkpt lat="28.1417160" lon="-16.6537490">
        <ele>1366.8</ele>
        <time>2020-10-16T15:22:23Z</time>
      </trkpt>
      <trkpt lat="28.1415890" lon="-16.6537320">
        <ele>1366.0</ele>
        <time>2020-10-16T15:22:24Z</time>
      </trkpt>
      <trkpt lat="28.1414630" lon="-16.6537120">
        <ele>1365.4</ele>
        <time>2020-10-16T15:22:25Z</time>
      </trkpt>
      <trkpt lat="28.1412070" lon="-16.6536710">
        <ele>1364.6</ele>
        <time>2020-10-16T15:22:27Z</time>
      </trkpt>
      <trkpt lat="28.1409430" lon="-16.6536390">
        <ele>1364.4</ele>
        <time>2020-10-16T15:22:29Z</time>
      </trkpt>
      <trkpt lat="28.1406760" lon="-16.6536090">
        <ele>1364.0</ele>
        <time>2020-10-16T15:22:31Z</time>
      </trkpt>
      <trkpt lat="28.1404110" lon="-16.6535750">
        <ele>1363.6</ele>
        <time>2020-10-16T15:22:33Z</time>
      </trkpt>
      <trkpt lat="28.1402780" lon="-16.6535600">
        <ele>1363.4</ele>
        <time>2020-10-16T15:22:34Z</time>
      </trkpt>
      <trkpt lat="28.1398780" lon="-16.6535040">
        <ele>1362.4</ele>
        <time>2020-10-16T15:22:37Z</time>
      </trkpt>
      <trkpt lat="28.1397460" lon="-16.6534710">
        <ele>1362.0</ele>
        <time>2020-10-16T15:22:38Z</time>
      </trkpt>
      <trkpt lat="28.1394860" lon="-16.6533710">
        <ele>1361.0</ele>
        <time>2020-10-16T15:22:40Z</time>
      </trkpt>
      <trkpt lat="28.1392390" lon="-16.6532330">
        <ele>1359.6</ele>
        <time>2020-10-16T15:22:42Z</time>
      </trkpt>
      <trkpt lat="28.1389950" lon="-16.6530810">
        <ele>1358.4</ele>
        <time>2020-10-16T15:22:44Z</time>
      </trkpt>
      <trkpt lat="28.1386280" lon="-16.6528550">
        <ele>1356.8</ele>
        <time>2020-10-16T15:22:47Z</time>
      </trkpt>
      <trkpt lat="28.1383850" lon="-16.6527100">
        <ele>1355.6</ele>
        <time>2020-10-16T15:22:49Z</time>
      </trkpt>
      <trkpt lat="28.1381440" lon="-16.6525610">
        <ele>1354.4</ele>
        <time>2020-10-16T15:22:51Z</time>
      </trkpt>
      <trkpt lat="28.1380240" lon="-16.6524860">
        <ele>1353.2</ele>
        <time>2020-10-16T15:22:52Z</time>
      </trkpt>
      <trkpt lat="28.1377820" lon="-16.6523370">
        <ele>1352.2</ele>
        <time>2020-10-16T15:22:54Z</time>
      </trkpt>
      <trkpt lat="28.1375360" lon="-16.6521910">
        <ele>1351.0</ele>
        <time>2020-10-16T15:22:56Z</time>
      </trkpt>
      <trkpt lat="28.1372900" lon="-16.6520460">
        <ele>1349.8</ele>
        <time>2020-10-16T15:22:58Z</time>
      </trkpt>
      <trkpt lat="28.1370420" lon="-16.6519030">
        <ele>1348.6</ele>
        <time>2020-10-16T15:23:00Z</time>
      </trkpt>
      <trkpt lat="28.1368000" lon="-16.6517620">
        <ele>1347.6</ele>
        <time>2020-10-16T15:23:02Z</time>
      </trkpt>
      <trkpt lat="28.1365580" lon="-16.6516210">
        <ele>1346.6</ele>
        <time>2020-10-16T15:23:04Z</time>
      </trkpt>
      <trkpt lat="28.1363160" lon="-16.6514820">
        <ele>1345.4</ele>
        <time>2020-10-16T15:23:06Z</time>
      </trkpt>
      <trkpt lat="28.1360700" lon="-16.6513480">
        <ele>1343.6</ele>
        <time>2020-10-16T15:23:08Z</time>
      </trkpt>
      <trkpt lat="28.1358150" lon="-16.6512460">
        <ele>1342.0</ele>
        <time>2020-10-16T15:23:10Z</time>
      </trkpt>
      <trkpt lat="28.1354210" lon="-16.6511450">
        <ele>1340.6</ele>
        <time>2020-10-16T15:23:13Z</time>
      </trkpt>
      <trkpt lat="28.1351560" lon="-16.6510960">
        <ele>1339.4</ele>
        <time>2020-10-16T15:23:15Z</time>
      </trkpt>
      <trkpt lat="28.1348890" lon="-16.6510470">
        <ele>1338.2</ele>
        <time>2020-10-16T15:23:17Z</time>
      </trkpt>
      <trkpt lat="28.1346220" lon="-16.6510150">
        <ele>1337.0</ele>
        <time>2020-10-16T15:23:19Z</time>
      </trkpt>
      <trkpt lat="28.1343570" lon="-16.6510390">
        <ele>1335.6</ele>
        <time>2020-10-16T15:23:21Z</time>
      </trkpt>
      <trkpt lat="28.1339830" lon="-16.6511620">
        <ele>1334.4</ele>
        <time>2020-10-16T15:23:24Z</time>
      </trkpt>
      <trkpt lat="28.1338660" lon="-16.6512190">
        <ele>1333.2</ele>
        <time>2020-10-16T15:23:25Z</time>
      </trkpt>
      <trkpt lat="28.1336390" lon="-16.6513380">
        <ele>1332.0</ele>
        <time>2020-10-16T15:23:27Z</time>
      </trkpt>
      <trkpt lat="28.1333030" lon="-16.6515160">
        <ele>1330.8</ele>
        <time>2020-10-16T15:23:30Z</time>
      </trkpt>
      <trkpt lat="28.1329840" lon="-16.6516960">
        <ele>1329.4</ele>
        <time>2020-10-16T15:23:33Z</time>
      </trkpt>
      <trkpt lat="28.1324750" lon="-16.6520250">
        <ele>1328.8</ele>
        <time>2020-10-16T15:23:38Z</time>
      </trkpt>
      <trkpt lat="28.1320810" lon="-16.6523170">
        <ele>1328.6</ele>
        <time>2020-10-16T15:23:42Z</time>
      </trkpt>
      <trkpt lat="28.1315730" lon="-16.6526950">
        <ele>1327.2</ele>
        <time>2020-10-16T15:23:47Z</time>
      </trkpt>
      <trkpt lat="28.1312660" lon="-16.6529230">
        <ele>1326.0</ele>
        <time>2020-10-16T15:23:50Z</time>
      </trkpt>
      <trkpt lat="28.1310640" lon="-16.6530730">
        <ele>1325.0</ele>
        <time>2020-10-16T15:23:52Z</time>
      </trkpt>
      <trkpt lat="28.1308620" lon="-16.6532190">
        <ele>1323.8</ele>
        <time>2020-10-16T15:23:54Z</time>
      </trkpt>
      <trkpt lat="28.1306630" lon="-16.6533710">
        <ele>1322.6</ele>
        <time>2020-10-16T15:23:56Z</time>
      </trkpt>
      <trkpt lat="28.1304650" lon="-16.6535160">
        <ele>1320.4</ele>
        <time>2020-10-16T15:23:58Z</time>
      </trkpt>
      <trkpt lat="28.1301690" lon="-16.6537360">
        <ele>1318.8</ele>
        <time>2020-10-16T15:24:01Z</time>
      </trkpt>
      <trkpt lat="28.1298820" lon="-16.6539730">
        <ele>1317.6</ele>
        <time>2020-10-16T15:24:04Z</time>
      </trkpt>
      <trkpt lat="28.1297020" lon="-16.6541490">
        <ele>1316.6</ele>
        <time>2020-10-16T15:24:06Z</time>
      </trkpt>
      <trkpt lat="28.1294480" lon="-16.6544390">
        <ele>1315.4</ele>
        <time>2020-10-16T15:24:09Z</time>
      </trkpt>
      <trkpt lat="28.1292230" lon="-16.6547580">
        <ele>1313.8</ele>
        <time>2020-10-16T15:24:12Z</time>
      </trkpt>
      <trkpt lat="28.1290900" lon="-16.6549830">
        <ele>1313.0</ele>
        <time>2020-10-16T15:24:14Z</time>
      </trkpt>
      <trkpt lat="28.1289710" lon="-16.6552210">
        <ele>1312.0</ele>
        <time>2020-10-16T15:24:16Z</time>
      </trkpt>
      <trkpt lat="28.1287970" lon="-16.6555850">
        <ele>1310.6</ele>
        <time>2020-10-16T15:24:19Z</time>
      </trkpt>
      <trkpt lat="28.1286810" lon="-16.6558310">
        <ele>1309.2</ele>
        <time>2020-10-16T15:24:21Z</time>
      </trkpt>
      <trkpt lat="28.1284970" lon="-16.6561920">
        <ele>1307.6</ele>
        <time>2020-10-16T15:24:24Z</time>
      </trkpt>
      <trkpt lat="28.1283220" lon="-16.6563800">
        <ele>1306.6</ele>
        <time>2020-10-16T15:24:26Z</time>
      </trkpt>
      <trkpt lat="28.1281080" lon="-16.6565030">
        <ele>1305.4</ele>
        <time>2020-10-16T15:24:28Z</time>
      </trkpt>
      <trkpt lat="28.1279960" lon="-16.6565550">
        <ele>1304.8</ele>
        <time>2020-10-16T15:24:29Z</time>
      </trkpt>
      <trkpt lat="28.1278830" lon="-16.6566090">
        <ele>1304.0</ele>
        <time>2020-10-16T15:24:30Z</time>
      </trkpt>
      <trkpt lat="28.1277700" lon="-16.6566630">
        <ele>1302.8</ele>
        <time>2020-10-16T15:24:31Z</time>
      </trkpt>
      <trkpt lat="28.1274280" lon="-16.6568260">
        <ele>1301.4</ele>
        <time>2020-10-16T15:24:34Z</time>
      </trkpt>
      <trkpt lat="28.1270830" lon="-16.6569870">
        <ele>1300.2</ele>
        <time>2020-10-16T15:24:37Z</time>
      </trkpt>
      <trkpt lat="28.1268500" lon="-16.6570920">
        <ele>1298.6</ele>
        <time>2020-10-16T15:24:39Z</time>
      </trkpt>
      <trkpt lat="28.1266170" lon="-16.6572020">
        <ele>1297.6</ele>
        <time>2020-10-16T15:24:41Z</time>
      </trkpt>
      <trkpt lat="28.1263810" lon="-16.6573090">
        <ele>1296.4</ele>
        <time>2020-10-16T15:24:43Z</time>
      </trkpt>
      <trkpt lat="28.1261410" lon="-16.6574170">
        <ele>1295.4</ele>
        <time>2020-10-16T15:24:45Z</time>
      </trkpt>
      <trkpt lat="28.1258990" lon="-16.6575270">
        <ele>1294.2</ele>
        <time>2020-10-16T15:24:47Z</time>
      </trkpt>
      <trkpt lat="28.1256580" lon="-16.6576410">
        <ele>1293.2</ele>
        <time>2020-10-16T15:24:49Z</time>
      </trkpt>
      <trkpt lat="28.1254260" lon="-16.6577510">
        <ele>1291.8</ele>
        <time>2020-10-16T15:24:51Z</time>
      </trkpt>
      <trkpt lat="28.1253200" lon="-16.6578120">
        <ele>1290.8</ele>
        <time>2020-10-16T15:24:52Z</time>
      </trkpt>
      <trkpt lat="28.1251430" lon="-16.6579770">
        <ele>1289.0</ele>
        <time>2020-10-16T15:24:54Z</time>
      </trkpt>
      <trkpt lat="28.1250330" lon="-16.6582050">
        <ele>1287.4</ele>
        <time>2020-10-16T15:24:56Z</time>
      </trkpt>
      <trkpt lat="28.1250200" lon="-16.6584710">
        <ele>1285.8</ele>
        <time>2020-10-16T15:24:58Z</time>
      </trkpt>
      <trkpt lat="28.1250340" lon="-16.6586080">
        <ele>1285.0</ele>
        <time>2020-10-16T15:24:59Z</time>
      </trkpt>
      <trkpt lat="28.1250480" lon="-16.6587470">
        <ele>1284.4</ele>
        <time>2020-10-16T15:25:00Z</time>
      </trkpt>
      <trkpt lat="28.1250780" lon="-16.6590290">
        <ele>1283.0</ele>
        <time>2020-10-16T15:25:02Z</time>
      </trkpt>
      <trkpt lat="28.1250960" lon="-16.6591730">
        <ele>1281.6</ele>
        <time>2020-10-16T15:25:03Z</time>
      </trkpt>
      <trkpt lat="28.1251280" lon="-16.6593130">
        <ele>1280.6</ele>
        <time>2020-10-16T15:25:04Z</time>
      </trkpt>
      <trkpt lat="28.1251880" lon="-16.6594410">
        <ele>1278.4</ele>
        <time>2020-10-16T15:25:05Z</time>
      </trkpt>
      <trkpt lat="28.1252760" lon="-16.6595420">
        <ele>1277.2</ele>
        <time>2020-10-16T15:25:06Z</time>
      </trkpt>
      <trkpt lat="28.1253840" lon="-16.6596050">
        <ele>1276.0</ele>
        <time>2020-10-16T15:25:07Z</time>
      </trkpt>
      <trkpt lat="28.1254980" lon="-16.6596460">
        <ele>1274.8</ele>
        <time>2020-10-16T15:25:08Z</time>
      </trkpt>
      <trkpt lat="28.1256000" lon="-16.6596920">
        <ele>1273.6</ele>
        <time>2020-10-16T15:25:09Z</time>
      </trkpt>
      <trkpt lat="28.1256850" lon="-16.6597710">
        <ele>1272.4</ele>
        <time>2020-10-16T15:25:10Z</time>
      </trkpt>
      <trkpt lat="28.1257280" lon="-16.6598770">
        <ele>1271.2</ele>
        <time>2020-10-16T15:25:11Z</time>
      </trkpt>
      <trkpt lat="28.1257040" lon="-16.6601310">
        <ele>1269.2</ele>
        <time>2020-10-16T15:25:13Z</time>
      </trkpt>
      <trkpt lat="28.1256620" lon="-16.6602610">
        <ele>1268.0</ele>
        <time>2020-10-16T15:25:14Z</time>
      </trkpt>
      <trkpt lat="28.1256160" lon="-16.6603930">
        <ele>1267.0</ele>
        <time>2020-10-16T15:25:15Z</time>
      </trkpt>
      <trkpt lat="28.1255700" lon="-16.6605280">
        <ele>1265.8</ele>
        <time>2020-10-16T15:25:16Z</time>
      </trkpt>
      <trkpt lat="28.1255240" lon="-16.6606660">
        <ele>1264.6</ele>
        <time>2020-10-16T15:25:17Z</time>
      </trkpt>
      <trkpt lat="28.1254750" lon="-16.6608060">
        <ele>1263.4</ele>
        <time>2020-10-16T15:25:18Z</time>
      </trkpt>
      <trkpt lat="28.1253740" lon="-16.6610910">
        <ele>1261.4</ele>
        <time>2020-10-16T15:25:20Z</time>
      </trkpt>
      <trkpt lat="28.1253230" lon="-16.6612360">
        <ele>1260.0</ele>
        <time>2020-10-16T15:25:21Z</time>
      </trkpt>
      <trkpt lat="28.1252210" lon="-16.6615300">
        <ele>1258.2</ele>
        <time>2020-10-16T15:25:23Z</time>
      </trkpt>
      <trkpt lat="28.1251700" lon="-16.6616780">
        <ele>1257.0</ele>
        <time>2020-10-16T15:25:24Z</time>
      </trkpt>
      <trkpt lat="28.1251220" lon="-16.6618290">
        <ele>1255.8</ele>
        <time>2020-10-16T15:25:25Z</time>
      </trkpt>
      <trkpt lat="28.1250780" lon="-16.6619830">
        <ele>1254.6</ele>
        <time>2020-10-16T15:25:26Z</time>
      </trkpt>
      <trkpt lat="28.1250390" lon="-16.6621410">
        <ele>1253.6</ele>
        <time>2020-10-16T15:25:27Z</time>
      </trkpt>
      <trkpt lat="28.1250040" lon="-16.6623020">
        <ele>1252.4</ele>
        <time>2020-10-16T15:25:28Z</time>
      </trkpt>
      <trkpt lat="28.1249720" lon="-16.6624620">
        <ele>1251.2</ele>
        <time>2020-10-16T15:25:29Z</time>
      </trkpt>
      <trkpt lat="28.1249420" lon="-16.6626240">
        <ele>1249.8</ele>
        <time>2020-10-16T15:25:30Z</time>
      </trkpt>
      <trkpt lat="28.1249130" lon="-16.6627850">
        <ele>1248.4</ele>
        <time>2020-10-16T15:25:31Z</time>
      </trkpt>
      <trkpt lat="28.1248820" lon="-16.6629480">
        <ele>1247.0</ele>
        <time>2020-10-16T15:25:32Z</time>
      </trkpt>
      <trkpt lat="28.1248500" lon="-16.6631110">
        <ele>1245.6</ele>
        <time>2020-10-16T15:25:33Z</time>
      </trkpt>
      <trkpt lat="28.1248180" lon="-16.6632740">
        <ele>1244.2</ele>
        <time>2020-10-16T15:25:34Z</time>
      </trkpt>
      <trkpt lat="28.1247850" lon="-16.6634370">
        <ele>1242.8</ele>
        <time>2020-10-16T15:25:35Z</time>
      </trkpt>
      <trkpt lat="28.1247540" lon="-16.6636010">
        <ele>1242.0</ele>
        <time>2020-10-16T15:25:36Z</time>
      </trkpt>
      <trkpt lat="28.1247230" lon="-16.6637650">
        <ele>1240.8</ele>
        <time>2020-10-16T15:25:37Z</time>
      </trkpt>
      <trkpt lat="28.1246920" lon="-16.6639290">
        <ele>1238.2</ele>
        <time>2020-10-16T15:25:38Z</time>
      </trkpt>
      <trkpt lat="28.1246710" lon="-16.6640940">
        <ele>1237.0</ele>
        <time>2020-10-16T15:25:39Z</time>
      </trkpt>
      <trkpt lat="28.1246680" lon="-16.6642590">
        <ele>1235.8</ele>
        <time>2020-10-16T15:25:40Z</time>
      </trkpt>
      <trkpt lat="28.1246880" lon="-16.6644180">
        <ele>1234.6</ele>
        <time>2020-10-16T15:25:41Z</time>
      </trkpt>
      <trkpt lat="28.1247350" lon="-16.6645670">
        <ele>1233.2</ele>
        <time>2020-10-16T15:25:42Z</time>
      </trkpt>
      <trkpt lat="28.1248080" lon="-16.6647030">
        <ele>1231.8</ele>
        <time>2020-10-16T15:25:43Z</time>
      </trkpt>
      <trkpt lat="28.1249000" lon="-16.6648240">
        <ele>1230.2</ele>
        <time>2020-10-16T15:25:44Z</time>
      </trkpt>
      <trkpt lat="28.1249990" lon="-16.6649390">
        <ele>1228.8</ele>
        <time>2020-10-16T15:25:45Z</time>
      </trkpt>
      <trkpt lat="28.1250980" lon="-16.6650540">
        <ele>1227.4</ele>
        <time>2020-10-16T15:25:46Z</time>
      </trkpt>
      <trkpt lat="28.1251930" lon="-16.6651720">
        <ele>1226.2</ele>
        <time>2020-10-16T15:25:47Z</time>
      </trkpt>
      <trkpt lat="28.1252800" lon="-16.6652970">
        <ele>1225.2</ele>
        <time>2020-10-16T15:25:48Z</time>
      </trkpt>
      <trkpt lat="28.1254060" lon="-16.6655810">
        <ele>1223.0</ele>
        <time>2020-10-16T15:25:50Z</time>
      </trkpt>
      <trkpt lat="28.1254790" lon="-16.6658840">
        <ele>1221.2</ele>
        <time>2020-10-16T15:25:52Z</time>
      </trkpt>
      <trkpt lat="28.1255340" lon="-16.6661850">
        <ele>1219.6</ele>
        <time>2020-10-16T15:25:54Z</time>
      </trkpt>
      <trkpt lat="28.1255800" lon="-16.6664800">
        <ele>1218.2</ele>
        <time>2020-10-16T15:25:56Z</time>
      </trkpt>
      <trkpt lat="28.1255830" lon="-16.6666250">
        <ele>1217.4</ele>
        <time>2020-10-16T15:25:57Z</time>
      </trkpt>
      <trkpt lat="28.1255620" lon="-16.6667680">
        <ele>1216.4</ele>
        <time>2020-10-16T15:25:58Z</time>
      </trkpt>
      <trkpt lat="28.1255220" lon="-16.6669050">
        <ele>1215.2</ele>
        <time>2020-10-16T15:25:59Z</time>
      </trkpt>
      <trkpt lat="28.1254020" lon="-16.6671620">
        <ele>1213.6</ele>
        <time>2020-10-16T15:26:01Z</time>
      </trkpt>
      <trkpt lat="28.1253330" lon="-16.6672860">
        <ele>1212.8</ele>
        <time>2020-10-16T15:26:02Z</time>
      </trkpt>
      <trkpt lat="28.1252620" lon="-16.6674100">
        <ele>1212.2</ele>
        <time>2020-10-16T15:26:03Z</time>
      </trkpt>
      <trkpt lat="28.1251490" lon="-16.6676680">
        <ele>1210.8</ele>
        <time>2020-10-16T15:26:05Z</time>
      </trkpt>
      <trkpt lat="28.1251370" lon="-16.6679510">
        <ele>1209.4</ele>
        <time>2020-10-16T15:26:07Z</time>
      </trkpt>
      <trkpt lat="28.1252430" lon="-16.6681950">
        <ele>1207.8</ele>
        <time>2020-10-16T15:26:09Z</time>
      </trkpt>
      <trkpt lat="28.1254190" lon="-16.6683790">
        <ele>1205.4</ele>
        <time>2020-10-16T15:26:11Z</time>
      </trkpt>
      <trkpt lat="28.1255800" lon="-16.6685530">
        <ele>1203.8</ele>
        <time>2020-10-16T15:26:13Z</time>
      </trkpt>
      <trkpt lat="28.1255900" lon="-16.6687700">
        <ele>1202.6</ele>
        <time>2020-10-16T15:26:15Z</time>
      </trkpt>
      <trkpt lat="28.1254160" lon="-16.6688900">
        <ele>1201.6</ele>
        <time>2020-10-16T15:26:17Z</time>
      </trkpt>
      <trkpt lat="28.1252150" lon="-16.6688010">
        <ele>1200.4</ele>
        <time>2020-10-16T15:26:19Z</time>
      </trkpt>
      <trkpt lat="28.1250590" lon="-16.6685950">
        <ele>1199.0</ele>
        <time>2020-10-16T15:26:21Z</time>
      </trkpt>
      <trkpt lat="28.1249040" lon="-16.6683710">
        <ele>1197.6</ele>
        <time>2020-10-16T15:26:23Z</time>
      </trkpt>
      <trkpt lat="28.1247410" lon="-16.6681430">
        <ele>1196.4</ele>
        <time>2020-10-16T15:26:25Z</time>
      </trkpt>
      <trkpt lat="28.1245700" lon="-16.6679160">
        <ele>1195.0</ele>
        <time>2020-10-16T15:26:27Z</time>
      </trkpt>
      <trkpt lat="28.1242910" lon="-16.6675790">
        <ele>1193.4</ele>
        <time>2020-10-16T15:26:30Z</time>
      </trkpt>
      <trkpt lat="28.1240930" lon="-16.6673580">
        <ele>1192.0</ele>
        <time>2020-10-16T15:26:32Z</time>
      </trkpt>
      <trkpt lat="28.1238980" lon="-16.6671310">
        <ele>1190.8</ele>
        <time>2020-10-16T15:26:34Z</time>
      </trkpt>
      <trkpt lat="28.1237050" lon="-16.6669010">
        <ele>1189.6</ele>
        <time>2020-10-16T15:26:36Z</time>
      </trkpt>
      <trkpt lat="28.1235090" lon="-16.6666770">
        <ele>1188.0</ele>
        <time>2020-10-16T15:26:38Z</time>
      </trkpt>
      <trkpt lat="28.1233100" lon="-16.6664620">
        <ele>1186.6</ele>
        <time>2020-10-16T15:26:40Z</time>
      </trkpt>
      <trkpt lat="28.1232000" lon="-16.6663730">
        <ele>1185.8</ele>
        <time>2020-10-16T15:26:41Z</time>
      </trkpt>
      <trkpt lat="28.1230770" lon="-16.6663100">
        <ele>1185.0</ele>
        <time>2020-10-16T15:26:42Z</time>
      </trkpt>
      <trkpt lat="28.1228150" lon="-16.6662700">
        <ele>1183.0</ele>
        <time>2020-10-16T15:26:44Z</time>
      </trkpt>
      <trkpt lat="28.1225650" lon="-16.6663560">
        <ele>1181.4</ele>
        <time>2020-10-16T15:26:46Z</time>
      </trkpt>
      <trkpt lat="28.1224500" lon="-16.6664280">
        <ele>1180.6</ele>
        <time>2020-10-16T15:26:47Z</time>
      </trkpt>
      <trkpt lat="28.1223330" lon="-16.6664990">
        <ele>1179.4</ele>
        <time>2020-10-16T15:26:48Z</time>
      </trkpt>
      <trkpt lat="28.1221000" lon="-16.6666390">
        <ele>1177.8</ele>
        <time>2020-10-16T15:26:50Z</time>
      </trkpt>
      <trkpt lat="28.1218740" lon="-16.6667740">
        <ele>1176.6</ele>
        <time>2020-10-16T15:26:52Z</time>
      </trkpt>
      <trkpt lat="28.1216610" lon="-16.6668890">
        <ele>1175.4</ele>
        <time>2020-10-16T15:26:54Z</time>
      </trkpt>
      <trkpt lat="28.1214480" lon="-16.6668800">
        <ele>1174.4</ele>
        <time>2020-10-16T15:26:56Z</time>
      </trkpt>
      <trkpt lat="28.1212460" lon="-16.6667650">
        <ele>1173.0</ele>
        <time>2020-10-16T15:26:58Z</time>
      </trkpt>
      <trkpt lat="28.1211460" lon="-16.6666950">
        <ele>1172.4</ele>
        <time>2020-10-16T15:26:59Z</time>
      </trkpt>
      <trkpt lat="28.1210460" lon="-16.6666260">
        <ele>1171.6</ele>
        <time>2020-10-16T15:27:00Z</time>
      </trkpt>
      <trkpt lat="28.1208410" lon="-16.6664860">
        <ele>1170.4</ele>
        <time>2020-10-16T15:27:02Z</time>
      </trkpt>
      <trkpt lat="28.1206300" lon="-16.6663440">
        <ele>1169.2</ele>
        <time>2020-10-16T15:27:04Z</time>
      </trkpt>
      <trkpt lat="28.1204130" lon="-16.6662010">
        <ele>1168.0</ele>
        <time>2020-10-16T15:27:06Z</time>
      </trkpt>
      <trkpt lat="28.1201950" lon="-16.6660570">
        <ele>1166.8</ele>
        <time>2020-10-16T15:27:08Z</time>
      </trkpt>
      <trkpt lat="28.1199760" lon="-16.6659170">
        <ele>1165.8</ele>
        <time>2020-10-16T15:27:10Z</time>
      </trkpt>
      <trkpt lat="28.1197560" lon="-16.6657780">
        <ele>1164.6</ele>
        <time>2020-10-16T15:27:12Z</time>
      </trkpt>
      <trkpt lat="28.1195350" lon="-16.6656420">
        <ele>1163.2</ele>
        <time>2020-10-16T15:27:14Z</time>
      </trkpt>
      <trkpt lat="28.1193150" lon="-16.6655030">
        <ele>1161.8</ele>
        <time>2020-10-16T15:27:16Z</time>
      </trkpt>
      <trkpt lat="28.1191000" lon="-16.6653670">
        <ele>1159.6</ele>
        <time>2020-10-16T15:27:18Z</time>
      </trkpt>
      <trkpt lat="28.1188920" lon="-16.6652770">
        <ele>1158.2</ele>
        <time>2020-10-16T15:27:20Z</time>
      </trkpt>
      <trkpt lat="28.1187960" lon="-16.6652790">
        <ele>1157.0</ele>
        <time>2020-10-16T15:27:21Z</time>
      </trkpt>
      <trkpt lat="28.1186450" lon="-16.6653910">
        <ele>1155.2</ele>
        <time>2020-10-16T15:27:23Z</time>
      </trkpt>
      <trkpt lat="28.1185570" lon="-16.6655880">
        <ele>1153.8</ele>
        <time>2020-10-16T15:27:25Z</time>
      </trkpt>
      <trkpt lat="28.1185330" lon="-16.6658200">
        <ele>1152.2</ele>
        <time>2020-10-16T15:27:27Z</time>
      </trkpt>
      <trkpt lat="28.1185230" lon="-16.6660720">
        <ele>1151.0</ele>
        <time>2020-10-16T15:27:29Z</time>
      </trkpt>
      <trkpt lat="28.1185140" lon="-16.6663350">
        <ele>1149.6</ele>
        <time>2020-10-16T15:27:31Z</time>
      </trkpt>
      <trkpt lat="28.1185060" lon="-16.6666060">
        <ele>1148.4</ele>
        <time>2020-10-16T15:27:33Z</time>
      </trkpt>
      <trkpt lat="28.1184960" lon="-16.6668810">
        <ele>1146.8</ele>
        <time>2020-10-16T15:27:35Z</time>
      </trkpt>
      <trkpt lat="28.1184850" lon="-16.6671600">
        <ele>1145.0</ele>
        <time>2020-10-16T15:27:37Z</time>
      </trkpt>
      <trkpt lat="28.1184720" lon="-16.6674410">
        <ele>1143.4</ele>
        <time>2020-10-16T15:27:39Z</time>
      </trkpt>
      <trkpt lat="28.1184660" lon="-16.6675820">
        <ele>1142.4</ele>
        <time>2020-10-16T15:27:40Z</time>
      </trkpt>
      <trkpt lat="28.1184600" lon="-16.6677240">
        <ele>1141.4</ele>
        <time>2020-10-16T15:27:41Z</time>
      </trkpt>
      <trkpt lat="28.1184510" lon="-16.6680090">
        <ele>1139.4</ele>
        <time>2020-10-16T15:27:43Z</time>
      </trkpt>
      <trkpt lat="28.1184630" lon="-16.6682880">
        <ele>1138.2</ele>
        <time>2020-10-16T15:27:45Z</time>
      </trkpt>
      <trkpt lat="28.1185360" lon="-16.6685400">
        <ele>1136.4</ele>
        <time>2020-10-16T15:27:47Z</time>
      </trkpt>
      <trkpt lat="28.1186660" lon="-16.6687510">
        <ele>1134.4</ele>
        <time>2020-10-16T15:27:49Z</time>
      </trkpt>
      <trkpt lat="28.1188070" lon="-16.6689500">
        <ele>1132.4</ele>
        <time>2020-10-16T15:27:51Z</time>
      </trkpt>
      <trkpt lat="28.1188760" lon="-16.6690500">
        <ele>1130.8</ele>
        <time>2020-10-16T15:27:52Z</time>
      </trkpt>
      <trkpt lat="28.1190730" lon="-16.6693540">
        <ele>1130.2</ele>
        <time>2020-10-16T15:27:55Z</time>
      </trkpt>
      <trkpt lat="28.1191310" lon="-16.6694630">
        <ele>1129.8</ele>
        <time>2020-10-16T15:27:56Z</time>
      </trkpt>
      <trkpt lat="28.1192820" lon="-16.6699280">
        <ele>1129.2</ele>
        <time>2020-10-16T15:28:00Z</time>
      </trkpt>
      <trkpt lat="28.1193370" lon="-16.6701670">
        <ele>1128.8</ele>
        <time>2020-10-16T15:28:02Z</time>
      </trkpt>
      <trkpt lat="28.1194470" lon="-16.6706450">
        <ele>1128.0</ele>
        <time>2020-10-16T15:28:06Z</time>
      </trkpt>
      <trkpt lat="28.1195880" lon="-16.6712520">
        <ele>1126.8</ele>
        <time>2020-10-16T15:28:11Z</time>
      </trkpt>
      <trkpt lat="28.1196680" lon="-16.6716210">
        <ele>1125.6</ele>
        <time>2020-10-16T15:28:14Z</time>
      </trkpt>
      <trkpt lat="28.1197430" lon="-16.6719900">
        <ele>1124.2</ele>
        <time>2020-10-16T15:28:17Z</time>
      </trkpt>
      <trkpt lat="28.1197610" lon="-16.6722460">
        <ele>1123.4</ele>
        <time>2020-10-16T15:28:19Z</time>
      </trkpt>
      <trkpt lat="28.1197440" lon="-16.6725050">
        <ele>1122.2</ele>
        <time>2020-10-16T15:28:21Z</time>
      </trkpt>
      <trkpt lat="28.1196590" lon="-16.6727460">
        <ele>1120.8</ele>
        <time>2020-10-16T15:28:23Z</time>
      </trkpt>
      <trkpt lat="28.1194730" lon="-16.6728980">
        <ele>1119.4</ele>
        <time>2020-10-16T15:28:25Z</time>
      </trkpt>
      <trkpt lat="28.1193550" lon="-16.6729360">
        <ele>1117.8</ele>
        <time>2020-10-16T15:28:26Z</time>
      </trkpt>
      <trkpt lat="28.1191090" lon="-16.6729510">
        <ele>1116.6</ele>
        <time>2020-10-16T15:28:28Z</time>
      </trkpt>
      <trkpt lat="28.1188660" lon="-16.6728980">
        <ele>1115.4</ele>
        <time>2020-10-16T15:28:30Z</time>
      </trkpt>
      <trkpt lat="28.1186290" lon="-16.6728390">
        <ele>1114.2</ele>
        <time>2020-10-16T15:28:32Z</time>
      </trkpt>
      <trkpt lat="28.1183940" lon="-16.6727850">
        <ele>1112.8</ele>
        <time>2020-10-16T15:28:34Z</time>
      </trkpt>
      <trkpt lat="28.1181610" lon="-16.6727600">
        <ele>1111.8</ele>
        <time>2020-10-16T15:28:36Z</time>
      </trkpt>
      <trkpt lat="28.1179230" lon="-16.6727950">
        <ele>1110.6</ele>
        <time>2020-10-16T15:28:38Z</time>
      </trkpt>
      <trkpt lat="28.1175700" lon="-16.6728990">
        <ele>1109.6</ele>
        <time>2020-10-16T15:28:41Z</time>
      </trkpt>
      <trkpt lat="28.1172200" lon="-16.6730130">
        <ele>1108.2</ele>
        <time>2020-10-16T15:28:44Z</time>
      </trkpt>
      <trkpt lat="28.1169920" lon="-16.6730960">
        <ele>1107.0</ele>
        <time>2020-10-16T15:28:46Z</time>
      </trkpt>
      <trkpt lat="28.1168120" lon="-16.6732490">
        <ele>1105.6</ele>
        <time>2020-10-16T15:28:48Z</time>
      </trkpt>
      <trkpt lat="28.1167990" lon="-16.6734860">
        <ele>1104.6</ele>
        <time>2020-10-16T15:28:50Z</time>
      </trkpt>
      <trkpt lat="28.1169360" lon="-16.6736920">
        <ele>1103.4</ele>
        <time>2020-10-16T15:28:52Z</time>
      </trkpt>
      <trkpt lat="28.1170810" lon="-16.6739100">
        <ele>1102.2</ele>
        <time>2020-10-16T15:28:54Z</time>
      </trkpt>
      <trkpt lat="28.1171140" lon="-16.6741700">
        <ele>1101.0</ele>
        <time>2020-10-16T15:28:56Z</time>
      </trkpt>
      <trkpt lat="28.1169970" lon="-16.6743980">
        <ele>1099.2</ele>
        <time>2020-10-16T15:28:58Z</time>
      </trkpt>
      <trkpt lat="28.1168160" lon="-16.6745830">
        <ele>1097.6</ele>
        <time>2020-10-16T15:29:00Z</time>
      </trkpt>
      <trkpt lat="28.1167240" lon="-16.6746800">
        <ele>1095.8</ele>
        <time>2020-10-16T15:29:01Z</time>
      </trkpt>
      <trkpt lat="28.1166420" lon="-16.6747910">
        <ele>1094.8</ele>
        <time>2020-10-16T15:29:02Z</time>
      </trkpt>
      <trkpt lat="28.1165740" lon="-16.6749170">
        <ele>1093.8</ele>
        <time>2020-10-16T15:29:03Z</time>
      </trkpt>
      <trkpt lat="28.1164660" lon="-16.6751920">
        <ele>1092.6</ele>
        <time>2020-10-16T15:29:05Z</time>
      </trkpt>
      <trkpt lat="28.1164160" lon="-16.6753310">
        <ele>1091.6</ele>
        <time>2020-10-16T15:29:06Z</time>
      </trkpt>
      <trkpt lat="28.1163790" lon="-16.6754710">
        <ele>1090.6</ele>
        <time>2020-10-16T15:29:07Z</time>
      </trkpt>
      <trkpt lat="28.1163830" lon="-16.6756020">
        <ele>1089.6</ele>
        <time>2020-10-16T15:29:08Z</time>
      </trkpt>
      <trkpt lat="28.1164300" lon="-16.6757100">
        <ele>1088.4</ele>
        <time>2020-10-16T15:29:09Z</time>
      </trkpt>
      <trkpt lat="28.1165130" lon="-16.6757710">
        <ele>1087.2</ele>
        <time>2020-10-16T15:29:10Z</time>
      </trkpt>
      <trkpt lat="28.1166200" lon="-16.6757770">
        <ele>1086.2</ele>
        <time>2020-10-16T15:29:11Z</time>
      </trkpt>
      <trkpt lat="28.1168440" lon="-16.6757100">
        <ele>1084.4</ele>
        <time>2020-10-16T15:29:13Z</time>
      </trkpt>
      <trkpt lat="28.1169620" lon="-16.6756750">
        <ele>1083.2</ele>
        <time>2020-10-16T15:29:14Z</time>
      </trkpt>
      <trkpt lat="28.1170820" lon="-16.6756380">
        <ele>1082.4</ele>
        <time>2020-10-16T15:29:15Z</time>
      </trkpt>
      <trkpt lat="28.1172060" lon="-16.6756000">
        <ele>1081.2</ele>
        <time>2020-10-16T15:29:16Z</time>
      </trkpt>
      <trkpt lat="28.1174590" lon="-16.6755210">
        <ele>1079.4</ele>
        <time>2020-10-16T15:29:18Z</time>
      </trkpt>
      <trkpt lat="28.1177180" lon="-16.6754350">
        <ele>1077.4</ele>
        <time>2020-10-16T15:29:20Z</time>
      </trkpt>
      <trkpt lat="28.1178520" lon="-16.6754010">
        <ele>1076.6</ele>
        <time>2020-10-16T15:29:21Z</time>
      </trkpt>
      <trkpt lat="28.1179860" lon="-16.6753950">
        <ele>1075.6</ele>
        <time>2020-10-16T15:29:22Z</time>
      </trkpt>
      <trkpt lat="28.1182310" lon="-16.6754970">
        <ele>1074.0</ele>
        <time>2020-10-16T15:29:24Z</time>
      </trkpt>
      <trkpt lat="28.1183760" lon="-16.6757410">
        <ele>1072.4</ele>
        <time>2020-10-16T15:29:26Z</time>
      </trkpt>
      <trkpt lat="28.1183860" lon="-16.6760380">
        <ele>1070.2</ele>
        <time>2020-10-16T15:29:28Z</time>
      </trkpt>
      <trkpt lat="28.1183600" lon="-16.6761770">
        <ele>1069.0</ele>
        <time>2020-10-16T15:29:29Z</time>
      </trkpt>
      <trkpt lat="28.1183270" lon="-16.6763140">
        <ele>1068.0</ele>
        <time>2020-10-16T15:29:30Z</time>
      </trkpt>
      <trkpt lat="28.1182540" lon="-16.6765870">
        <ele>1066.2</ele>
        <time>2020-10-16T15:29:32Z</time>
      </trkpt>
      <trkpt lat="28.1181810" lon="-16.6768580">
        <ele>1064.6</ele>
        <time>2020-10-16T15:29:34Z</time>
      </trkpt>
      <trkpt lat="28.1180860" lon="-16.6771020">
        <ele>1063.8</ele>
        <time>2020-10-16T15:29:36Z</time>
      </trkpt>
      <trkpt lat="28.1179030" lon="-16.6772610">
        <ele>1063.4</ele>
        <time>2020-10-16T15:29:38Z</time>
      </trkpt>
      <trkpt lat="28.1175490" lon="-16.6771730">
        <ele>1062.2</ele>
        <time>2020-10-16T15:29:41Z</time>
      </trkpt>
      <trkpt lat="28.1173810" lon="-16.6769460">
        <ele>1060.8</ele>
        <time>2020-10-16T15:29:43Z</time>
      </trkpt>
      <trkpt lat="28.1172650" lon="-16.6766880">
        <ele>1059.4</ele>
        <time>2020-10-16T15:29:45Z</time>
      </trkpt>
      <trkpt lat="28.1171990" lon="-16.6765880">
        <ele>1058.6</ele>
        <time>2020-10-16T15:29:46Z</time>
      </trkpt>
      <trkpt lat="28.1171180" lon="-16.6765390">
        <ele>1057.6</ele>
        <time>2020-10-16T15:29:47Z</time>
      </trkpt>
      <trkpt lat="28.1169790" lon="-16.6766450">
        <ele>1055.8</ele>
        <time>2020-10-16T15:29:49Z</time>
      </trkpt>
      <trkpt lat="28.1169800" lon="-16.6768580">
        <ele>1053.8</ele>
        <time>2020-10-16T15:29:51Z</time>
      </trkpt>
      <trkpt lat="28.1170120" lon="-16.6769680">
        <ele>1053.2</ele>
        <time>2020-10-16T15:29:52Z</time>
      </trkpt>
      <trkpt lat="28.1170430" lon="-16.6770820">
        <ele>1052.2</ele>
        <time>2020-10-16T15:29:53Z</time>
      </trkpt>
      <trkpt lat="28.1171010" lon="-16.6773210">
        <ele>1050.2</ele>
        <time>2020-10-16T15:29:55Z</time>
      </trkpt>
      <trkpt lat="28.1171310" lon="-16.6774430">
        <ele>1049.2</ele>
        <time>2020-10-16T15:29:56Z</time>
      </trkpt>
      <trkpt lat="28.1171680" lon="-16.6775640">
        <ele>1048.0</ele>
        <time>2020-10-16T15:29:57Z</time>
      </trkpt>
      <trkpt lat="28.1172210" lon="-16.6776760">
        <ele>1046.8</ele>
        <time>2020-10-16T15:29:58Z</time>
      </trkpt>
      <trkpt lat="28.1174000" lon="-16.6778090">
        <ele>1045.2</ele>
        <time>2020-10-16T15:30:00Z</time>
      </trkpt>
      <trkpt lat="28.1176090" lon="-16.6778530">
        <ele>1043.6</ele>
        <time>2020-10-16T15:30:02Z</time>
      </trkpt>
      <trkpt lat="28.1177340" lon="-16.6780020">
        <ele>1042.6</ele>
        <time>2020-10-16T15:30:04Z</time>
      </trkpt>
      <trkpt lat="28.1175980" lon="-16.6782370">
        <ele>1041.4</ele>
        <time>2020-10-16T15:30:07Z</time>
      </trkpt>
      <trkpt lat="28.1173960" lon="-16.6782360">
        <ele>1040.4</ele>
        <time>2020-10-16T15:30:09Z</time>
      </trkpt>
      <trkpt lat="28.1172830" lon="-16.6782260">
        <ele>1039.2</ele>
        <time>2020-10-16T15:30:10Z</time>
      </trkpt>
      <trkpt lat="28.1170400" lon="-16.6782340">
        <ele>1037.4</ele>
        <time>2020-10-16T15:30:12Z</time>
      </trkpt>
      <trkpt lat="28.1167860" lon="-16.6782230">
        <ele>1036.0</ele>
        <time>2020-10-16T15:30:14Z</time>
      </trkpt>
      <trkpt lat="28.1165490" lon="-16.6781020">
        <ele>1034.4</ele>
        <time>2020-10-16T15:30:16Z</time>
      </trkpt>
      <trkpt lat="28.1164630" lon="-16.6779940">
        <ele>1033.0</ele>
        <time>2020-10-16T15:30:17Z</time>
      </trkpt>
      <trkpt lat="28.1163950" lon="-16.6778670">
        <ele>1031.8</ele>
        <time>2020-10-16T15:30:18Z</time>
      </trkpt>
      <trkpt lat="28.1163370" lon="-16.6777350">
        <ele>1030.8</ele>
        <time>2020-10-16T15:30:19Z</time>
      </trkpt>
      <trkpt lat="28.1162850" lon="-16.6776180">
        <ele>1030.4</ele>
        <time>2020-10-16T15:30:20Z</time>
      </trkpt>
      <trkpt lat="28.1162260" lon="-16.6775290">
        <ele>1029.8</ele>
        <time>2020-10-16T15:30:21Z</time>
      </trkpt>
      <trkpt lat="28.1161480" lon="-16.6774820">
        <ele>1029.0</ele>
        <time>2020-10-16T15:30:22Z</time>
      </trkpt>
      <trkpt lat="28.1160640" lon="-16.6774870">
        <ele>1028.2</ele>
        <time>2020-10-16T15:30:23Z</time>
      </trkpt>
      <trkpt lat="28.1159640" lon="-16.6776240">
        <ele>1026.4</ele>
        <time>2020-10-16T15:30:25Z</time>
      </trkpt>
      <trkpt lat="28.1159810" lon="-16.6777360">
        <ele>1025.2</ele>
        <time>2020-10-16T15:30:26Z</time>
      </trkpt>
      <trkpt lat="28.1160150" lon="-16.6778500">
        <ele>1024.2</ele>
        <time>2020-10-16T15:30:27Z</time>
      </trkpt>
      <trkpt lat="28.1160530" lon="-16.6779700">
        <ele>1023.6</ele>
        <time>2020-10-16T15:30:28Z</time>
      </trkpt>
      <trkpt lat="28.1160920" lon="-16.6780940">
        <ele>1022.8</ele>
        <time>2020-10-16T15:30:29Z</time>
      </trkpt>
      <trkpt lat="28.1161880" lon="-16.6783450">
        <ele>1021.0</ele>
        <time>2020-10-16T15:30:31Z</time>
      </trkpt>
      <trkpt lat="28.1162610" lon="-16.6784550">
        <ele>1019.8</ele>
        <time>2020-10-16T15:30:32Z</time>
      </trkpt>
      <trkpt lat="28.1163560" lon="-16.6785390">
        <ele>1018.6</ele>
        <time>2020-10-16T15:30:33Z</time>
      </trkpt>
      <trkpt lat="28.1164670" lon="-16.6785970">
        <ele>1017.4</ele>
        <time>2020-10-16T15:30:34Z</time>
      </trkpt>
      <trkpt lat="28.1165830" lon="-16.6786450">
        <ele>1016.6</ele>
        <time>2020-10-16T15:30:35Z</time>
      </trkpt>
      <trkpt lat="28.1166960" lon="-16.6786910">
        <ele>1015.6</ele>
        <time>2020-10-16T15:30:36Z</time>
      </trkpt>
      <trkpt lat="28.1167990" lon="-16.6787390">
        <ele>1014.8</ele>
        <time>2020-10-16T15:30:37Z</time>
      </trkpt>
      <trkpt lat="28.1168720" lon="-16.6788000">
        <ele>1014.0</ele>
        <time>2020-10-16T15:30:38Z</time>
      </trkpt>
      <trkpt lat="28.1169040" lon="-16.6789730">
        <ele>1012.4</ele>
        <time>2020-10-16T15:30:40Z</time>
      </trkpt>
      <trkpt lat="28.1167860" lon="-16.6790590">
        <ele>1010.6</ele>
        <time>2020-10-16T15:30:42Z</time>
      </trkpt>
      <trkpt lat="28.1167040" lon="-16.6790340">
        <ele>1009.6</ele>
        <time>2020-10-16T15:30:43Z</time>
      </trkpt>
      <trkpt lat="28.1166150" lon="-16.6789960">
        <ele>1007.8</ele>
        <time>2020-10-16T15:30:44Z</time>
      </trkpt>
      <trkpt lat="28.1164190" lon="-16.6789170">
        <ele>1006.8</ele>
        <time>2020-10-16T15:30:46Z</time>
      </trkpt>
      <trkpt lat="28.1162060" lon="-16.6788210">
        <ele>1005.6</ele>
        <time>2020-10-16T15:30:48Z</time>
      </trkpt>
      <trkpt lat="28.1159790" lon="-16.6787180">
        <ele>1004.4</ele>
        <time>2020-10-16T15:30:50Z</time>
      </trkpt>
      <trkpt lat="28.1157470" lon="-16.6786120">
        <ele>1002.6</ele>
        <time>2020-10-16T15:30:52Z</time>
      </trkpt>
      <trkpt lat="28.1156380" lon="-16.6785410">
        <ele>1001.6</ele>
        <time>2020-10-16T15:30:53Z</time>
      </trkpt>
      <trkpt lat="28.1155420" lon="-16.6784470">
        <ele>1000.6</ele>
        <time>2020-10-16T15:30:54Z</time>
      </trkpt>
      <trkpt lat="28.1153940" lon="-16.6782130">
        <ele>998.8</ele>
        <time>2020-10-16T15:30:56Z</time>
      </trkpt>
      <trkpt lat="28.1152380" lon="-16.6778520">
        <ele>997.6</ele>
        <time>2020-10-16T15:30:59Z</time>
      </trkpt>
      <trkpt lat="28.1150960" lon="-16.6777580">
        <ele>996.6</ele>
        <time>2020-10-16T15:31:01Z</time>
      </trkpt>
      <trkpt lat="28.1150130" lon="-16.6778920">
        <ele>995.2</ele>
        <time>2020-10-16T15:31:03Z</time>
      </trkpt>
      <trkpt lat="28.1150530" lon="-16.6781030">
        <ele>993.8</ele>
        <time>2020-10-16T15:31:05Z</time>
      </trkpt>
      <trkpt lat="28.1151330" lon="-16.6783200">
        <ele>992.4</ele>
        <time>2020-10-16T15:31:07Z</time>
      </trkpt>
      <trkpt lat="28.1152430" lon="-16.6785270">
        <ele>990.6</ele>
        <time>2020-10-16T15:31:09Z</time>
      </trkpt>
      <trkpt lat="28.1153160" lon="-16.6786180">
        <ele>989.4</ele>
        <time>2020-10-16T15:31:10Z</time>
      </trkpt>
      <trkpt lat="28.1154880" lon="-16.6787790">
        <ele>987.8</ele>
        <time>2020-10-16T15:31:12Z</time>
      </trkpt>
      <trkpt lat="28.1155800" lon="-16.6788540">
        <ele>986.6</ele>
        <time>2020-10-16T15:31:13Z</time>
      </trkpt>
      <trkpt lat="28.1157530" lon="-16.6790010">
        <ele>985.2</ele>
        <time>2020-10-16T15:31:15Z</time>
      </trkpt>
      <trkpt lat="28.1158220" lon="-16.6790810">
        <ele>984.8</ele>
        <time>2020-10-16T15:31:16Z</time>
      </trkpt>
      <trkpt lat="28.1158510" lon="-16.6792930">
        <ele>983.6</ele>
        <time>2020-10-16T15:31:18Z</time>
      </trkpt>
      <trkpt lat="28.1157160" lon="-16.6794250">
        <ele>982.4</ele>
        <time>2020-10-16T15:31:20Z</time>
      </trkpt>
      <trkpt lat="28.1155230" lon="-16.6793720">
        <ele>981.4</ele>
        <time>2020-10-16T15:31:22Z</time>
      </trkpt>
      <trkpt lat="28.1153200" lon="-16.6792510">
        <ele>980.4</ele>
        <time>2020-10-16T15:31:24Z</time>
      </trkpt>
      <trkpt lat="28.1150910" lon="-16.6791170">
        <ele>979.0</ele>
        <time>2020-10-16T15:31:26Z</time>
      </trkpt>
      <trkpt lat="28.1148600" lon="-16.6789760">
        <ele>977.6</ele>
        <time>2020-10-16T15:31:28Z</time>
      </trkpt>
      <trkpt lat="28.1147500" lon="-16.6788940">
        <ele>976.6</ele>
        <time>2020-10-16T15:31:29Z</time>
      </trkpt>
      <trkpt lat="28.1146540" lon="-16.6787920">
        <ele>975.4</ele>
        <time>2020-10-16T15:31:30Z</time>
      </trkpt>
      <trkpt lat="28.1145730" lon="-16.6786690">
        <ele>974.4</ele>
        <time>2020-10-16T15:31:31Z</time>
      </trkpt>
      <trkpt lat="28.1145020" lon="-16.6785350">
        <ele>973.2</ele>
        <time>2020-10-16T15:31:32Z</time>
      </trkpt>
      <trkpt lat="28.1143670" lon="-16.6782590">
        <ele>972.0</ele>
        <time>2020-10-16T15:31:34Z</time>
      </trkpt>
      <trkpt lat="28.1142400" lon="-16.6780090">
        <ele>971.6</ele>
        <time>2020-10-16T15:31:36Z</time>
      </trkpt>
      <trkpt lat="28.1141640" lon="-16.6779250">
        <ele>971.0</ele>
        <time>2020-10-16T15:31:37Z</time>
      </trkpt>
      <trkpt lat="28.1139890" lon="-16.6779330">
        <ele>969.6</ele>
        <time>2020-10-16T15:31:39Z</time>
      </trkpt>
      <trkpt lat="28.1139460" lon="-16.6781410">
        <ele>967.8</ele>
        <time>2020-10-16T15:31:41Z</time>
      </trkpt>
      <trkpt lat="28.1139650" lon="-16.6783790">
        <ele>965.8</ele>
        <time>2020-10-16T15:31:43Z</time>
      </trkpt>
      <trkpt lat="28.1139710" lon="-16.6785050">
        <ele>964.8</ele>
        <time>2020-10-16T15:31:44Z</time>
      </trkpt>
      <trkpt lat="28.1139840" lon="-16.6787730">
        <ele>963.0</ele>
        <time>2020-10-16T15:31:46Z</time>
      </trkpt>
      <trkpt lat="28.1139930" lon="-16.6789100">
        <ele>962.0</ele>
        <time>2020-10-16T15:31:47Z</time>
      </trkpt>
      <trkpt lat="28.1140120" lon="-16.6791880">
        <ele>959.8</ele>
        <time>2020-10-16T15:31:49Z</time>
      </trkpt>
      <trkpt lat="28.1140240" lon="-16.6793280">
        <ele>958.4</ele>
        <time>2020-10-16T15:31:50Z</time>
      </trkpt>
      <trkpt lat="28.1140430" lon="-16.6794670">
        <ele>957.0</ele>
        <time>2020-10-16T15:31:51Z</time>
      </trkpt>
      <trkpt lat="28.1140740" lon="-16.6796040">
        <ele>955.8</ele>
        <time>2020-10-16T15:31:52Z</time>
      </trkpt>
      <trkpt lat="28.1141180" lon="-16.6797380">
        <ele>954.6</ele>
        <time>2020-10-16T15:31:53Z</time>
      </trkpt>
      <trkpt lat="28.1142720" lon="-16.6801390">
        <ele>953.2</ele>
        <time>2020-10-16T15:31:56Z</time>
      </trkpt>
      <trkpt lat="28.1143760" lon="-16.6804140">
        <ele>952.0</ele>
        <time>2020-10-16T15:31:58Z</time>
      </trkpt>
      <trkpt lat="28.1144810" lon="-16.6806890">
        <ele>950.4</ele>
        <time>2020-10-16T15:32:00Z</time>
      </trkpt>
      <trkpt lat="28.1145300" lon="-16.6808260">
        <ele>949.4</ele>
        <time>2020-10-16T15:32:01Z</time>
      </trkpt>
      <trkpt lat="28.1145700" lon="-16.6809640">
        <ele>948.4</ele>
        <time>2020-10-16T15:32:02Z</time>
      </trkpt>
      <trkpt lat="28.1145950" lon="-16.6811040">
        <ele>947.8</ele>
        <time>2020-10-16T15:32:03Z</time>
      </trkpt>
      <trkpt lat="28.1145930" lon="-16.6813820">
        <ele>946.0</ele>
        <time>2020-10-16T15:32:05Z</time>
      </trkpt>
      <trkpt lat="28.1145380" lon="-16.6816520">
        <ele>944.2</ele>
        <time>2020-10-16T15:32:07Z</time>
      </trkpt>
      <trkpt lat="28.1144980" lon="-16.6817840">
        <ele>943.0</ele>
        <time>2020-10-16T15:32:08Z</time>
      </trkpt>
      <trkpt lat="28.1144520" lon="-16.6819160">
        <ele>941.8</ele>
        <time>2020-10-16T15:32:09Z</time>
      </trkpt>
      <trkpt lat="28.1144050" lon="-16.6820490">
        <ele>940.8</ele>
        <time>2020-10-16T15:32:10Z</time>
      </trkpt>
      <trkpt lat="28.1143120" lon="-16.6823170">
        <ele>939.4</ele>
        <time>2020-10-16T15:32:12Z</time>
      </trkpt>
      <trkpt lat="28.1141730" lon="-16.6827150">
        <ele>938.0</ele>
        <time>2020-10-16T15:32:15Z</time>
      </trkpt>
      <trkpt lat="28.1140810" lon="-16.6829470">
        <ele>936.8</ele>
        <time>2020-10-16T15:32:17Z</time>
      </trkpt>
      <trkpt lat="28.1139140" lon="-16.6830950">
        <ele>935.6</ele>
        <time>2020-10-16T15:32:19Z</time>
      </trkpt>
      <trkpt lat="28.1137030" lon="-16.6830810">
        <ele>934.0</ele>
        <time>2020-10-16T15:32:21Z</time>
      </trkpt>
      <trkpt lat="28.1135650" lon="-16.6828640">
        <ele>932.6</ele>
        <time>2020-10-16T15:32:23Z</time>
      </trkpt>
      <trkpt lat="28.1135110" lon="-16.6825760">
        <ele>931.4</ele>
        <time>2020-10-16T15:32:25Z</time>
      </trkpt>
      <trkpt lat="28.1134380" lon="-16.6822960">
        <ele>928.8</ele>
        <time>2020-10-16T15:32:27Z</time>
      </trkpt>
      <trkpt lat="28.1132660" lon="-16.6820960">
        <ele>927.0</ele>
        <time>2020-10-16T15:32:29Z</time>
      </trkpt>
      <trkpt lat="28.1131500" lon="-16.6820590">
        <ele>925.8</ele>
        <time>2020-10-16T15:32:30Z</time>
      </trkpt>
      <trkpt lat="28.1130300" lon="-16.6820730">
        <ele>925.0</ele>
        <time>2020-10-16T15:32:31Z</time>
      </trkpt>
      <trkpt lat="28.1129250" lon="-16.6821410">
        <ele>923.8</ele>
        <time>2020-10-16T15:32:32Z</time>
      </trkpt>
      <trkpt lat="28.1128470" lon="-16.6822500">
        <ele>922.8</ele>
        <time>2020-10-16T15:32:33Z</time>
      </trkpt>
      <trkpt lat="28.1127990" lon="-16.6823820">
        <ele>921.8</ele>
        <time>2020-10-16T15:32:34Z</time>
      </trkpt>
      <trkpt lat="28.1127620" lon="-16.6826740">
        <ele>920.0</ele>
        <time>2020-10-16T15:32:36Z</time>
      </trkpt>
      <trkpt lat="28.1127520" lon="-16.6828280">
        <ele>919.0</ele>
        <time>2020-10-16T15:32:37Z</time>
      </trkpt>
      <trkpt lat="28.1127410" lon="-16.6829830">
        <ele>918.0</ele>
        <time>2020-10-16T15:32:38Z</time>
      </trkpt>
      <trkpt lat="28.1127290" lon="-16.6831370">
        <ele>916.6</ele>
        <time>2020-10-16T15:32:39Z</time>
      </trkpt>
      <trkpt lat="28.1127180" lon="-16.6832920">
        <ele>915.6</ele>
        <time>2020-10-16T15:32:40Z</time>
      </trkpt>
      <trkpt lat="28.1127060" lon="-16.6834480">
        <ele>914.6</ele>
        <time>2020-10-16T15:32:41Z</time>
      </trkpt>
      <trkpt lat="28.1126800" lon="-16.6837640">
        <ele>912.4</ele>
        <time>2020-10-16T15:32:43Z</time>
      </trkpt>
      <trkpt lat="28.1126650" lon="-16.6839220">
        <ele>911.2</ele>
        <time>2020-10-16T15:32:44Z</time>
      </trkpt>
      <trkpt lat="28.1126500" lon="-16.6840800">
        <ele>910.2</ele>
        <time>2020-10-16T15:32:45Z</time>
      </trkpt>
      <trkpt lat="28.1126220" lon="-16.6843900">
        <ele>908.4</ele>
        <time>2020-10-16T15:32:47Z</time>
      </trkpt>
      <trkpt lat="28.1125990" lon="-16.6846930">
        <ele>907.0</ele>
        <time>2020-10-16T15:32:49Z</time>
      </trkpt>
      <trkpt lat="28.1125590" lon="-16.6849810">
        <ele>905.2</ele>
        <time>2020-10-16T15:32:51Z</time>
      </trkpt>
      <trkpt lat="28.1125090" lon="-16.6851040">
        <ele>904.2</ele>
        <time>2020-10-16T15:32:52Z</time>
      </trkpt>
      <trkpt lat="28.1124290" lon="-16.6852050">
        <ele>903.0</ele>
        <time>2020-10-16T15:32:53Z</time>
      </trkpt>
      <trkpt lat="28.1123260" lon="-16.6852750">
        <ele>901.8</ele>
        <time>2020-10-16T15:32:54Z</time>
      </trkpt>
      <trkpt lat="28.1122090" lon="-16.6853030">
        <ele>900.6</ele>
        <time>2020-10-16T15:32:55Z</time>
      </trkpt>
      <trkpt lat="28.1120860" lon="-16.6852780">
        <ele>899.6</ele>
        <time>2020-10-16T15:32:56Z</time>
      </trkpt>
      <trkpt lat="28.1119730" lon="-16.6852090">
        <ele>898.4</ele>
        <time>2020-10-16T15:32:57Z</time>
      </trkpt>
      <trkpt lat="28.1118260" lon="-16.6849730">
        <ele>896.4</ele>
        <time>2020-10-16T15:32:59Z</time>
      </trkpt>
      <trkpt lat="28.1118000" lon="-16.6846700">
        <ele>895.0</ele>
        <time>2020-10-16T15:33:01Z</time>
      </trkpt>
      <trkpt lat="28.1117960" lon="-16.6845110">
        <ele>893.6</ele>
        <time>2020-10-16T15:33:02Z</time>
      </trkpt>
      <trkpt lat="28.1117880" lon="-16.6842010">
        <ele>891.8</ele>
        <time>2020-10-16T15:33:04Z</time>
      </trkpt>
      <trkpt lat="28.1117850" lon="-16.6840660">
        <ele>891.0</ele>
        <time>2020-10-16T15:33:05Z</time>
      </trkpt>
      <trkpt lat="28.1117500" lon="-16.6839490">
        <ele>890.0</ele>
        <time>2020-10-16T15:33:06Z</time>
      </trkpt>
      <trkpt lat="28.1116720" lon="-16.6838590">
        <ele>889.0</ele>
        <time>2020-10-16T15:33:07Z</time>
      </trkpt>
      <trkpt lat="28.1115670" lon="-16.6838080">
        <ele>887.8</ele>
        <time>2020-10-16T15:33:08Z</time>
      </trkpt>
      <trkpt lat="28.1114510" lon="-16.6838020">
        <ele>886.8</ele>
        <time>2020-10-16T15:33:09Z</time>
      </trkpt>
      <trkpt lat="28.1112730" lon="-16.6839530">
        <ele>885.2</ele>
        <time>2020-10-16T15:33:11Z</time>
      </trkpt>
      <trkpt lat="28.1111710" lon="-16.6842080">
        <ele>883.8</ele>
        <time>2020-10-16T15:33:13Z</time>
      </trkpt>
      <trkpt lat="28.1111270" lon="-16.6843480">
        <ele>883.2</ele>
        <time>2020-10-16T15:33:14Z</time>
      </trkpt>
      <trkpt lat="28.1110740" lon="-16.6844850">
        <ele>882.4</ele>
        <time>2020-10-16T15:33:15Z</time>
      </trkpt>
      <trkpt lat="28.1110040" lon="-16.6846140">
        <ele>881.4</ele>
        <time>2020-10-16T15:33:16Z</time>
      </trkpt>
      <trkpt lat="28.1109180" lon="-16.6847350">
        <ele>880.4</ele>
        <time>2020-10-16T15:33:17Z</time>
      </trkpt>
      <trkpt lat="28.1108210" lon="-16.6848440">
        <ele>879.4</ele>
        <time>2020-10-16T15:33:18Z</time>
      </trkpt>
      <trkpt lat="28.1107200" lon="-16.6849500">
        <ele>878.6</ele>
        <time>2020-10-16T15:33:19Z</time>
      </trkpt>
      <trkpt lat="28.1106320" lon="-16.6850650">
        <ele>877.6</ele>
        <time>2020-10-16T15:33:20Z</time>
      </trkpt>
      <trkpt lat="28.1105220" lon="-16.6853250">
        <ele>875.6</ele>
        <time>2020-10-16T15:33:22Z</time>
      </trkpt>
      <trkpt lat="28.1103960" lon="-16.6855620">
        <ele>873.6</ele>
        <time>2020-10-16T15:33:24Z</time>
      </trkpt>
      <trkpt lat="28.1102970" lon="-16.6856410">
        <ele>872.4</ele>
        <time>2020-10-16T15:33:25Z</time>
      </trkpt>
      <trkpt lat="28.1101820" lon="-16.6856870">
        <ele>871.2</ele>
        <time>2020-10-16T15:33:26Z</time>
      </trkpt>
      <trkpt lat="28.1100600" lon="-16.6856870">
        <ele>870.2</ele>
        <time>2020-10-16T15:33:27Z</time>
      </trkpt>
      <trkpt lat="28.1099410" lon="-16.6856420">
        <ele>869.0</ele>
        <time>2020-10-16T15:33:28Z</time>
      </trkpt>
      <trkpt lat="28.1098280" lon="-16.6855650">
        <ele>868.0</ele>
        <time>2020-10-16T15:33:29Z</time>
      </trkpt>
      <trkpt lat="28.1097190" lon="-16.6854710">
        <ele>867.0</ele>
        <time>2020-10-16T15:33:30Z</time>
      </trkpt>
      <trkpt lat="28.1096100" lon="-16.6853720">
        <ele>866.0</ele>
        <time>2020-10-16T15:33:31Z</time>
      </trkpt>
      <trkpt lat="28.1093830" lon="-16.6851710">
        <ele>864.4</ele>
        <time>2020-10-16T15:33:33Z</time>
      </trkpt>
      <trkpt lat="28.1091570" lon="-16.6849690">
        <ele>862.6</ele>
        <time>2020-10-16T15:33:35Z</time>
      </trkpt>
      <trkpt lat="28.1090410" lon="-16.6848670">
        <ele>860.4</ele>
        <time>2020-10-16T15:33:36Z</time>
      </trkpt>
      <trkpt lat="28.1089230" lon="-16.6847710">
        <ele>859.4</ele>
        <time>2020-10-16T15:33:37Z</time>
      </trkpt>
      <trkpt lat="28.1087990" lon="-16.6846890">
        <ele>858.4</ele>
        <time>2020-10-16T15:33:38Z</time>
      </trkpt>
      <trkpt lat="28.1085500" lon="-16.6846950">
        <ele>856.4</ele>
        <time>2020-10-16T15:33:40Z</time>
      </trkpt>
      <trkpt lat="28.1083980" lon="-16.6849080">
        <ele>855.0</ele>
        <time>2020-10-16T15:33:42Z</time>
      </trkpt>
      <trkpt lat="28.1083760" lon="-16.6851870">
        <ele>853.0</ele>
        <time>2020-10-16T15:33:44Z</time>
      </trkpt>
      <trkpt lat="28.1084060" lon="-16.6854650">
        <ele>851.2</ele>
        <time>2020-10-16T15:33:46Z</time>
      </trkpt>
      <trkpt lat="28.1084370" lon="-16.6856010">
        <ele>850.0</ele>
        <time>2020-10-16T15:33:47Z</time>
      </trkpt>
      <trkpt lat="28.1085320" lon="-16.6858570">
        <ele>848.8</ele>
        <time>2020-10-16T15:33:49Z</time>
      </trkpt>
      <trkpt lat="28.1085850" lon="-16.6859750">
        <ele>848.0</ele>
        <time>2020-10-16T15:33:50Z</time>
      </trkpt>
      <trkpt lat="28.1086260" lon="-16.6860930">
        <ele>847.0</ele>
        <time>2020-10-16T15:33:51Z</time>
      </trkpt>
      <trkpt lat="28.1086120" lon="-16.6863290">
        <ele>845.2</ele>
        <time>2020-10-16T15:33:53Z</time>
      </trkpt>
      <trkpt lat="28.1084480" lon="-16.6864800">
        <ele>843.6</ele>
        <time>2020-10-16T15:33:55Z</time>
      </trkpt>
      <trkpt lat="28.1082240" lon="-16.6864500">
        <ele>842.0</ele>
        <time>2020-10-16T15:33:57Z</time>
      </trkpt>
      <trkpt lat="28.1080150" lon="-16.6862950">
        <ele>840.6</ele>
        <time>2020-10-16T15:33:59Z</time>
      </trkpt>
      <trkpt lat="28.1079080" lon="-16.6862080">
        <ele>840.0</ele>
        <time>2020-10-16T15:34:00Z</time>
      </trkpt>
      <trkpt lat="28.1077990" lon="-16.6861200">
        <ele>839.2</ele>
        <time>2020-10-16T15:34:01Z</time>
      </trkpt>
      <trkpt lat="28.1075680" lon="-16.6859410">
        <ele>838.0</ele>
        <time>2020-10-16T15:34:03Z</time>
      </trkpt>
      <trkpt lat="28.1073310" lon="-16.6857580">
        <ele>836.2</ele>
        <time>2020-10-16T15:34:05Z</time>
      </trkpt>
      <trkpt lat="28.1072130" lon="-16.6856660">
        <ele>835.2</ele>
        <time>2020-10-16T15:34:06Z</time>
      </trkpt>
      <trkpt lat="28.1070960" lon="-16.6855740">
        <ele>833.8</ele>
        <time>2020-10-16T15:34:07Z</time>
      </trkpt>
      <trkpt lat="28.1069800" lon="-16.6854840">
        <ele>832.6</ele>
        <time>2020-10-16T15:34:08Z</time>
      </trkpt>
      <trkpt lat="28.1068650" lon="-16.6853960">
        <ele>831.6</ele>
        <time>2020-10-16T15:34:09Z</time>
      </trkpt>
      <trkpt lat="28.1067480" lon="-16.6853060">
        <ele>830.6</ele>
        <time>2020-10-16T15:34:10Z</time>
      </trkpt>
      <trkpt lat="28.1065170" lon="-16.6851240">
        <ele>829.4</ele>
        <time>2020-10-16T15:34:12Z</time>
      </trkpt>
      <trkpt lat="28.1061800" lon="-16.6848590">
        <ele>827.8</ele>
        <time>2020-10-16T15:34:15Z</time>
      </trkpt>
      <trkpt lat="28.1059620" lon="-16.6846820">
        <ele>826.4</ele>
        <time>2020-10-16T15:34:17Z</time>
      </trkpt>
      <trkpt lat="28.1057430" lon="-16.6845330">
        <ele>825.0</ele>
        <time>2020-10-16T15:34:19Z</time>
      </trkpt>
      <trkpt lat="28.1055010" lon="-16.6844820">
        <ele>823.8</ele>
        <time>2020-10-16T15:34:21Z</time>
      </trkpt>
      <trkpt lat="28.1052590" lon="-16.6845090">
        <ele>822.8</ele>
        <time>2020-10-16T15:34:23Z</time>
      </trkpt>
      <trkpt lat="28.1050200" lon="-16.6845260">
        <ele>821.8</ele>
        <time>2020-10-16T15:34:25Z</time>
      </trkpt>
      <trkpt lat="28.1046710" lon="-16.6844440">
        <ele>820.6</ele>
        <time>2020-10-16T15:34:28Z</time>
      </trkpt>
      <trkpt lat="28.1043110" lon="-16.6843350">
        <ele>819.4</ele>
        <time>2020-10-16T15:34:31Z</time>
      </trkpt>
      <trkpt lat="28.1040680" lon="-16.6842260">
        <ele>818.2</ele>
        <time>2020-10-16T15:34:33Z</time>
      </trkpt>
      <trkpt lat="28.1039500" lon="-16.6841520">
        <ele>817.8</ele>
        <time>2020-10-16T15:34:34Z</time>
      </trkpt>
      <trkpt lat="28.1037200" lon="-16.6839600">
        <ele>816.8</ele>
        <time>2020-10-16T15:34:36Z</time>
      </trkpt>
      <trkpt lat="28.1034890" lon="-16.6837190">
        <ele>815.0</ele>
        <time>2020-10-16T15:34:38Z</time>
      </trkpt>
      <trkpt lat="28.1033700" lon="-16.6835910">
        <ele>813.8</ele>
        <time>2020-10-16T15:34:39Z</time>
      </trkpt>
      <trkpt lat="28.1032470" lon="-16.6834600">
        <ele>812.6</ele>
        <time>2020-10-16T15:34:40Z</time>
      </trkpt>
      <trkpt lat="28.1031240" lon="-16.6833250">
        <ele>811.4</ele>
        <time>2020-10-16T15:34:41Z</time>
      </trkpt>
      <trkpt lat="28.1030030" lon="-16.6831870">
        <ele>810.4</ele>
        <time>2020-10-16T15:34:42Z</time>
      </trkpt>
      <trkpt lat="28.1028800" lon="-16.6830450">
        <ele>809.2</ele>
        <time>2020-10-16T15:34:43Z</time>
      </trkpt>
      <trkpt lat="28.1027550" lon="-16.6829060">
        <ele>808.2</ele>
        <time>2020-10-16T15:34:44Z</time>
      </trkpt>
      <trkpt lat="28.1026280" lon="-16.6827670">
        <ele>806.6</ele>
        <time>2020-10-16T15:34:45Z</time>
      </trkpt>
      <trkpt lat="28.1025020" lon="-16.6826240">
        <ele>803.4</ele>
        <time>2020-10-16T15:34:46Z</time>
      </trkpt>
      <trkpt lat="28.1023790" lon="-16.6824760">
        <ele>801.2</ele>
        <time>2020-10-16T15:34:47Z</time>
      </trkpt>
      <trkpt lat="28.1022560" lon="-16.6823290">
        <ele>799.2</ele>
        <time>2020-10-16T15:34:48Z</time>
      </trkpt>
      <trkpt lat="28.1021350" lon="-16.6821920">
        <ele>797.8</ele>
        <time>2020-10-16T15:34:49Z</time>
      </trkpt>
      <trkpt lat="28.1020250" lon="-16.6820640">
        <ele>796.2</ele>
        <time>2020-10-16T15:34:50Z</time>
      </trkpt>
      <trkpt lat="28.1019280" lon="-16.6819380">
        <ele>794.4</ele>
        <time>2020-10-16T15:34:51Z</time>
      </trkpt>
      <trkpt lat="28.1018430" lon="-16.6818160">
        <ele>792.2</ele>
        <time>2020-10-16T15:34:52Z</time>
      </trkpt>
      <trkpt lat="28.1017650" lon="-16.6817000">
        <ele>790.4</ele>
        <time>2020-10-16T15:34:53Z</time>
      </trkpt>
      <trkpt lat="28.1016950" lon="-16.6815910">
        <ele>788.8</ele>
        <time>2020-10-16T15:34:54Z</time>
      </trkpt>
      <trkpt lat="28.1016270" lon="-16.6814860">
        <ele>787.4</ele>
        <time>2020-10-16T15:34:55Z</time>
      </trkpt>
      <trkpt lat="28.1015480" lon="-16.6813940">
        <ele>786.2</ele>
        <time>2020-10-16T15:34:56Z</time>
      </trkpt>
      <trkpt lat="28.1014530" lon="-16.6813200">
        <ele>785.0</ele>
        <time>2020-10-16T15:34:57Z</time>
      </trkpt>
      <trkpt lat="28.1013450" lon="-16.6813040">
        <ele>784.0</ele>
        <time>2020-10-16T15:34:58Z</time>
      </trkpt>
      <trkpt lat="28.1012460" lon="-16.6813530">
        <ele>783.0</ele>
        <time>2020-10-16T15:34:59Z</time>
      </trkpt>
      <trkpt lat="28.1011690" lon="-16.6814440">
        <ele>782.0</ele>
        <time>2020-10-16T15:35:00Z</time>
      </trkpt>
      <trkpt lat="28.1011220" lon="-16.6815630">
        <ele>780.8</ele>
        <time>2020-10-16T15:35:01Z</time>
      </trkpt>
      <trkpt lat="28.1011100" lon="-16.6817010">
        <ele>779.8</ele>
        <time>2020-10-16T15:35:02Z</time>
      </trkpt>
      <trkpt lat="28.1011030" lon="-16.6818390">
        <ele>778.8</ele>
        <time>2020-10-16T15:35:03Z</time>
      </trkpt>
      <trkpt lat="28.1010950" lon="-16.6819710">
        <ele>777.4</ele>
        <time>2020-10-16T15:35:04Z</time>
      </trkpt>
      <trkpt lat="28.1010830" lon="-16.6821000">
        <ele>776.2</ele>
        <time>2020-10-16T15:35:05Z</time>
      </trkpt>
      <trkpt lat="28.1010630" lon="-16.6822250">
        <ele>775.2</ele>
        <time>2020-10-16T15:35:06Z</time>
      </trkpt>
      <trkpt lat="28.1010250" lon="-16.6823430">
        <ele>774.0</ele>
        <time>2020-10-16T15:35:07Z</time>
      </trkpt>
      <trkpt lat="28.1009710" lon="-16.6824530">
        <ele>772.6</ele>
        <time>2020-10-16T15:35:08Z</time>
      </trkpt>
      <trkpt lat="28.1009000" lon="-16.6825530">
        <ele>771.6</ele>
        <time>2020-10-16T15:35:09Z</time>
      </trkpt>
      <trkpt lat="28.1007190" lon="-16.6827130">
        <ele>770.0</ele>
        <time>2020-10-16T15:35:11Z</time>
      </trkpt>
      <trkpt lat="28.1004950" lon="-16.6827880">
        <ele>768.2</ele>
        <time>2020-10-16T15:35:13Z</time>
      </trkpt>
      <trkpt lat="28.1003760" lon="-16.6827890">
        <ele>767.0</ele>
        <time>2020-10-16T15:35:14Z</time>
      </trkpt>
      <trkpt lat="28.1002570" lon="-16.6827650">
        <ele>766.0</ele>
        <time>2020-10-16T15:35:15Z</time>
      </trkpt>
      <trkpt lat="28.1000250" lon="-16.6826590">
        <ele>764.0</ele>
        <time>2020-10-16T15:35:17Z</time>
      </trkpt>
      <trkpt lat="28.0997890" lon="-16.6825310">
        <ele>762.4</ele>
        <time>2020-10-16T15:35:19Z</time>
      </trkpt>
      <trkpt lat="28.0996670" lon="-16.6824660">
        <ele>760.6</ele>
        <time>2020-10-16T15:35:20Z</time>
      </trkpt>
      <trkpt lat="28.0994160" lon="-16.6823400">
        <ele>758.8</ele>
        <time>2020-10-16T15:35:22Z</time>
      </trkpt>
      <trkpt lat="28.0991580" lon="-16.6822240">
        <ele>757.2</ele>
        <time>2020-10-16T15:35:24Z</time>
      </trkpt>
      <trkpt lat="28.0990320" lon="-16.6821750">
        <ele>756.0</ele>
        <time>2020-10-16T15:35:25Z</time>
      </trkpt>
      <trkpt lat="28.0989040" lon="-16.6821310">
        <ele>754.6</ele>
        <time>2020-10-16T15:35:26Z</time>
      </trkpt>
      <trkpt lat="28.0987750" lon="-16.6820910">
        <ele>753.4</ele>
        <time>2020-10-16T15:35:27Z</time>
      </trkpt>
      <trkpt lat="28.0986460" lon="-16.6820520">
        <ele>752.4</ele>
        <time>2020-10-16T15:35:28Z</time>
      </trkpt>
      <trkpt lat="28.0985170" lon="-16.6820140">
        <ele>751.6</ele>
        <time>2020-10-16T15:35:29Z</time>
      </trkpt>
      <trkpt lat="28.0983910" lon="-16.6819760">
        <ele>750.4</ele>
        <time>2020-10-16T15:35:30Z</time>
      </trkpt>
      <trkpt lat="28.0982730" lon="-16.6819410">
        <ele>749.2</ele>
        <time>2020-10-16T15:35:31Z</time>
      </trkpt>
      <trkpt lat="28.0981630" lon="-16.6819090">
        <ele>747.8</ele>
        <time>2020-10-16T15:35:32Z</time>
      </trkpt>
      <trkpt lat="28.0980590" lon="-16.6818800">
        <ele>746.6</ele>
        <time>2020-10-16T15:35:33Z</time>
      </trkpt>
      <trkpt lat="28.0979600" lon="-16.6818530">
        <ele>745.4</ele>
        <time>2020-10-16T15:35:34Z</time>
      </trkpt>
      <trkpt lat="28.0978710" lon="-16.6818310">
        <ele>744.2</ele>
        <time>2020-10-16T15:35:35Z</time>
      </trkpt>
      <trkpt lat="28.0977940" lon="-16.6818130">
        <ele>743.2</ele>
        <time>2020-10-16T15:35:36Z</time>
      </trkpt>
      <trkpt lat="28.0977270" lon="-16.6818050">
        <ele>742.2</ele>
        <time>2020-10-16T15:35:37Z</time>
      </trkpt>
      <trkpt lat="28.0976170" lon="-16.6818480">
        <ele>740.2</ele>
        <time>2020-10-16T15:35:39Z</time>
      </trkpt>
      <trkpt lat="28.0975660" lon="-16.6819070">
        <ele>739.2</ele>
        <time>2020-10-16T15:35:40Z</time>
      </trkpt>
      <trkpt lat="28.0974710" lon="-16.6820560">
        <ele>737.2</ele>
        <time>2020-10-16T15:35:42Z</time>
      </trkpt>
      <trkpt lat="28.0974190" lon="-16.6821440">
        <ele>736.4</ele>
        <time>2020-10-16T15:35:43Z</time>
      </trkpt>
      <trkpt lat="28.0973560" lon="-16.6822310">
        <ele>735.6</ele>
        <time>2020-10-16T15:35:44Z</time>
      </trkpt>
      <trkpt lat="28.0971920" lon="-16.6823930">
        <ele>734.6</ele>
        <time>2020-10-16T15:35:46Z</time>
      </trkpt>
      <trkpt lat="28.0970050" lon="-16.6825400">
        <ele>733.6</ele>
        <time>2020-10-16T15:35:48Z</time>
      </trkpt>
      <trkpt lat="28.0967910" lon="-16.6826700">
        <ele>732.4</ele>
        <time>2020-10-16T15:35:50Z</time>
      </trkpt>
      <trkpt lat="28.0965650" lon="-16.6828120">
        <ele>730.8</ele>
        <time>2020-10-16T15:35:52Z</time>
      </trkpt>
      <trkpt lat="28.0963390" lon="-16.6829660">
        <ele>729.2</ele>
        <time>2020-10-16T15:35:54Z</time>
      </trkpt>
      <trkpt lat="28.0962290" lon="-16.6830500">
        <ele>727.4</ele>
        <time>2020-10-16T15:35:55Z</time>
      </trkpt>
      <trkpt lat="28.0960030" lon="-16.6832270">
        <ele>725.6</ele>
        <time>2020-10-16T15:35:57Z</time>
      </trkpt>
      <trkpt lat="28.0958910" lon="-16.6833200">
        <ele>724.4</ele>
        <time>2020-10-16T15:35:58Z</time>
      </trkpt>
      <trkpt lat="28.0957820" lon="-16.6834160">
        <ele>723.2</ele>
        <time>2020-10-16T15:35:59Z</time>
      </trkpt>
      <trkpt lat="28.0956790" lon="-16.6835210">
        <ele>722.0</ele>
        <time>2020-10-16T15:36:00Z</time>
      </trkpt>
      <trkpt lat="28.0955890" lon="-16.6836410">
        <ele>721.0</ele>
        <time>2020-10-16T15:36:01Z</time>
      </trkpt>
      <trkpt lat="28.0955190" lon="-16.6837770">
        <ele>719.8</ele>
        <time>2020-10-16T15:36:02Z</time>
      </trkpt>
      <trkpt lat="28.0954640" lon="-16.6839210">
        <ele>718.6</ele>
        <time>2020-10-16T15:36:03Z</time>
      </trkpt>
      <trkpt lat="28.0954250" lon="-16.6840700">
        <ele>717.4</ele>
        <time>2020-10-16T15:36:04Z</time>
      </trkpt>
      <trkpt lat="28.0953900" lon="-16.6842180">
        <ele>716.0</ele>
        <time>2020-10-16T15:36:05Z</time>
      </trkpt>
      <trkpt lat="28.0953460" lon="-16.6843630">
        <ele>714.4</ele>
        <time>2020-10-16T15:36:06Z</time>
      </trkpt>
      <trkpt lat="28.0952870" lon="-16.6844970">
        <ele>713.0</ele>
        <time>2020-10-16T15:36:07Z</time>
      </trkpt>
      <trkpt lat="28.0952090" lon="-16.6846140">
        <ele>711.8</ele>
        <time>2020-10-16T15:36:08Z</time>
      </trkpt>
      <trkpt lat="28.0951150" lon="-16.6847170">
        <ele>710.2</ele>
        <time>2020-10-16T15:36:09Z</time>
      </trkpt>
      <trkpt lat="28.0950050" lon="-16.6848010">
        <ele>708.8</ele>
        <time>2020-10-16T15:36:10Z</time>
      </trkpt>
      <trkpt lat="28.0948790" lon="-16.6848630">
        <ele>707.6</ele>
        <time>2020-10-16T15:36:11Z</time>
      </trkpt>
      <trkpt lat="28.0947460" lon="-16.6849150">
        <ele>706.6</ele>
        <time>2020-10-16T15:36:12Z</time>
      </trkpt>
      <trkpt lat="28.0946140" lon="-16.6849660">
        <ele>705.6</ele>
        <time>2020-10-16T15:36:13Z</time>
      </trkpt>
      <trkpt lat="28.0944840" lon="-16.6850190">
        <ele>704.4</ele>
        <time>2020-10-16T15:36:14Z</time>
      </trkpt>
      <trkpt lat="28.0943530" lon="-16.6850720">
        <ele>703.2</ele>
        <time>2020-10-16T15:36:15Z</time>
      </trkpt>
      <trkpt lat="28.0942210" lon="-16.6851280">
        <ele>702.0</ele>
        <time>2020-10-16T15:36:16Z</time>
      </trkpt>
      <trkpt lat="28.0940870" lon="-16.6851860">
        <ele>700.8</ele>
        <time>2020-10-16T15:36:17Z</time>
      </trkpt>
      <trkpt lat="28.0939530" lon="-16.6852500">
        <ele>699.6</ele>
        <time>2020-10-16T15:36:18Z</time>
      </trkpt>
      <trkpt lat="28.0938240" lon="-16.6853240">
        <ele>698.4</ele>
        <time>2020-10-16T15:36:19Z</time>
      </trkpt>
      <trkpt lat="28.0937020" lon="-16.6854130">
        <ele>697.4</ele>
        <time>2020-10-16T15:36:20Z</time>
      </trkpt>
      <trkpt lat="28.0934860" lon="-16.6856340">
        <ele>695.0</ele>
        <time>2020-10-16T15:36:22Z</time>
      </trkpt>
      <trkpt lat="28.0933980" lon="-16.6857600">
        <ele>693.8</ele>
        <time>2020-10-16T15:36:23Z</time>
      </trkpt>
      <trkpt lat="28.0933310" lon="-16.6858970">
        <ele>692.6</ele>
        <time>2020-10-16T15:36:24Z</time>
      </trkpt>
      <trkpt lat="28.0932790" lon="-16.6860400">
        <ele>691.4</ele>
        <time>2020-10-16T15:36:25Z</time>
      </trkpt>
      <trkpt lat="28.0932330" lon="-16.6861810">
        <ele>690.0</ele>
        <time>2020-10-16T15:36:26Z</time>
      </trkpt>
      <trkpt lat="28.0931920" lon="-16.6863240">
        <ele>689.0</ele>
        <time>2020-10-16T15:36:27Z</time>
      </trkpt>
      <trkpt lat="28.0931550" lon="-16.6864660">
        <ele>687.8</ele>
        <time>2020-10-16T15:36:28Z</time>
      </trkpt>
      <trkpt lat="28.0931160" lon="-16.6866070">
        <ele>685.6</ele>
        <time>2020-10-16T15:36:29Z</time>
      </trkpt>
      <trkpt lat="28.0930670" lon="-16.6867450">
        <ele>684.4</ele>
        <time>2020-10-16T15:36:30Z</time>
      </trkpt>
      <trkpt lat="28.0930090" lon="-16.6868800">
        <ele>683.0</ele>
        <time>2020-10-16T15:36:31Z</time>
      </trkpt>
      <trkpt lat="28.0929410" lon="-16.6870140">
        <ele>682.0</ele>
        <time>2020-10-16T15:36:32Z</time>
      </trkpt>
      <trkpt lat="28.0928660" lon="-16.6871410">
        <ele>681.0</ele>
        <time>2020-10-16T15:36:33Z</time>
      </trkpt>
      <trkpt lat="28.0927830" lon="-16.6872620">
        <ele>679.8</ele>
        <time>2020-10-16T15:36:34Z</time>
      </trkpt>
      <trkpt lat="28.0927010" lon="-16.6873790">
        <ele>678.6</ele>
        <time>2020-10-16T15:36:35Z</time>
      </trkpt>
      <trkpt lat="28.0925410" lon="-16.6876040">
        <ele>677.0</ele>
        <time>2020-10-16T15:36:37Z</time>
      </trkpt>
      <trkpt lat="28.0924650" lon="-16.6877170">
        <ele>676.0</ele>
        <time>2020-10-16T15:36:38Z</time>
      </trkpt>
      <trkpt lat="28.0923950" lon="-16.6878300">
        <ele>674.6</ele>
        <time>2020-10-16T15:36:39Z</time>
      </trkpt>
      <trkpt lat="28.0923320" lon="-16.6879500">
        <ele>673.0</ele>
        <time>2020-10-16T15:36:40Z</time>
      </trkpt>
      <trkpt lat="28.0922770" lon="-16.6880760">
        <ele>671.6</ele>
        <time>2020-10-16T15:36:41Z</time>
      </trkpt>
      <trkpt lat="28.0922350" lon="-16.6882080">
        <ele>670.6</ele>
        <time>2020-10-16T15:36:42Z</time>
      </trkpt>
      <trkpt lat="28.0922050" lon="-16.6884880">
        <ele>669.4</ele>
        <time>2020-10-16T15:36:44Z</time>
      </trkpt>
      <trkpt lat="28.0922030" lon="-16.6886300">
        <ele>669.0</ele>
        <time>2020-10-16T15:36:45Z</time>
      </trkpt>
      <trkpt lat="28.0922100" lon="-16.6887750">
        <ele>668.4</ele>
        <time>2020-10-16T15:36:46Z</time>
      </trkpt>
      <trkpt lat="28.0922290" lon="-16.6889200">
        <ele>667.6</ele>
        <time>2020-10-16T15:36:47Z</time>
      </trkpt>
      <trkpt lat="28.0922600" lon="-16.6890650">
        <ele>666.6</ele>
        <time>2020-10-16T15:36:48Z</time>
      </trkpt>
      <trkpt lat="28.0923120" lon="-16.6893540">
        <ele>665.0</ele>
        <time>2020-10-16T15:36:50Z</time>
      </trkpt>
      <trkpt lat="28.0922690" lon="-16.6896460">
        <ele>663.8</ele>
        <time>2020-10-16T15:36:52Z</time>
      </trkpt>
      <trkpt lat="28.0921070" lon="-16.6898870">
        <ele>662.2</ele>
        <time>2020-10-16T15:36:54Z</time>
      </trkpt>
      <trkpt lat="28.0918540" lon="-16.6900100">
        <ele>660.4</ele>
        <time>2020-10-16T15:36:56Z</time>
      </trkpt>
      <trkpt lat="28.0917130" lon="-16.6900110">
        <ele>659.4</ele>
        <time>2020-10-16T15:36:57Z</time>
      </trkpt>
      <trkpt lat="28.0915710" lon="-16.6899780">
        <ele>658.2</ele>
        <time>2020-10-16T15:36:58Z</time>
      </trkpt>
      <trkpt lat="28.0914310" lon="-16.6899270">
        <ele>657.0</ele>
        <time>2020-10-16T15:36:59Z</time>
      </trkpt>
      <trkpt lat="28.0912930" lon="-16.6898660">
        <ele>655.8</ele>
        <time>2020-10-16T15:37:00Z</time>
      </trkpt>
      <trkpt lat="28.0911560" lon="-16.6897960">
        <ele>654.6</ele>
        <time>2020-10-16T15:37:01Z</time>
      </trkpt>
      <trkpt lat="28.0910160" lon="-16.6897290">
        <ele>653.6</ele>
        <time>2020-10-16T15:37:02Z</time>
      </trkpt>
      <trkpt lat="28.0908700" lon="-16.6896770">
        <ele>651.8</ele>
        <time>2020-10-16T15:37:03Z</time>
      </trkpt>
      <trkpt lat="28.0907220" lon="-16.6896340">
        <ele>649.4</ele>
        <time>2020-10-16T15:37:04Z</time>
      </trkpt>
      <trkpt lat="28.0905740" lon="-16.6895960">
        <ele>648.4</ele>
        <time>2020-10-16T15:37:05Z</time>
      </trkpt>
      <trkpt lat="28.0904240" lon="-16.6895700">
        <ele>647.2</ele>
        <time>2020-10-16T15:37:06Z</time>
      </trkpt>
      <trkpt lat="28.0902740" lon="-16.6895500">
        <ele>646.0</ele>
        <time>2020-10-16T15:37:07Z</time>
      </trkpt>
      <trkpt lat="28.0901250" lon="-16.6895230">
        <ele>644.8</ele>
        <time>2020-10-16T15:37:08Z</time>
      </trkpt>
      <trkpt lat="28.0899790" lon="-16.6894840">
        <ele>643.4</ele>
        <time>2020-10-16T15:37:09Z</time>
      </trkpt>
      <trkpt lat="28.0898360" lon="-16.6894320">
        <ele>642.2</ele>
        <time>2020-10-16T15:37:10Z</time>
      </trkpt>
      <trkpt lat="28.0896980" lon="-16.6893650">
        <ele>641.2</ele>
        <time>2020-10-16T15:37:11Z</time>
      </trkpt>
      <trkpt lat="28.0895690" lon="-16.6892830">
        <ele>640.0</ele>
        <time>2020-10-16T15:37:12Z</time>
      </trkpt>
      <trkpt lat="28.0894520" lon="-16.6891800">
        <ele>639.2</ele>
        <time>2020-10-16T15:37:13Z</time>
      </trkpt>
      <trkpt lat="28.0893540" lon="-16.6890540">
        <ele>638.2</ele>
        <time>2020-10-16T15:37:14Z</time>
      </trkpt>
      <trkpt lat="28.0892770" lon="-16.6889090">
        <ele>637.0</ele>
        <time>2020-10-16T15:37:15Z</time>
      </trkpt>
      <trkpt lat="28.0891470" lon="-16.6886070">
        <ele>635.2</ele>
        <time>2020-10-16T15:37:17Z</time>
      </trkpt>
      <trkpt lat="28.0890720" lon="-16.6884730">
        <ele>634.4</ele>
        <time>2020-10-16T15:37:18Z</time>
      </trkpt>
      <trkpt lat="28.0889800" lon="-16.6883750">
        <ele>633.4</ele>
        <time>2020-10-16T15:37:19Z</time>
      </trkpt>
      <trkpt lat="28.0887340" lon="-16.6883080">
        <ele>631.8</ele>
        <time>2020-10-16T15:37:21Z</time>
      </trkpt>
      <trkpt lat="28.0885280" lon="-16.6884530">
        <ele>630.0</ele>
        <time>2020-10-16T15:37:23Z</time>
      </trkpt>
      <trkpt lat="28.0884690" lon="-16.6885870">
        <ele>628.8</ele>
        <time>2020-10-16T15:37:24Z</time>
      </trkpt>
      <trkpt lat="28.0884320" lon="-16.6887330">
        <ele>627.8</ele>
        <time>2020-10-16T15:37:25Z</time>
      </trkpt>
      <trkpt lat="28.0884210" lon="-16.6890420">
        <ele>626.0</ele>
        <time>2020-10-16T15:37:27Z</time>
      </trkpt>
      <trkpt lat="28.0884470" lon="-16.6891920">
        <ele>625.0</ele>
        <time>2020-10-16T15:37:28Z</time>
      </trkpt>
      <trkpt lat="28.0884900" lon="-16.6893400">
        <ele>623.6</ele>
        <time>2020-10-16T15:37:29Z</time>
      </trkpt>
      <trkpt lat="28.0885400" lon="-16.6894850">
        <ele>622.4</ele>
        <time>2020-10-16T15:37:30Z</time>
      </trkpt>
      <trkpt lat="28.0885960" lon="-16.6896310">
        <ele>621.0</ele>
        <time>2020-10-16T15:37:31Z</time>
      </trkpt>
      <trkpt lat="28.0886540" lon="-16.6897750">
        <ele>619.8</ele>
        <time>2020-10-16T15:37:32Z</time>
      </trkpt>
      <trkpt lat="28.0887130" lon="-16.6899170">
        <ele>618.8</ele>
        <time>2020-10-16T15:37:33Z</time>
      </trkpt>
      <trkpt lat="28.0887720" lon="-16.6900580">
        <ele>617.6</ele>
        <time>2020-10-16T15:37:34Z</time>
      </trkpt>
      <trkpt lat="28.0888880" lon="-16.6903390">
        <ele>615.6</ele>
        <time>2020-10-16T15:37:36Z</time>
      </trkpt>
      <trkpt lat="28.0889980" lon="-16.6906190">
        <ele>614.2</ele>
        <time>2020-10-16T15:37:38Z</time>
      </trkpt>
      <trkpt lat="28.0890490" lon="-16.6907600">
        <ele>612.2</ele>
        <time>2020-10-16T15:37:39Z</time>
      </trkpt>
      <trkpt lat="28.0890910" lon="-16.6909040">
        <ele>611.4</ele>
        <time>2020-10-16T15:37:40Z</time>
      </trkpt>
      <trkpt lat="28.0891170" lon="-16.6910540">
        <ele>610.6</ele>
        <time>2020-10-16T15:37:41Z</time>
      </trkpt>
      <trkpt lat="28.0891190" lon="-16.6912070">
        <ele>609.6</ele>
        <time>2020-10-16T15:37:42Z</time>
      </trkpt>
      <trkpt lat="28.0890470" lon="-16.6915030">
        <ele>607.6</ele>
        <time>2020-10-16T15:37:44Z</time>
      </trkpt>
      <trkpt lat="28.0889820" lon="-16.6916350">
        <ele>606.4</ele>
        <time>2020-10-16T15:37:45Z</time>
      </trkpt>
      <trkpt lat="28.0888190" lon="-16.6918480">
        <ele>604.8</ele>
        <time>2020-10-16T15:37:47Z</time>
      </trkpt>
      <trkpt lat="28.0886300" lon="-16.6919610">
        <ele>603.6</ele>
        <time>2020-10-16T15:37:49Z</time>
      </trkpt>
      <trkpt lat="28.0884170" lon="-16.6919560">
        <ele>601.8</ele>
        <time>2020-10-16T15:37:51Z</time>
      </trkpt>
      <trkpt lat="28.0882170" lon="-16.6918060">
        <ele>600.2</ele>
        <time>2020-10-16T15:37:53Z</time>
      </trkpt>
      <trkpt lat="28.0880600" lon="-16.6915780">
        <ele>598.8</ele>
        <time>2020-10-16T15:37:55Z</time>
      </trkpt>
      <trkpt lat="28.0879440" lon="-16.6913000">
        <ele>597.4</ele>
        <time>2020-10-16T15:37:57Z</time>
      </trkpt>
      <trkpt lat="28.0878300" lon="-16.6910040">
        <ele>596.0</ele>
        <time>2020-10-16T15:37:59Z</time>
      </trkpt>
      <trkpt lat="28.0877070" lon="-16.6907080">
        <ele>594.6</ele>
        <time>2020-10-16T15:38:01Z</time>
      </trkpt>
      <trkpt lat="28.0876300" lon="-16.6905690">
        <ele>594.2</ele>
        <time>2020-10-16T15:38:02Z</time>
      </trkpt>
      <trkpt lat="28.0875320" lon="-16.6904440">
        <ele>593.2</ele>
        <time>2020-10-16T15:38:03Z</time>
      </trkpt>
      <trkpt lat="28.0872910" lon="-16.6902520">
        <ele>591.4</ele>
        <time>2020-10-16T15:38:05Z</time>
      </trkpt>
      <trkpt lat="28.0871540" lon="-16.6902030">
        <ele>590.0</ele>
        <time>2020-10-16T15:38:06Z</time>
      </trkpt>
      <trkpt lat="28.0870100" lon="-16.6901830">
        <ele>588.8</ele>
        <time>2020-10-16T15:38:07Z</time>
      </trkpt>
      <trkpt lat="28.0868640" lon="-16.6901920">
        <ele>587.4</ele>
        <time>2020-10-16T15:38:08Z</time>
      </trkpt>
      <trkpt lat="28.0867220" lon="-16.6902320">
        <ele>586.0</ele>
        <time>2020-10-16T15:38:09Z</time>
      </trkpt>
      <trkpt lat="28.0865880" lon="-16.6902990">
        <ele>585.2</ele>
        <time>2020-10-16T15:38:10Z</time>
      </trkpt>
      <trkpt lat="28.0864620" lon="-16.6903850">
        <ele>584.0</ele>
        <time>2020-10-16T15:38:11Z</time>
      </trkpt>
      <trkpt lat="28.0863400" lon="-16.6904790">
        <ele>582.8</ele>
        <time>2020-10-16T15:38:12Z</time>
      </trkpt>
      <trkpt lat="28.0862220" lon="-16.6905770">
        <ele>580.4</ele>
        <time>2020-10-16T15:38:13Z</time>
      </trkpt>
      <trkpt lat="28.0861040" lon="-16.6906750">
        <ele>579.0</ele>
        <time>2020-10-16T15:38:14Z</time>
      </trkpt>
      <trkpt lat="28.0859860" lon="-16.6907730">
        <ele>577.8</ele>
        <time>2020-10-16T15:38:15Z</time>
      </trkpt>
      <trkpt lat="28.0858650" lon="-16.6908670">
        <ele>576.8</ele>
        <time>2020-10-16T15:38:16Z</time>
      </trkpt>
      <trkpt lat="28.0857400" lon="-16.6909500">
        <ele>575.6</ele>
        <time>2020-10-16T15:38:17Z</time>
      </trkpt>
      <trkpt lat="28.0856110" lon="-16.6910170">
        <ele>574.4</ele>
        <time>2020-10-16T15:38:18Z</time>
      </trkpt>
      <trkpt lat="28.0854760" lon="-16.6910650">
        <ele>573.2</ele>
        <time>2020-10-16T15:38:19Z</time>
      </trkpt>
      <trkpt lat="28.0852120" lon="-16.6910490">
        <ele>571.6</ele>
        <time>2020-10-16T15:38:21Z</time>
      </trkpt>
      <trkpt lat="28.0850990" lon="-16.6909670">
        <ele>570.4</ele>
        <time>2020-10-16T15:38:22Z</time>
      </trkpt>
      <trkpt lat="28.0850010" lon="-16.6908520">
        <ele>569.2</ele>
        <time>2020-10-16T15:38:23Z</time>
      </trkpt>
      <trkpt lat="28.0849110" lon="-16.6907190">
        <ele>568.2</ele>
        <time>2020-10-16T15:38:24Z</time>
      </trkpt>
      <trkpt lat="28.0848260" lon="-16.6905800">
        <ele>567.0</ele>
        <time>2020-10-16T15:38:25Z</time>
      </trkpt>
      <trkpt lat="28.0846540" lon="-16.6903000">
        <ele>565.4</ele>
        <time>2020-10-16T15:38:27Z</time>
      </trkpt>
      <trkpt lat="28.0844800" lon="-16.6900230">
        <ele>563.8</ele>
        <time>2020-10-16T15:38:29Z</time>
      </trkpt>
      <trkpt lat="28.0843920" lon="-16.6898870">
        <ele>562.6</ele>
        <time>2020-10-16T15:38:30Z</time>
      </trkpt>
      <trkpt lat="28.0843040" lon="-16.6897510">
        <ele>561.6</ele>
        <time>2020-10-16T15:38:31Z</time>
      </trkpt>
      <trkpt lat="28.0842200" lon="-16.6896140">
        <ele>560.6</ele>
        <time>2020-10-16T15:38:32Z</time>
      </trkpt>
      <trkpt lat="28.0841440" lon="-16.6894700">
        <ele>559.4</ele>
        <time>2020-10-16T15:38:33Z</time>
      </trkpt>
      <trkpt lat="28.0840790" lon="-16.6893200">
        <ele>558.2</ele>
        <time>2020-10-16T15:38:34Z</time>
      </trkpt>
      <trkpt lat="28.0840210" lon="-16.6891640">
        <ele>557.4</ele>
        <time>2020-10-16T15:38:35Z</time>
      </trkpt>
      <trkpt lat="28.0839680" lon="-16.6890040">
        <ele>556.0</ele>
        <time>2020-10-16T15:38:36Z</time>
      </trkpt>
      <trkpt lat="28.0839110" lon="-16.6888420">
        <ele>554.8</ele>
        <time>2020-10-16T15:38:37Z</time>
      </trkpt>
      <trkpt lat="28.0837940" lon="-16.6885140">
        <ele>553.0</ele>
        <time>2020-10-16T15:38:39Z</time>
      </trkpt>
      <trkpt lat="28.0836610" lon="-16.6881900">
        <ele>551.2</ele>
        <time>2020-10-16T15:38:41Z</time>
      </trkpt>
      <trkpt lat="28.0835770" lon="-16.6880400">
        <ele>550.2</ele>
        <time>2020-10-16T15:38:42Z</time>
      </trkpt>
      <trkpt lat="28.0834760" lon="-16.6879040">
        <ele>549.4</ele>
        <time>2020-10-16T15:38:43Z</time>
      </trkpt>
      <trkpt lat="28.0832430" lon="-16.6876690">
        <ele>547.6</ele>
        <time>2020-10-16T15:38:45Z</time>
      </trkpt>
      <trkpt lat="28.0831250" lon="-16.6875560">
        <ele>546.6</ele>
        <time>2020-10-16T15:38:46Z</time>
      </trkpt>
      <trkpt lat="28.0829030" lon="-16.6873160">
        <ele>543.2</ele>
        <time>2020-10-16T15:38:48Z</time>
      </trkpt>
      <trkpt lat="28.0828110" lon="-16.6871800">
        <ele>541.6</ele>
        <time>2020-10-16T15:38:49Z</time>
      </trkpt>
      <trkpt lat="28.0827340" lon="-16.6870350">
        <ele>540.2</ele>
        <time>2020-10-16T15:38:50Z</time>
      </trkpt>
      <trkpt lat="28.0826640" lon="-16.6868880">
        <ele>539.4</ele>
        <time>2020-10-16T15:38:51Z</time>
      </trkpt>
      <trkpt lat="28.0825460" lon="-16.6865880">
        <ele>537.8</ele>
        <time>2020-10-16T15:38:53Z</time>
      </trkpt>
      <trkpt lat="28.0824810" lon="-16.6862690">
        <ele>536.6</ele>
        <time>2020-10-16T15:38:55Z</time>
      </trkpt>
      <trkpt lat="28.0824660" lon="-16.6859380">
        <ele>535.0</ele>
        <time>2020-10-16T15:38:57Z</time>
      </trkpt>
      <trkpt lat="28.0824750" lon="-16.6856040">
        <ele>533.6</ele>
        <time>2020-10-16T15:38:59Z</time>
      </trkpt>
      <trkpt lat="28.0824950" lon="-16.6854380">
        <ele>532.8</ele>
        <time>2020-10-16T15:39:00Z</time>
      </trkpt>
      <trkpt lat="28.0825290" lon="-16.6852750">
        <ele>532.0</ele>
        <time>2020-10-16T15:39:01Z</time>
      </trkpt>
      <trkpt lat="28.0825670" lon="-16.6851130">
        <ele>531.0</ele>
        <time>2020-10-16T15:39:02Z</time>
      </trkpt>
      <trkpt lat="28.0826040" lon="-16.6849500">
        <ele>530.0</ele>
        <time>2020-10-16T15:39:03Z</time>
      </trkpt>
      <trkpt lat="28.0826530" lon="-16.6846200">
        <ele>527.8</ele>
        <time>2020-10-16T15:39:05Z</time>
      </trkpt>
      <trkpt lat="28.0826610" lon="-16.6844530">
        <ele>526.6</ele>
        <time>2020-10-16T15:39:06Z</time>
      </trkpt>
      <trkpt lat="28.0826490" lon="-16.6842880">
        <ele>525.4</ele>
        <time>2020-10-16T15:39:07Z</time>
      </trkpt>
      <trkpt lat="28.0826070" lon="-16.6841300">
        <ele>524.2</ele>
        <time>2020-10-16T15:39:08Z</time>
      </trkpt>
      <trkpt lat="28.0825300" lon="-16.6839890">
        <ele>523.0</ele>
        <time>2020-10-16T15:39:09Z</time>
      </trkpt>
      <trkpt lat="28.0824240" lon="-16.6838770">
        <ele>521.8</ele>
        <time>2020-10-16T15:39:10Z</time>
      </trkpt>
      <trkpt lat="28.0822970" lon="-16.6838000">
        <ele>520.4</ele>
        <time>2020-10-16T15:39:11Z</time>
      </trkpt>
      <trkpt lat="28.0821600" lon="-16.6837530">
        <ele>519.0</ele>
        <time>2020-10-16T15:39:12Z</time>
      </trkpt>
      <trkpt lat="28.0820190" lon="-16.6837240">
        <ele>517.8</ele>
        <time>2020-10-16T15:39:13Z</time>
      </trkpt>
      <trkpt lat="28.0818770" lon="-16.6837050">
        <ele>516.4</ele>
        <time>2020-10-16T15:39:14Z</time>
      </trkpt>
      <trkpt lat="28.0817360" lon="-16.6836910">
        <ele>515.2</ele>
        <time>2020-10-16T15:39:15Z</time>
      </trkpt>
      <trkpt lat="28.0815940" lon="-16.6836810">
        <ele>513.8</ele>
        <time>2020-10-16T15:39:16Z</time>
      </trkpt>
      <trkpt lat="28.0814500" lon="-16.6836700">
        <ele>512.4</ele>
        <time>2020-10-16T15:39:17Z</time>
      </trkpt>
      <trkpt lat="28.0813060" lon="-16.6836590">
        <ele>511.2</ele>
        <time>2020-10-16T15:39:18Z</time>
      </trkpt>
      <trkpt lat="28.0811620" lon="-16.6836460">
        <ele>509.8</ele>
        <time>2020-10-16T15:39:19Z</time>
      </trkpt>
      <trkpt lat="28.0810200" lon="-16.6836260">
        <ele>508.8</ele>
        <time>2020-10-16T15:39:20Z</time>
      </trkpt>
      <trkpt lat="28.0808810" lon="-16.6835920">
        <ele>507.8</ele>
        <time>2020-10-16T15:39:21Z</time>
      </trkpt>
      <trkpt lat="28.0807440" lon="-16.6835360">
        <ele>507.2</ele>
        <time>2020-10-16T15:39:22Z</time>
      </trkpt>
      <trkpt lat="28.0806150" lon="-16.6834620">
        <ele>505.8</ele>
        <time>2020-10-16T15:39:23Z</time>
      </trkpt>
      <trkpt lat="28.0804080" lon="-16.6832480">
        <ele>504.2</ele>
        <time>2020-10-16T15:39:25Z</time>
      </trkpt>
      <trkpt lat="28.0802510" lon="-16.6829810">
        <ele>502.6</ele>
        <time>2020-10-16T15:39:27Z</time>
      </trkpt>
      <trkpt lat="28.0801100" lon="-16.6826990">
        <ele>500.6</ele>
        <time>2020-10-16T15:39:29Z</time>
      </trkpt>
      <trkpt lat="28.0800390" lon="-16.6825580">
        <ele>499.6</ele>
        <time>2020-10-16T15:39:30Z</time>
      </trkpt>
      <trkpt lat="28.0799530" lon="-16.6824280">
        <ele>499.0</ele>
        <time>2020-10-16T15:39:31Z</time>
      </trkpt>
      <trkpt lat="28.0798370" lon="-16.6823340">
        <ele>498.0</ele>
        <time>2020-10-16T15:39:32Z</time>
      </trkpt>
      <trkpt lat="28.0797090" lon="-16.6822710">
        <ele>496.8</ele>
        <time>2020-10-16T15:39:33Z</time>
      </trkpt>
      <trkpt lat="28.0795780" lon="-16.6822350">
        <ele>495.8</ele>
        <time>2020-10-16T15:39:34Z</time>
      </trkpt>
      <trkpt lat="28.0794490" lon="-16.6822180">
        <ele>494.8</ele>
        <time>2020-10-16T15:39:35Z</time>
      </trkpt>
      <trkpt lat="28.0793270" lon="-16.6822200">
        <ele>493.6</ele>
        <time>2020-10-16T15:39:36Z</time>
      </trkpt>
      <trkpt lat="28.0792160" lon="-16.6822410">
        <ele>492.6</ele>
        <time>2020-10-16T15:39:37Z</time>
      </trkpt>
      <trkpt lat="28.0791180" lon="-16.6822790">
        <ele>491.4</ele>
        <time>2020-10-16T15:39:38Z</time>
      </trkpt>
      <trkpt lat="28.0790350" lon="-16.6823280">
        <ele>490.2</ele>
        <time>2020-10-16T15:39:39Z</time>
      </trkpt>
      <trkpt lat="28.0789610" lon="-16.6823760">
        <ele>489.0</ele>
        <time>2020-10-16T15:39:40Z</time>
      </trkpt>
      <trkpt lat="28.0788980" lon="-16.6824190">
        <ele>488.2</ele>
        <time>2020-10-16T15:39:41Z</time>
      </trkpt>
      <trkpt lat="28.0788450" lon="-16.6824630">
        <ele>487.4</ele>
        <time>2020-10-16T15:39:42Z</time>
      </trkpt>
      <trkpt lat="28.0788060" lon="-16.6825180">
        <ele>486.2</ele>
        <time>2020-10-16T15:39:43Z</time>
      </trkpt>
      <trkpt lat="28.0787820" lon="-16.6825900">
        <ele>485.0</ele>
        <time>2020-10-16T15:39:44Z</time>
      </trkpt>
      <trkpt lat="28.0787750" lon="-16.6826720">
        <ele>483.8</ele>
        <time>2020-10-16T15:39:45Z</time>
      </trkpt>
      <trkpt lat="28.0787950" lon="-16.6828380">
        <ele>481.8</ele>
        <time>2020-10-16T15:39:47Z</time>
      </trkpt>
      <trkpt lat="28.0788640" lon="-16.6830070">
        <ele>480.0</ele>
        <time>2020-10-16T15:39:49Z</time>
      </trkpt>
      <trkpt lat="28.0789250" lon="-16.6832050">
        <ele>478.8</ele>
        <time>2020-10-16T15:39:51Z</time>
      </trkpt>
      <trkpt lat="28.0789610" lon="-16.6834240">
        <ele>477.2</ele>
        <time>2020-10-16T15:39:53Z</time>
      </trkpt>
      <trkpt lat="28.0789670" lon="-16.6836530">
        <ele>476.4</ele>
        <time>2020-10-16T15:39:55Z</time>
      </trkpt>
      <trkpt lat="28.0789390" lon="-16.6838920">
        <ele>474.2</ele>
        <time>2020-10-16T15:39:57Z</time>
      </trkpt>
      <trkpt lat="28.0789170" lon="-16.6840140">
        <ele>472.8</ele>
        <time>2020-10-16T15:39:58Z</time>
      </trkpt>
      <trkpt lat="28.0788230" lon="-16.6842480">
        <ele>471.8</ele>
        <time>2020-10-16T15:40:00Z</time>
      </trkpt>
      <trkpt lat="28.0786100" lon="-16.6845750">
        <ele>470.8</ele>
        <time>2020-10-16T15:40:03Z</time>
      </trkpt>
      <trkpt lat="28.0784480" lon="-16.6847830">
        <ele>470.0</ele>
        <time>2020-10-16T15:40:05Z</time>
      </trkpt>
      <trkpt lat="28.0782790" lon="-16.6849900">
        <ele>468.4</ele>
        <time>2020-10-16T15:40:07Z</time>
      </trkpt>
      <trkpt lat="28.0781140" lon="-16.6852120">
        <ele>467.0</ele>
        <time>2020-10-16T15:40:09Z</time>
      </trkpt>
      <trkpt lat="28.0779440" lon="-16.6854370">
        <ele>465.6</ele>
        <time>2020-10-16T15:40:11Z</time>
      </trkpt>
      <trkpt lat="28.0777690" lon="-16.6856630">
        <ele>464.4</ele>
        <time>2020-10-16T15:40:13Z</time>
      </trkpt>
      <trkpt lat="28.0775860" lon="-16.6858920">
        <ele>462.6</ele>
        <time>2020-10-16T15:40:15Z</time>
      </trkpt>
      <trkpt lat="28.0773960" lon="-16.6861380">
        <ele>461.0</ele>
        <time>2020-10-16T15:40:17Z</time>
      </trkpt>
      <trkpt lat="28.0772010" lon="-16.6863890">
        <ele>459.4</ele>
        <time>2020-10-16T15:40:19Z</time>
      </trkpt>
      <trkpt lat="28.0770010" lon="-16.6866410">
        <ele>457.4</ele>
        <time>2020-10-16T15:40:21Z</time>
      </trkpt>
      <trkpt lat="28.0769030" lon="-16.6867670">
        <ele>456.0</ele>
        <time>2020-10-16T15:40:22Z</time>
      </trkpt>
      <trkpt lat="28.0768050" lon="-16.6868950">
        <ele>454.6</ele>
        <time>2020-10-16T15:40:23Z</time>
      </trkpt>
      <trkpt lat="28.0767060" lon="-16.6870240">
        <ele>452.4</ele>
        <time>2020-10-16T15:40:24Z</time>
      </trkpt>
      <trkpt lat="28.0766080" lon="-16.6871520">
        <ele>450.8</ele>
        <time>2020-10-16T15:40:25Z</time>
      </trkpt>
      <trkpt lat="28.0765090" lon="-16.6872800">
        <ele>449.8</ele>
        <time>2020-10-16T15:40:26Z</time>
      </trkpt>
      <trkpt lat="28.0763120" lon="-16.6875370">
        <ele>448.6</ele>
        <time>2020-10-16T15:40:28Z</time>
      </trkpt>
      <trkpt lat="28.0761150" lon="-16.6877890">
        <ele>447.2</ele>
        <time>2020-10-16T15:40:30Z</time>
      </trkpt>
      <trkpt lat="28.0760160" lon="-16.6879120">
        <ele>446.2</ele>
        <time>2020-10-16T15:40:31Z</time>
      </trkpt>
      <trkpt lat="28.0759120" lon="-16.6880290">
        <ele>444.6</ele>
        <time>2020-10-16T15:40:32Z</time>
      </trkpt>
      <trkpt lat="28.0758020" lon="-16.6881370">
        <ele>443.6</ele>
        <time>2020-10-16T15:40:33Z</time>
      </trkpt>
      <trkpt lat="28.0756850" lon="-16.6882370">
        <ele>442.6</ele>
        <time>2020-10-16T15:40:34Z</time>
      </trkpt>
      <trkpt lat="28.0755600" lon="-16.6883240">
        <ele>441.4</ele>
        <time>2020-10-16T15:40:35Z</time>
      </trkpt>
      <trkpt lat="28.0752920" lon="-16.6884680">
        <ele>439.4</ele>
        <time>2020-10-16T15:40:37Z</time>
      </trkpt>
      <trkpt lat="28.0750180" lon="-16.6885970">
        <ele>437.8</ele>
        <time>2020-10-16T15:40:39Z</time>
      </trkpt>
      <trkpt lat="28.0747450" lon="-16.6887220">
        <ele>436.4</ele>
        <time>2020-10-16T15:40:41Z</time>
      </trkpt>
      <trkpt lat="28.0746160" lon="-16.6887960">
        <ele>435.4</ele>
        <time>2020-10-16T15:40:42Z</time>
      </trkpt>
      <trkpt lat="28.0744950" lon="-16.6888860">
        <ele>434.6</ele>
        <time>2020-10-16T15:40:43Z</time>
      </trkpt>
      <trkpt lat="28.0742740" lon="-16.6891010">
        <ele>432.6</ele>
        <time>2020-10-16T15:40:45Z</time>
      </trkpt>
      <trkpt lat="28.0740990" lon="-16.6893540">
        <ele>430.8</ele>
        <time>2020-10-16T15:40:47Z</time>
      </trkpt>
      <trkpt lat="28.0740430" lon="-16.6894980">
        <ele>429.8</ele>
        <time>2020-10-16T15:40:48Z</time>
      </trkpt>
      <trkpt lat="28.0740090" lon="-16.6896490">
        <ele>428.6</ele>
        <time>2020-10-16T15:40:49Z</time>
      </trkpt>
      <trkpt lat="28.0739870" lon="-16.6898030">
        <ele>427.6</ele>
        <time>2020-10-16T15:40:50Z</time>
      </trkpt>
      <trkpt lat="28.0739530" lon="-16.6901080">
        <ele>426.2</ele>
        <time>2020-10-16T15:40:52Z</time>
      </trkpt>
      <trkpt lat="28.0739380" lon="-16.6902630">
        <ele>425.2</ele>
        <time>2020-10-16T15:40:53Z</time>
      </trkpt>
      <trkpt lat="28.0739220" lon="-16.6904180">
        <ele>424.2</ele>
        <time>2020-10-16T15:40:54Z</time>
      </trkpt>
      <trkpt lat="28.0739060" lon="-16.6905730">
        <ele>422.8</ele>
        <time>2020-10-16T15:40:55Z</time>
      </trkpt>
      <trkpt lat="28.0738890" lon="-16.6907290">
        <ele>421.4</ele>
        <time>2020-10-16T15:40:56Z</time>
      </trkpt>
      <trkpt lat="28.0738670" lon="-16.6908830">
        <ele>420.2</ele>
        <time>2020-10-16T15:40:57Z</time>
      </trkpt>
      <trkpt lat="28.0738350" lon="-16.6910340">
        <ele>419.0</ele>
        <time>2020-10-16T15:40:58Z</time>
      </trkpt>
      <trkpt lat="28.0737880" lon="-16.6911790">
        <ele>418.0</ele>
        <time>2020-10-16T15:40:59Z</time>
      </trkpt>
      <trkpt lat="28.0737240" lon="-16.6913140">
        <ele>417.4</ele>
        <time>2020-10-16T15:41:00Z</time>
      </trkpt>
      <trkpt lat="28.0735370" lon="-16.6915360">
        <ele>415.8</ele>
        <time>2020-10-16T15:41:02Z</time>
      </trkpt>
      <trkpt lat="28.0733010" lon="-16.6917050">
        <ele>414.0</ele>
        <time>2020-10-16T15:41:04Z</time>
      </trkpt>
      <trkpt lat="28.0730490" lon="-16.6918550">
        <ele>411.4</ele>
        <time>2020-10-16T15:41:06Z</time>
      </trkpt>
      <trkpt lat="28.0727900" lon="-16.6920020">
        <ele>409.6</ele>
        <time>2020-10-16T15:41:08Z</time>
      </trkpt>
      <trkpt lat="28.0725390" lon="-16.6921700">
        <ele>408.2</ele>
        <time>2020-10-16T15:41:10Z</time>
      </trkpt>
      <trkpt lat="28.0724200" lon="-16.6922670">
        <ele>407.0</ele>
        <time>2020-10-16T15:41:11Z</time>
      </trkpt>
      <trkpt lat="28.0723090" lon="-16.6923760">
        <ele>406.4</ele>
        <time>2020-10-16T15:41:12Z</time>
      </trkpt>
      <trkpt lat="28.0722080" lon="-16.6924970">
        <ele>405.8</ele>
        <time>2020-10-16T15:41:13Z</time>
      </trkpt>
      <trkpt lat="28.0720380" lon="-16.6927680">
        <ele>404.4</ele>
        <time>2020-10-16T15:41:15Z</time>
      </trkpt>
      <trkpt lat="28.0719340" lon="-16.6930740">
        <ele>403.0</ele>
        <time>2020-10-16T15:41:17Z</time>
      </trkpt>
      <trkpt lat="28.0719110" lon="-16.6933990">
        <ele>401.2</ele>
        <time>2020-10-16T15:41:19Z</time>
      </trkpt>
      <trkpt lat="28.0719430" lon="-16.6937240">
        <ele>399.2</ele>
        <time>2020-10-16T15:41:21Z</time>
      </trkpt>
      <trkpt lat="28.0719690" lon="-16.6938850">
        <ele>398.0</ele>
        <time>2020-10-16T15:41:22Z</time>
      </trkpt>
      <trkpt lat="28.0719990" lon="-16.6940450">
        <ele>397.2</ele>
        <time>2020-10-16T15:41:23Z</time>
      </trkpt>
      <trkpt lat="28.0720320" lon="-16.6942020">
        <ele>396.0</ele>
        <time>2020-10-16T15:41:24Z</time>
      </trkpt>
      <trkpt lat="28.0720690" lon="-16.6943560">
        <ele>395.0</ele>
        <time>2020-10-16T15:41:25Z</time>
      </trkpt>
      <trkpt lat="28.0721510" lon="-16.6946610">
        <ele>393.2</ele>
        <time>2020-10-16T15:41:27Z</time>
      </trkpt>
      <trkpt lat="28.0722300" lon="-16.6949650">
        <ele>391.6</ele>
        <time>2020-10-16T15:41:29Z</time>
      </trkpt>
      <trkpt lat="28.0722950" lon="-16.6952720">
        <ele>389.8</ele>
        <time>2020-10-16T15:41:31Z</time>
      </trkpt>
      <trkpt lat="28.0723220" lon="-16.6954240">
        <ele>388.6</ele>
        <time>2020-10-16T15:41:32Z</time>
      </trkpt>
      <trkpt lat="28.0723500" lon="-16.6955760">
        <ele>387.6</ele>
        <time>2020-10-16T15:41:33Z</time>
      </trkpt>
      <trkpt lat="28.0724040" lon="-16.6958790">
        <ele>385.8</ele>
        <time>2020-10-16T15:41:35Z</time>
      </trkpt>
      <trkpt lat="28.0724310" lon="-16.6961850">
        <ele>384.0</ele>
        <time>2020-10-16T15:41:37Z</time>
      </trkpt>
      <trkpt lat="28.0724260" lon="-16.6963390">
        <ele>382.8</ele>
        <time>2020-10-16T15:41:38Z</time>
      </trkpt>
      <trkpt lat="28.0723730" lon="-16.6966400">
        <ele>380.8</ele>
        <time>2020-10-16T15:41:40Z</time>
      </trkpt>
      <trkpt lat="28.0723270" lon="-16.6967850">
        <ele>379.2</ele>
        <time>2020-10-16T15:41:41Z</time>
      </trkpt>
      <trkpt lat="28.0722000" lon="-16.6970520">
        <ele>377.6</ele>
        <time>2020-10-16T15:41:43Z</time>
      </trkpt>
      <trkpt lat="28.0721290" lon="-16.6971780">
        <ele>376.8</ele>
        <time>2020-10-16T15:41:44Z</time>
      </trkpt>
      <trkpt lat="28.0720580" lon="-16.6973030">
        <ele>375.6</ele>
        <time>2020-10-16T15:41:45Z</time>
      </trkpt>
      <trkpt lat="28.0719160" lon="-16.6975550">
        <ele>374.2</ele>
        <time>2020-10-16T15:41:47Z</time>
      </trkpt>
      <trkpt lat="28.0717730" lon="-16.6978110">
        <ele>373.0</ele>
        <time>2020-10-16T15:41:49Z</time>
      </trkpt>
      <trkpt lat="28.0716270" lon="-16.6980700">
        <ele>371.2</ele>
        <time>2020-10-16T15:41:51Z</time>
      </trkpt>
      <trkpt lat="28.0714790" lon="-16.6983270">
        <ele>369.6</ele>
        <time>2020-10-16T15:41:53Z</time>
      </trkpt>
      <trkpt lat="28.0713300" lon="-16.6985820">
        <ele>368.0</ele>
        <time>2020-10-16T15:41:55Z</time>
      </trkpt>
      <trkpt lat="28.0711870" lon="-16.6988340">
        <ele>366.2</ele>
        <time>2020-10-16T15:41:57Z</time>
      </trkpt>
      <trkpt lat="28.0710440" lon="-16.6990810">
        <ele>364.6</ele>
        <time>2020-10-16T15:41:59Z</time>
      </trkpt>
      <trkpt lat="28.0709060" lon="-16.6993270">
        <ele>362.8</ele>
        <time>2020-10-16T15:42:01Z</time>
      </trkpt>
      <trkpt lat="28.0708400" lon="-16.6994500">
        <ele>361.6</ele>
        <time>2020-10-16T15:42:02Z</time>
      </trkpt>
      <trkpt lat="28.0707760" lon="-16.6995740">
        <ele>360.6</ele>
        <time>2020-10-16T15:42:03Z</time>
      </trkpt>
      <trkpt lat="28.0706600" lon="-16.6998240">
        <ele>358.8</ele>
        <time>2020-10-16T15:42:05Z</time>
      </trkpt>
      <trkpt lat="28.0705570" lon="-16.7000770">
        <ele>357.2</ele>
        <time>2020-10-16T15:42:07Z</time>
      </trkpt>
      <trkpt lat="28.0704660" lon="-16.7003340">
        <ele>355.2</ele>
        <time>2020-10-16T15:42:09Z</time>
      </trkpt>
      <trkpt lat="28.0704300" lon="-16.7004650">
        <ele>354.2</ele>
        <time>2020-10-16T15:42:10Z</time>
      </trkpt>
      <trkpt lat="28.0703760" lon="-16.7007340">
        <ele>352.4</ele>
        <time>2020-10-16T15:42:12Z</time>
      </trkpt>
      <trkpt lat="28.0703310" lon="-16.7010060">
        <ele>350.8</ele>
        <time>2020-10-16T15:42:14Z</time>
      </trkpt>
      <trkpt lat="28.0703120" lon="-16.7011410">
        <ele>349.6</ele>
        <time>2020-10-16T15:42:15Z</time>
      </trkpt>
      <trkpt lat="28.0702910" lon="-16.7014150">
        <ele>347.6</ele>
        <time>2020-10-16T15:42:17Z</time>
      </trkpt>
      <trkpt lat="28.0702890" lon="-16.7016890">
        <ele>345.8</ele>
        <time>2020-10-16T15:42:19Z</time>
      </trkpt>
      <trkpt lat="28.0702940" lon="-16.7019650">
        <ele>343.6</ele>
        <time>2020-10-16T15:42:21Z</time>
      </trkpt>
      <trkpt lat="28.0703140" lon="-16.7022390">
        <ele>341.8</ele>
        <time>2020-10-16T15:42:23Z</time>
      </trkpt>
      <trkpt lat="28.0703480" lon="-16.7025100">
        <ele>340.0</ele>
        <time>2020-10-16T15:42:25Z</time>
      </trkpt>
      <trkpt lat="28.0703710" lon="-16.7026440">
        <ele>339.0</ele>
        <time>2020-10-16T15:42:26Z</time>
      </trkpt>
      <trkpt lat="28.0704240" lon="-16.7029140">
        <ele>337.4</ele>
        <time>2020-10-16T15:42:28Z</time>
      </trkpt>
      <trkpt lat="28.0704790" lon="-16.7031850">
        <ele>336.0</ele>
        <time>2020-10-16T15:42:30Z</time>
      </trkpt>
      <trkpt lat="28.0705350" lon="-16.7034610">
        <ele>334.8</ele>
        <time>2020-10-16T15:42:32Z</time>
      </trkpt>
      <trkpt lat="28.0705900" lon="-16.7037430">
        <ele>333.0</ele>
        <time>2020-10-16T15:42:34Z</time>
      </trkpt>
      <trkpt lat="28.0706500" lon="-16.7040290">
        <ele>331.8</ele>
        <time>2020-10-16T15:42:36Z</time>
      </trkpt>
      <trkpt lat="28.0707130" lon="-16.7043200">
        <ele>330.0</ele>
        <time>2020-10-16T15:42:38Z</time>
      </trkpt>
      <trkpt lat="28.0707700" lon="-16.7046160">
        <ele>328.6</ele>
        <time>2020-10-16T15:42:40Z</time>
      </trkpt>
      <trkpt lat="28.0708110" lon="-16.7049170">
        <ele>326.8</ele>
        <time>2020-10-16T15:42:42Z</time>
      </trkpt>
      <trkpt lat="28.0708220" lon="-16.7052200">
        <ele>325.4</ele>
        <time>2020-10-16T15:42:44Z</time>
      </trkpt>
      <trkpt lat="28.0708090" lon="-16.7055240">
        <ele>324.0</ele>
        <time>2020-10-16T15:42:46Z</time>
      </trkpt>
      <trkpt lat="28.0707710" lon="-16.7058260">
        <ele>322.2</ele>
        <time>2020-10-16T15:42:48Z</time>
      </trkpt>
      <trkpt lat="28.0707390" lon="-16.7059740">
        <ele>321.2</ele>
        <time>2020-10-16T15:42:49Z</time>
      </trkpt>
      <trkpt lat="28.0706990" lon="-16.7061200">
        <ele>319.6</ele>
        <time>2020-10-16T15:42:50Z</time>
      </trkpt>
      <trkpt lat="28.0706090" lon="-16.7064080">
        <ele>317.8</ele>
        <time>2020-10-16T15:42:52Z</time>
      </trkpt>
      <trkpt lat="28.0705180" lon="-16.7066920">
        <ele>316.0</ele>
        <time>2020-10-16T15:42:54Z</time>
      </trkpt>
      <trkpt lat="28.0704210" lon="-16.7069750">
        <ele>314.8</ele>
        <time>2020-10-16T15:42:56Z</time>
      </trkpt>
      <trkpt lat="28.0703340" lon="-16.7072600">
        <ele>313.2</ele>
        <time>2020-10-16T15:42:58Z</time>
      </trkpt>
      <trkpt lat="28.0702640" lon="-16.7075530">
        <ele>311.2</ele>
        <time>2020-10-16T15:43:00Z</time>
      </trkpt>
      <trkpt lat="28.0702400" lon="-16.7077030">
        <ele>310.2</ele>
        <time>2020-10-16T15:43:01Z</time>
      </trkpt>
      <trkpt lat="28.0702110" lon="-16.7080020">
        <ele>308.4</ele>
        <time>2020-10-16T15:43:03Z</time>
      </trkpt>
      <trkpt lat="28.0702050" lon="-16.7081520">
        <ele>307.4</ele>
        <time>2020-10-16T15:43:04Z</time>
      </trkpt>
      <trkpt lat="28.0702020" lon="-16.7084500">
        <ele>305.6</ele>
        <time>2020-10-16T15:43:06Z</time>
      </trkpt>
      <trkpt lat="28.0702000" lon="-16.7087460">
        <ele>303.8</ele>
        <time>2020-10-16T15:43:08Z</time>
      </trkpt>
      <trkpt lat="28.0702000" lon="-16.7090420">
        <ele>302.0</ele>
        <time>2020-10-16T15:43:10Z</time>
      </trkpt>
      <trkpt lat="28.0702010" lon="-16.7093380">
        <ele>300.6</ele>
        <time>2020-10-16T15:43:12Z</time>
      </trkpt>
      <trkpt lat="28.0702000" lon="-16.7096320">
        <ele>299.0</ele>
        <time>2020-10-16T15:43:14Z</time>
      </trkpt>
      <trkpt lat="28.0701970" lon="-16.7099230">
        <ele>297.6</ele>
        <time>2020-10-16T15:43:16Z</time>
      </trkpt>
      <trkpt lat="28.0701950" lon="-16.7102130">
        <ele>296.0</ele>
        <time>2020-10-16T15:43:18Z</time>
      </trkpt>
      <trkpt lat="28.0701840" lon="-16.7105040">
        <ele>294.6</ele>
        <time>2020-10-16T15:43:20Z</time>
      </trkpt>
      <trkpt lat="28.0701510" lon="-16.7107940">
        <ele>293.2</ele>
        <time>2020-10-16T15:43:22Z</time>
      </trkpt>
      <trkpt lat="28.0701250" lon="-16.7109380">
        <ele>292.2</ele>
        <time>2020-10-16T15:43:23Z</time>
      </trkpt>
      <trkpt lat="28.0700920" lon="-16.7110820">
        <ele>290.8</ele>
        <time>2020-10-16T15:43:24Z</time>
      </trkpt>
      <trkpt lat="28.0700070" lon="-16.7113660">
        <ele>289.4</ele>
        <time>2020-10-16T15:43:26Z</time>
      </trkpt>
      <trkpt lat="28.0699550" lon="-16.7115060">
        <ele>288.6</ele>
        <time>2020-10-16T15:43:27Z</time>
      </trkpt>
      <trkpt lat="28.0698300" lon="-16.7117750">
        <ele>287.2</ele>
        <time>2020-10-16T15:43:29Z</time>
      </trkpt>
      <trkpt lat="28.0696740" lon="-16.7120330">
        <ele>285.6</ele>
        <time>2020-10-16T15:43:31Z</time>
      </trkpt>
      <trkpt lat="28.0694960" lon="-16.7122690">
        <ele>284.0</ele>
        <time>2020-10-16T15:43:33Z</time>
      </trkpt>
      <trkpt lat="28.0692970" lon="-16.7124860">
        <ele>282.2</ele>
        <time>2020-10-16T15:43:35Z</time>
      </trkpt>
      <trkpt lat="28.0690740" lon="-16.7126780">
        <ele>280.2</ele>
        <time>2020-10-16T15:43:37Z</time>
      </trkpt>
      <trkpt lat="28.0689550" lon="-16.7127650">
        <ele>279.2</ele>
        <time>2020-10-16T15:43:38Z</time>
      </trkpt>
      <trkpt lat="28.0688310" lon="-16.7128450">
        <ele>278.0</ele>
        <time>2020-10-16T15:43:39Z</time>
      </trkpt>
      <trkpt lat="28.0687020" lon="-16.7129180">
        <ele>276.8</ele>
        <time>2020-10-16T15:43:40Z</time>
      </trkpt>
      <trkpt lat="28.0684360" lon="-16.7130390">
        <ele>275.0</ele>
        <time>2020-10-16T15:43:42Z</time>
      </trkpt>
      <trkpt lat="28.0681610" lon="-16.7131230">
        <ele>273.4</ele>
        <time>2020-10-16T15:43:44Z</time>
      </trkpt>
      <trkpt lat="28.0678770" lon="-16.7131740">
        <ele>271.6</ele>
        <time>2020-10-16T15:43:46Z</time>
      </trkpt>
      <trkpt lat="28.0675870" lon="-16.7131920">
        <ele>269.4</ele>
        <time>2020-10-16T15:43:48Z</time>
      </trkpt>
      <trkpt lat="28.0674420" lon="-16.7131870">
        <ele>268.4</ele>
        <time>2020-10-16T15:43:49Z</time>
      </trkpt>
      <trkpt lat="28.0671540" lon="-16.7131460">
        <ele>266.4</ele>
        <time>2020-10-16T15:43:51Z</time>
      </trkpt>
      <trkpt lat="28.0670120" lon="-16.7131110">
        <ele>265.4</ele>
        <time>2020-10-16T15:43:52Z</time>
      </trkpt>
      <trkpt lat="28.0668720" lon="-16.7130670">
        <ele>264.4</ele>
        <time>2020-10-16T15:43:53Z</time>
      </trkpt>
      <trkpt lat="28.0665980" lon="-16.7129430">
        <ele>262.6</ele>
        <time>2020-10-16T15:43:55Z</time>
      </trkpt>
      <trkpt lat="28.0663370" lon="-16.7127820">
        <ele>260.6</ele>
        <time>2020-10-16T15:43:57Z</time>
      </trkpt>
      <trkpt lat="28.0662120" lon="-16.7126900">
        <ele>259.6</ele>
        <time>2020-10-16T15:43:58Z</time>
      </trkpt>
      <trkpt lat="28.0660890" lon="-16.7125930">
        <ele>257.4</ele>
        <time>2020-10-16T15:43:59Z</time>
      </trkpt>
      <trkpt lat="28.0659680" lon="-16.7124920">
        <ele>256.4</ele>
        <time>2020-10-16T15:44:00Z</time>
      </trkpt>
      <trkpt lat="28.0658490" lon="-16.7123880">
        <ele>255.2</ele>
        <time>2020-10-16T15:44:01Z</time>
      </trkpt>
      <trkpt lat="28.0657340" lon="-16.7122780">
        <ele>254.0</ele>
        <time>2020-10-16T15:44:02Z</time>
      </trkpt>
      <trkpt lat="28.0656250" lon="-16.7121610">
        <ele>252.8</ele>
        <time>2020-10-16T15:44:03Z</time>
      </trkpt>
      <trkpt lat="28.0655270" lon="-16.7120350">
        <ele>251.6</ele>
        <time>2020-10-16T15:44:04Z</time>
      </trkpt>
      <trkpt lat="28.0654400" lon="-16.7119070">
        <ele>250.6</ele>
        <time>2020-10-16T15:44:05Z</time>
      </trkpt>
      <trkpt lat="28.0653070" lon="-16.7116990">
        <ele>248.4</ele>
        <time>2020-10-16T15:44:07Z</time>
      </trkpt>
      <trkpt lat="28.0652490" lon="-16.7116110">
        <ele>247.2</ele>
        <time>2020-10-16T15:44:08Z</time>
      </trkpt>
      <trkpt lat="28.0651890" lon="-16.7115210">
        <ele>246.0</ele>
        <time>2020-10-16T15:44:09Z</time>
      </trkpt>
      <trkpt lat="28.0651260" lon="-16.7114250">
        <ele>244.8</ele>
        <time>2020-10-16T15:44:10Z</time>
      </trkpt>
      <trkpt lat="28.0650580" lon="-16.7113240">
        <ele>243.6</ele>
        <time>2020-10-16T15:44:11Z</time>
      </trkpt>
      <trkpt lat="28.0649020" lon="-16.7111280">
        <ele>241.8</ele>
        <time>2020-10-16T15:44:13Z</time>
      </trkpt>
      <trkpt lat="28.0648070" lon="-16.7110420">
        <ele>240.8</ele>
        <time>2020-10-16T15:44:14Z</time>
      </trkpt>
      <trkpt lat="28.0646990" lon="-16.7109710">
        <ele>239.8</ele>
        <time>2020-10-16T15:44:15Z</time>
      </trkpt>
      <trkpt lat="28.0644570" lon="-16.7108660">
        <ele>238.2</ele>
        <time>2020-10-16T15:44:17Z</time>
      </trkpt>
      <trkpt lat="28.0643270" lon="-16.7108280">
        <ele>237.2</ele>
        <time>2020-10-16T15:44:18Z</time>
      </trkpt>
      <trkpt lat="28.0642000" lon="-16.7108080">
        <ele>236.4</ele>
        <time>2020-10-16T15:44:19Z</time>
      </trkpt>
      <trkpt lat="28.0639750" lon="-16.7108250">
        <ele>234.8</ele>
        <time>2020-10-16T15:44:21Z</time>
      </trkpt>
      <trkpt lat="28.0638200" lon="-16.7109290">
        <ele>233.2</ele>
        <time>2020-10-16T15:44:23Z</time>
      </trkpt>
      <trkpt lat="28.0637360" lon="-16.7110940">
        <ele>231.4</ele>
        <time>2020-10-16T15:44:25Z</time>
      </trkpt>
      <trkpt lat="28.0636320" lon="-16.7112570">
        <ele>230.0</ele>
        <time>2020-10-16T15:44:27Z</time>
      </trkpt>
      <trkpt lat="28.0634640" lon="-16.7113160">
        <ele>228.2</ele>
        <time>2020-10-16T15:44:29Z</time>
      </trkpt>
      <trkpt lat="28.0632800" lon="-16.7113000">
        <ele>226.6</ele>
        <time>2020-10-16T15:44:31Z</time>
      </trkpt>
      <trkpt lat="28.0631900" lon="-16.7112900">
        <ele>225.8</ele>
        <time>2020-10-16T15:44:32Z</time>
      </trkpt>
      <trkpt lat="28.0631050" lon="-16.7112820">
        <ele>224.2</ele>
        <time>2020-10-16T15:44:33Z</time>
      </trkpt>
      <trkpt lat="28.0629370" lon="-16.7112520">
        <ele>222.8</ele>
        <time>2020-10-16T15:44:35Z</time>
      </trkpt>
      <trkpt lat="28.0627780" lon="-16.7111880">
        <ele>221.6</ele>
        <time>2020-10-16T15:44:37Z</time>
      </trkpt>
      <trkpt lat="28.0626980" lon="-16.7111630">
        <ele>220.8</ele>
        <time>2020-10-16T15:44:38Z</time>
      </trkpt>
      <trkpt lat="28.0626140" lon="-16.7111510">
        <ele>220.0</ele>
        <time>2020-10-16T15:44:39Z</time>
      </trkpt>
      <trkpt lat="28.0624320" lon="-16.7111580">
        <ele>218.8</ele>
        <time>2020-10-16T15:44:41Z</time>
      </trkpt>
      <trkpt lat="28.0622400" lon="-16.7111760">
        <ele>218.0</ele>
        <time>2020-10-16T15:44:43Z</time>
      </trkpt>
      <trkpt lat="28.0618170" lon="-16.7111970">
        <ele>216.6</ele>
        <time>2020-10-16T15:44:47Z</time>
      </trkpt>
      <trkpt lat="28.0614680" lon="-16.7112070">
        <ele>215.4</ele>
        <time>2020-10-16T15:44:50Z</time>
      </trkpt>
      <trkpt lat="28.0612050" lon="-16.7112110">
        <ele>213.8</ele>
        <time>2020-10-16T15:44:52Z</time>
      </trkpt>
      <trkpt lat="28.0609230" lon="-16.7111990">
        <ele>212.2</ele>
        <time>2020-10-16T15:44:54Z</time>
      </trkpt>
      <trkpt lat="28.0606370" lon="-16.7111560">
        <ele>211.0</ele>
        <time>2020-10-16T15:44:56Z</time>
      </trkpt>
      <trkpt lat="28.0603450" lon="-16.7110940">
        <ele>209.6</ele>
        <time>2020-10-16T15:44:58Z</time>
      </trkpt>
      <trkpt lat="28.0600470" lon="-16.7110310">
        <ele>208.6</ele>
        <time>2020-10-16T15:45:00Z</time>
      </trkpt>
      <trkpt lat="28.0597440" lon="-16.7109860">
        <ele>206.8</ele>
        <time>2020-10-16T15:45:02Z</time>
      </trkpt>
      <trkpt lat="28.0594320" lon="-16.7109920">
        <ele>205.0</ele>
        <time>2020-10-16T15:45:04Z</time>
      </trkpt>
      <trkpt lat="28.0592710" lon="-16.7110180">
        <ele>203.6</ele>
        <time>2020-10-16T15:45:05Z</time>
      </trkpt>
      <trkpt lat="28.0591110" lon="-16.7110620">
        <ele>202.8</ele>
        <time>2020-10-16T15:45:06Z</time>
      </trkpt>
      <trkpt lat="28.0589500" lon="-16.7111160">
        <ele>202.2</ele>
        <time>2020-10-16T15:45:07Z</time>
      </trkpt>
      <trkpt lat="28.0587880" lon="-16.7111740">
        <ele>200.0</ele>
        <time>2020-10-16T15:45:08Z</time>
      </trkpt>
      <trkpt lat="28.0586270" lon="-16.7112260">
        <ele>199.0</ele>
        <time>2020-10-16T15:45:09Z</time>
      </trkpt>
      <trkpt lat="28.0584690" lon="-16.7112750">
        <ele>197.8</ele>
        <time>2020-10-16T15:45:10Z</time>
      </trkpt>
      <trkpt lat="28.0583130" lon="-16.7113210">
        <ele>196.6</ele>
        <time>2020-10-16T15:45:11Z</time>
      </trkpt>
      <trkpt lat="28.0581590" lon="-16.7113660">
        <ele>195.2</ele>
        <time>2020-10-16T15:45:12Z</time>
      </trkpt>
      <trkpt lat="28.0580070" lon="-16.7114100">
        <ele>193.6</ele>
        <time>2020-10-16T15:45:13Z</time>
      </trkpt>
      <trkpt lat="28.0578570" lon="-16.7114530">
        <ele>191.4</ele>
        <time>2020-10-16T15:45:14Z</time>
      </trkpt>
      <trkpt lat="28.0577090" lon="-16.7114950">
        <ele>189.6</ele>
        <time>2020-10-16T15:45:15Z</time>
      </trkpt>
      <trkpt lat="28.0575650" lon="-16.7115380">
        <ele>187.8</ele>
        <time>2020-10-16T15:45:16Z</time>
      </trkpt>
      <trkpt lat="28.0574200" lon="-16.7115780">
        <ele>186.4</ele>
        <time>2020-10-16T15:45:17Z</time>
      </trkpt>
      <trkpt lat="28.0572770" lon="-16.7116190">
        <ele>185.4</ele>
        <time>2020-10-16T15:45:18Z</time>
      </trkpt>
      <trkpt lat="28.0569950" lon="-16.7117030">
        <ele>184.0</ele>
        <time>2020-10-16T15:45:20Z</time>
      </trkpt>
      <trkpt lat="28.0567220" lon="-16.7117820">
        <ele>182.2</ele>
        <time>2020-10-16T15:45:22Z</time>
      </trkpt>
      <trkpt lat="28.0565940" lon="-16.7118200">
        <ele>181.0</ele>
        <time>2020-10-16T15:45:23Z</time>
      </trkpt>
      <trkpt lat="28.0563580" lon="-16.7118880">
        <ele>179.4</ele>
        <time>2020-10-16T15:45:25Z</time>
      </trkpt>
      <trkpt lat="28.0561580" lon="-16.7119400">
        <ele>177.8</ele>
        <time>2020-10-16T15:45:27Z</time>
      </trkpt>
      <trkpt lat="28.0560190" lon="-16.7119790">
        <ele>176.2</ele>
        <time>2020-10-16T15:45:29Z</time>
      </trkpt>
      <trkpt lat="28.0559440" lon="-16.7120110">
        <ele>175.4</ele>
        <time>2020-10-16T15:45:31Z</time>
      </trkpt>
      <trkpt lat="28.0558610" lon="-16.7121290">
        <ele>174.4</ele>
        <time>2020-10-16T15:45:35Z</time>
      </trkpt>
      <trkpt lat="28.0557780" lon="-16.7122820">
        <ele>174.2</ele>
        <time>2020-10-16T15:45:38Z</time>
      </trkpt>
      <trkpt lat="28.0555340" lon="-16.7124010">
        <ele>173.4</ele>
        <time>2020-10-16T15:45:42Z</time>
      </trkpt>
      <trkpt lat="28.0551510" lon="-16.7123300">
        <ele>172.6</ele>
        <time>2020-10-16T15:45:48Z</time>
      </trkpt>
      <trkpt lat="28.0550840" lon="-16.7123450">
        <ele>172.4</ele>
        <time>2020-10-16T15:45:49Z</time>
      </trkpt>
      <trkpt lat="28.0547470" lon="-16.7124510">
        <ele>172.4</ele>
        <time>2020-10-16T15:45:54Z</time>
      </trkpt>
      <trkpt lat="28.0544060" lon="-16.7125230">
        <ele>171.6</ele>
        <time>2020-10-16T15:45:59Z</time>
      </trkpt>
      <trkpt lat="28.0540270" lon="-16.7126400">
        <ele>170.6</ele>
        <time>2020-10-16T15:46:05Z</time>
      </trkpt>
      <trkpt lat="28.0539710" lon="-16.7126640">
        <ele>170.4</ele>
        <time>2020-10-16T15:46:06Z</time>
      </trkpt>
    </trkseg>
  </trk>
</gpx>
